<?xml version="1.0"?>
<gpx
 version="1.0"
 creator="Tracky"
 xmlns:xsi="http://www.w3.org/2001/XMLSchema-instance"
 xmlns="http://www.topografix.com/GPX/1/0"
 xsi:schemaLocation="http://www.topografix.com/GPX/1/0 http://www.topografix.com/GPX/1/0/gpx.xsd">
<time>2009-12-30T08:44:25Z</time>
<bounds minlat="37.949190" minlon="-1.071886" maxlat="37.977567" maxlon="-1.045188"/>
<trk>
 <color>47734</color>
 <width>2</width>
<trkseg>
<trkpt lat="37.977517" lon="-1.053993">
 <ele>24.100000</ele>
<time>2009-12-30T08:44:24Z</time>
</trkpt>
<trkpt lat="37.977517" lon="-1.053993">
 <ele>24.100000</ele>
<time>2009-12-30T08:44:25Z</time>
</trkpt>
<trkpt lat="37.977517" lon="-1.053993">
 <ele>24.100000</ele>
<time>2009-12-30T08:44:26Z</time>
</trkpt>
<trkpt lat="37.977517" lon="-1.053993">
 <ele>24.100000</ele>
<time>2009-12-30T08:44:27Z</time>
</trkpt>
<trkpt lat="37.977517" lon="-1.053993">
 <ele>24.100000</ele>
<time>2009-12-30T08:44:28Z</time>
</trkpt>
<trkpt lat="37.977514" lon="-1.053984">
 <ele>23.340000</ele>
<time>2009-12-30T08:44:29Z</time>
</trkpt>
<trkpt lat="37.977500" lon="-1.053933">
 <ele>24.120000</ele>
<time>2009-12-30T08:44:32Z</time>
</trkpt>
<trkpt lat="37.977499" lon="-1.053959">
 <ele>21.300000</ele>
<time>2009-12-30T08:44:33Z</time>
</trkpt>
<trkpt lat="37.977521" lon="-1.053951">
 <ele>23.900000</ele>
<time>2009-12-30T08:44:34Z</time>
</trkpt>
<trkpt lat="37.977567" lon="-1.053955">
 <ele>23.960000</ele>
<time>2009-12-30T08:44:37Z</time>
</trkpt>
<trkpt lat="37.977513" lon="-1.053951">
 <ele>23.860000</ele>
<time>2009-12-30T08:44:39Z</time>
</trkpt>
<trkpt lat="37.977519" lon="-1.053945">
 <ele>23.360000</ele>
<time>2009-12-30T08:44:40Z</time>
</trkpt>
<trkpt lat="37.977504" lon="-1.053963">
 <ele>23.500000</ele>
<time>2009-12-30T08:44:41Z</time>
</trkpt>
<trkpt lat="37.977531" lon="-1.053952">
 <ele>22.720000</ele>
<time>2009-12-30T08:44:42Z</time>
</trkpt>
<trkpt lat="37.977518" lon="-1.053963">
 <ele>23.440000</ele>
<time>2009-12-30T08:44:43Z</time>
</trkpt>
<trkpt lat="37.977506" lon="-1.053958">
 <ele>22.680000</ele>
<time>2009-12-30T08:44:44Z</time>
</trkpt>
<trkpt lat="37.977513" lon="-1.053958">
 <ele>22.840000</ele>
<time>2009-12-30T08:44:45Z</time>
</trkpt>
<trkpt lat="37.977513" lon="-1.053958">
 <ele>23.000000</ele>
<time>2009-12-30T08:44:46Z</time>
</trkpt>
<trkpt lat="37.977506" lon="-1.053957">
 <ele>22.720000</ele>
<time>2009-12-30T08:44:50Z</time>
</trkpt>
<trkpt lat="37.977436" lon="-1.053896">
 <ele>23.340000</ele>
<time>2009-12-30T08:44:54Z</time>
</trkpt>
<trkpt lat="37.977414" lon="-1.053884">
 <ele>26.100000</ele>
<time>2009-12-30T08:44:59Z</time>
</trkpt>
<trkpt lat="37.977427" lon="-1.053863">
 <ele>28.080000</ele>
<time>2009-12-30T08:45:00Z</time>
</trkpt>
<trkpt lat="37.977416" lon="-1.053863">
 <ele>27.140000</ele>
<time>2009-12-30T08:45:01Z</time>
</trkpt>
<trkpt lat="37.977419" lon="-1.053832">
 <ele>27.740000</ele>
<time>2009-12-30T08:45:02Z</time>
</trkpt>
<trkpt lat="37.977387" lon="-1.053780">
 <ele>29.840000</ele>
<time>2009-12-30T08:45:07Z</time>
</trkpt>
<trkpt lat="37.977352" lon="-1.053683">
 <ele>31.260000</ele>
<time>2009-12-30T08:45:14Z</time>
</trkpt>
<trkpt lat="37.976944" lon="-1.052923">
 <ele>58.720000</ele>
<time>2009-12-30T08:46:39Z</time>
</trkpt>
<trkpt lat="37.976934" lon="-1.052906">
 <ele>57.600000</ele>
<time>2009-12-30T08:46:40Z</time>
</trkpt>
<trkpt lat="37.976924" lon="-1.052889">
 <ele>58.240000</ele>
<time>2009-12-30T08:46:42Z</time>
</trkpt>
<trkpt lat="37.976910" lon="-1.052876">
 <ele>58.820000</ele>
<time>2009-12-30T08:46:44Z</time>
</trkpt>
<trkpt lat="37.976877" lon="-1.052833">
 <ele>60.020000</ele>
<time>2009-12-30T08:46:49Z</time>
</trkpt>
<trkpt lat="37.976881" lon="-1.052821">
 <ele>61.080000</ele>
<time>2009-12-30T08:46:50Z</time>
</trkpt>
<trkpt lat="37.976849" lon="-1.052802">
 <ele>60.540000</ele>
<time>2009-12-30T08:46:53Z</time>
</trkpt>
<trkpt lat="37.976850" lon="-1.052794">
 <ele>60.920000</ele>
<time>2009-12-30T08:46:54Z</time>
</trkpt>
<trkpt lat="37.976817" lon="-1.052737">
 <ele>63.040000</ele>
<time>2009-12-30T08:46:58Z</time>
</trkpt>
<trkpt lat="37.976817" lon="-1.052719">
 <ele>62.800000</ele>
<time>2009-12-30T08:47:00Z</time>
</trkpt>
<trkpt lat="37.976797" lon="-1.052714">
 <ele>62.260000</ele>
<time>2009-12-30T08:47:02Z</time>
</trkpt>
<trkpt lat="37.976771" lon="-1.052681">
 <ele>63.420000</ele>
<time>2009-12-30T08:47:04Z</time>
</trkpt>
<trkpt lat="37.976689" lon="-1.052612">
 <ele>64.220000</ele>
<time>2009-12-30T08:47:14Z</time>
</trkpt>
<trkpt lat="37.976681" lon="-1.052607">
 <ele>65.540000</ele>
<time>2009-12-30T08:47:15Z</time>
</trkpt>
<trkpt lat="37.976642" lon="-1.052561">
 <ele>65.400000</ele>
<time>2009-12-30T08:47:20Z</time>
</trkpt>
<trkpt lat="37.976634" lon="-1.052554">
 <ele>65.040000</ele>
<time>2009-12-30T08:47:21Z</time>
</trkpt>
<trkpt lat="37.976613" lon="-1.052567">
 <ele>64.900000</ele>
<time>2009-12-30T08:47:23Z</time>
</trkpt>
<trkpt lat="37.976600" lon="-1.052570">
 <ele>65.880000</ele>
<time>2009-12-30T08:47:25Z</time>
</trkpt>
<trkpt lat="37.976585" lon="-1.052572">
 <ele>66.000000</ele>
<time>2009-12-30T08:47:26Z</time>
</trkpt>
<trkpt lat="37.976586" lon="-1.052556">
 <ele>67.080000</ele>
<time>2009-12-30T08:47:28Z</time>
</trkpt>
<trkpt lat="37.976564" lon="-1.052554">
 <ele>69.120000</ele>
<time>2009-12-30T08:47:31Z</time>
</trkpt>
<trkpt lat="37.976524" lon="-1.052547">
 <ele>74.760000</ele>
<time>2009-12-30T08:47:36Z</time>
</trkpt>
<trkpt lat="37.976510" lon="-1.052549">
 <ele>76.340000</ele>
<time>2009-12-30T08:47:38Z</time>
</trkpt>
<trkpt lat="37.976460" lon="-1.052531">
 <ele>77.580000</ele>
<time>2009-12-30T08:47:43Z</time>
</trkpt>
<trkpt lat="37.976453" lon="-1.052539">
 <ele>77.440000</ele>
<time>2009-12-30T08:47:44Z</time>
</trkpt>
<trkpt lat="37.976234" lon="-1.052705">
 <ele>75.420000</ele>
<time>2009-12-30T08:48:00Z</time>
</trkpt>
<trkpt lat="37.976134" lon="-1.052677">
 <ele>74.880000</ele>
<time>2009-12-30T08:48:07Z</time>
</trkpt>
<trkpt lat="37.976122" lon="-1.052677">
 <ele>77.360000</ele>
<time>2009-12-30T08:48:09Z</time>
</trkpt>
<trkpt lat="37.976112" lon="-1.052663">
 <ele>78.600000</ele>
<time>2009-12-30T08:48:10Z</time>
</trkpt>
<trkpt lat="37.976111" lon="-1.052669">
 <ele>80.780000</ele>
<time>2009-12-30T08:48:11Z</time>
</trkpt>
<trkpt lat="37.976103" lon="-1.052650">
 <ele>82.180000</ele>
<time>2009-12-30T08:48:12Z</time>
</trkpt>
<trkpt lat="37.976094" lon="-1.052643">
 <ele>88.280000</ele>
<time>2009-12-30T08:48:15Z</time>
</trkpt>
<trkpt lat="37.976099" lon="-1.052638">
 <ele>89.020000</ele>
<time>2009-12-30T08:48:16Z</time>
</trkpt>
<trkpt lat="37.976091" lon="-1.052648">
 <ele>88.120000</ele>
<time>2009-12-30T08:48:17Z</time>
</trkpt>
<trkpt lat="37.976083" lon="-1.052637">
 <ele>89.940000</ele>
<time>2009-12-30T08:48:18Z</time>
</trkpt>
<trkpt lat="37.976026" lon="-1.052627">
 <ele>89.900000</ele>
<time>2009-12-30T08:48:23Z</time>
</trkpt>
<trkpt lat="37.976017" lon="-1.052641">
 <ele>92.120000</ele>
<time>2009-12-30T08:48:26Z</time>
</trkpt>
<trkpt lat="37.976030" lon="-1.052633">
 <ele>91.920000</ele>
<time>2009-12-30T08:48:27Z</time>
</trkpt>
<trkpt lat="37.976024" lon="-1.052624">
 <ele>95.300000</ele>
<time>2009-12-30T08:48:29Z</time>
</trkpt>
<trkpt lat="37.976028" lon="-1.052605">
 <ele>95.940000</ele>
<time>2009-12-30T08:48:31Z</time>
</trkpt>
<trkpt lat="37.976026" lon="-1.052611">
 <ele>94.980000</ele>
<time>2009-12-30T08:48:32Z</time>
</trkpt>
<trkpt lat="37.976013" lon="-1.052602">
 <ele>94.980000</ele>
<time>2009-12-30T08:48:33Z</time>
</trkpt>
<trkpt lat="37.976028" lon="-1.052590">
 <ele>92.520000</ele>
<time>2009-12-30T08:48:34Z</time>
</trkpt>
<trkpt lat="37.976006" lon="-1.052560">
 <ele>90.380000</ele>
<time>2009-12-30T08:48:35Z</time>
</trkpt>
<trkpt lat="37.976006" lon="-1.052567">
 <ele>89.920000</ele>
<time>2009-12-30T08:48:37Z</time>
</trkpt>
<trkpt lat="37.976028" lon="-1.052561">
 <ele>88.300000</ele>
<time>2009-12-30T08:48:39Z</time>
</trkpt>
<trkpt lat="37.976018" lon="-1.052554">
 <ele>88.100000</ele>
<time>2009-12-30T08:48:41Z</time>
</trkpt>
<trkpt lat="37.975994" lon="-1.052524">
 <ele>85.740000</ele>
<time>2009-12-30T08:48:44Z</time>
</trkpt>
<trkpt lat="37.976001" lon="-1.052490">
 <ele>86.280000</ele>
<time>2009-12-30T08:48:45Z</time>
</trkpt>
<trkpt lat="37.975993" lon="-1.052489">
 <ele>85.680000</ele>
<time>2009-12-30T08:48:46Z</time>
</trkpt>
<trkpt lat="37.975978" lon="-1.052520">
 <ele>86.100000</ele>
<time>2009-12-30T08:48:47Z</time>
</trkpt>
<trkpt lat="37.975961" lon="-1.052513">
 <ele>85.680000</ele>
<time>2009-12-30T08:48:48Z</time>
</trkpt>
<trkpt lat="37.975781" lon="-1.052474">
 <ele>90.420000</ele>
<time>2009-12-30T08:49:03Z</time>
</trkpt>
<trkpt lat="37.975785" lon="-1.052471">
 <ele>90.880000</ele>
<time>2009-12-30T08:49:04Z</time>
</trkpt>
<trkpt lat="37.975771" lon="-1.052477">
 <ele>89.260000</ele>
<time>2009-12-30T08:49:05Z</time>
</trkpt>
<trkpt lat="37.975768" lon="-1.052470">
 <ele>89.680000</ele>
<time>2009-12-30T08:49:06Z</time>
</trkpt>
<trkpt lat="37.975716" lon="-1.052443">
 <ele>87.040000</ele>
<time>2009-12-30T08:49:10Z</time>
</trkpt>
<trkpt lat="37.975666" lon="-1.052414">
 <ele>89.620000</ele>
<time>2009-12-30T08:49:15Z</time>
</trkpt>
<trkpt lat="37.975654" lon="-1.052410">
 <ele>91.000000</ele>
<time>2009-12-30T08:49:18Z</time>
</trkpt>
<trkpt lat="37.975650" lon="-1.052391">
 <ele>89.440000</ele>
<time>2009-12-30T08:49:19Z</time>
</trkpt>
<trkpt lat="37.975610" lon="-1.052366">
 <ele>90.580000</ele>
<time>2009-12-30T08:49:25Z</time>
</trkpt>
<trkpt lat="37.975607" lon="-1.052338">
 <ele>92.120000</ele>
<time>2009-12-30T08:49:27Z</time>
</trkpt>
<trkpt lat="37.975610" lon="-1.052336">
 <ele>92.480000</ele>
<time>2009-12-30T08:49:29Z</time>
</trkpt>
<trkpt lat="37.975565" lon="-1.052296">
 <ele>88.720000</ele>
<time>2009-12-30T08:49:32Z</time>
</trkpt>
<trkpt lat="37.975507" lon="-1.052285">
 <ele>82.660000</ele>
<time>2009-12-30T08:49:35Z</time>
</trkpt>
<trkpt lat="37.975496" lon="-1.052265">
 <ele>84.060000</ele>
<time>2009-12-30T08:49:37Z</time>
</trkpt>
<trkpt lat="37.975482" lon="-1.052129">
 <ele>101.320000</ele>
<time>2009-12-30T08:49:50Z</time>
</trkpt>
<trkpt lat="37.975494" lon="-1.052118">
 <ele>99.280000</ele>
<time>2009-12-30T08:49:51Z</time>
</trkpt>
<trkpt lat="37.975501" lon="-1.052127">
 <ele>97.580000</ele>
<time>2009-12-30T08:49:52Z</time>
</trkpt>
<trkpt lat="37.975501" lon="-1.052119">
 <ele>96.520000</ele>
<time>2009-12-30T08:49:53Z</time>
</trkpt>
<trkpt lat="37.975502" lon="-1.052124">
 <ele>100.480000</ele>
<time>2009-12-30T08:49:54Z</time>
</trkpt>
<trkpt lat="37.975500" lon="-1.052117">
 <ele>95.920000</ele>
<time>2009-12-30T08:49:55Z</time>
</trkpt>
<trkpt lat="37.975500" lon="-1.052117">
 <ele>98.000000</ele>
<time>2009-12-30T08:49:56Z</time>
</trkpt>
<trkpt lat="37.975511" lon="-1.052107">
 <ele>100.480000</ele>
<time>2009-12-30T08:49:57Z</time>
</trkpt>
<trkpt lat="37.975545" lon="-1.052075">
 <ele>110.100000</ele>
<time>2009-12-30T08:49:59Z</time>
</trkpt>
<trkpt lat="37.975563" lon="-1.052055">
 <ele>104.640000</ele>
<time>2009-12-30T08:50:00Z</time>
</trkpt>
<trkpt lat="37.975559" lon="-1.052062">
 <ele>115.740000</ele>
<time>2009-12-30T08:50:01Z</time>
</trkpt>
<trkpt lat="37.975558" lon="-1.052057">
 <ele>111.460000</ele>
<time>2009-12-30T08:50:02Z</time>
</trkpt>
<trkpt lat="37.975569" lon="-1.052061">
 <ele>110.020000</ele>
<time>2009-12-30T08:50:03Z</time>
</trkpt>
<trkpt lat="37.975568" lon="-1.052055">
 <ele>112.740000</ele>
<time>2009-12-30T08:50:04Z</time>
</trkpt>
<trkpt lat="37.975568" lon="-1.052055">
 <ele>110.500000</ele>
<time>2009-12-30T08:50:05Z</time>
</trkpt>
<trkpt lat="37.975562" lon="-1.052042">
 <ele>111.700000</ele>
<time>2009-12-30T08:50:06Z</time>
</trkpt>
<trkpt lat="37.975514" lon="-1.052005">
 <ele>120.200000</ele>
<time>2009-12-30T08:50:10Z</time>
</trkpt>
<trkpt lat="37.975497" lon="-1.051968">
 <ele>119.900000</ele>
<time>2009-12-30T08:50:11Z</time>
</trkpt>
<trkpt lat="37.975501" lon="-1.051968">
 <ele>120.800000</ele>
<time>2009-12-30T08:50:12Z</time>
</trkpt>
<trkpt lat="37.975491" lon="-1.051948">
 <ele>121.120000</ele>
<time>2009-12-30T08:50:13Z</time>
</trkpt>
<trkpt lat="37.975477" lon="-1.051955">
 <ele>119.160000</ele>
<time>2009-12-30T08:50:14Z</time>
</trkpt>
<trkpt lat="37.975477" lon="-1.051929">
 <ele>118.220000</ele>
<time>2009-12-30T08:50:15Z</time>
</trkpt>
<trkpt lat="37.975483" lon="-1.051946">
 <ele>120.680000</ele>
<time>2009-12-30T08:50:16Z</time>
</trkpt>
<trkpt lat="37.975478" lon="-1.051934">
 <ele>119.840000</ele>
<time>2009-12-30T08:50:17Z</time>
</trkpt>
<trkpt lat="37.975487" lon="-1.051918">
 <ele>119.200000</ele>
<time>2009-12-30T08:50:19Z</time>
</trkpt>
<trkpt lat="37.975497" lon="-1.051895">
 <ele>115.600000</ele>
<time>2009-12-30T08:50:20Z</time>
</trkpt>
<trkpt lat="37.975479" lon="-1.051878">
 <ele>117.400000</ele>
<time>2009-12-30T08:50:21Z</time>
</trkpt>
<trkpt lat="37.975463" lon="-1.051885">
 <ele>114.140000</ele>
<time>2009-12-30T08:50:22Z</time>
</trkpt>
<trkpt lat="37.975477" lon="-1.051870">
 <ele>115.620000</ele>
<time>2009-12-30T08:50:23Z</time>
</trkpt>
<trkpt lat="37.975481" lon="-1.051886">
 <ele>114.800000</ele>
<time>2009-12-30T08:50:24Z</time>
</trkpt>
<trkpt lat="37.975478" lon="-1.051875">
 <ele>115.200000</ele>
<time>2009-12-30T08:50:25Z</time>
</trkpt>
<trkpt lat="37.975478" lon="-1.051875">
 <ele>115.600000</ele>
<time>2009-12-30T08:50:26Z</time>
</trkpt>
<trkpt lat="37.975470" lon="-1.051856">
 <ele>111.280000</ele>
<time>2009-12-30T08:50:35Z</time>
</trkpt>
<trkpt lat="37.975435" lon="-1.051781">
 <ele>110.440000</ele>
<time>2009-12-30T08:50:38Z</time>
</trkpt>
<trkpt lat="37.975436" lon="-1.051782">
 <ele>94.640000</ele>
<time>2009-12-30T08:50:39Z</time>
</trkpt>
<trkpt lat="37.975431" lon="-1.051778">
 <ele>104.660000</ele>
<time>2009-12-30T08:50:40Z</time>
</trkpt>
<trkpt lat="37.975392" lon="-1.051715">
 <ele>103.560000</ele>
<time>2009-12-30T08:50:46Z</time>
</trkpt>
<trkpt lat="37.975387" lon="-1.051710">
 <ele>109.200000</ele>
<time>2009-12-30T08:50:47Z</time>
</trkpt>
<trkpt lat="37.975341" lon="-1.051669">
 <ele>108.540000</ele>
<time>2009-12-30T08:50:51Z</time>
</trkpt>
<trkpt lat="37.975336" lon="-1.051662">
 <ele>113.480000</ele>
<time>2009-12-30T08:50:52Z</time>
</trkpt>
<trkpt lat="37.975330" lon="-1.051638">
 <ele>109.660000</ele>
<time>2009-12-30T08:50:54Z</time>
</trkpt>
<trkpt lat="37.975330" lon="-1.051620">
 <ele>111.420000</ele>
<time>2009-12-30T08:50:55Z</time>
</trkpt>
<trkpt lat="37.975338" lon="-1.051624">
 <ele>113.300000</ele>
<time>2009-12-30T08:50:56Z</time>
</trkpt>
<trkpt lat="37.975330" lon="-1.051605">
 <ele>115.140000</ele>
<time>2009-12-30T08:50:57Z</time>
</trkpt>
<trkpt lat="37.975350" lon="-1.051599">
 <ele>121.900000</ele>
<time>2009-12-30T08:50:59Z</time>
</trkpt>
<trkpt lat="37.975362" lon="-1.051593">
 <ele>127.280000</ele>
<time>2009-12-30T08:51:00Z</time>
</trkpt>
<trkpt lat="37.975363" lon="-1.051608">
 <ele>127.040000</ele>
<time>2009-12-30T08:51:01Z</time>
</trkpt>
<trkpt lat="37.975374" lon="-1.051605">
 <ele>129.700000</ele>
<time>2009-12-30T08:51:02Z</time>
</trkpt>
<trkpt lat="37.975377" lon="-1.051595">
 <ele>126.980000</ele>
<time>2009-12-30T08:51:03Z</time>
</trkpt>
<trkpt lat="37.975377" lon="-1.051606">
 <ele>130.420000</ele>
<time>2009-12-30T08:51:04Z</time>
</trkpt>
<trkpt lat="37.975350" lon="-1.051623">
 <ele>131.300000</ele>
<time>2009-12-30T08:51:08Z</time>
</trkpt>
<trkpt lat="37.975331" lon="-1.051642">
 <ele>130.300000</ele>
<time>2009-12-30T08:51:09Z</time>
</trkpt>
<trkpt lat="37.975346" lon="-1.051633">
 <ele>128.080000</ele>
<time>2009-12-30T08:51:10Z</time>
</trkpt>
<trkpt lat="37.975350" lon="-1.051637">
 <ele>127.580000</ele>
<time>2009-12-30T08:51:11Z</time>
</trkpt>
<trkpt lat="37.975348" lon="-1.051609">
 <ele>129.600000</ele>
<time>2009-12-30T08:51:14Z</time>
</trkpt>
<trkpt lat="37.975356" lon="-1.051622">
 <ele>130.660000</ele>
<time>2009-12-30T08:51:16Z</time>
</trkpt>
<trkpt lat="37.975380" lon="-1.051608">
 <ele>130.220000</ele>
<time>2009-12-30T08:51:17Z</time>
</trkpt>
<trkpt lat="37.975417" lon="-1.051589">
 <ele>130.740000</ele>
<time>2009-12-30T08:51:21Z</time>
</trkpt>
<trkpt lat="37.975424" lon="-1.051572">
 <ele>128.800000</ele>
<time>2009-12-30T08:51:22Z</time>
</trkpt>
<trkpt lat="37.975421" lon="-1.051559">
 <ele>128.700000</ele>
<time>2009-12-30T08:51:23Z</time>
</trkpt>
<trkpt lat="37.975493" lon="-1.051444">
 <ele>139.940000</ele>
<time>2009-12-30T08:51:30Z</time>
</trkpt>
<trkpt lat="37.975499" lon="-1.051441">
 <ele>137.480000</ele>
<time>2009-12-30T08:51:31Z</time>
</trkpt>
<trkpt lat="37.975534" lon="-1.051261">
 <ele>146.060000</ele>
<time>2009-12-30T08:51:41Z</time>
</trkpt>
<trkpt lat="37.975523" lon="-1.051242">
 <ele>146.160000</ele>
<time>2009-12-30T08:51:43Z</time>
</trkpt>
<trkpt lat="37.975537" lon="-1.051215">
 <ele>147.660000</ele>
<time>2009-12-30T08:51:44Z</time>
</trkpt>
<trkpt lat="37.975534" lon="-1.051210">
 <ele>146.760000</ele>
<time>2009-12-30T08:51:46Z</time>
</trkpt>
<trkpt lat="37.975552" lon="-1.051189">
 <ele>145.260000</ele>
<time>2009-12-30T08:51:47Z</time>
</trkpt>
<trkpt lat="37.975569" lon="-1.051176">
 <ele>143.440000</ele>
<time>2009-12-30T08:51:49Z</time>
</trkpt>
<trkpt lat="37.975561" lon="-1.051164">
 <ele>144.520000</ele>
<time>2009-12-30T08:51:50Z</time>
</trkpt>
<trkpt lat="37.975570" lon="-1.051102">
 <ele>140.240000</ele>
<time>2009-12-30T08:51:53Z</time>
</trkpt>
<trkpt lat="37.975559" lon="-1.051104">
 <ele>142.920000</ele>
<time>2009-12-30T08:51:54Z</time>
</trkpt>
<trkpt lat="37.975562" lon="-1.051088">
 <ele>143.360000</ele>
<time>2009-12-30T08:51:55Z</time>
</trkpt>
<trkpt lat="37.975565" lon="-1.051038">
 <ele>144.480000</ele>
<time>2009-12-30T08:51:58Z</time>
</trkpt>
<trkpt lat="37.975569" lon="-1.051037">
 <ele>147.160000</ele>
<time>2009-12-30T08:51:59Z</time>
</trkpt>
<trkpt lat="37.975558" lon="-1.051026">
 <ele>148.700000</ele>
<time>2009-12-30T08:52:00Z</time>
</trkpt>
<trkpt lat="37.975563" lon="-1.051031">
 <ele>148.920000</ele>
<time>2009-12-30T08:52:01Z</time>
</trkpt>
<trkpt lat="37.975564" lon="-1.051019">
 <ele>150.120000</ele>
<time>2009-12-30T08:52:02Z</time>
</trkpt>
<trkpt lat="37.975585" lon="-1.050993">
 <ele>152.280000</ele>
<time>2009-12-30T08:52:06Z</time>
</trkpt>
<trkpt lat="37.975587" lon="-1.050977">
 <ele>153.200000</ele>
<time>2009-12-30T08:52:07Z</time>
</trkpt>
<trkpt lat="37.975584" lon="-1.050972">
 <ele>152.520000</ele>
<time>2009-12-30T08:52:08Z</time>
</trkpt>
<trkpt lat="37.975587" lon="-1.050981">
 <ele>156.360000</ele>
<time>2009-12-30T08:52:09Z</time>
</trkpt>
<trkpt lat="37.975584" lon="-1.050968">
 <ele>152.840000</ele>
<time>2009-12-30T08:52:10Z</time>
</trkpt>
<trkpt lat="37.975588" lon="-1.050872">
 <ele>156.500000</ele>
<time>2009-12-30T08:52:18Z</time>
</trkpt>
<trkpt lat="37.975594" lon="-1.050852">
 <ele>143.180000</ele>
<time>2009-12-30T08:52:21Z</time>
</trkpt>
<trkpt lat="37.975623" lon="-1.050803">
 <ele>136.760000</ele>
<time>2009-12-30T08:52:26Z</time>
</trkpt>
<trkpt lat="37.975622" lon="-1.050786">
 <ele>136.760000</ele>
<time>2009-12-30T08:52:27Z</time>
</trkpt>
<trkpt lat="37.975629" lon="-1.050795">
 <ele>131.720000</ele>
<time>2009-12-30T08:52:28Z</time>
</trkpt>
<trkpt lat="37.975627" lon="-1.050790">
 <ele>135.360000</ele>
<time>2009-12-30T08:52:29Z</time>
</trkpt>
<trkpt lat="37.975628" lon="-1.050778">
 <ele>133.160000</ele>
<time>2009-12-30T08:52:30Z</time>
</trkpt>
<trkpt lat="37.975634" lon="-1.050793">
 <ele>133.520000</ele>
<time>2009-12-30T08:52:31Z</time>
</trkpt>
<trkpt lat="37.975633" lon="-1.050782">
 <ele>132.880000</ele>
<time>2009-12-30T08:52:32Z</time>
</trkpt>
<trkpt lat="37.975633" lon="-1.050782">
 <ele>134.000000</ele>
<time>2009-12-30T08:52:33Z</time>
</trkpt>
<trkpt lat="37.975629" lon="-1.050766">
 <ele>130.400000</ele>
<time>2009-12-30T08:52:34Z</time>
</trkpt>
<trkpt lat="37.975610" lon="-1.050694">
 <ele>126.980000</ele>
<time>2009-12-30T08:52:37Z</time>
</trkpt>
<trkpt lat="37.975597" lon="-1.050708">
 <ele>113.320000</ele>
<time>2009-12-30T08:52:38Z</time>
</trkpt>
<trkpt lat="37.975597" lon="-1.050704">
 <ele>118.560000</ele>
<time>2009-12-30T08:52:39Z</time>
</trkpt>
<trkpt lat="37.975602" lon="-1.050704">
 <ele>120.060000</ele>
<time>2009-12-30T08:52:40Z</time>
</trkpt>
<trkpt lat="37.975598" lon="-1.050698">
 <ele>118.540000</ele>
<time>2009-12-30T08:52:41Z</time>
</trkpt>
<trkpt lat="37.975598" lon="-1.050698">
 <ele>119.900000</ele>
<time>2009-12-30T08:52:42Z</time>
</trkpt>
<trkpt lat="37.975597" lon="-1.050683">
 <ele>119.660000</ele>
<time>2009-12-30T08:52:46Z</time>
</trkpt>
<trkpt lat="37.975589" lon="-1.050607">
 <ele>121.380000</ele>
<time>2009-12-30T08:52:50Z</time>
</trkpt>
<trkpt lat="37.975583" lon="-1.050607">
 <ele>124.520000</ele>
<time>2009-12-30T08:52:51Z</time>
</trkpt>
<trkpt lat="37.975590" lon="-1.050582">
 <ele>122.920000</ele>
<time>2009-12-30T08:52:53Z</time>
</trkpt>
<trkpt lat="37.975595" lon="-1.050558">
 <ele>123.640000</ele>
<time>2009-12-30T08:52:55Z</time>
</trkpt>
<trkpt lat="37.975588" lon="-1.050526">
 <ele>126.640000</ele>
<time>2009-12-30T08:52:56Z</time>
</trkpt>
<trkpt lat="37.975579" lon="-1.050509">
 <ele>118.100000</ele>
<time>2009-12-30T08:52:59Z</time>
</trkpt>
<trkpt lat="37.975580" lon="-1.050515">
 <ele>120.220000</ele>
<time>2009-12-30T08:53:00Z</time>
</trkpt>
<trkpt lat="37.975578" lon="-1.050511">
 <ele>118.620000</ele>
<time>2009-12-30T08:53:01Z</time>
</trkpt>
<trkpt lat="37.975587" lon="-1.050507">
 <ele>118.760000</ele>
<time>2009-12-30T08:53:02Z</time>
</trkpt>
<trkpt lat="37.975582" lon="-1.050505">
 <ele>118.680000</ele>
<time>2009-12-30T08:53:03Z</time>
</trkpt>
<trkpt lat="37.975571" lon="-1.050440">
 <ele>123.060000</ele>
<time>2009-12-30T08:53:06Z</time>
</trkpt>
<trkpt lat="37.975580" lon="-1.050403">
 <ele>122.220000</ele>
<time>2009-12-30T08:53:08Z</time>
</trkpt>
<trkpt lat="37.975571" lon="-1.050390">
 <ele>119.000000</ele>
<time>2009-12-30T08:53:09Z</time>
</trkpt>
<trkpt lat="37.975570" lon="-1.050388">
 <ele>123.880000</ele>
<time>2009-12-30T08:53:11Z</time>
</trkpt>
<trkpt lat="37.975590" lon="-1.050355">
 <ele>134.220000</ele>
<time>2009-12-30T08:53:13Z</time>
</trkpt>
<trkpt lat="37.975593" lon="-1.050360">
 <ele>139.520000</ele>
<time>2009-12-30T08:53:14Z</time>
</trkpt>
<trkpt lat="37.975593" lon="-1.050343">
 <ele>139.760000</ele>
<time>2009-12-30T08:53:15Z</time>
</trkpt>
<trkpt lat="37.975597" lon="-1.050349">
 <ele>141.800000</ele>
<time>2009-12-30T08:53:16Z</time>
</trkpt>
<trkpt lat="37.975632" lon="-1.050336">
 <ele>144.380000</ele>
<time>2009-12-30T08:53:17Z</time>
</trkpt>
<trkpt lat="37.975633" lon="-1.050285">
 <ele>141.380000</ele>
<time>2009-12-30T08:53:20Z</time>
</trkpt>
<trkpt lat="37.975668" lon="-1.050263">
 <ele>147.700000</ele>
<time>2009-12-30T08:53:22Z</time>
</trkpt>
<trkpt lat="37.975712" lon="-1.050205">
 <ele>149.800000</ele>
<time>2009-12-30T08:53:27Z</time>
</trkpt>
<trkpt lat="37.975767" lon="-1.050142">
 <ele>157.520000</ele>
<time>2009-12-30T08:53:33Z</time>
</trkpt>
<trkpt lat="37.975778" lon="-1.050140">
 <ele>156.580000</ele>
<time>2009-12-30T08:53:34Z</time>
</trkpt>
<trkpt lat="37.975829" lon="-1.050090">
 <ele>165.160000</ele>
<time>2009-12-30T08:53:39Z</time>
</trkpt>
<trkpt lat="37.975833" lon="-1.050082">
 <ele>166.220000</ele>
<time>2009-12-30T08:53:40Z</time>
</trkpt>
<trkpt lat="37.975845" lon="-1.050057">
 <ele>170.840000</ele>
<time>2009-12-30T08:53:43Z</time>
</trkpt>
<trkpt lat="37.975848" lon="-1.050052">
 <ele>170.380000</ele>
<time>2009-12-30T08:53:44Z</time>
</trkpt>
<trkpt lat="37.975895" lon="-1.049995">
 <ele>163.560000</ele>
<time>2009-12-30T08:53:53Z</time>
</trkpt>
<trkpt lat="37.975904" lon="-1.049977">
 <ele>168.080000</ele>
<time>2009-12-30T08:53:55Z</time>
</trkpt>
<trkpt lat="37.975898" lon="-1.049884">
 <ele>164.540000</ele>
<time>2009-12-30T08:54:01Z</time>
</trkpt>
<trkpt lat="37.975898" lon="-1.049882">
 <ele>163.960000</ele>
<time>2009-12-30T08:54:02Z</time>
</trkpt>
<trkpt lat="37.975905" lon="-1.049876">
 <ele>159.500000</ele>
<time>2009-12-30T08:54:04Z</time>
</trkpt>
<trkpt lat="37.975904" lon="-1.049865">
 <ele>158.080000</ele>
<time>2009-12-30T08:54:05Z</time>
</trkpt>
<trkpt lat="37.975897" lon="-1.049832">
 <ele>148.800000</ele>
<time>2009-12-30T08:54:08Z</time>
</trkpt>
<trkpt lat="37.975888" lon="-1.049814">
 <ele>145.620000</ele>
<time>2009-12-30T08:54:10Z</time>
</trkpt>
<trkpt lat="37.975893" lon="-1.049800">
 <ele>143.080000</ele>
<time>2009-12-30T08:54:14Z</time>
</trkpt>
<trkpt lat="37.975877" lon="-1.049771">
 <ele>139.040000</ele>
<time>2009-12-30T08:54:17Z</time>
</trkpt>
<trkpt lat="37.975865" lon="-1.049769">
 <ele>140.860000</ele>
<time>2009-12-30T08:54:19Z</time>
</trkpt>
<trkpt lat="37.975863" lon="-1.049753">
 <ele>140.240000</ele>
<time>2009-12-30T08:54:21Z</time>
</trkpt>
<trkpt lat="37.975876" lon="-1.049721">
 <ele>144.140000</ele>
<time>2009-12-30T08:54:26Z</time>
</trkpt>
<trkpt lat="37.975885" lon="-1.049710">
 <ele>145.400000</ele>
<time>2009-12-30T08:54:27Z</time>
</trkpt>
<trkpt lat="37.975882" lon="-1.049672">
 <ele>141.240000</ele>
<time>2009-12-30T08:54:31Z</time>
</trkpt>
<trkpt lat="37.975890" lon="-1.049652">
 <ele>140.840000</ele>
<time>2009-12-30T08:54:32Z</time>
</trkpt>
<trkpt lat="37.975883" lon="-1.049646">
 <ele>137.940000</ele>
<time>2009-12-30T08:54:33Z</time>
</trkpt>
<trkpt lat="37.975880" lon="-1.049647">
 <ele>135.840000</ele>
<time>2009-12-30T08:54:34Z</time>
</trkpt>
<trkpt lat="37.975877" lon="-1.049646">
 <ele>137.380000</ele>
<time>2009-12-30T08:54:35Z</time>
</trkpt>
<trkpt lat="37.975883" lon="-1.049646">
 <ele>136.960000</ele>
<time>2009-12-30T08:54:36Z</time>
</trkpt>
<trkpt lat="37.975878" lon="-1.049626">
 <ele>135.360000</ele>
<time>2009-12-30T08:54:37Z</time>
</trkpt>
<trkpt lat="37.975870" lon="-1.049562">
 <ele>136.580000</ele>
<time>2009-12-30T08:54:41Z</time>
</trkpt>
<trkpt lat="37.975874" lon="-1.049555">
 <ele>139.660000</ele>
<time>2009-12-30T08:54:42Z</time>
</trkpt>
<trkpt lat="37.975889" lon="-1.049518">
 <ele>140.740000</ele>
<time>2009-12-30T08:54:46Z</time>
</trkpt>
<trkpt lat="37.975898" lon="-1.049495">
 <ele>141.740000</ele>
<time>2009-12-30T08:54:47Z</time>
</trkpt>
<trkpt lat="37.975892" lon="-1.049498">
 <ele>141.940000</ele>
<time>2009-12-30T08:54:48Z</time>
</trkpt>
<trkpt lat="37.975890" lon="-1.049484">
 <ele>142.600000</ele>
<time>2009-12-30T08:54:49Z</time>
</trkpt>
<trkpt lat="37.975900" lon="-1.049461">
 <ele>140.340000</ele>
<time>2009-12-30T08:54:51Z</time>
</trkpt>
<trkpt lat="37.975912" lon="-1.049447">
 <ele>142.440000</ele>
<time>2009-12-30T08:54:53Z</time>
</trkpt>
<trkpt lat="37.975905" lon="-1.049450">
 <ele>139.480000</ele>
<time>2009-12-30T08:54:54Z</time>
</trkpt>
<trkpt lat="37.975899" lon="-1.049447">
 <ele>142.980000</ele>
<time>2009-12-30T08:54:55Z</time>
</trkpt>
<trkpt lat="37.975903" lon="-1.049455">
 <ele>141.200000</ele>
<time>2009-12-30T08:54:56Z</time>
</trkpt>
<trkpt lat="37.975903" lon="-1.049447">
 <ele>141.840000</ele>
<time>2009-12-30T08:54:57Z</time>
</trkpt>
<trkpt lat="37.975932" lon="-1.049373">
 <ele>158.640000</ele>
<time>2009-12-30T08:55:02Z</time>
</trkpt>
<trkpt lat="37.975937" lon="-1.049375">
 <ele>151.900000</ele>
<time>2009-12-30T08:55:03Z</time>
</trkpt>
<trkpt lat="37.975945" lon="-1.049370">
 <ele>152.640000</ele>
<time>2009-12-30T08:55:04Z</time>
</trkpt>
<trkpt lat="37.975933" lon="-1.049360">
 <ele>153.040000</ele>
<time>2009-12-30T08:55:05Z</time>
</trkpt>
<trkpt lat="37.975934" lon="-1.049302">
 <ele>158.900000</ele>
<time>2009-12-30T08:55:08Z</time>
</trkpt>
<trkpt lat="37.975947" lon="-1.049307">
 <ele>161.680000</ele>
<time>2009-12-30T08:55:09Z</time>
</trkpt>
<trkpt lat="37.975949" lon="-1.049298">
 <ele>157.360000</ele>
<time>2009-12-30T08:55:10Z</time>
</trkpt>
<trkpt lat="37.976001" lon="-1.049218">
 <ele>158.040000</ele>
<time>2009-12-30T08:55:13Z</time>
</trkpt>
<trkpt lat="37.975991" lon="-1.049225">
 <ele>164.300000</ele>
<time>2009-12-30T08:55:15Z</time>
</trkpt>
<trkpt lat="37.975997" lon="-1.049214">
 <ele>164.220000</ele>
<time>2009-12-30T08:55:16Z</time>
</trkpt>
<trkpt lat="37.976065" lon="-1.049165">
 <ele>171.140000</ele>
<time>2009-12-30T08:55:21Z</time>
</trkpt>
<trkpt lat="37.976081" lon="-1.049168">
 <ele>172.180000</ele>
<time>2009-12-30T08:55:23Z</time>
</trkpt>
<trkpt lat="37.976081" lon="-1.049188">
 <ele>173.500000</ele>
<time>2009-12-30T08:55:24Z</time>
</trkpt>
<trkpt lat="37.976083" lon="-1.049182">
 <ele>172.220000</ele>
<time>2009-12-30T08:55:25Z</time>
</trkpt>
<trkpt lat="37.976103" lon="-1.049186">
 <ele>175.820000</ele>
<time>2009-12-30T08:55:27Z</time>
</trkpt>
<trkpt lat="37.976146" lon="-1.049227">
 <ele>179.280000</ele>
<time>2009-12-30T08:55:31Z</time>
</trkpt>
<trkpt lat="37.976162" lon="-1.049204">
 <ele>180.480000</ele>
<time>2009-12-30T08:55:32Z</time>
</trkpt>
<trkpt lat="37.976168" lon="-1.049196">
 <ele>178.900000</ele>
<time>2009-12-30T08:55:34Z</time>
</trkpt>
<trkpt lat="37.976169" lon="-1.049195">
 <ele>181.800000</ele>
<time>2009-12-30T08:55:35Z</time>
</trkpt>
<trkpt lat="37.976169" lon="-1.049216">
 <ele>178.580000</ele>
<time>2009-12-30T08:55:36Z</time>
</trkpt>
<trkpt lat="37.976183" lon="-1.049204">
 <ele>179.700000</ele>
<time>2009-12-30T08:55:37Z</time>
</trkpt>
<trkpt lat="37.976207" lon="-1.049181">
 <ele>173.840000</ele>
<time>2009-12-30T08:55:41Z</time>
</trkpt>
<trkpt lat="37.976223" lon="-1.049151">
 <ele>167.700000</ele>
<time>2009-12-30T08:55:42Z</time>
</trkpt>
<trkpt lat="37.976231" lon="-1.049134">
 <ele>166.020000</ele>
<time>2009-12-30T08:55:44Z</time>
</trkpt>
<trkpt lat="37.976247" lon="-1.049112">
 <ele>161.500000</ele>
<time>2009-12-30T08:55:46Z</time>
</trkpt>
<trkpt lat="37.976274" lon="-1.049048">
 <ele>149.900000</ele>
<time>2009-12-30T08:55:51Z</time>
</trkpt>
<trkpt lat="37.976280" lon="-1.049039">
 <ele>147.600000</ele>
<time>2009-12-30T08:55:52Z</time>
</trkpt>
<trkpt lat="37.976289" lon="-1.049045">
 <ele>147.800000</ele>
<time>2009-12-30T08:55:53Z</time>
</trkpt>
<trkpt lat="37.976295" lon="-1.049036">
 <ele>147.880000</ele>
<time>2009-12-30T08:55:54Z</time>
</trkpt>
<trkpt lat="37.976313" lon="-1.049004">
 <ele>149.600000</ele>
<time>2009-12-30T08:55:57Z</time>
</trkpt>
<trkpt lat="37.976324" lon="-1.049003">
 <ele>159.540000</ele>
<time>2009-12-30T08:55:58Z</time>
</trkpt>
<trkpt lat="37.976322" lon="-1.048998">
 <ele>161.240000</ele>
<time>2009-12-30T08:55:59Z</time>
</trkpt>
<trkpt lat="37.976344" lon="-1.048980">
 <ele>163.680000</ele>
<time>2009-12-30T08:56:02Z</time>
</trkpt>
<trkpt lat="37.976338" lon="-1.048994">
 <ele>163.300000</ele>
<time>2009-12-30T08:56:03Z</time>
</trkpt>
<trkpt lat="37.976340" lon="-1.048983">
 <ele>164.980000</ele>
<time>2009-12-30T08:56:04Z</time>
</trkpt>
<trkpt lat="37.976349" lon="-1.048960">
 <ele>165.400000</ele>
<time>2009-12-30T08:56:06Z</time>
</trkpt>
<trkpt lat="37.976339" lon="-1.048985">
 <ele>168.360000</ele>
<time>2009-12-30T08:56:07Z</time>
</trkpt>
<trkpt lat="37.976345" lon="-1.048977">
 <ele>166.780000</ele>
<time>2009-12-30T08:56:08Z</time>
</trkpt>
<trkpt lat="37.976351" lon="-1.048985">
 <ele>167.500000</ele>
<time>2009-12-30T08:56:09Z</time>
</trkpt>
<trkpt lat="37.976358" lon="-1.048977">
 <ele>171.440000</ele>
<time>2009-12-30T08:56:10Z</time>
</trkpt>
<trkpt lat="37.976375" lon="-1.048885">
 <ele>174.580000</ele>
<time>2009-12-30T08:56:17Z</time>
</trkpt>
<trkpt lat="37.976378" lon="-1.048885">
 <ele>175.260000</ele>
<time>2009-12-30T08:56:18Z</time>
</trkpt>
<trkpt lat="37.976371" lon="-1.048888">
 <ele>174.180000</ele>
<time>2009-12-30T08:56:19Z</time>
</trkpt>
<trkpt lat="37.976368" lon="-1.048866">
 <ele>176.340000</ele>
<time>2009-12-30T08:56:20Z</time>
</trkpt>
<trkpt lat="37.976386" lon="-1.048824">
 <ele>175.340000</ele>
<time>2009-12-30T08:56:25Z</time>
</trkpt>
<trkpt lat="37.976387" lon="-1.048834">
 <ele>176.140000</ele>
<time>2009-12-30T08:56:26Z</time>
</trkpt>
<trkpt lat="37.976384" lon="-1.048820">
 <ele>176.960000</ele>
<time>2009-12-30T08:56:27Z</time>
</trkpt>
<trkpt lat="37.976391" lon="-1.048779">
 <ele>176.600000</ele>
<time>2009-12-30T08:56:31Z</time>
</trkpt>
<trkpt lat="37.976401" lon="-1.048744">
 <ele>174.760000</ele>
<time>2009-12-30T08:56:33Z</time>
</trkpt>
<trkpt lat="37.976412" lon="-1.048753">
 <ele>175.020000</ele>
<time>2009-12-30T08:56:34Z</time>
</trkpt>
<trkpt lat="37.976402" lon="-1.048748">
 <ele>173.880000</ele>
<time>2009-12-30T08:56:35Z</time>
</trkpt>
<trkpt lat="37.976407" lon="-1.048749">
 <ele>173.100000</ele>
<time>2009-12-30T08:56:36Z</time>
</trkpt>
<trkpt lat="37.976398" lon="-1.048743">
 <ele>175.100000</ele>
<time>2009-12-30T08:56:37Z</time>
</trkpt>
<trkpt lat="37.976398" lon="-1.048686">
 <ele>175.180000</ele>
<time>2009-12-30T08:56:40Z</time>
</trkpt>
<trkpt lat="37.976401" lon="-1.048693">
 <ele>173.740000</ele>
<time>2009-12-30T08:56:41Z</time>
</trkpt>
<trkpt lat="37.976411" lon="-1.048693">
 <ele>174.540000</ele>
<time>2009-12-30T08:56:42Z</time>
</trkpt>
<trkpt lat="37.976408" lon="-1.048694">
 <ele>174.180000</ele>
<time>2009-12-30T08:56:43Z</time>
</trkpt>
<trkpt lat="37.976406" lon="-1.048689">
 <ele>173.940000</ele>
<time>2009-12-30T08:56:44Z</time>
</trkpt>
<trkpt lat="37.976408" lon="-1.048683">
 <ele>173.780000</ele>
<time>2009-12-30T08:56:45Z</time>
</trkpt>
<trkpt lat="37.976408" lon="-1.048683">
 <ele>174.100000</ele>
<time>2009-12-30T08:56:46Z</time>
</trkpt>
<trkpt lat="37.976416" lon="-1.048673">
 <ele>174.580000</ele>
<time>2009-12-30T08:56:49Z</time>
</trkpt>
<trkpt lat="37.976447" lon="-1.048591">
 <ele>182.700000</ele>
<time>2009-12-30T08:56:55Z</time>
</trkpt>
<trkpt lat="37.976461" lon="-1.048603">
 <ele>181.840000</ele>
<time>2009-12-30T08:56:56Z</time>
</trkpt>
<trkpt lat="37.976459" lon="-1.048604">
 <ele>182.620000</ele>
<time>2009-12-30T08:56:57Z</time>
</trkpt>
<trkpt lat="37.976465" lon="-1.048606">
 <ele>182.800000</ele>
<time>2009-12-30T08:56:58Z</time>
</trkpt>
<trkpt lat="37.976472" lon="-1.048585">
 <ele>182.460000</ele>
<time>2009-12-30T08:56:59Z</time>
</trkpt>
<trkpt lat="37.976490" lon="-1.048564">
 <ele>183.040000</ele>
<time>2009-12-30T08:57:01Z</time>
</trkpt>
<trkpt lat="37.976492" lon="-1.048582">
 <ele>183.700000</ele>
<time>2009-12-30T08:57:02Z</time>
</trkpt>
<trkpt lat="37.976498" lon="-1.048577">
 <ele>183.540000</ele>
<time>2009-12-30T08:57:03Z</time>
</trkpt>
<trkpt lat="37.976488" lon="-1.048576">
 <ele>183.400000</ele>
<time>2009-12-30T08:57:04Z</time>
</trkpt>
<trkpt lat="37.976495" lon="-1.048575">
 <ele>183.800000</ele>
<time>2009-12-30T08:57:05Z</time>
</trkpt>
<trkpt lat="37.976495" lon="-1.048575">
 <ele>183.400000</ele>
<time>2009-12-30T08:57:06Z</time>
</trkpt>
<trkpt lat="37.976505" lon="-1.048570">
 <ele>189.080000</ele>
<time>2009-12-30T08:57:29Z</time>
</trkpt>
<trkpt lat="37.976540" lon="-1.048526">
 <ele>205.580000</ele>
<time>2009-12-30T08:57:33Z</time>
</trkpt>
<trkpt lat="37.976533" lon="-1.048531">
 <ele>193.780000</ele>
<time>2009-12-30T08:57:34Z</time>
</trkpt>
<trkpt lat="37.976538" lon="-1.048523">
 <ele>194.300000</ele>
<time>2009-12-30T08:57:35Z</time>
</trkpt>
<trkpt lat="37.976539" lon="-1.048527">
 <ele>193.400000</ele>
<time>2009-12-30T08:57:36Z</time>
</trkpt>
<trkpt lat="37.976538" lon="-1.048522">
 <ele>193.800000</ele>
<time>2009-12-30T08:57:37Z</time>
</trkpt>
<trkpt lat="37.976585" lon="-1.048518">
 <ele>196.320000</ele>
<time>2009-12-30T08:57:41Z</time>
</trkpt>
<trkpt lat="37.976575" lon="-1.048506">
 <ele>200.660000</ele>
<time>2009-12-30T08:57:42Z</time>
</trkpt>
<trkpt lat="37.976578" lon="-1.048518">
 <ele>198.760000</ele>
<time>2009-12-30T08:57:43Z</time>
</trkpt>
<trkpt lat="37.976575" lon="-1.048516">
 <ele>198.360000</ele>
<time>2009-12-30T08:57:44Z</time>
</trkpt>
<trkpt lat="37.976582" lon="-1.048517">
 <ele>199.560000</ele>
<time>2009-12-30T08:57:45Z</time>
</trkpt>
<trkpt lat="37.976582" lon="-1.048517">
 <ele>198.600000</ele>
<time>2009-12-30T08:57:46Z</time>
</trkpt>
<trkpt lat="37.976579" lon="-1.048488">
 <ele>192.560000</ele>
<time>2009-12-30T08:58:05Z</time>
</trkpt>
<trkpt lat="37.976608" lon="-1.048357">
 <ele>170.400000</ele>
<time>2009-12-30T08:58:09Z</time>
</trkpt>
<trkpt lat="37.976636" lon="-1.048333">
 <ele>183.080000</ele>
<time>2009-12-30T08:58:14Z</time>
</trkpt>
<trkpt lat="37.976637" lon="-1.048320">
 <ele>182.860000</ele>
<time>2009-12-30T08:58:15Z</time>
</trkpt>
<trkpt lat="37.976648" lon="-1.048311">
 <ele>184.560000</ele>
<time>2009-12-30T08:58:17Z</time>
</trkpt>
<trkpt lat="37.976654" lon="-1.048290">
 <ele>184.760000</ele>
<time>2009-12-30T08:58:18Z</time>
</trkpt>
<trkpt lat="37.976649" lon="-1.048283">
 <ele>186.260000</ele>
<time>2009-12-30T08:58:20Z</time>
</trkpt>
<trkpt lat="37.976664" lon="-1.048294">
 <ele>186.260000</ele>
<time>2009-12-30T08:58:21Z</time>
</trkpt>
<trkpt lat="37.976654" lon="-1.048291">
 <ele>186.040000</ele>
<time>2009-12-30T08:58:22Z</time>
</trkpt>
<trkpt lat="37.976662" lon="-1.048297">
 <ele>186.720000</ele>
<time>2009-12-30T08:58:23Z</time>
</trkpt>
<trkpt lat="37.976662" lon="-1.048288">
 <ele>185.840000</ele>
<time>2009-12-30T08:58:24Z</time>
</trkpt>
<trkpt lat="37.976662" lon="-1.048288">
 <ele>186.000000</ele>
<time>2009-12-30T08:58:25Z</time>
</trkpt>
<trkpt lat="37.976667" lon="-1.048279">
 <ele>191.000000</ele>
<time>2009-12-30T08:58:35Z</time>
</trkpt>
<trkpt lat="37.976699" lon="-1.048205">
 <ele>197.700000</ele>
<time>2009-12-30T08:58:41Z</time>
</trkpt>
<trkpt lat="37.976694" lon="-1.048207">
 <ele>198.080000</ele>
<time>2009-12-30T08:58:42Z</time>
</trkpt>
<trkpt lat="37.976701" lon="-1.048190">
 <ele>196.440000</ele>
<time>2009-12-30T08:58:43Z</time>
</trkpt>
<trkpt lat="37.976700" lon="-1.048164">
 <ele>199.020000</ele>
<time>2009-12-30T08:58:45Z</time>
</trkpt>
<trkpt lat="37.976702" lon="-1.048185">
 <ele>197.840000</ele>
<time>2009-12-30T08:58:46Z</time>
</trkpt>
<trkpt lat="37.976711" lon="-1.048162">
 <ele>197.640000</ele>
<time>2009-12-30T08:58:47Z</time>
</trkpt>
<trkpt lat="37.976713" lon="-1.048164">
 <ele>199.360000</ele>
<time>2009-12-30T08:58:48Z</time>
</trkpt>
<trkpt lat="37.976724" lon="-1.048135">
 <ele>197.720000</ele>
<time>2009-12-30T08:58:49Z</time>
</trkpt>
<trkpt lat="37.976731" lon="-1.048111">
 <ele>197.740000</ele>
<time>2009-12-30T08:58:51Z</time>
</trkpt>
<trkpt lat="37.976733" lon="-1.048100">
 <ele>198.720000</ele>
<time>2009-12-30T08:58:52Z</time>
</trkpt>
<trkpt lat="37.976764" lon="-1.048058">
 <ele>199.260000</ele>
<time>2009-12-30T08:58:57Z</time>
</trkpt>
<trkpt lat="37.976765" lon="-1.048054">
 <ele>201.360000</ele>
<time>2009-12-30T08:58:58Z</time>
</trkpt>
<trkpt lat="37.976771" lon="-1.048039">
 <ele>202.600000</ele>
<time>2009-12-30T08:58:59Z</time>
</trkpt>
<trkpt lat="37.976764" lon="-1.048052">
 <ele>201.580000</ele>
<time>2009-12-30T08:59:00Z</time>
</trkpt>
<trkpt lat="37.976776" lon="-1.048050">
 <ele>203.900000</ele>
<time>2009-12-30T08:59:01Z</time>
</trkpt>
<trkpt lat="37.976762" lon="-1.048049">
 <ele>201.860000</ele>
<time>2009-12-30T08:59:02Z</time>
</trkpt>
<trkpt lat="37.976770" lon="-1.048047">
 <ele>203.620000</ele>
<time>2009-12-30T08:59:03Z</time>
</trkpt>
<trkpt lat="37.976770" lon="-1.048047">
 <ele>202.500000</ele>
<time>2009-12-30T08:59:04Z</time>
</trkpt>
<trkpt lat="37.976779" lon="-1.048029">
 <ele>206.780000</ele>
<time>2009-12-30T08:59:18Z</time>
</trkpt>
<trkpt lat="37.976818" lon="-1.047981">
 <ele>206.860000</ele>
<time>2009-12-30T08:59:21Z</time>
</trkpt>
<trkpt lat="37.976806" lon="-1.047955">
 <ele>224.620000</ele>
<time>2009-12-30T08:59:22Z</time>
</trkpt>
<trkpt lat="37.976805" lon="-1.047950">
 <ele>215.300000</ele>
<time>2009-12-30T08:59:23Z</time>
</trkpt>
<trkpt lat="37.976808" lon="-1.047951">
 <ele>216.080000</ele>
<time>2009-12-30T08:59:24Z</time>
</trkpt>
<trkpt lat="37.976808" lon="-1.047952">
 <ele>216.160000</ele>
<time>2009-12-30T08:59:25Z</time>
</trkpt>
<trkpt lat="37.976812" lon="-1.047948">
 <ele>217.440000</ele>
<time>2009-12-30T08:59:29Z</time>
</trkpt>
<trkpt lat="37.976835" lon="-1.047908">
 <ele>223.580000</ele>
<time>2009-12-30T08:59:33Z</time>
</trkpt>
<trkpt lat="37.976843" lon="-1.047921">
 <ele>220.140000</ele>
<time>2009-12-30T08:59:34Z</time>
</trkpt>
<trkpt lat="37.976837" lon="-1.047923">
 <ele>219.720000</ele>
<time>2009-12-30T08:59:35Z</time>
</trkpt>
<trkpt lat="37.976841" lon="-1.047917">
 <ele>220.300000</ele>
<time>2009-12-30T08:59:36Z</time>
</trkpt>
<trkpt lat="37.976880" lon="-1.047850">
 <ele>216.720000</ele>
<time>2009-12-30T08:59:42Z</time>
</trkpt>
<trkpt lat="37.976871" lon="-1.047846">
 <ele>214.100000</ele>
<time>2009-12-30T08:59:43Z</time>
</trkpt>
<trkpt lat="37.976878" lon="-1.047776">
 <ele>213.540000</ele>
<time>2009-12-30T08:59:46Z</time>
</trkpt>
<trkpt lat="37.976878" lon="-1.047628">
 <ele>215.340000</ele>
<time>2009-12-30T09:00:00Z</time>
</trkpt>
<trkpt lat="37.976872" lon="-1.047633">
 <ele>212.740000</ele>
<time>2009-12-30T09:00:01Z</time>
</trkpt>
<trkpt lat="37.976869" lon="-1.047639">
 <ele>215.600000</ele>
<time>2009-12-30T09:00:02Z</time>
</trkpt>
<trkpt lat="37.976870" lon="-1.047611">
 <ele>214.460000</ele>
<time>2009-12-30T09:00:04Z</time>
</trkpt>
<trkpt lat="37.976861" lon="-1.047593">
 <ele>216.820000</ele>
<time>2009-12-30T09:00:05Z</time>
</trkpt>
<trkpt lat="37.976858" lon="-1.047574">
 <ele>215.380000</ele>
<time>2009-12-30T09:00:06Z</time>
</trkpt>
<trkpt lat="37.976884" lon="-1.047581">
 <ele>216.520000</ele>
<time>2009-12-30T09:00:07Z</time>
</trkpt>
<trkpt lat="37.976880" lon="-1.047579">
 <ele>215.260000</ele>
<time>2009-12-30T09:00:08Z</time>
</trkpt>
<trkpt lat="37.976883" lon="-1.047519">
 <ele>215.380000</ele>
<time>2009-12-30T09:00:11Z</time>
</trkpt>
<trkpt lat="37.976869" lon="-1.047522">
 <ele>215.280000</ele>
<time>2009-12-30T09:00:12Z</time>
</trkpt>
<trkpt lat="37.976876" lon="-1.047524">
 <ele>214.960000</ele>
<time>2009-12-30T09:00:13Z</time>
</trkpt>
<trkpt lat="37.976874" lon="-1.047516">
 <ele>215.060000</ele>
<time>2009-12-30T09:00:14Z</time>
</trkpt>
<trkpt lat="37.976812" lon="-1.047431">
 <ele>214.460000</ele>
<time>2009-12-30T09:00:22Z</time>
</trkpt>
<trkpt lat="37.976819" lon="-1.047432">
 <ele>215.440000</ele>
<time>2009-12-30T09:00:23Z</time>
</trkpt>
<trkpt lat="37.976808" lon="-1.047432">
 <ele>214.360000</ele>
<time>2009-12-30T09:00:24Z</time>
</trkpt>
<trkpt lat="37.976818" lon="-1.047432">
 <ele>214.960000</ele>
<time>2009-12-30T09:00:25Z</time>
</trkpt>
<trkpt lat="37.976807" lon="-1.047416">
 <ele>213.920000</ele>
<time>2009-12-30T09:00:26Z</time>
</trkpt>
<trkpt lat="37.976744" lon="-1.047308">
 <ele>218.500000</ele>
<time>2009-12-30T09:00:37Z</time>
</trkpt>
<trkpt lat="37.976751" lon="-1.047302">
 <ele>217.460000</ele>
<time>2009-12-30T09:00:38Z</time>
</trkpt>
<trkpt lat="37.976750" lon="-1.047303">
 <ele>218.200000</ele>
<time>2009-12-30T09:00:39Z</time>
</trkpt>
<trkpt lat="37.976756" lon="-1.047308">
 <ele>218.100000</ele>
<time>2009-12-30T09:00:40Z</time>
</trkpt>
<trkpt lat="37.976748" lon="-1.047298">
 <ele>217.620000</ele>
<time>2009-12-30T09:00:41Z</time>
</trkpt>
<trkpt lat="37.976748" lon="-1.047298">
 <ele>217.700000</ele>
<time>2009-12-30T09:00:42Z</time>
</trkpt>
<trkpt lat="37.976745" lon="-1.047286">
 <ele>218.500000</ele>
<time>2009-12-30T09:00:44Z</time>
</trkpt>
<trkpt lat="37.976724" lon="-1.047225">
 <ele>218.800000</ele>
<time>2009-12-30T09:00:47Z</time>
</trkpt>
<trkpt lat="37.976732" lon="-1.047226">
 <ele>222.220000</ele>
<time>2009-12-30T09:00:48Z</time>
</trkpt>
<trkpt lat="37.976736" lon="-1.047224">
 <ele>220.140000</ele>
<time>2009-12-30T09:00:49Z</time>
</trkpt>
<trkpt lat="37.976733" lon="-1.047234">
 <ele>220.720000</ele>
<time>2009-12-30T09:00:50Z</time>
</trkpt>
<trkpt lat="37.976732" lon="-1.047223">
 <ele>220.480000</ele>
<time>2009-12-30T09:00:51Z</time>
</trkpt>
<trkpt lat="37.976732" lon="-1.047223">
 <ele>220.400000</ele>
<time>2009-12-30T09:00:52Z</time>
</trkpt>
<trkpt lat="37.976680" lon="-1.047187">
 <ele>222.080000</ele>
<time>2009-12-30T09:00:56Z</time>
</trkpt>
<trkpt lat="37.976706" lon="-1.047174">
 <ele>221.320000</ele>
<time>2009-12-30T09:00:57Z</time>
</trkpt>
<trkpt lat="37.976701" lon="-1.047179">
 <ele>222.340000</ele>
<time>2009-12-30T09:00:58Z</time>
</trkpt>
<trkpt lat="37.976701" lon="-1.047187">
 <ele>221.720000</ele>
<time>2009-12-30T09:00:59Z</time>
</trkpt>
<trkpt lat="37.976698" lon="-1.047178">
 <ele>222.200000</ele>
<time>2009-12-30T09:01:00Z</time>
</trkpt>
<trkpt lat="37.976698" lon="-1.047178">
 <ele>221.800000</ele>
<time>2009-12-30T09:01:01Z</time>
</trkpt>
<trkpt lat="37.976693" lon="-1.047170">
 <ele>222.000000</ele>
<time>2009-12-30T09:01:02Z</time>
</trkpt>
<trkpt lat="37.976636" lon="-1.047115">
 <ele>222.880000</ele>
<time>2009-12-30T09:01:05Z</time>
</trkpt>
<trkpt lat="37.976647" lon="-1.047114">
 <ele>223.660000</ele>
<time>2009-12-30T09:01:06Z</time>
</trkpt>
<trkpt lat="37.976668" lon="-1.047103">
 <ele>225.100000</ele>
<time>2009-12-30T09:01:07Z</time>
</trkpt>
<trkpt lat="37.976658" lon="-1.047121">
 <ele>224.000000</ele>
<time>2009-12-30T09:01:08Z</time>
</trkpt>
<trkpt lat="37.976640" lon="-1.047106">
 <ele>224.020000</ele>
<time>2009-12-30T09:01:09Z</time>
</trkpt>
<trkpt lat="37.976629" lon="-1.047076">
 <ele>224.280000</ele>
<time>2009-12-30T09:01:11Z</time>
</trkpt>
<trkpt lat="37.976639" lon="-1.047094">
 <ele>224.360000</ele>
<time>2009-12-30T09:01:12Z</time>
</trkpt>
<trkpt lat="37.976641" lon="-1.047082">
 <ele>224.880000</ele>
<time>2009-12-30T09:01:13Z</time>
</trkpt>
<trkpt lat="37.976644" lon="-1.047090">
 <ele>224.020000</ele>
<time>2009-12-30T09:01:14Z</time>
</trkpt>
<trkpt lat="37.976638" lon="-1.047083">
 <ele>224.900000</ele>
<time>2009-12-30T09:01:15Z</time>
</trkpt>
<trkpt lat="37.976606" lon="-1.047038">
 <ele>230.840000</ele>
<time>2009-12-30T09:01:20Z</time>
</trkpt>
<trkpt lat="37.976622" lon="-1.047038">
 <ele>228.780000</ele>
<time>2009-12-30T09:01:21Z</time>
</trkpt>
<trkpt lat="37.976621" lon="-1.047020">
 <ele>230.120000</ele>
<time>2009-12-30T09:01:22Z</time>
</trkpt>
<trkpt lat="37.976614" lon="-1.046997">
 <ele>231.080000</ele>
<time>2009-12-30T09:01:24Z</time>
</trkpt>
<trkpt lat="37.976620" lon="-1.047017">
 <ele>230.640000</ele>
<time>2009-12-30T09:01:25Z</time>
</trkpt>
<trkpt lat="37.976614" lon="-1.047014">
 <ele>232.580000</ele>
<time>2009-12-30T09:01:26Z</time>
</trkpt>
<trkpt lat="37.976613" lon="-1.047012">
 <ele>229.900000</ele>
<time>2009-12-30T09:01:27Z</time>
</trkpt>
<trkpt lat="37.976612" lon="-1.047008">
 <ele>232.220000</ele>
<time>2009-12-30T09:01:28Z</time>
</trkpt>
<trkpt lat="37.976612" lon="-1.047008">
 <ele>231.100000</ele>
<time>2009-12-30T09:01:29Z</time>
</trkpt>
<trkpt lat="37.976598" lon="-1.047007">
 <ele>231.580000</ele>
<time>2009-12-30T09:01:34Z</time>
</trkpt>
<trkpt lat="37.976534" lon="-1.046994">
 <ele>231.840000</ele>
<time>2009-12-30T09:01:37Z</time>
</trkpt>
<trkpt lat="37.976544" lon="-1.046996">
 <ele>234.240000</ele>
<time>2009-12-30T09:01:38Z</time>
</trkpt>
<trkpt lat="37.976538" lon="-1.047002">
 <ele>233.160000</ele>
<time>2009-12-30T09:01:39Z</time>
</trkpt>
<trkpt lat="37.976542" lon="-1.046995">
 <ele>232.940000</ele>
<time>2009-12-30T09:01:40Z</time>
</trkpt>
<trkpt lat="37.976527" lon="-1.046996">
 <ele>233.980000</ele>
<time>2009-12-30T09:01:41Z</time>
</trkpt>
<trkpt lat="37.976497" lon="-1.047014">
 <ele>233.800000</ele>
<time>2009-12-30T09:01:44Z</time>
</trkpt>
<trkpt lat="37.976515" lon="-1.047003">
 <ele>235.160000</ele>
<time>2009-12-30T09:01:45Z</time>
</trkpt>
<trkpt lat="37.976507" lon="-1.047005">
 <ele>235.440000</ele>
<time>2009-12-30T09:01:46Z</time>
</trkpt>
<trkpt lat="37.976505" lon="-1.047002">
 <ele>234.220000</ele>
<time>2009-12-30T09:01:47Z</time>
</trkpt>
<trkpt lat="37.976505" lon="-1.047007">
 <ele>234.940000</ele>
<time>2009-12-30T09:01:48Z</time>
</trkpt>
<trkpt lat="37.976505" lon="-1.047007">
 <ele>234.700000</ele>
<time>2009-12-30T09:01:49Z</time>
</trkpt>
<trkpt lat="37.976514" lon="-1.047017">
 <ele>239.580000</ele>
<time>2009-12-30T09:02:01Z</time>
</trkpt>
<trkpt lat="37.976551" lon="-1.047052">
 <ele>240.100000</ele>
<time>2009-12-30T09:02:04Z</time>
</trkpt>
<trkpt lat="37.976534" lon="-1.047048">
 <ele>258.220000</ele>
<time>2009-12-30T09:02:05Z</time>
</trkpt>
<trkpt lat="37.976539" lon="-1.047058">
 <ele>248.960000</ele>
<time>2009-12-30T09:02:06Z</time>
</trkpt>
<trkpt lat="37.976539" lon="-1.047051">
 <ele>249.940000</ele>
<time>2009-12-30T09:02:07Z</time>
</trkpt>
<trkpt lat="37.976540" lon="-1.047055">
 <ele>248.660000</ele>
<time>2009-12-30T09:02:08Z</time>
</trkpt>
<trkpt lat="37.976540" lon="-1.047055">
 <ele>248.900000</ele>
<time>2009-12-30T09:02:09Z</time>
</trkpt>
<trkpt lat="37.976524" lon="-1.047051">
 <ele>247.300000</ele>
<time>2009-12-30T09:02:14Z</time>
</trkpt>
<trkpt lat="37.976423" lon="-1.047006">
 <ele>247.580000</ele>
<time>2009-12-30T09:02:20Z</time>
</trkpt>
<trkpt lat="37.976420" lon="-1.047006">
 <ele>247.060000</ele>
<time>2009-12-30T09:02:21Z</time>
</trkpt>
<trkpt lat="37.976396" lon="-1.046993">
 <ele>247.660000</ele>
<time>2009-12-30T09:02:23Z</time>
</trkpt>
<trkpt lat="37.976406" lon="-1.046991">
 <ele>250.480000</ele>
<time>2009-12-30T09:02:24Z</time>
</trkpt>
<trkpt lat="37.976391" lon="-1.046991">
 <ele>249.860000</ele>
<time>2009-12-30T09:02:25Z</time>
</trkpt>
<trkpt lat="37.976375" lon="-1.046977">
 <ele>252.420000</ele>
<time>2009-12-30T09:02:27Z</time>
</trkpt>
<trkpt lat="37.976385" lon="-1.046991">
 <ele>251.420000</ele>
<time>2009-12-30T09:02:28Z</time>
</trkpt>
<trkpt lat="37.976390" lon="-1.046985">
 <ele>252.820000</ele>
<time>2009-12-30T09:02:29Z</time>
</trkpt>
<trkpt lat="37.976386" lon="-1.046989">
 <ele>251.440000</ele>
<time>2009-12-30T09:02:30Z</time>
</trkpt>
<trkpt lat="37.976383" lon="-1.046985">
 <ele>251.840000</ele>
<time>2009-12-30T09:02:31Z</time>
</trkpt>
<trkpt lat="37.976383" lon="-1.046985">
 <ele>251.600000</ele>
<time>2009-12-30T09:02:32Z</time>
</trkpt>
<trkpt lat="37.976373" lon="-1.046980">
 <ele>251.480000</ele>
<time>2009-12-30T09:02:36Z</time>
</trkpt>
<trkpt lat="37.976333" lon="-1.046954">
 <ele>253.240000</ele>
<time>2009-12-30T09:02:39Z</time>
</trkpt>
<trkpt lat="37.976349" lon="-1.046958">
 <ele>253.560000</ele>
<time>2009-12-30T09:02:40Z</time>
</trkpt>
<trkpt lat="37.976344" lon="-1.046958">
 <ele>253.000000</ele>
<time>2009-12-30T09:02:41Z</time>
</trkpt>
<trkpt lat="37.976333" lon="-1.046959">
 <ele>253.620000</ele>
<time>2009-12-30T09:02:42Z</time>
</trkpt>
<trkpt lat="37.976337" lon="-1.046957">
 <ele>253.860000</ele>
<time>2009-12-30T09:02:43Z</time>
</trkpt>
<trkpt lat="37.976337" lon="-1.046957">
 <ele>253.300000</ele>
<time>2009-12-30T09:02:44Z</time>
</trkpt>
<trkpt lat="37.976324" lon="-1.046950">
 <ele>255.500000</ele>
<time>2009-12-30T09:02:57Z</time>
</trkpt>
<trkpt lat="37.976244" lon="-1.046882">
 <ele>261.460000</ele>
<time>2009-12-30T09:03:02Z</time>
</trkpt>
<trkpt lat="37.976222" lon="-1.046848">
 <ele>259.760000</ele>
<time>2009-12-30T09:03:04Z</time>
</trkpt>
<trkpt lat="37.976196" lon="-1.046796">
 <ele>261.340000</ele>
<time>2009-12-30T09:03:10Z</time>
</trkpt>
<trkpt lat="37.976184" lon="-1.046799">
 <ele>261.560000</ele>
<time>2009-12-30T09:03:11Z</time>
</trkpt>
<trkpt lat="37.976183" lon="-1.046792">
 <ele>262.580000</ele>
<time>2009-12-30T09:03:12Z</time>
</trkpt>
<trkpt lat="37.976188" lon="-1.046800">
 <ele>260.560000</ele>
<time>2009-12-30T09:03:13Z</time>
</trkpt>
<trkpt lat="37.976185" lon="-1.046792">
 <ele>261.840000</ele>
<time>2009-12-30T09:03:14Z</time>
</trkpt>
<trkpt lat="37.976185" lon="-1.046792">
 <ele>261.600000</ele>
<time>2009-12-30T09:03:15Z</time>
</trkpt>
<trkpt lat="37.976181" lon="-1.046783">
 <ele>261.840000</ele>
<time>2009-12-30T09:03:16Z</time>
</trkpt>
<trkpt lat="37.976150" lon="-1.046748">
 <ele>263.200000</ele>
<time>2009-12-30T09:03:20Z</time>
</trkpt>
<trkpt lat="37.976145" lon="-1.046737">
 <ele>262.880000</ele>
<time>2009-12-30T09:03:21Z</time>
</trkpt>
<trkpt lat="37.976133" lon="-1.046729">
 <ele>263.580000</ele>
<time>2009-12-30T09:03:23Z</time>
</trkpt>
<trkpt lat="37.976133" lon="-1.046715">
 <ele>262.060000</ele>
<time>2009-12-30T09:03:24Z</time>
</trkpt>
<trkpt lat="37.976136" lon="-1.046730">
 <ele>261.420000</ele>
<time>2009-12-30T09:03:25Z</time>
</trkpt>
<trkpt lat="37.976134" lon="-1.046721">
 <ele>262.380000</ele>
<time>2009-12-30T09:03:26Z</time>
</trkpt>
<trkpt lat="37.976133" lon="-1.046723">
 <ele>261.900000</ele>
<time>2009-12-30T09:03:27Z</time>
</trkpt>
<trkpt lat="37.976132" lon="-1.046718">
 <ele>261.260000</ele>
<time>2009-12-30T09:03:28Z</time>
</trkpt>
<trkpt lat="37.976132" lon="-1.046718">
 <ele>261.900000</ele>
<time>2009-12-30T09:03:29Z</time>
</trkpt>
<trkpt lat="37.976124" lon="-1.046714">
 <ele>262.940000</ele>
<time>2009-12-30T09:03:32Z</time>
</trkpt>
<trkpt lat="37.976076" lon="-1.046714">
 <ele>258.560000</ele>
<time>2009-12-30T09:03:35Z</time>
</trkpt>
<trkpt lat="37.976090" lon="-1.046697">
 <ele>262.220000</ele>
<time>2009-12-30T09:03:36Z</time>
</trkpt>
<trkpt lat="37.976081" lon="-1.046697">
 <ele>262.240000</ele>
<time>2009-12-30T09:03:37Z</time>
</trkpt>
<trkpt lat="37.976086" lon="-1.046685">
 <ele>259.160000</ele>
<time>2009-12-30T09:03:38Z</time>
</trkpt>
<trkpt lat="37.976074" lon="-1.046683">
 <ele>261.160000</ele>
<time>2009-12-30T09:03:39Z</time>
</trkpt>
<trkpt lat="37.976060" lon="-1.046632">
 <ele>263.620000</ele>
<time>2009-12-30T09:03:42Z</time>
</trkpt>
<trkpt lat="37.976068" lon="-1.046641">
 <ele>263.380000</ele>
<time>2009-12-30T09:03:43Z</time>
</trkpt>
<trkpt lat="37.976060" lon="-1.046644">
 <ele>264.520000</ele>
<time>2009-12-30T09:03:44Z</time>
</trkpt>
<trkpt lat="37.976067" lon="-1.046647">
 <ele>263.680000</ele>
<time>2009-12-30T09:03:45Z</time>
</trkpt>
<trkpt lat="37.976065" lon="-1.046640">
 <ele>263.760000</ele>
<time>2009-12-30T09:03:46Z</time>
</trkpt>
<trkpt lat="37.976065" lon="-1.046640">
 <ele>263.600000</ele>
<time>2009-12-30T09:03:47Z</time>
</trkpt>
<trkpt lat="37.976058" lon="-1.046639">
 <ele>265.240000</ele>
<time>2009-12-30T09:03:54Z</time>
</trkpt>
<trkpt lat="37.976030" lon="-1.046651">
 <ele>274.440000</ele>
<time>2009-12-30T09:03:58Z</time>
</trkpt>
<trkpt lat="37.976032" lon="-1.046647">
 <ele>271.440000</ele>
<time>2009-12-30T09:03:59Z</time>
</trkpt>
<trkpt lat="37.976055" lon="-1.046651">
 <ele>274.440000</ele>
<time>2009-12-30T09:04:00Z</time>
</trkpt>
<trkpt lat="37.976038" lon="-1.046652">
 <ele>274.080000</ele>
<time>2009-12-30T09:04:01Z</time>
</trkpt>
<trkpt lat="37.976052" lon="-1.046651">
 <ele>273.240000</ele>
<time>2009-12-30T09:04:02Z</time>
</trkpt>
<trkpt lat="37.976048" lon="-1.046652">
 <ele>275.160000</ele>
<time>2009-12-30T09:04:03Z</time>
</trkpt>
<trkpt lat="37.976048" lon="-1.046652">
 <ele>273.400000</ele>
<time>2009-12-30T09:04:04Z</time>
</trkpt>
<trkpt lat="37.976044" lon="-1.046659">
 <ele>275.360000</ele>
<time>2009-12-30T09:04:07Z</time>
</trkpt>
<trkpt lat="37.976032" lon="-1.046695">
 <ele>282.760000</ele>
<time>2009-12-30T09:04:11Z</time>
</trkpt>
<trkpt lat="37.976015" lon="-1.046693">
 <ele>277.740000</ele>
<time>2009-12-30T09:04:12Z</time>
</trkpt>
<trkpt lat="37.975999" lon="-1.046675">
 <ele>278.220000</ele>
<time>2009-12-30T09:04:14Z</time>
</trkpt>
<trkpt lat="37.975985" lon="-1.046674">
 <ele>277.380000</ele>
<time>2009-12-30T09:04:15Z</time>
</trkpt>
<trkpt lat="37.975993" lon="-1.046670">
 <ele>277.820000</ele>
<time>2009-12-30T09:04:16Z</time>
</trkpt>
<trkpt lat="37.975979" lon="-1.046667">
 <ele>277.960000</ele>
<time>2009-12-30T09:04:17Z</time>
</trkpt>
<trkpt lat="37.975970" lon="-1.046667">
 <ele>277.280000</ele>
<time>2009-12-30T09:04:19Z</time>
</trkpt>
<trkpt lat="37.975962" lon="-1.046660">
 <ele>277.220000</ele>
<time>2009-12-30T09:04:21Z</time>
</trkpt>
<trkpt lat="37.975965" lon="-1.046654">
 <ele>276.900000</ele>
<time>2009-12-30T09:04:22Z</time>
</trkpt>
<trkpt lat="37.975969" lon="-1.046655">
 <ele>276.780000</ele>
<time>2009-12-30T09:04:23Z</time>
</trkpt>
<trkpt lat="37.975970" lon="-1.046666">
 <ele>276.840000</ele>
<time>2009-12-30T09:04:24Z</time>
</trkpt>
<trkpt lat="37.975967" lon="-1.046658">
 <ele>277.240000</ele>
<time>2009-12-30T09:04:25Z</time>
</trkpt>
<trkpt lat="37.975967" lon="-1.046658">
 <ele>277.000000</ele>
<time>2009-12-30T09:04:26Z</time>
</trkpt>
<trkpt lat="37.975964" lon="-1.046665">
 <ele>276.920000</ele>
<time>2009-12-30T09:04:32Z</time>
</trkpt>
<trkpt lat="37.975953" lon="-1.046678">
 <ele>274.260000</ele>
<time>2009-12-30T09:04:36Z</time>
</trkpt>
<trkpt lat="37.975961" lon="-1.046679">
 <ele>275.220000</ele>
<time>2009-12-30T09:04:37Z</time>
</trkpt>
<trkpt lat="37.975953" lon="-1.046687">
 <ele>275.960000</ele>
<time>2009-12-30T09:04:38Z</time>
</trkpt>
<trkpt lat="37.975951" lon="-1.046678">
 <ele>273.780000</ele>
<time>2009-12-30T09:04:39Z</time>
</trkpt>
<trkpt lat="37.975952" lon="-1.046682">
 <ele>275.860000</ele>
<time>2009-12-30T09:04:40Z</time>
</trkpt>
<trkpt lat="37.975952" lon="-1.046682">
 <ele>275.300000</ele>
<time>2009-12-30T09:04:41Z</time>
</trkpt>
<trkpt lat="37.975947" lon="-1.046680">
 <ele>276.220000</ele>
<time>2009-12-30T09:04:42Z</time>
</trkpt>
<trkpt lat="37.975918" lon="-1.046656">
 <ele>278.740000</ele>
<time>2009-12-30T09:04:46Z</time>
</trkpt>
<trkpt lat="37.975910" lon="-1.046643">
 <ele>277.200000</ele>
<time>2009-12-30T09:04:47Z</time>
</trkpt>
<trkpt lat="37.975905" lon="-1.046647">
 <ele>276.480000</ele>
<time>2009-12-30T09:04:48Z</time>
</trkpt>
<trkpt lat="37.975908" lon="-1.046642">
 <ele>277.640000</ele>
<time>2009-12-30T09:04:49Z</time>
</trkpt>
<trkpt lat="37.975903" lon="-1.046621">
 <ele>276.260000</ele>
<time>2009-12-30T09:04:51Z</time>
</trkpt>
<trkpt lat="37.975915" lon="-1.046631">
 <ele>276.800000</ele>
<time>2009-12-30T09:04:52Z</time>
</trkpt>
<trkpt lat="37.975905" lon="-1.046631">
 <ele>276.420000</ele>
<time>2009-12-30T09:04:53Z</time>
</trkpt>
<trkpt lat="37.975915" lon="-1.046630">
 <ele>276.260000</ele>
<time>2009-12-30T09:04:54Z</time>
</trkpt>
<trkpt lat="37.975905" lon="-1.046624">
 <ele>276.740000</ele>
<time>2009-12-30T09:04:55Z</time>
</trkpt>
<trkpt lat="37.975894" lon="-1.046600">
 <ele>276.960000</ele>
<time>2009-12-30T09:04:59Z</time>
</trkpt>
<trkpt lat="37.975883" lon="-1.046588">
 <ele>278.320000</ele>
<time>2009-12-30T09:05:00Z</time>
</trkpt>
<trkpt lat="37.975879" lon="-1.046581">
 <ele>276.120000</ele>
<time>2009-12-30T09:05:01Z</time>
</trkpt>
<trkpt lat="37.975879" lon="-1.046596">
 <ele>276.500000</ele>
<time>2009-12-30T09:05:02Z</time>
</trkpt>
<trkpt lat="37.975875" lon="-1.046600">
 <ele>277.120000</ele>
<time>2009-12-30T09:05:03Z</time>
</trkpt>
<trkpt lat="37.975879" lon="-1.046595">
 <ele>276.300000</ele>
<time>2009-12-30T09:05:04Z</time>
</trkpt>
<trkpt lat="37.975875" lon="-1.046593">
 <ele>276.620000</ele>
<time>2009-12-30T09:05:05Z</time>
</trkpt>
<trkpt lat="37.975875" lon="-1.046593">
 <ele>276.700000</ele>
<time>2009-12-30T09:05:06Z</time>
</trkpt>
<trkpt lat="37.975867" lon="-1.046584">
 <ele>276.620000</ele>
<time>2009-12-30T09:05:09Z</time>
</trkpt>
<trkpt lat="37.975830" lon="-1.046513">
 <ele>277.960000</ele>
<time>2009-12-30T09:05:12Z</time>
</trkpt>
<trkpt lat="37.975774" lon="-1.046491">
 <ele>282.080000</ele>
<time>2009-12-30T09:05:18Z</time>
</trkpt>
<trkpt lat="37.975785" lon="-1.046483">
 <ele>283.200000</ele>
<time>2009-12-30T09:05:19Z</time>
</trkpt>
<trkpt lat="37.975789" lon="-1.046457">
 <ele>283.060000</ele>
<time>2009-12-30T09:05:22Z</time>
</trkpt>
<trkpt lat="37.975785" lon="-1.046467">
 <ele>281.920000</ele>
<time>2009-12-30T09:05:23Z</time>
</trkpt>
<trkpt lat="37.975782" lon="-1.046448">
 <ele>282.140000</ele>
<time>2009-12-30T09:05:24Z</time>
</trkpt>
<trkpt lat="37.975787" lon="-1.046456">
 <ele>281.920000</ele>
<time>2009-12-30T09:05:25Z</time>
</trkpt>
<trkpt lat="37.975776" lon="-1.046441">
 <ele>280.880000</ele>
<time>2009-12-30T09:05:26Z</time>
</trkpt>
<trkpt lat="37.975747" lon="-1.046383">
 <ele>277.960000</ele>
<time>2009-12-30T09:05:30Z</time>
</trkpt>
<trkpt lat="37.975743" lon="-1.046382">
 <ele>278.820000</ele>
<time>2009-12-30T09:05:31Z</time>
</trkpt>
<trkpt lat="37.975747" lon="-1.046385">
 <ele>278.560000</ele>
<time>2009-12-30T09:05:32Z</time>
</trkpt>
<trkpt lat="37.975751" lon="-1.046361">
 <ele>278.620000</ele>
<time>2009-12-30T09:05:33Z</time>
</trkpt>
<trkpt lat="37.975734" lon="-1.046329">
 <ele>280.040000</ele>
<time>2009-12-30T09:05:37Z</time>
</trkpt>
<trkpt lat="37.975738" lon="-1.046315">
 <ele>280.460000</ele>
<time>2009-12-30T09:05:38Z</time>
</trkpt>
<trkpt lat="37.975737" lon="-1.046284">
 <ele>282.340000</ele>
<time>2009-12-30T09:05:41Z</time>
</trkpt>
<trkpt lat="37.975731" lon="-1.046267">
 <ele>283.300000</ele>
<time>2009-12-30T09:05:43Z</time>
</trkpt>
<trkpt lat="37.975734" lon="-1.046284">
 <ele>282.040000</ele>
<time>2009-12-30T09:05:44Z</time>
</trkpt>
<trkpt lat="37.975742" lon="-1.046277">
 <ele>283.800000</ele>
<time>2009-12-30T09:05:45Z</time>
</trkpt>
<trkpt lat="37.975739" lon="-1.046274">
 <ele>282.060000</ele>
<time>2009-12-30T09:05:46Z</time>
</trkpt>
<trkpt lat="37.975737" lon="-1.046270">
 <ele>283.100000</ele>
<time>2009-12-30T09:05:47Z</time>
</trkpt>
<trkpt lat="37.975737" lon="-1.046270">
 <ele>282.700000</ele>
<time>2009-12-30T09:05:48Z</time>
</trkpt>
<trkpt lat="37.975734" lon="-1.046256">
 <ele>285.780000</ele>
<time>2009-12-30T09:05:58Z</time>
</trkpt>
<trkpt lat="37.975721" lon="-1.046212">
 <ele>295.080000</ele>
<time>2009-12-30T09:06:00Z</time>
</trkpt>
<trkpt lat="37.975710" lon="-1.046188">
 <ele>296.360000</ele>
<time>2009-12-30T09:06:02Z</time>
</trkpt>
<trkpt lat="37.975718" lon="-1.046176">
 <ele>290.500000</ele>
<time>2009-12-30T09:06:03Z</time>
</trkpt>
<trkpt lat="37.975718" lon="-1.046175">
 <ele>290.460000</ele>
<time>2009-12-30T09:06:04Z</time>
</trkpt>
<trkpt lat="37.975717" lon="-1.046168">
 <ele>290.480000</ele>
<time>2009-12-30T09:06:06Z</time>
</trkpt>
<trkpt lat="37.975717" lon="-1.046168">
 <ele>290.400000</ele>
<time>2009-12-30T09:06:07Z</time>
</trkpt>
<trkpt lat="37.975718" lon="-1.046159">
 <ele>291.640000</ele>
<time>2009-12-30T09:06:14Z</time>
</trkpt>
<trkpt lat="37.975705" lon="-1.046112">
 <ele>290.520000</ele>
<time>2009-12-30T09:06:17Z</time>
</trkpt>
<trkpt lat="37.975724" lon="-1.046111">
 <ele>295.160000</ele>
<time>2009-12-30T09:06:18Z</time>
</trkpt>
<trkpt lat="37.975709" lon="-1.046106">
 <ele>293.260000</ele>
<time>2009-12-30T09:06:20Z</time>
</trkpt>
<trkpt lat="37.975709" lon="-1.046109">
 <ele>293.300000</ele>
<time>2009-12-30T09:06:23Z</time>
</trkpt>
<trkpt lat="37.975702" lon="-1.046109">
 <ele>294.260000</ele>
<time>2009-12-30T09:06:24Z</time>
</trkpt>
<trkpt lat="37.975701" lon="-1.046109">
 <ele>293.460000</ele>
<time>2009-12-30T09:06:25Z</time>
</trkpt>
<trkpt lat="37.975718" lon="-1.046108">
 <ele>293.540000</ele>
<time>2009-12-30T09:06:26Z</time>
</trkpt>
<trkpt lat="37.975704" lon="-1.046105">
 <ele>293.820000</ele>
<time>2009-12-30T09:06:27Z</time>
</trkpt>
<trkpt lat="37.975702" lon="-1.046100">
 <ele>294.080000</ele>
<time>2009-12-30T09:06:28Z</time>
</trkpt>
<trkpt lat="37.975702" lon="-1.046111">
 <ele>293.200000</ele>
<time>2009-12-30T09:06:29Z</time>
</trkpt>
<trkpt lat="37.975706" lon="-1.046132">
 <ele>289.580000</ele>
<time>2009-12-30T09:06:33Z</time>
</trkpt>
<trkpt lat="37.975707" lon="-1.046150">
 <ele>289.260000</ele>
<time>2009-12-30T09:06:34Z</time>
</trkpt>
<trkpt lat="37.975692" lon="-1.046161">
 <ele>289.400000</ele>
<time>2009-12-30T09:06:36Z</time>
</trkpt>
<trkpt lat="37.975697" lon="-1.046176">
 <ele>291.400000</ele>
<time>2009-12-30T09:06:37Z</time>
</trkpt>
<trkpt lat="37.975700" lon="-1.046189">
 <ele>292.520000</ele>
<time>2009-12-30T09:06:38Z</time>
</trkpt>
<trkpt lat="37.975709" lon="-1.046183">
 <ele>292.620000</ele>
<time>2009-12-30T09:06:39Z</time>
</trkpt>
<trkpt lat="37.975696" lon="-1.046199">
 <ele>293.980000</ele>
<time>2009-12-30T09:06:40Z</time>
</trkpt>
<trkpt lat="37.975706" lon="-1.046198">
 <ele>295.760000</ele>
<time>2009-12-30T09:06:41Z</time>
</trkpt>
<trkpt lat="37.975705" lon="-1.046218">
 <ele>294.180000</ele>
<time>2009-12-30T09:06:42Z</time>
</trkpt>
<trkpt lat="37.975708" lon="-1.046194">
 <ele>294.480000</ele>
<time>2009-12-30T09:06:43Z</time>
</trkpt>
<trkpt lat="37.975713" lon="-1.046190">
 <ele>297.040000</ele>
<time>2009-12-30T09:06:44Z</time>
</trkpt>
<trkpt lat="37.975713" lon="-1.046205">
 <ele>293.620000</ele>
<time>2009-12-30T09:06:45Z</time>
</trkpt>
<trkpt lat="37.975738" lon="-1.046252">
 <ele>298.200000</ele>
<time>2009-12-30T09:06:49Z</time>
</trkpt>
<trkpt lat="37.975729" lon="-1.046244">
 <ele>303.260000</ele>
<time>2009-12-30T09:06:50Z</time>
</trkpt>
<trkpt lat="37.975723" lon="-1.046245">
 <ele>300.440000</ele>
<time>2009-12-30T09:06:51Z</time>
</trkpt>
<trkpt lat="37.975728" lon="-1.046240">
 <ele>301.380000</ele>
<time>2009-12-30T09:06:52Z</time>
</trkpt>
<trkpt lat="37.975727" lon="-1.046250">
 <ele>300.420000</ele>
<time>2009-12-30T09:06:53Z</time>
</trkpt>
<trkpt lat="37.975686" lon="-1.046276">
 <ele>311.480000</ele>
<time>2009-12-30T09:06:56Z</time>
</trkpt>
<trkpt lat="37.975676" lon="-1.046298">
 <ele>313.760000</ele>
<time>2009-12-30T09:06:58Z</time>
</trkpt>
<trkpt lat="37.975674" lon="-1.046308">
 <ele>310.680000</ele>
<time>2009-12-30T09:06:59Z</time>
</trkpt>
<trkpt lat="37.975679" lon="-1.046298">
 <ele>310.600000</ele>
<time>2009-12-30T09:07:00Z</time>
</trkpt>
<trkpt lat="37.975664" lon="-1.046299">
 <ele>310.760000</ele>
<time>2009-12-30T09:07:01Z</time>
</trkpt>
<trkpt lat="37.975665" lon="-1.046296">
 <ele>310.200000</ele>
<time>2009-12-30T09:07:02Z</time>
</trkpt>
<trkpt lat="37.975665" lon="-1.046302">
 <ele>310.520000</ele>
<time>2009-12-30T09:07:03Z</time>
</trkpt>
<trkpt lat="37.975665" lon="-1.046302">
 <ele>310.200000</ele>
<time>2009-12-30T09:07:04Z</time>
</trkpt>
<trkpt lat="37.975658" lon="-1.046309">
 <ele>310.400000</ele>
<time>2009-12-30T09:07:08Z</time>
</trkpt>
<trkpt lat="37.975620" lon="-1.046353">
 <ele>307.480000</ele>
<time>2009-12-30T09:07:11Z</time>
</trkpt>
<trkpt lat="37.975604" lon="-1.046331">
 <ele>309.120000</ele>
<time>2009-12-30T09:07:12Z</time>
</trkpt>
<trkpt lat="37.975577" lon="-1.046334">
 <ele>306.200000</ele>
<time>2009-12-30T09:07:14Z</time>
</trkpt>
<trkpt lat="37.975585" lon="-1.046336">
 <ele>305.000000</ele>
<time>2009-12-30T09:07:15Z</time>
</trkpt>
<trkpt lat="37.975573" lon="-1.046343">
 <ele>305.340000</ele>
<time>2009-12-30T09:07:16Z</time>
</trkpt>
<trkpt lat="37.975576" lon="-1.046338">
 <ele>306.100000</ele>
<time>2009-12-30T09:07:17Z</time>
</trkpt>
<trkpt lat="37.975567" lon="-1.046338">
 <ele>304.580000</ele>
<time>2009-12-30T09:07:18Z</time>
</trkpt>
<trkpt lat="37.975567" lon="-1.046338">
 <ele>305.700000</ele>
<time>2009-12-30T09:07:19Z</time>
</trkpt>
<trkpt lat="37.975557" lon="-1.046353">
 <ele>305.140000</ele>
<time>2009-12-30T09:07:23Z</time>
</trkpt>
<trkpt lat="37.975519" lon="-1.046393">
 <ele>303.900000</ele>
<time>2009-12-30T09:07:25Z</time>
</trkpt>
<trkpt lat="37.975481" lon="-1.046484">
 <ele>302.080000</ele>
<time>2009-12-30T09:07:30Z</time>
</trkpt>
<trkpt lat="37.975473" lon="-1.046481">
 <ele>300.860000</ele>
<time>2009-12-30T09:07:31Z</time>
</trkpt>
<trkpt lat="37.975472" lon="-1.046477">
 <ele>299.160000</ele>
<time>2009-12-30T09:07:32Z</time>
</trkpt>
<trkpt lat="37.975473" lon="-1.046483">
 <ele>300.660000</ele>
<time>2009-12-30T09:07:33Z</time>
</trkpt>
<trkpt lat="37.975481" lon="-1.046483">
 <ele>300.000000</ele>
<time>2009-12-30T09:07:34Z</time>
</trkpt>
<trkpt lat="37.975472" lon="-1.046487">
 <ele>299.680000</ele>
<time>2009-12-30T09:07:35Z</time>
</trkpt>
<trkpt lat="37.975472" lon="-1.046487">
 <ele>300.400000</ele>
<time>2009-12-30T09:07:36Z</time>
</trkpt>
<trkpt lat="37.975473" lon="-1.046503">
 <ele>302.120000</ele>
<time>2009-12-30T09:07:38Z</time>
</trkpt>
<trkpt lat="37.975472" lon="-1.046578">
 <ele>303.540000</ele>
<time>2009-12-30T09:07:41Z</time>
</trkpt>
<trkpt lat="37.975467" lon="-1.046572">
 <ele>309.300000</ele>
<time>2009-12-30T09:07:42Z</time>
</trkpt>
<trkpt lat="37.975477" lon="-1.046580">
 <ele>307.240000</ele>
<time>2009-12-30T09:07:43Z</time>
</trkpt>
<trkpt lat="37.975482" lon="-1.046581">
 <ele>306.580000</ele>
<time>2009-12-30T09:07:44Z</time>
</trkpt>
<trkpt lat="37.975478" lon="-1.046587">
 <ele>306.740000</ele>
<time>2009-12-30T09:07:45Z</time>
</trkpt>
<trkpt lat="37.975478" lon="-1.046587">
 <ele>306.500000</ele>
<time>2009-12-30T09:07:46Z</time>
</trkpt>
<trkpt lat="37.975481" lon="-1.046616">
 <ele>309.980000</ele>
<time>2009-12-30T09:07:52Z</time>
</trkpt>
<trkpt lat="37.975479" lon="-1.046688">
 <ele>321.820000</ele>
<time>2009-12-30T09:07:54Z</time>
</trkpt>
<trkpt lat="37.975476" lon="-1.046729">
 <ele>310.960000</ele>
<time>2009-12-30T09:07:55Z</time>
</trkpt>
<trkpt lat="37.975483" lon="-1.046736">
 <ele>324.260000</ele>
<time>2009-12-30T09:07:56Z</time>
</trkpt>
<trkpt lat="37.975485" lon="-1.046744">
 <ele>317.680000</ele>
<time>2009-12-30T09:07:57Z</time>
</trkpt>
<trkpt lat="37.975486" lon="-1.046733">
 <ele>318.060000</ele>
<time>2009-12-30T09:07:58Z</time>
</trkpt>
<trkpt lat="37.975481" lon="-1.046750">
 <ele>318.060000</ele>
<time>2009-12-30T09:07:59Z</time>
</trkpt>
<trkpt lat="37.975482" lon="-1.046796">
 <ele>321.240000</ele>
<time>2009-12-30T09:08:03Z</time>
</trkpt>
<trkpt lat="37.975487" lon="-1.046815">
 <ele>321.820000</ele>
<time>2009-12-30T09:08:04Z</time>
</trkpt>
<trkpt lat="37.975488" lon="-1.046806">
 <ele>325.120000</ele>
<time>2009-12-30T09:08:05Z</time>
</trkpt>
<trkpt lat="37.975478" lon="-1.046815">
 <ele>323.440000</ele>
<time>2009-12-30T09:08:06Z</time>
</trkpt>
<trkpt lat="37.975468" lon="-1.046812">
 <ele>323.480000</ele>
<time>2009-12-30T09:08:07Z</time>
</trkpt>
<trkpt lat="37.975476" lon="-1.046824">
 <ele>324.420000</ele>
<time>2009-12-30T09:08:08Z</time>
</trkpt>
<trkpt lat="37.975449" lon="-1.046865">
 <ele>324.940000</ele>
<time>2009-12-30T09:08:13Z</time>
</trkpt>
<trkpt lat="37.975468" lon="-1.046880">
 <ele>325.240000</ele>
<time>2009-12-30T09:08:14Z</time>
</trkpt>
<trkpt lat="37.975466" lon="-1.046877">
 <ele>324.680000</ele>
<time>2009-12-30T09:08:15Z</time>
</trkpt>
<trkpt lat="37.975452" lon="-1.046875">
 <ele>325.540000</ele>
<time>2009-12-30T09:08:16Z</time>
</trkpt>
<trkpt lat="37.975458" lon="-1.046882">
 <ele>324.820000</ele>
<time>2009-12-30T09:08:17Z</time>
</trkpt>
<trkpt lat="37.975458" lon="-1.046882">
 <ele>324.900000</ele>
<time>2009-12-30T09:08:18Z</time>
</trkpt>
<trkpt lat="37.975455" lon="-1.046884">
 <ele>322.140000</ele>
<time>2009-12-30T09:08:23Z</time>
</trkpt>
<trkpt lat="37.975422" lon="-1.046889">
 <ele>313.140000</ele>
<time>2009-12-30T09:08:28Z</time>
</trkpt>
<trkpt lat="37.975420" lon="-1.046894">
 <ele>310.920000</ele>
<time>2009-12-30T09:08:29Z</time>
</trkpt>
<trkpt lat="37.975428" lon="-1.046901">
 <ele>312.020000</ele>
<time>2009-12-30T09:08:30Z</time>
</trkpt>
<trkpt lat="37.975430" lon="-1.046901">
 <ele>311.120000</ele>
<time>2009-12-30T09:08:31Z</time>
</trkpt>
<trkpt lat="37.975420" lon="-1.046907">
 <ele>312.200000</ele>
<time>2009-12-30T09:08:32Z</time>
</trkpt>
<trkpt lat="37.975400" lon="-1.046911">
 <ele>311.680000</ele>
<time>2009-12-30T09:08:36Z</time>
</trkpt>
<trkpt lat="37.975399" lon="-1.046911">
 <ele>312.600000</ele>
<time>2009-12-30T09:08:37Z</time>
</trkpt>
<trkpt lat="37.975416" lon="-1.046922">
 <ele>312.220000</ele>
<time>2009-12-30T09:08:38Z</time>
</trkpt>
<trkpt lat="37.975411" lon="-1.046934">
 <ele>312.580000</ele>
<time>2009-12-30T09:08:39Z</time>
</trkpt>
<trkpt lat="37.975411" lon="-1.046925">
 <ele>312.240000</ele>
<time>2009-12-30T09:08:40Z</time>
</trkpt>
<trkpt lat="37.975408" lon="-1.046925">
 <ele>312.640000</ele>
<time>2009-12-30T09:08:41Z</time>
</trkpt>
<trkpt lat="37.975408" lon="-1.046925">
 <ele>312.400000</ele>
<time>2009-12-30T09:08:42Z</time>
</trkpt>
<trkpt lat="37.975417" lon="-1.046930">
 <ele>312.480000</ele>
<time>2009-12-30T09:09:14Z</time>
</trkpt>
<trkpt lat="37.975440" lon="-1.046925">
 <ele>311.660000</ele>
<time>2009-12-30T09:09:17Z</time>
</trkpt>
<trkpt lat="37.975467" lon="-1.046941">
 <ele>311.840000</ele>
<time>2009-12-30T09:09:18Z</time>
</trkpt>
<trkpt lat="37.975460" lon="-1.046951">
 <ele>311.540000</ele>
<time>2009-12-30T09:09:19Z</time>
</trkpt>
<trkpt lat="37.975455" lon="-1.046945">
 <ele>311.780000</ele>
<time>2009-12-30T09:09:20Z</time>
</trkpt>
<trkpt lat="37.975457" lon="-1.046942">
 <ele>311.380000</ele>
<time>2009-12-30T09:09:21Z</time>
</trkpt>
<trkpt lat="37.975457" lon="-1.046942">
 <ele>311.700000</ele>
<time>2009-12-30T09:09:22Z</time>
</trkpt>
<trkpt lat="37.975429" lon="-1.046922">
 <ele>311.020000</ele>
<time>2009-12-30T09:10:13Z</time>
</trkpt>
<trkpt lat="37.975344" lon="-1.046847">
 <ele>311.000000</ele>
<time>2009-12-30T09:10:16Z</time>
</trkpt>
<trkpt lat="37.975335" lon="-1.046839">
 <ele>309.280000</ele>
<time>2009-12-30T09:10:17Z</time>
</trkpt>
<trkpt lat="37.975286" lon="-1.046826">
 <ele>310.240000</ele>
<time>2009-12-30T09:10:21Z</time>
</trkpt>
<trkpt lat="37.975303" lon="-1.046827">
 <ele>311.740000</ele>
<time>2009-12-30T09:10:22Z</time>
</trkpt>
<trkpt lat="37.975292" lon="-1.046821">
 <ele>310.960000</ele>
<time>2009-12-30T09:10:23Z</time>
</trkpt>
<trkpt lat="37.975271" lon="-1.046793">
 <ele>311.820000</ele>
<time>2009-12-30T09:10:27Z</time>
</trkpt>
<trkpt lat="37.975266" lon="-1.046798">
 <ele>311.900000</ele>
<time>2009-12-30T09:10:28Z</time>
</trkpt>
<trkpt lat="37.975268" lon="-1.046794">
 <ele>312.700000</ele>
<time>2009-12-30T09:10:29Z</time>
</trkpt>
<trkpt lat="37.975273" lon="-1.046803">
 <ele>311.360000</ele>
<time>2009-12-30T09:10:30Z</time>
</trkpt>
<trkpt lat="37.975261" lon="-1.046793">
 <ele>313.040000</ele>
<time>2009-12-30T09:10:31Z</time>
</trkpt>
<trkpt lat="37.975233" lon="-1.046763">
 <ele>312.800000</ele>
<time>2009-12-30T09:10:34Z</time>
</trkpt>
<trkpt lat="37.975245" lon="-1.046762">
 <ele>315.920000</ele>
<time>2009-12-30T09:10:35Z</time>
</trkpt>
<trkpt lat="37.975238" lon="-1.046772">
 <ele>313.700000</ele>
<time>2009-12-30T09:10:36Z</time>
</trkpt>
<trkpt lat="37.975243" lon="-1.046775">
 <ele>314.600000</ele>
<time>2009-12-30T09:10:37Z</time>
</trkpt>
<trkpt lat="37.975238" lon="-1.046767">
 <ele>314.280000</ele>
<time>2009-12-30T09:10:38Z</time>
</trkpt>
<trkpt lat="37.975238" lon="-1.046767">
 <ele>314.200000</ele>
<time>2009-12-30T09:10:39Z</time>
</trkpt>
<trkpt lat="37.975227" lon="-1.046752">
 <ele>315.720000</ele>
<time>2009-12-30T09:10:49Z</time>
</trkpt>
<trkpt lat="37.975184" lon="-1.046689">
 <ele>316.600000</ele>
<time>2009-12-30T09:10:52Z</time>
</trkpt>
<trkpt lat="37.975190" lon="-1.046691">
 <ele>322.500000</ele>
<time>2009-12-30T09:10:53Z</time>
</trkpt>
<trkpt lat="37.975188" lon="-1.046688">
 <ele>320.280000</ele>
<time>2009-12-30T09:10:54Z</time>
</trkpt>
<trkpt lat="37.975177" lon="-1.046694">
 <ele>319.460000</ele>
<time>2009-12-30T09:10:55Z</time>
</trkpt>
<trkpt lat="37.975180" lon="-1.046687">
 <ele>320.260000</ele>
<time>2009-12-30T09:10:56Z</time>
</trkpt>
<trkpt lat="37.975180" lon="-1.046687">
 <ele>319.700000</ele>
<time>2009-12-30T09:10:57Z</time>
</trkpt>
<trkpt lat="37.975180" lon="-1.046687">
 <ele>319.700000</ele>
<time>2009-12-30T09:10:58Z</time>
</trkpt>
<trkpt lat="37.975180" lon="-1.046687">
 <ele>319.700000</ele>
<time>2009-12-30T09:10:59Z</time>
</trkpt>
<trkpt lat="37.975180" lon="-1.046687">
 <ele>319.700000</ele>
<time>2009-12-30T09:11:00Z</time>
</trkpt>
<trkpt lat="37.975180" lon="-1.046687">
 <ele>319.700000</ele>
<time>2009-12-30T09:11:01Z</time>
</trkpt>
<trkpt lat="37.975180" lon="-1.046687">
 <ele>319.700000</ele>
<time>2009-12-30T09:11:02Z</time>
</trkpt>
<trkpt lat="37.975166" lon="-1.046606">
 <ele>332.220000</ele>
<time>2009-12-30T09:11:05Z</time>
</trkpt>
<trkpt lat="37.975141" lon="-1.046564">
 <ele>327.580000</ele>
<time>2009-12-30T09:11:08Z</time>
</trkpt>
<trkpt lat="37.975141" lon="-1.046547">
 <ele>328.600000</ele>
<time>2009-12-30T09:11:09Z</time>
</trkpt>
<trkpt lat="37.975153" lon="-1.046555">
 <ele>329.360000</ele>
<time>2009-12-30T09:11:10Z</time>
</trkpt>
<trkpt lat="37.975151" lon="-1.046553">
 <ele>330.140000</ele>
<time>2009-12-30T09:11:11Z</time>
</trkpt>
<trkpt lat="37.975152" lon="-1.046554">
 <ele>328.260000</ele>
<time>2009-12-30T09:11:12Z</time>
</trkpt>
<trkpt lat="37.975150" lon="-1.046544">
 <ele>330.300000</ele>
<time>2009-12-30T09:11:13Z</time>
</trkpt>
<trkpt lat="37.975135" lon="-1.046496">
 <ele>329.700000</ele>
<time>2009-12-30T09:11:16Z</time>
</trkpt>
<trkpt lat="37.975138" lon="-1.046520">
 <ele>329.640000</ele>
<time>2009-12-30T09:11:17Z</time>
</trkpt>
<trkpt lat="37.975141" lon="-1.046508">
 <ele>329.700000</ele>
<time>2009-12-30T09:11:18Z</time>
</trkpt>
<trkpt lat="37.975141" lon="-1.046517">
 <ele>329.620000</ele>
<time>2009-12-30T09:11:19Z</time>
</trkpt>
<trkpt lat="37.975138" lon="-1.046508">
 <ele>330.020000</ele>
<time>2009-12-30T09:11:20Z</time>
</trkpt>
<trkpt lat="37.975130" lon="-1.046427">
 <ele>327.980000</ele>
<time>2009-12-30T09:11:25Z</time>
</trkpt>
<trkpt lat="37.975120" lon="-1.046417">
 <ele>328.600000</ele>
<time>2009-12-30T09:11:26Z</time>
</trkpt>
<trkpt lat="37.975106" lon="-1.046354">
 <ele>329.920000</ele>
<time>2009-12-30T09:11:31Z</time>
</trkpt>
<trkpt lat="37.975115" lon="-1.046357">
 <ele>329.360000</ele>
<time>2009-12-30T09:11:32Z</time>
</trkpt>
<trkpt lat="37.975108" lon="-1.046356">
 <ele>329.920000</ele>
<time>2009-12-30T09:11:33Z</time>
</trkpt>
<trkpt lat="37.975111" lon="-1.046345">
 <ele>329.240000</ele>
<time>2009-12-30T09:11:34Z</time>
</trkpt>
<trkpt lat="37.975108" lon="-1.046348">
 <ele>330.420000</ele>
<time>2009-12-30T09:11:35Z</time>
</trkpt>
<trkpt lat="37.975100" lon="-1.046327">
 <ele>329.640000</ele>
<time>2009-12-30T09:11:36Z</time>
</trkpt>
<trkpt lat="37.975116" lon="-1.046327">
 <ele>329.860000</ele>
<time>2009-12-30T09:11:37Z</time>
</trkpt>
<trkpt lat="37.975099" lon="-1.046311">
 <ele>330.400000</ele>
<time>2009-12-30T09:11:38Z</time>
</trkpt>
<trkpt lat="37.975111" lon="-1.046309">
 <ele>330.740000</ele>
<time>2009-12-30T09:11:39Z</time>
</trkpt>
<trkpt lat="37.975103" lon="-1.046289">
 <ele>329.780000</ele>
<time>2009-12-30T09:11:40Z</time>
</trkpt>
<trkpt lat="37.975096" lon="-1.046262">
 <ele>330.900000</ele>
<time>2009-12-30T09:11:44Z</time>
</trkpt>
<trkpt lat="37.975093" lon="-1.046270">
 <ele>331.080000</ele>
<time>2009-12-30T09:11:45Z</time>
</trkpt>
<trkpt lat="37.975088" lon="-1.046269">
 <ele>330.960000</ele>
<time>2009-12-30T09:11:46Z</time>
</trkpt>
<trkpt lat="37.975096" lon="-1.046263">
 <ele>330.840000</ele>
<time>2009-12-30T09:11:47Z</time>
</trkpt>
<trkpt lat="37.975092" lon="-1.046262">
 <ele>331.480000</ele>
<time>2009-12-30T09:11:48Z</time>
</trkpt>
<trkpt lat="37.975068" lon="-1.046200">
 <ele>331.360000</ele>
<time>2009-12-30T09:11:52Z</time>
</trkpt>
<trkpt lat="37.975062" lon="-1.046160">
 <ele>333.400000</ele>
<time>2009-12-30T09:11:58Z</time>
</trkpt>
<trkpt lat="37.975066" lon="-1.046162">
 <ele>335.120000</ele>
<time>2009-12-30T09:11:59Z</time>
</trkpt>
<trkpt lat="37.975054" lon="-1.046151">
 <ele>333.960000</ele>
<time>2009-12-30T09:12:00Z</time>
</trkpt>
<trkpt lat="37.975061" lon="-1.046164">
 <ele>334.360000</ele>
<time>2009-12-30T09:12:01Z</time>
</trkpt>
<trkpt lat="37.975057" lon="-1.046155">
 <ele>334.520000</ele>
<time>2009-12-30T09:12:02Z</time>
</trkpt>
<trkpt lat="37.975057" lon="-1.046155">
 <ele>334.200000</ele>
<time>2009-12-30T09:12:03Z</time>
</trkpt>
<trkpt lat="37.975052" lon="-1.046138">
 <ele>335.640000</ele>
<time>2009-12-30T09:12:09Z</time>
</trkpt>
<trkpt lat="37.975003" lon="-1.045994">
 <ele>335.660000</ele>
<time>2009-12-30T09:12:19Z</time>
</trkpt>
<trkpt lat="37.975001" lon="-1.045988">
 <ele>335.440000</ele>
<time>2009-12-30T09:12:20Z</time>
</trkpt>
<trkpt lat="37.974980" lon="-1.045924">
 <ele>338.260000</ele>
<time>2009-12-30T09:12:25Z</time>
</trkpt>
<trkpt lat="37.974982" lon="-1.045917">
 <ele>337.840000</ele>
<time>2009-12-30T09:12:26Z</time>
</trkpt>
<trkpt lat="37.974973" lon="-1.045877">
 <ele>340.740000</ele>
<time>2009-12-30T09:12:31Z</time>
</trkpt>
<trkpt lat="37.974969" lon="-1.045866">
 <ele>341.620000</ele>
<time>2009-12-30T09:12:32Z</time>
</trkpt>
<trkpt lat="37.974956" lon="-1.045806">
 <ele>343.140000</ele>
<time>2009-12-30T09:12:38Z</time>
</trkpt>
<trkpt lat="37.974963" lon="-1.045808">
 <ele>343.980000</ele>
<time>2009-12-30T09:12:39Z</time>
</trkpt>
<trkpt lat="37.974959" lon="-1.045801">
 <ele>344.100000</ele>
<time>2009-12-30T09:12:40Z</time>
</trkpt>
<trkpt lat="37.974955" lon="-1.045805">
 <ele>342.800000</ele>
<time>2009-12-30T09:12:41Z</time>
</trkpt>
<trkpt lat="37.974957" lon="-1.045797">
 <ele>344.160000</ele>
<time>2009-12-30T09:12:42Z</time>
</trkpt>
<trkpt lat="37.974957" lon="-1.045797">
 <ele>343.600000</ele>
<time>2009-12-30T09:12:43Z</time>
</trkpt>
<trkpt lat="37.974955" lon="-1.045778">
 <ele>344.720000</ele>
<time>2009-12-30T09:12:49Z</time>
</trkpt>
<trkpt lat="37.974941" lon="-1.045635">
 <ele>349.180000</ele>
<time>2009-12-30T09:12:57Z</time>
</trkpt>
<trkpt lat="37.974941" lon="-1.045632">
 <ele>348.920000</ele>
<time>2009-12-30T09:12:58Z</time>
</trkpt>
<trkpt lat="37.974944" lon="-1.045572">
 <ele>347.160000</ele>
<time>2009-12-30T09:13:03Z</time>
</trkpt>
<trkpt lat="37.974937" lon="-1.045544">
 <ele>345.920000</ele>
<time>2009-12-30T09:13:05Z</time>
</trkpt>
<trkpt lat="37.974906" lon="-1.045475">
 <ele>347.160000</ele>
<time>2009-12-30T09:13:10Z</time>
</trkpt>
<trkpt lat="37.974908" lon="-1.045434">
 <ele>351.060000</ele>
<time>2009-12-30T09:13:16Z</time>
</trkpt>
<trkpt lat="37.974915" lon="-1.045428">
 <ele>352.040000</ele>
<time>2009-12-30T09:13:17Z</time>
</trkpt>
<trkpt lat="37.974910" lon="-1.045410">
 <ele>352.760000</ele>
<time>2009-12-30T09:13:20Z</time>
</trkpt>
<trkpt lat="37.974898" lon="-1.045400">
 <ele>354.280000</ele>
<time>2009-12-30T09:13:21Z</time>
</trkpt>
<trkpt lat="37.974898" lon="-1.045401">
 <ele>355.080000</ele>
<time>2009-12-30T09:13:22Z</time>
</trkpt>
<trkpt lat="37.974909" lon="-1.045405">
 <ele>355.980000</ele>
<time>2009-12-30T09:13:23Z</time>
</trkpt>
<trkpt lat="37.974909" lon="-1.045395">
 <ele>357.660000</ele>
<time>2009-12-30T09:13:24Z</time>
</trkpt>
<trkpt lat="37.974916" lon="-1.045406">
 <ele>354.820000</ele>
<time>2009-12-30T09:13:25Z</time>
</trkpt>
<trkpt lat="37.974912" lon="-1.045400">
 <ele>357.860000</ele>
<time>2009-12-30T09:13:26Z</time>
</trkpt>
<trkpt lat="37.974912" lon="-1.045400">
 <ele>356.100000</ele>
<time>2009-12-30T09:13:27Z</time>
</trkpt>
<trkpt lat="37.974899" lon="-1.045411">
 <ele>358.020000</ele>
<time>2009-12-30T09:13:47Z</time>
</trkpt>
<trkpt lat="37.974849" lon="-1.045433">
 <ele>355.700000</ele>
<time>2009-12-30T09:13:50Z</time>
</trkpt>
<trkpt lat="37.974856" lon="-1.045458">
 <ele>363.400000</ele>
<time>2009-12-30T09:13:51Z</time>
</trkpt>
<trkpt lat="37.974858" lon="-1.045460">
 <ele>359.580000</ele>
<time>2009-12-30T09:13:52Z</time>
</trkpt>
<trkpt lat="37.974853" lon="-1.045460">
 <ele>359.360000</ele>
<time>2009-12-30T09:13:53Z</time>
</trkpt>
<trkpt lat="37.974852" lon="-1.045458">
 <ele>359.360000</ele>
<time>2009-12-30T09:13:54Z</time>
</trkpt>
<trkpt lat="37.974852" lon="-1.045458">
 <ele>359.600000</ele>
<time>2009-12-30T09:13:55Z</time>
</trkpt>
<trkpt lat="37.974834" lon="-1.045457">
 <ele>359.960000</ele>
<time>2009-12-30T09:14:12Z</time>
</trkpt>
<trkpt lat="37.974786" lon="-1.045446">
 <ele>361.060000</ele>
<time>2009-12-30T09:14:14Z</time>
</trkpt>
<trkpt lat="37.974728" lon="-1.045426">
 <ele>360.860000</ele>
<time>2009-12-30T09:14:18Z</time>
</trkpt>
<trkpt lat="37.974736" lon="-1.045428">
 <ele>360.660000</ele>
<time>2009-12-30T09:14:19Z</time>
</trkpt>
<trkpt lat="37.974732" lon="-1.045421">
 <ele>361.100000</ele>
<time>2009-12-30T09:14:20Z</time>
</trkpt>
<trkpt lat="37.974643" lon="-1.045315">
 <ele>359.060000</ele>
<time>2009-12-30T09:14:32Z</time>
</trkpt>
<trkpt lat="37.974646" lon="-1.045325">
 <ele>358.220000</ele>
<time>2009-12-30T09:14:33Z</time>
</trkpt>
<trkpt lat="37.974642" lon="-1.045313">
 <ele>358.560000</ele>
<time>2009-12-30T09:14:34Z</time>
</trkpt>
<trkpt lat="37.974650" lon="-1.045326">
 <ele>358.980000</ele>
<time>2009-12-30T09:14:35Z</time>
</trkpt>
<trkpt lat="37.974644" lon="-1.045314">
 <ele>359.180000</ele>
<time>2009-12-30T09:14:36Z</time>
</trkpt>
<trkpt lat="37.974624" lon="-1.045288">
 <ele>358.920000</ele>
<time>2009-12-30T09:14:39Z</time>
</trkpt>
<trkpt lat="37.974631" lon="-1.045307">
 <ele>360.560000</ele>
<time>2009-12-30T09:14:40Z</time>
</trkpt>
<trkpt lat="37.974635" lon="-1.045293">
 <ele>359.700000</ele>
<time>2009-12-30T09:14:41Z</time>
</trkpt>
<trkpt lat="37.974640" lon="-1.045299">
 <ele>359.560000</ele>
<time>2009-12-30T09:14:42Z</time>
</trkpt>
<trkpt lat="37.974633" lon="-1.045295">
 <ele>360.200000</ele>
<time>2009-12-30T09:14:43Z</time>
</trkpt>
<trkpt lat="37.974633" lon="-1.045295">
 <ele>359.800000</ele>
<time>2009-12-30T09:14:44Z</time>
</trkpt>
<trkpt lat="37.974626" lon="-1.045292">
 <ele>360.360000</ele>
<time>2009-12-30T09:14:46Z</time>
</trkpt>
<trkpt lat="37.974560" lon="-1.045244">
 <ele>365.260000</ele>
<time>2009-12-30T09:14:54Z</time>
</trkpt>
<trkpt lat="37.974558" lon="-1.045247">
 <ele>367.320000</ele>
<time>2009-12-30T09:14:55Z</time>
</trkpt>
<trkpt lat="37.974560" lon="-1.045244">
 <ele>366.120000</ele>
<time>2009-12-30T09:14:56Z</time>
</trkpt>
<trkpt lat="37.974558" lon="-1.045238">
 <ele>366.420000</ele>
<time>2009-12-30T09:14:57Z</time>
</trkpt>
<trkpt lat="37.974555" lon="-1.045238">
 <ele>366.340000</ele>
<time>2009-12-30T09:14:58Z</time>
</trkpt>
<trkpt lat="37.974555" lon="-1.045238">
 <ele>366.100000</ele>
<time>2009-12-30T09:14:59Z</time>
</trkpt>
<trkpt lat="37.974543" lon="-1.045232">
 <ele>367.740000</ele>
<time>2009-12-30T09:15:05Z</time>
</trkpt>
<trkpt lat="37.974464" lon="-1.045199">
 <ele>368.000000</ele>
<time>2009-12-30T09:15:08Z</time>
</trkpt>
<trkpt lat="37.974462" lon="-1.045198">
 <ele>371.720000</ele>
<time>2009-12-30T09:15:10Z</time>
</trkpt>
<trkpt lat="37.974457" lon="-1.045189">
 <ele>371.880000</ele>
<time>2009-12-30T09:15:11Z</time>
</trkpt>
<trkpt lat="37.974459" lon="-1.045196">
 <ele>374.100000</ele>
<time>2009-12-30T09:15:13Z</time>
</trkpt>
<trkpt lat="37.974475" lon="-1.045194">
 <ele>373.460000</ele>
<time>2009-12-30T09:15:14Z</time>
</trkpt>
<trkpt lat="37.974448" lon="-1.045188">
 <ele>374.700000</ele>
<time>2009-12-30T09:15:15Z</time>
</trkpt>
<trkpt lat="37.974460" lon="-1.045193">
 <ele>373.740000</ele>
<time>2009-12-30T09:15:16Z</time>
</trkpt>
<trkpt lat="37.974457" lon="-1.045190">
 <ele>374.540000</ele>
<time>2009-12-30T09:15:17Z</time>
</trkpt>
<trkpt lat="37.974457" lon="-1.045190">
 <ele>373.900000</ele>
<time>2009-12-30T09:15:18Z</time>
</trkpt>
<trkpt lat="37.974457" lon="-1.045190">
 <ele>373.900000</ele>
<time>2009-12-30T09:15:19Z</time>
</trkpt>
<trkpt lat="37.974457" lon="-1.045190">
 <ele>373.900000</ele>
<time>2009-12-30T09:15:20Z</time>
</trkpt>
<trkpt lat="37.974457" lon="-1.045190">
 <ele>373.900000</ele>
<time>2009-12-30T09:15:21Z</time>
</trkpt>
<trkpt lat="37.974457" lon="-1.045190">
 <ele>373.900000</ele>
<time>2009-12-30T09:15:22Z</time>
</trkpt>
<trkpt lat="37.974457" lon="-1.045190">
 <ele>373.900000</ele>
<time>2009-12-30T09:15:23Z</time>
</trkpt>
<trkpt lat="37.974457" lon="-1.045190">
 <ele>373.900000</ele>
<time>2009-12-30T09:15:24Z</time>
</trkpt>
<trkpt lat="37.974457" lon="-1.045190">
 <ele>373.900000</ele>
<time>2009-12-30T09:15:25Z</time>
</trkpt>
<trkpt lat="37.974457" lon="-1.045190">
 <ele>373.900000</ele>
<time>2009-12-30T09:15:26Z</time>
</trkpt>
<trkpt lat="37.974457" lon="-1.045190">
 <ele>373.900000</ele>
<time>2009-12-30T09:15:27Z</time>
</trkpt>
<trkpt lat="37.974452" lon="-1.045202">
 <ele>377.540000</ele>
<time>2009-12-30T09:15:28Z</time>
</trkpt>
<trkpt lat="37.974449" lon="-1.045254">
 <ele>376.700000</ele>
<time>2009-12-30T09:15:31Z</time>
</trkpt>
<trkpt lat="37.974436" lon="-1.045237">
 <ele>393.080000</ele>
<time>2009-12-30T09:15:32Z</time>
</trkpt>
<trkpt lat="37.974428" lon="-1.045249">
 <ele>383.820000</ele>
<time>2009-12-30T09:15:33Z</time>
</trkpt>
<trkpt lat="37.974429" lon="-1.045244">
 <ele>385.100000</ele>
<time>2009-12-30T09:15:34Z</time>
</trkpt>
<trkpt lat="37.974430" lon="-1.045248">
 <ele>385.340000</ele>
<time>2009-12-30T09:15:35Z</time>
</trkpt>
<trkpt lat="37.974430" lon="-1.045248">
 <ele>384.700000</ele>
<time>2009-12-30T09:15:36Z</time>
</trkpt>
<trkpt lat="37.974420" lon="-1.045252">
 <ele>386.460000</ele>
<time>2009-12-30T09:15:37Z</time>
</trkpt>
<trkpt lat="37.974385" lon="-1.045269">
 <ele>393.040000</ele>
<time>2009-12-30T09:15:39Z</time>
</trkpt>
<trkpt lat="37.974313" lon="-1.045291">
 <ele>388.500000</ele>
<time>2009-12-30T09:15:45Z</time>
</trkpt>
<trkpt lat="37.974300" lon="-1.045291">
 <ele>388.320000</ele>
<time>2009-12-30T09:15:46Z</time>
</trkpt>
<trkpt lat="37.974310" lon="-1.045303">
 <ele>387.540000</ele>
<time>2009-12-30T09:15:47Z</time>
</trkpt>
<trkpt lat="37.974313" lon="-1.045307">
 <ele>388.180000</ele>
<time>2009-12-30T09:15:48Z</time>
</trkpt>
<trkpt lat="37.974301" lon="-1.045302">
 <ele>388.200000</ele>
<time>2009-12-30T09:15:49Z</time>
</trkpt>
<trkpt lat="37.974302" lon="-1.045305">
 <ele>387.960000</ele>
<time>2009-12-30T09:15:50Z</time>
</trkpt>
<trkpt lat="37.974302" lon="-1.045305">
 <ele>388.200000</ele>
<time>2009-12-30T09:15:51Z</time>
</trkpt>
<trkpt lat="37.974299" lon="-1.045321">
 <ele>389.600000</ele>
<time>2009-12-30T09:16:08Z</time>
</trkpt>
<trkpt lat="37.974297" lon="-1.045445">
 <ele>387.900000</ele>
<time>2009-12-30T09:16:15Z</time>
</trkpt>
<trkpt lat="37.974303" lon="-1.045491">
 <ele>385.220000</ele>
<time>2009-12-30T09:16:19Z</time>
</trkpt>
<trkpt lat="37.974286" lon="-1.045512">
 <ele>384.020000</ele>
<time>2009-12-30T09:16:22Z</time>
</trkpt>
<trkpt lat="37.974260" lon="-1.045529">
 <ele>385.140000</ele>
<time>2009-12-30T09:16:28Z</time>
</trkpt>
<trkpt lat="37.974261" lon="-1.045546">
 <ele>385.020000</ele>
<time>2009-12-30T09:16:29Z</time>
</trkpt>
<trkpt lat="37.974263" lon="-1.045541">
 <ele>386.040000</ele>
<time>2009-12-30T09:16:30Z</time>
</trkpt>
<trkpt lat="37.974270" lon="-1.045534">
 <ele>385.000000</ele>
<time>2009-12-30T09:16:31Z</time>
</trkpt>
<trkpt lat="37.974262" lon="-1.045540">
 <ele>386.040000</ele>
<time>2009-12-30T09:16:32Z</time>
</trkpt>
<trkpt lat="37.974262" lon="-1.045601">
 <ele>389.960000</ele>
<time>2009-12-30T09:16:36Z</time>
</trkpt>
<trkpt lat="37.974259" lon="-1.045585">
 <ele>396.140000</ele>
<time>2009-12-30T09:16:37Z</time>
</trkpt>
<trkpt lat="37.974256" lon="-1.045610">
 <ele>394.540000</ele>
<time>2009-12-30T09:16:38Z</time>
</trkpt>
<trkpt lat="37.974246" lon="-1.045641">
 <ele>395.420000</ele>
<time>2009-12-30T09:16:40Z</time>
</trkpt>
<trkpt lat="37.974256" lon="-1.045627">
 <ele>395.300000</ele>
<time>2009-12-30T09:16:41Z</time>
</trkpt>
<trkpt lat="37.974251" lon="-1.045631">
 <ele>395.340000</ele>
<time>2009-12-30T09:16:42Z</time>
</trkpt>
<trkpt lat="37.974254" lon="-1.045634">
 <ele>395.900000</ele>
<time>2009-12-30T09:16:43Z</time>
</trkpt>
<trkpt lat="37.974250" lon="-1.045640">
 <ele>394.780000</ele>
<time>2009-12-30T09:16:44Z</time>
</trkpt>
<trkpt lat="37.974250" lon="-1.045640">
 <ele>395.100000</ele>
<time>2009-12-30T09:16:45Z</time>
</trkpt>
<trkpt lat="37.974237" lon="-1.045656">
 <ele>396.140000</ele>
<time>2009-12-30T09:16:49Z</time>
</trkpt>
<trkpt lat="37.974157" lon="-1.045753">
 <ele>398.220000</ele>
<time>2009-12-30T09:16:55Z</time>
</trkpt>
<trkpt lat="37.974162" lon="-1.045752">
 <ele>397.700000</ele>
<time>2009-12-30T09:16:56Z</time>
</trkpt>
<trkpt lat="37.974161" lon="-1.045758">
 <ele>398.780000</ele>
<time>2009-12-30T09:16:57Z</time>
</trkpt>
<trkpt lat="37.974164" lon="-1.045750">
 <ele>397.720000</ele>
<time>2009-12-30T09:16:58Z</time>
</trkpt>
<trkpt lat="37.974158" lon="-1.045757">
 <ele>398.440000</ele>
<time>2009-12-30T09:16:59Z</time>
</trkpt>
<trkpt lat="37.974158" lon="-1.045757">
 <ele>398.200000</ele>
<time>2009-12-30T09:17:00Z</time>
</trkpt>
<trkpt lat="37.974149" lon="-1.045767">
 <ele>399.000000</ele>
<time>2009-12-30T09:17:03Z</time>
</trkpt>
<trkpt lat="37.973986" lon="-1.045897">
 <ele>400.380000</ele>
<time>2009-12-30T09:17:17Z</time>
</trkpt>
<trkpt lat="37.973992" lon="-1.045902">
 <ele>399.100000</ele>
<time>2009-12-30T09:17:18Z</time>
</trkpt>
<trkpt lat="37.973977" lon="-1.045903">
 <ele>400.240000</ele>
<time>2009-12-30T09:17:19Z</time>
</trkpt>
<trkpt lat="37.973988" lon="-1.045927">
 <ele>398.480000</ele>
<time>2009-12-30T09:17:20Z</time>
</trkpt>
<trkpt lat="37.973972" lon="-1.045932">
 <ele>399.640000</ele>
<time>2009-12-30T09:17:21Z</time>
</trkpt>
<trkpt lat="37.973933" lon="-1.045948">
 <ele>400.360000</ele>
<time>2009-12-30T09:17:25Z</time>
</trkpt>
<trkpt lat="37.973939" lon="-1.045947">
 <ele>399.520000</ele>
<time>2009-12-30T09:17:26Z</time>
</trkpt>
<trkpt lat="37.973937" lon="-1.045946">
 <ele>400.140000</ele>
<time>2009-12-30T09:17:27Z</time>
</trkpt>
<trkpt lat="37.973938" lon="-1.045950">
 <ele>399.720000</ele>
<time>2009-12-30T09:17:28Z</time>
</trkpt>
<trkpt lat="37.973896" lon="-1.045971">
 <ele>399.220000</ele>
<time>2009-12-30T09:17:31Z</time>
</trkpt>
<trkpt lat="37.973769" lon="-1.046001">
 <ele>403.580000</ele>
<time>2009-12-30T09:17:43Z</time>
</trkpt>
<trkpt lat="37.973775" lon="-1.046005">
 <ele>402.900000</ele>
<time>2009-12-30T09:17:44Z</time>
</trkpt>
<trkpt lat="37.973776" lon="-1.046001">
 <ele>403.400000</ele>
<time>2009-12-30T09:17:45Z</time>
</trkpt>
<trkpt lat="37.973779" lon="-1.046011">
 <ele>403.160000</ele>
<time>2009-12-30T09:17:46Z</time>
</trkpt>
<trkpt lat="37.973728" lon="-1.046036">
 <ele>401.780000</ele>
<time>2009-12-30T09:17:49Z</time>
</trkpt>
<trkpt lat="37.973693" lon="-1.046062">
 <ele>402.780000</ele>
<time>2009-12-30T09:17:55Z</time>
</trkpt>
<trkpt lat="37.973686" lon="-1.046069">
 <ele>403.040000</ele>
<time>2009-12-30T09:17:56Z</time>
</trkpt>
<trkpt lat="37.973667" lon="-1.046070">
 <ele>403.880000</ele>
<time>2009-12-30T09:17:58Z</time>
</trkpt>
<trkpt lat="37.973646" lon="-1.046065">
 <ele>404.660000</ele>
<time>2009-12-30T09:18:00Z</time>
</trkpt>
<trkpt lat="37.973602" lon="-1.046084">
 <ele>403.360000</ele>
<time>2009-12-30T09:18:06Z</time>
</trkpt>
<trkpt lat="37.973589" lon="-1.046092">
 <ele>402.420000</ele>
<time>2009-12-30T09:18:07Z</time>
</trkpt>
<trkpt lat="37.973508" lon="-1.046095">
 <ele>402.560000</ele>
<time>2009-12-30T09:18:14Z</time>
</trkpt>
<trkpt lat="37.973409" lon="-1.046087">
 <ele>403.000000</ele>
<time>2009-12-30T09:18:27Z</time>
</trkpt>
<trkpt lat="37.973397" lon="-1.046092">
 <ele>403.120000</ele>
<time>2009-12-30T09:18:28Z</time>
</trkpt>
<trkpt lat="37.973275" lon="-1.046145">
 <ele>402.920000</ele>
<time>2009-12-30T09:18:39Z</time>
</trkpt>
<trkpt lat="37.973277" lon="-1.046144">
 <ele>403.960000</ele>
<time>2009-12-30T09:18:40Z</time>
</trkpt>
<trkpt lat="37.973272" lon="-1.046138">
 <ele>403.660000</ele>
<time>2009-12-30T09:18:41Z</time>
</trkpt>
<trkpt lat="37.973280" lon="-1.046138">
 <ele>403.260000</ele>
<time>2009-12-30T09:18:42Z</time>
</trkpt>
<trkpt lat="37.973272" lon="-1.046143">
 <ele>404.140000</ele>
<time>2009-12-30T09:18:43Z</time>
</trkpt>
<trkpt lat="37.973272" lon="-1.046143">
 <ele>403.500000</ele>
<time>2009-12-30T09:18:44Z</time>
</trkpt>
<trkpt lat="37.973259" lon="-1.046149">
 <ele>404.820000</ele>
<time>2009-12-30T09:18:46Z</time>
</trkpt>
<trkpt lat="37.973199" lon="-1.046171">
 <ele>412.000000</ele>
<time>2009-12-30T09:18:50Z</time>
</trkpt>
<trkpt lat="37.973202" lon="-1.046175">
 <ele>411.200000</ele>
<time>2009-12-30T09:18:51Z</time>
</trkpt>
<trkpt lat="37.973198" lon="-1.046166">
 <ele>410.260000</ele>
<time>2009-12-30T09:18:52Z</time>
</trkpt>
<trkpt lat="37.973206" lon="-1.046176">
 <ele>410.600000</ele>
<time>2009-12-30T09:18:53Z</time>
</trkpt>
<trkpt lat="37.973200" lon="-1.046175">
 <ele>410.600000</ele>
<time>2009-12-30T09:18:54Z</time>
</trkpt>
<trkpt lat="37.973200" lon="-1.046175">
 <ele>410.200000</ele>
<time>2009-12-30T09:18:55Z</time>
</trkpt>
<trkpt lat="37.973195" lon="-1.046186">
 <ele>405.840000</ele>
<time>2009-12-30T09:19:19Z</time>
</trkpt>
<trkpt lat="37.973187" lon="-1.046226">
 <ele>390.320000</ele>
<time>2009-12-30T09:19:23Z</time>
</trkpt>
<trkpt lat="37.973187" lon="-1.046236">
 <ele>398.580000</ele>
<time>2009-12-30T09:19:24Z</time>
</trkpt>
<trkpt lat="37.973181" lon="-1.046232">
 <ele>398.320000</ele>
<time>2009-12-30T09:19:25Z</time>
</trkpt>
<trkpt lat="37.973182" lon="-1.046229">
 <ele>398.940000</ele>
<time>2009-12-30T09:19:26Z</time>
</trkpt>
<trkpt lat="37.973183" lon="-1.046233">
 <ele>398.340000</ele>
<time>2009-12-30T09:19:27Z</time>
</trkpt>
<trkpt lat="37.973189" lon="-1.046263">
 <ele>397.980000</ele>
<time>2009-12-30T09:19:30Z</time>
</trkpt>
<trkpt lat="37.973174" lon="-1.046249">
 <ele>397.220000</ele>
<time>2009-12-30T09:19:31Z</time>
</trkpt>
<trkpt lat="37.973168" lon="-1.046245">
 <ele>397.440000</ele>
<time>2009-12-30T09:19:32Z</time>
</trkpt>
<trkpt lat="37.973174" lon="-1.046252">
 <ele>397.520000</ele>
<time>2009-12-30T09:19:33Z</time>
</trkpt>
<trkpt lat="37.973173" lon="-1.046253">
 <ele>397.600000</ele>
<time>2009-12-30T09:19:34Z</time>
</trkpt>
<trkpt lat="37.973173" lon="-1.046253">
 <ele>397.600000</ele>
<time>2009-12-30T09:19:35Z</time>
</trkpt>
<trkpt lat="37.973182" lon="-1.046249">
 <ele>398.440000</ele>
<time>2009-12-30T09:19:46Z</time>
</trkpt>
<trkpt lat="37.973215" lon="-1.046229">
 <ele>401.340000</ele>
<time>2009-12-30T09:19:48Z</time>
</trkpt>
<trkpt lat="37.973235" lon="-1.046221">
 <ele>403.660000</ele>
<time>2009-12-30T09:19:50Z</time>
</trkpt>
<trkpt lat="37.973228" lon="-1.046220">
 <ele>402.240000</ele>
<time>2009-12-30T09:19:51Z</time>
</trkpt>
<trkpt lat="37.973239" lon="-1.046218">
 <ele>403.360000</ele>
<time>2009-12-30T09:19:52Z</time>
</trkpt>
<trkpt lat="37.973280" lon="-1.046218">
 <ele>404.360000</ele>
<time>2009-12-30T09:19:56Z</time>
</trkpt>
<trkpt lat="37.973292" lon="-1.046213">
 <ele>403.820000</ele>
<time>2009-12-30T09:19:57Z</time>
</trkpt>
<trkpt lat="37.973305" lon="-1.046222">
 <ele>404.080000</ele>
<time>2009-12-30T09:19:59Z</time>
</trkpt>
<trkpt lat="37.973294" lon="-1.046217">
 <ele>403.980000</ele>
<time>2009-12-30T09:20:00Z</time>
</trkpt>
<trkpt lat="37.973301" lon="-1.046219">
 <ele>404.100000</ele>
<time>2009-12-30T09:20:01Z</time>
</trkpt>
<trkpt lat="37.973292" lon="-1.046220">
 <ele>404.160000</ele>
<time>2009-12-30T09:20:02Z</time>
</trkpt>
<trkpt lat="37.973298" lon="-1.046220">
 <ele>403.920000</ele>
<time>2009-12-30T09:20:03Z</time>
</trkpt>
<trkpt lat="37.973298" lon="-1.046220">
 <ele>404.000000</ele>
<time>2009-12-30T09:20:04Z</time>
</trkpt>
<trkpt lat="37.973299" lon="-1.046218">
 <ele>403.760000</ele>
<time>2009-12-30T09:20:07Z</time>
</trkpt>
<trkpt lat="37.973311" lon="-1.046204">
 <ele>403.520000</ele>
<time>2009-12-30T09:20:10Z</time>
</trkpt>
<trkpt lat="37.973301" lon="-1.046220">
 <ele>403.440000</ele>
<time>2009-12-30T09:20:11Z</time>
</trkpt>
<trkpt lat="37.973316" lon="-1.046218">
 <ele>404.000000</ele>
<time>2009-12-30T09:20:12Z</time>
</trkpt>
<trkpt lat="37.973351" lon="-1.046212">
 <ele>404.280000</ele>
<time>2009-12-30T09:20:15Z</time>
</trkpt>
<trkpt lat="37.973357" lon="-1.046219">
 <ele>403.420000</ele>
<time>2009-12-30T09:20:16Z</time>
</trkpt>
<trkpt lat="37.973394" lon="-1.046227">
 <ele>405.660000</ele>
<time>2009-12-30T09:20:21Z</time>
</trkpt>
<trkpt lat="37.973393" lon="-1.046224">
 <ele>406.020000</ele>
<time>2009-12-30T09:20:22Z</time>
</trkpt>
<trkpt lat="37.973393" lon="-1.046227">
 <ele>406.060000</ele>
<time>2009-12-30T09:20:23Z</time>
</trkpt>
<trkpt lat="37.973396" lon="-1.046224">
 <ele>406.240000</ele>
<time>2009-12-30T09:20:24Z</time>
</trkpt>
<trkpt lat="37.973456" lon="-1.046238">
 <ele>406.180000</ele>
<time>2009-12-30T09:20:27Z</time>
</trkpt>
<trkpt lat="37.973469" lon="-1.046231">
 <ele>407.140000</ele>
<time>2009-12-30T09:20:29Z</time>
</trkpt>
<trkpt lat="37.973466" lon="-1.046232">
 <ele>406.980000</ele>
<time>2009-12-30T09:20:30Z</time>
</trkpt>
<trkpt lat="37.973476" lon="-1.046236">
 <ele>407.380000</ele>
<time>2009-12-30T09:20:31Z</time>
</trkpt>
<trkpt lat="37.973500" lon="-1.046246">
 <ele>407.320000</ele>
<time>2009-12-30T09:20:34Z</time>
</trkpt>
<trkpt lat="37.973513" lon="-1.046249">
 <ele>407.180000</ele>
<time>2009-12-30T09:20:36Z</time>
</trkpt>
<trkpt lat="37.973556" lon="-1.046262">
 <ele>406.660000</ele>
<time>2009-12-30T09:20:39Z</time>
</trkpt>
<trkpt lat="37.973559" lon="-1.046276">
 <ele>407.100000</ele>
<time>2009-12-30T09:20:40Z</time>
</trkpt>
<trkpt lat="37.973572" lon="-1.046272">
 <ele>407.600000</ele>
<time>2009-12-30T09:20:41Z</time>
</trkpt>
<trkpt lat="37.973615" lon="-1.046265">
 <ele>411.260000</ele>
<time>2009-12-30T09:20:47Z</time>
</trkpt>
<trkpt lat="37.973605" lon="-1.046267">
 <ele>411.880000</ele>
<time>2009-12-30T09:20:48Z</time>
</trkpt>
<trkpt lat="37.973603" lon="-1.046264">
 <ele>411.200000</ele>
<time>2009-12-30T09:20:49Z</time>
</trkpt>
<trkpt lat="37.973602" lon="-1.046272">
 <ele>411.460000</ele>
<time>2009-12-30T09:20:50Z</time>
</trkpt>
<trkpt lat="37.973607" lon="-1.046270">
 <ele>412.020000</ele>
<time>2009-12-30T09:20:51Z</time>
</trkpt>
<trkpt lat="37.973607" lon="-1.046270">
 <ele>411.300000</ele>
<time>2009-12-30T09:20:52Z</time>
</trkpt>
<trkpt lat="37.973625" lon="-1.046274">
 <ele>410.580000</ele>
<time>2009-12-30T09:21:01Z</time>
</trkpt>
<trkpt lat="37.973710" lon="-1.046294">
 <ele>410.860000</ele>
<time>2009-12-30T09:21:04Z</time>
</trkpt>
<trkpt lat="37.973785" lon="-1.046355">
 <ele>407.900000</ele>
<time>2009-12-30T09:21:14Z</time>
</trkpt>
<trkpt lat="37.973790" lon="-1.046355">
 <ele>407.420000</ele>
<time>2009-12-30T09:21:16Z</time>
</trkpt>
<trkpt lat="37.973809" lon="-1.046360">
 <ele>406.500000</ele>
<time>2009-12-30T09:21:18Z</time>
</trkpt>
<trkpt lat="37.973844" lon="-1.046378">
 <ele>407.000000</ele>
<time>2009-12-30T09:21:21Z</time>
</trkpt>
<trkpt lat="37.973859" lon="-1.046389">
 <ele>408.640000</ele>
<time>2009-12-30T09:21:24Z</time>
</trkpt>
<trkpt lat="37.973863" lon="-1.046380">
 <ele>411.880000</ele>
<time>2009-12-30T09:21:26Z</time>
</trkpt>
<trkpt lat="37.973876" lon="-1.046375">
 <ele>411.560000</ele>
<time>2009-12-30T09:21:28Z</time>
</trkpt>
<trkpt lat="37.973906" lon="-1.046386">
 <ele>412.420000</ele>
<time>2009-12-30T09:21:31Z</time>
</trkpt>
<trkpt lat="37.973914" lon="-1.046390">
 <ele>412.840000</ele>
<time>2009-12-30T09:21:32Z</time>
</trkpt>
<trkpt lat="37.973934" lon="-1.046376">
 <ele>412.240000</ele>
<time>2009-12-30T09:21:34Z</time>
</trkpt>
<trkpt lat="37.973947" lon="-1.046393">
 <ele>412.100000</ele>
<time>2009-12-30T09:21:36Z</time>
</trkpt>
<trkpt lat="37.973962" lon="-1.046415">
 <ele>411.900000</ele>
<time>2009-12-30T09:21:38Z</time>
</trkpt>
<trkpt lat="37.973960" lon="-1.046429">
 <ele>411.040000</ele>
<time>2009-12-30T09:21:40Z</time>
</trkpt>
<trkpt lat="37.973974" lon="-1.046451">
 <ele>412.440000</ele>
<time>2009-12-30T09:21:43Z</time>
</trkpt>
<trkpt lat="37.973975" lon="-1.046466">
 <ele>412.640000</ele>
<time>2009-12-30T09:21:44Z</time>
</trkpt>
<trkpt lat="37.973964" lon="-1.046494">
 <ele>413.240000</ele>
<time>2009-12-30T09:21:47Z</time>
</trkpt>
<trkpt lat="37.973941" lon="-1.046532">
 <ele>414.640000</ele>
<time>2009-12-30T09:21:51Z</time>
</trkpt>
<trkpt lat="37.973949" lon="-1.046519">
 <ele>414.540000</ele>
<time>2009-12-30T09:21:52Z</time>
</trkpt>
<trkpt lat="37.973949" lon="-1.046526">
 <ele>414.600000</ele>
<time>2009-12-30T09:21:53Z</time>
</trkpt>
<trkpt lat="37.973955" lon="-1.046519">
 <ele>414.320000</ele>
<time>2009-12-30T09:21:54Z</time>
</trkpt>
<trkpt lat="37.973948" lon="-1.046527">
 <ele>414.560000</ele>
<time>2009-12-30T09:21:55Z</time>
</trkpt>
<trkpt lat="37.973948" lon="-1.046527">
 <ele>414.400000</ele>
<time>2009-12-30T09:21:56Z</time>
</trkpt>
<trkpt lat="37.973940" lon="-1.046538">
 <ele>414.200000</ele>
<time>2009-12-30T09:22:04Z</time>
</trkpt>
<trkpt lat="37.973900" lon="-1.046592">
 <ele>413.660000</ele>
<time>2009-12-30T09:22:08Z</time>
</trkpt>
<trkpt lat="37.973908" lon="-1.046594">
 <ele>413.760000</ele>
<time>2009-12-30T09:22:09Z</time>
</trkpt>
<trkpt lat="37.973905" lon="-1.046598">
 <ele>414.020000</ele>
<time>2009-12-30T09:22:10Z</time>
</trkpt>
<trkpt lat="37.973904" lon="-1.046592">
 <ele>413.980000</ele>
<time>2009-12-30T09:22:11Z</time>
</trkpt>
<trkpt lat="37.973902" lon="-1.046597">
 <ele>413.740000</ele>
<time>2009-12-30T09:22:12Z</time>
</trkpt>
<trkpt lat="37.973902" lon="-1.046597">
 <ele>413.900000</ele>
<time>2009-12-30T09:22:13Z</time>
</trkpt>
<trkpt lat="37.973896" lon="-1.046600">
 <ele>414.060000</ele>
<time>2009-12-30T09:22:18Z</time>
</trkpt>
<trkpt lat="37.973862" lon="-1.046613">
 <ele>414.120000</ele>
<time>2009-12-30T09:22:21Z</time>
</trkpt>
<trkpt lat="37.973875" lon="-1.046605">
 <ele>414.300000</ele>
<time>2009-12-30T09:22:22Z</time>
</trkpt>
<trkpt lat="37.973872" lon="-1.046612">
 <ele>414.320000</ele>
<time>2009-12-30T09:22:23Z</time>
</trkpt>
<trkpt lat="37.973874" lon="-1.046612">
 <ele>414.280000</ele>
<time>2009-12-30T09:22:24Z</time>
</trkpt>
<trkpt lat="37.973868" lon="-1.046612">
 <ele>414.040000</ele>
<time>2009-12-30T09:22:25Z</time>
</trkpt>
<trkpt lat="37.973868" lon="-1.046612">
 <ele>414.200000</ele>
<time>2009-12-30T09:22:26Z</time>
</trkpt>
<trkpt lat="37.973864" lon="-1.046615">
 <ele>415.080000</ele>
<time>2009-12-30T09:22:29Z</time>
</trkpt>
<trkpt lat="37.973839" lon="-1.046648">
 <ele>415.700000</ele>
<time>2009-12-30T09:22:32Z</time>
</trkpt>
<trkpt lat="37.973833" lon="-1.046622">
 <ele>418.460000</ele>
<time>2009-12-30T09:22:33Z</time>
</trkpt>
<trkpt lat="37.973836" lon="-1.046619">
 <ele>416.440000</ele>
<time>2009-12-30T09:22:34Z</time>
</trkpt>
<trkpt lat="37.973838" lon="-1.046629">
 <ele>417.680000</ele>
<time>2009-12-30T09:22:35Z</time>
</trkpt>
<trkpt lat="37.973832" lon="-1.046628">
 <ele>416.320000</ele>
<time>2009-12-30T09:22:36Z</time>
</trkpt>
<trkpt lat="37.973832" lon="-1.046628">
 <ele>416.800000</ele>
<time>2009-12-30T09:22:37Z</time>
</trkpt>
<trkpt lat="37.973825" lon="-1.046636">
 <ele>417.120000</ele>
<time>2009-12-30T09:22:39Z</time>
</trkpt>
<trkpt lat="37.973792" lon="-1.046681">
 <ele>417.780000</ele>
<time>2009-12-30T09:22:42Z</time>
</trkpt>
<trkpt lat="37.973751" lon="-1.046683">
 <ele>420.740000</ele>
<time>2009-12-30T09:22:47Z</time>
</trkpt>
<trkpt lat="37.973743" lon="-1.046685">
 <ele>421.220000</ele>
<time>2009-12-30T09:22:49Z</time>
</trkpt>
<trkpt lat="37.973729" lon="-1.046668">
 <ele>422.260000</ele>
<time>2009-12-30T09:22:52Z</time>
</trkpt>
<trkpt lat="37.973713" lon="-1.046667">
 <ele>422.540000</ele>
<time>2009-12-30T09:22:53Z</time>
</trkpt>
<trkpt lat="37.973715" lon="-1.046674">
 <ele>423.700000</ele>
<time>2009-12-30T09:22:54Z</time>
</trkpt>
<trkpt lat="37.973718" lon="-1.046681">
 <ele>422.760000</ele>
<time>2009-12-30T09:22:55Z</time>
</trkpt>
<trkpt lat="37.973718" lon="-1.046673">
 <ele>423.740000</ele>
<time>2009-12-30T09:22:56Z</time>
</trkpt>
<trkpt lat="37.973715" lon="-1.046679">
 <ele>422.860000</ele>
<time>2009-12-30T09:22:57Z</time>
</trkpt>
<trkpt lat="37.973713" lon="-1.046675">
 <ele>423.420000</ele>
<time>2009-12-30T09:22:58Z</time>
</trkpt>
<trkpt lat="37.973713" lon="-1.046675">
 <ele>423.100000</ele>
<time>2009-12-30T09:22:59Z</time>
</trkpt>
<trkpt lat="37.973698" lon="-1.046676">
 <ele>423.780000</ele>
<time>2009-12-30T09:23:07Z</time>
</trkpt>
<trkpt lat="37.973643" lon="-1.046667">
 <ele>424.060000</ele>
<time>2009-12-30T09:23:10Z</time>
</trkpt>
<trkpt lat="37.973645" lon="-1.046681">
 <ele>427.060000</ele>
<time>2009-12-30T09:23:11Z</time>
</trkpt>
<trkpt lat="37.973638" lon="-1.046690">
 <ele>425.680000</ele>
<time>2009-12-30T09:23:12Z</time>
</trkpt>
<trkpt lat="37.973644" lon="-1.046678">
 <ele>425.520000</ele>
<time>2009-12-30T09:23:13Z</time>
</trkpt>
<trkpt lat="37.973642" lon="-1.046682">
 <ele>425.920000</ele>
<time>2009-12-30T09:23:14Z</time>
</trkpt>
<trkpt lat="37.973642" lon="-1.046682">
 <ele>425.600000</ele>
<time>2009-12-30T09:23:15Z</time>
</trkpt>
<trkpt lat="37.973631" lon="-1.046674">
 <ele>427.400000</ele>
<time>2009-12-30T09:23:47Z</time>
</trkpt>
<trkpt lat="37.973617" lon="-1.046663">
 <ele>429.820000</ele>
<time>2009-12-30T09:23:48Z</time>
</trkpt>
<trkpt lat="37.973583" lon="-1.046635">
 <ele>424.300000</ele>
<time>2009-12-30T09:23:50Z</time>
</trkpt>
<trkpt lat="37.973585" lon="-1.046651">
 <ele>431.580000</ele>
<time>2009-12-30T09:23:51Z</time>
</trkpt>
<trkpt lat="37.973576" lon="-1.046638">
 <ele>427.560000</ele>
<time>2009-12-30T09:23:52Z</time>
</trkpt>
<trkpt lat="37.973577" lon="-1.046641">
 <ele>427.820000</ele>
<time>2009-12-30T09:23:53Z</time>
</trkpt>
<trkpt lat="37.973573" lon="-1.046637">
 <ele>427.340000</ele>
<time>2009-12-30T09:23:54Z</time>
</trkpt>
<trkpt lat="37.973573" lon="-1.046637">
 <ele>427.900000</ele>
<time>2009-12-30T09:23:55Z</time>
</trkpt>
<trkpt lat="37.973585" lon="-1.046633">
 <ele>427.140000</ele>
<time>2009-12-30T09:25:51Z</time>
</trkpt>
<trkpt lat="37.973632" lon="-1.046615">
 <ele>427.380000</ele>
<time>2009-12-30T09:25:54Z</time>
</trkpt>
<trkpt lat="37.973624" lon="-1.046632">
 <ele>424.220000</ele>
<time>2009-12-30T09:25:55Z</time>
</trkpt>
<trkpt lat="37.973617" lon="-1.046624">
 <ele>425.820000</ele>
<time>2009-12-30T09:25:56Z</time>
</trkpt>
<trkpt lat="37.973634" lon="-1.046624">
 <ele>425.800000</ele>
<time>2009-12-30T09:25:57Z</time>
</trkpt>
<trkpt lat="37.973628" lon="-1.046623">
 <ele>425.720000</ele>
<time>2009-12-30T09:25:58Z</time>
</trkpt>
<trkpt lat="37.973628" lon="-1.046623">
 <ele>425.800000</ele>
<time>2009-12-30T09:25:59Z</time>
</trkpt>
<trkpt lat="37.973615" lon="-1.046616">
 <ele>425.120000</ele>
<time>2009-12-30T09:26:06Z</time>
</trkpt>
<trkpt lat="37.973550" lon="-1.046573">
 <ele>424.900000</ele>
<time>2009-12-30T09:26:09Z</time>
</trkpt>
<trkpt lat="37.973545" lon="-1.046564">
 <ele>422.280000</ele>
<time>2009-12-30T09:26:10Z</time>
</trkpt>
<trkpt lat="37.973551" lon="-1.046566">
 <ele>423.540000</ele>
<time>2009-12-30T09:26:11Z</time>
</trkpt>
<trkpt lat="37.973541" lon="-1.046566">
 <ele>423.520000</ele>
<time>2009-12-30T09:26:12Z</time>
</trkpt>
<trkpt lat="37.973548" lon="-1.046574">
 <ele>423.520000</ele>
<time>2009-12-30T09:26:13Z</time>
</trkpt>
<trkpt lat="37.973542" lon="-1.046565">
 <ele>423.600000</ele>
<time>2009-12-30T09:26:14Z</time>
</trkpt>
<trkpt lat="37.973542" lon="-1.046565">
 <ele>423.600000</ele>
<time>2009-12-30T09:26:15Z</time>
</trkpt>
<trkpt lat="37.973517" lon="-1.046536">
 <ele>420.520000</ele>
<time>2009-12-30T09:27:12Z</time>
</trkpt>
<trkpt lat="37.973450" lon="-1.046436">
 <ele>421.120000</ele>
<time>2009-12-30T09:27:15Z</time>
</trkpt>
<trkpt lat="37.973430" lon="-1.046435">
 <ele>409.380000</ele>
<time>2009-12-30T09:27:16Z</time>
</trkpt>
<trkpt lat="37.973418" lon="-1.046431">
 <ele>414.820000</ele>
<time>2009-12-30T09:27:17Z</time>
</trkpt>
<trkpt lat="37.973422" lon="-1.046430">
 <ele>415.200000</ele>
<time>2009-12-30T09:27:18Z</time>
</trkpt>
<trkpt lat="37.973423" lon="-1.046428">
 <ele>415.120000</ele>
<time>2009-12-30T09:27:19Z</time>
</trkpt>
<trkpt lat="37.973423" lon="-1.046428">
 <ele>415.200000</ele>
<time>2009-12-30T09:27:20Z</time>
</trkpt>
<trkpt lat="37.973419" lon="-1.046422">
 <ele>415.680000</ele>
<time>2009-12-30T09:27:24Z</time>
</trkpt>
<trkpt lat="37.973397" lon="-1.046386">
 <ele>415.440000</ele>
<time>2009-12-30T09:27:27Z</time>
</trkpt>
<trkpt lat="37.973401" lon="-1.046401">
 <ele>416.980000</ele>
<time>2009-12-30T09:27:28Z</time>
</trkpt>
<trkpt lat="37.973402" lon="-1.046389">
 <ele>416.060000</ele>
<time>2009-12-30T09:27:29Z</time>
</trkpt>
<trkpt lat="37.973380" lon="-1.046346">
 <ele>416.320000</ele>
<time>2009-12-30T09:27:33Z</time>
</trkpt>
<trkpt lat="37.973385" lon="-1.046339">
 <ele>415.660000</ele>
<time>2009-12-30T09:27:34Z</time>
</trkpt>
<trkpt lat="37.973376" lon="-1.046337">
 <ele>415.720000</ele>
<time>2009-12-30T09:27:35Z</time>
</trkpt>
<trkpt lat="37.973373" lon="-1.046324">
 <ele>414.120000</ele>
<time>2009-12-30T09:27:37Z</time>
</trkpt>
<trkpt lat="37.973379" lon="-1.046333">
 <ele>416.100000</ele>
<time>2009-12-30T09:27:38Z</time>
</trkpt>
<trkpt lat="37.973382" lon="-1.046329">
 <ele>414.600000</ele>
<time>2009-12-30T09:27:39Z</time>
</trkpt>
<trkpt lat="37.973382" lon="-1.046337">
 <ele>415.600000</ele>
<time>2009-12-30T09:27:40Z</time>
</trkpt>
<trkpt lat="37.973380" lon="-1.046332">
 <ele>414.720000</ele>
<time>2009-12-30T09:27:41Z</time>
</trkpt>
<trkpt lat="37.973380" lon="-1.046332">
 <ele>415.200000</ele>
<time>2009-12-30T09:27:42Z</time>
</trkpt>
<trkpt lat="37.973375" lon="-1.046331">
 <ele>412.960000</ele>
<time>2009-12-30T09:27:47Z</time>
</trkpt>
<trkpt lat="37.973350" lon="-1.046323">
 <ele>412.840000</ele>
<time>2009-12-30T09:27:50Z</time>
</trkpt>
<trkpt lat="37.973342" lon="-1.046301">
 <ele>407.360000</ele>
<time>2009-12-30T09:27:55Z</time>
</trkpt>
<trkpt lat="37.973330" lon="-1.046293">
 <ele>407.520000</ele>
<time>2009-12-30T09:27:56Z</time>
</trkpt>
<trkpt lat="37.973321" lon="-1.046263">
 <ele>407.380000</ele>
<time>2009-12-30T09:28:00Z</time>
</trkpt>
<trkpt lat="37.973318" lon="-1.046272">
 <ele>408.080000</ele>
<time>2009-12-30T09:28:01Z</time>
</trkpt>
<trkpt lat="37.973320" lon="-1.046270">
 <ele>408.140000</ele>
<time>2009-12-30T09:28:02Z</time>
</trkpt>
<trkpt lat="37.973327" lon="-1.046269">
 <ele>407.820000</ele>
<time>2009-12-30T09:28:03Z</time>
</trkpt>
<trkpt lat="37.973310" lon="-1.046225">
 <ele>405.540000</ele>
<time>2009-12-30T09:28:06Z</time>
</trkpt>
<trkpt lat="37.973304" lon="-1.046232">
 <ele>403.920000</ele>
<time>2009-12-30T09:28:08Z</time>
</trkpt>
<trkpt lat="37.973319" lon="-1.046238">
 <ele>403.900000</ele>
<time>2009-12-30T09:28:09Z</time>
</trkpt>
<trkpt lat="37.973308" lon="-1.046233">
 <ele>404.060000</ele>
<time>2009-12-30T09:28:10Z</time>
</trkpt>
<trkpt lat="37.973310" lon="-1.046231">
 <ele>404.300000</ele>
<time>2009-12-30T09:28:11Z</time>
</trkpt>
<trkpt lat="37.973312" lon="-1.046232">
 <ele>403.660000</ele>
<time>2009-12-30T09:28:12Z</time>
</trkpt>
<trkpt lat="37.973312" lon="-1.046232">
 <ele>404.300000</ele>
<time>2009-12-30T09:28:13Z</time>
</trkpt>
<trkpt lat="37.973307" lon="-1.046228">
 <ele>403.820000</ele>
<time>2009-12-30T09:28:26Z</time>
</trkpt>
<trkpt lat="37.973257" lon="-1.046227">
 <ele>402.200000</ele>
<time>2009-12-30T09:28:30Z</time>
</trkpt>
<trkpt lat="37.973244" lon="-1.046221">
 <ele>402.680000</ele>
<time>2009-12-30T09:28:31Z</time>
</trkpt>
<trkpt lat="37.973207" lon="-1.046241">
 <ele>402.380000</ele>
<time>2009-12-30T09:28:37Z</time>
</trkpt>
<trkpt lat="37.973214" lon="-1.046241">
 <ele>402.580000</ele>
<time>2009-12-30T09:28:38Z</time>
</trkpt>
<trkpt lat="37.973210" lon="-1.046241">
 <ele>402.720000</ele>
<time>2009-12-30T09:28:39Z</time>
</trkpt>
<trkpt lat="37.973209" lon="-1.046232">
 <ele>402.520000</ele>
<time>2009-12-30T09:28:40Z</time>
</trkpt>
<trkpt lat="37.973183" lon="-1.046270">
 <ele>403.460000</ele>
<time>2009-12-30T09:28:43Z</time>
</trkpt>
<trkpt lat="37.973170" lon="-1.046283">
 <ele>402.120000</ele>
<time>2009-12-30T09:28:44Z</time>
</trkpt>
<trkpt lat="37.973175" lon="-1.046275">
 <ele>404.160000</ele>
<time>2009-12-30T09:28:45Z</time>
</trkpt>
<trkpt lat="37.973172" lon="-1.046273">
 <ele>402.380000</ele>
<time>2009-12-30T09:28:46Z</time>
</trkpt>
<trkpt lat="37.973181" lon="-1.046276">
 <ele>403.240000</ele>
<time>2009-12-30T09:28:47Z</time>
</trkpt>
<trkpt lat="37.973173" lon="-1.046278">
 <ele>402.920000</ele>
<time>2009-12-30T09:28:48Z</time>
</trkpt>
<trkpt lat="37.973173" lon="-1.046278">
 <ele>403.000000</ele>
<time>2009-12-30T09:28:49Z</time>
</trkpt>
<trkpt lat="37.973161" lon="-1.046277">
 <ele>402.200000</ele>
<time>2009-12-30T09:28:57Z</time>
</trkpt>
<trkpt lat="37.973086" lon="-1.046278">
 <ele>399.340000</ele>
<time>2009-12-30T09:29:02Z</time>
</trkpt>
<trkpt lat="37.973089" lon="-1.046284">
 <ele>399.100000</ele>
<time>2009-12-30T09:29:03Z</time>
</trkpt>
<trkpt lat="37.973080" lon="-1.046280">
 <ele>399.460000</ele>
<time>2009-12-30T09:29:04Z</time>
</trkpt>
<trkpt lat="37.973057" lon="-1.046276">
 <ele>398.040000</ele>
<time>2009-12-30T09:29:06Z</time>
</trkpt>
<trkpt lat="37.973069" lon="-1.046284">
 <ele>399.080000</ele>
<time>2009-12-30T09:29:07Z</time>
</trkpt>
<trkpt lat="37.973072" lon="-1.046280">
 <ele>398.520000</ele>
<time>2009-12-30T09:29:08Z</time>
</trkpt>
<trkpt lat="37.973070" lon="-1.046285">
 <ele>398.380000</ele>
<time>2009-12-30T09:29:09Z</time>
</trkpt>
<trkpt lat="37.973067" lon="-1.046282">
 <ele>398.780000</ele>
<time>2009-12-30T09:29:10Z</time>
</trkpt>
<trkpt lat="37.973067" lon="-1.046282">
 <ele>398.700000</ele>
<time>2009-12-30T09:29:11Z</time>
</trkpt>
<trkpt lat="37.973039" lon="-1.046285">
 <ele>398.380000</ele>
<time>2009-12-30T09:29:32Z</time>
</trkpt>
<trkpt lat="37.972973" lon="-1.046301">
 <ele>397.160000</ele>
<time>2009-12-30T09:29:34Z</time>
</trkpt>
<trkpt lat="37.972936" lon="-1.046310">
 <ele>398.020000</ele>
<time>2009-12-30T09:29:35Z</time>
</trkpt>
<trkpt lat="37.972919" lon="-1.046303">
 <ele>396.700000</ele>
<time>2009-12-30T09:29:36Z</time>
</trkpt>
<trkpt lat="37.972918" lon="-1.046296">
 <ele>397.800000</ele>
<time>2009-12-30T09:29:37Z</time>
</trkpt>
<trkpt lat="37.972923" lon="-1.046295">
 <ele>397.100000</ele>
<time>2009-12-30T09:29:38Z</time>
</trkpt>
<trkpt lat="37.972915" lon="-1.046298">
 <ele>397.580000</ele>
<time>2009-12-30T09:29:39Z</time>
</trkpt>
<trkpt lat="37.972915" lon="-1.046298">
 <ele>397.500000</ele>
<time>2009-12-30T09:29:40Z</time>
</trkpt>
<trkpt lat="37.972892" lon="-1.046305">
 <ele>394.740000</ele>
<time>2009-12-30T09:30:07Z</time>
</trkpt>
<trkpt lat="37.972759" lon="-1.046327">
 <ele>390.260000</ele>
<time>2009-12-30T09:30:13Z</time>
</trkpt>
<trkpt lat="37.972772" lon="-1.046340">
 <ele>390.520000</ele>
<time>2009-12-30T09:30:14Z</time>
</trkpt>
<trkpt lat="37.972765" lon="-1.046339">
 <ele>389.980000</ele>
<time>2009-12-30T09:30:15Z</time>
</trkpt>
<trkpt lat="37.972769" lon="-1.046336">
 <ele>390.380000</ele>
<time>2009-12-30T09:30:16Z</time>
</trkpt>
<trkpt lat="37.972743" lon="-1.046341">
 <ele>391.220000</ele>
<time>2009-12-30T09:30:17Z</time>
</trkpt>
<trkpt lat="37.972738" lon="-1.046340">
 <ele>392.120000</ele>
<time>2009-12-30T09:30:20Z</time>
</trkpt>
<trkpt lat="37.972728" lon="-1.046350">
 <ele>391.220000</ele>
<time>2009-12-30T09:30:21Z</time>
</trkpt>
<trkpt lat="37.972706" lon="-1.046362">
 <ele>391.160000</ele>
<time>2009-12-30T09:30:23Z</time>
</trkpt>
<trkpt lat="37.972718" lon="-1.046354">
 <ele>391.440000</ele>
<time>2009-12-30T09:30:24Z</time>
</trkpt>
<trkpt lat="37.972717" lon="-1.046349">
 <ele>391.460000</ele>
<time>2009-12-30T09:30:25Z</time>
</trkpt>
<trkpt lat="37.972720" lon="-1.046348">
 <ele>391.060000</ele>
<time>2009-12-30T09:30:26Z</time>
</trkpt>
<trkpt lat="37.972715" lon="-1.046352">
 <ele>391.300000</ele>
<time>2009-12-30T09:30:27Z</time>
</trkpt>
<trkpt lat="37.972715" lon="-1.046352">
 <ele>391.300000</ele>
<time>2009-12-30T09:30:28Z</time>
</trkpt>
<trkpt lat="37.972704" lon="-1.046360">
 <ele>390.220000</ele>
<time>2009-12-30T09:30:35Z</time>
</trkpt>
<trkpt lat="37.972678" lon="-1.046406">
 <ele>387.020000</ele>
<time>2009-12-30T09:30:39Z</time>
</trkpt>
<trkpt lat="37.972671" lon="-1.046401">
 <ele>388.980000</ele>
<time>2009-12-30T09:30:40Z</time>
</trkpt>
<trkpt lat="37.972668" lon="-1.046404">
 <ele>389.220000</ele>
<time>2009-12-30T09:30:41Z</time>
</trkpt>
<trkpt lat="37.972658" lon="-1.046423">
 <ele>389.920000</ele>
<time>2009-12-30T09:30:46Z</time>
</trkpt>
<trkpt lat="37.972640" lon="-1.046437">
 <ele>390.160000</ele>
<time>2009-12-30T09:30:47Z</time>
</trkpt>
<trkpt lat="37.972644" lon="-1.046458">
 <ele>390.480000</ele>
<time>2009-12-30T09:30:48Z</time>
</trkpt>
<trkpt lat="37.972652" lon="-1.046443">
 <ele>389.380000</ele>
<time>2009-12-30T09:30:49Z</time>
</trkpt>
<trkpt lat="37.972646" lon="-1.046453">
 <ele>389.560000</ele>
<time>2009-12-30T09:30:50Z</time>
</trkpt>
<trkpt lat="37.972645" lon="-1.046449">
 <ele>389.900000</ele>
<time>2009-12-30T09:30:51Z</time>
</trkpt>
<trkpt lat="37.972643" lon="-1.046455">
 <ele>388.940000</ele>
<time>2009-12-30T09:30:52Z</time>
</trkpt>
<trkpt lat="37.972585" lon="-1.046460">
 <ele>389.780000</ele>
<time>2009-12-30T09:30:56Z</time>
</trkpt>
<trkpt lat="37.972578" lon="-1.046492">
 <ele>389.960000</ele>
<time>2009-12-30T09:31:00Z</time>
</trkpt>
<trkpt lat="37.972582" lon="-1.046487">
 <ele>392.140000</ele>
<time>2009-12-30T09:31:01Z</time>
</trkpt>
<trkpt lat="37.972568" lon="-1.046484">
 <ele>390.340000</ele>
<time>2009-12-30T09:31:02Z</time>
</trkpt>
<trkpt lat="37.972573" lon="-1.046474">
 <ele>391.380000</ele>
<time>2009-12-30T09:31:03Z</time>
</trkpt>
<trkpt lat="37.972570" lon="-1.046487">
 <ele>390.900000</ele>
<time>2009-12-30T09:31:04Z</time>
</trkpt>
<trkpt lat="37.972536" lon="-1.046546">
 <ele>390.940000</ele>
<time>2009-12-30T09:31:08Z</time>
</trkpt>
<trkpt lat="37.972534" lon="-1.046537">
 <ele>391.300000</ele>
<time>2009-12-30T09:31:09Z</time>
</trkpt>
<trkpt lat="37.972538" lon="-1.046545">
 <ele>391.000000</ele>
<time>2009-12-30T09:31:10Z</time>
</trkpt>
<trkpt lat="37.972541" lon="-1.046537">
 <ele>391.400000</ele>
<time>2009-12-30T09:31:11Z</time>
</trkpt>
<trkpt lat="37.972531" lon="-1.046555">
 <ele>390.200000</ele>
<time>2009-12-30T09:31:12Z</time>
</trkpt>
<trkpt lat="37.972503" lon="-1.046614">
 <ele>388.980000</ele>
<time>2009-12-30T09:31:16Z</time>
</trkpt>
<trkpt lat="37.972499" lon="-1.046621">
 <ele>388.860000</ele>
<time>2009-12-30T09:31:17Z</time>
</trkpt>
<trkpt lat="37.972493" lon="-1.046620">
 <ele>389.400000</ele>
<time>2009-12-30T09:31:18Z</time>
</trkpt>
<trkpt lat="37.972501" lon="-1.046614">
 <ele>388.800000</ele>
<time>2009-12-30T09:31:19Z</time>
</trkpt>
<trkpt lat="37.972495" lon="-1.046625">
 <ele>389.040000</ele>
<time>2009-12-30T09:31:20Z</time>
</trkpt>
<trkpt lat="37.972495" lon="-1.046625">
 <ele>389.200000</ele>
<time>2009-12-30T09:31:21Z</time>
</trkpt>
<trkpt lat="37.972490" lon="-1.046634">
 <ele>388.800000</ele>
<time>2009-12-30T09:31:23Z</time>
</trkpt>
<trkpt lat="37.972457" lon="-1.046666">
 <ele>391.120000</ele>
<time>2009-12-30T09:31:27Z</time>
</trkpt>
<trkpt lat="37.972459" lon="-1.046657">
 <ele>391.420000</ele>
<time>2009-12-30T09:31:28Z</time>
</trkpt>
<trkpt lat="37.972448" lon="-1.046664">
 <ele>393.200000</ele>
<time>2009-12-30T09:31:30Z</time>
</trkpt>
<trkpt lat="37.972420" lon="-1.046690">
 <ele>391.920000</ele>
<time>2009-12-30T09:31:32Z</time>
</trkpt>
<trkpt lat="37.972413" lon="-1.046675">
 <ele>394.800000</ele>
<time>2009-12-30T09:31:33Z</time>
</trkpt>
<trkpt lat="37.972410" lon="-1.046695">
 <ele>393.140000</ele>
<time>2009-12-30T09:31:34Z</time>
</trkpt>
<trkpt lat="37.972412" lon="-1.046699">
 <ele>394.760000</ele>
<time>2009-12-30T09:31:35Z</time>
</trkpt>
<trkpt lat="37.972413" lon="-1.046685">
 <ele>395.280000</ele>
<time>2009-12-30T09:31:36Z</time>
</trkpt>
<trkpt lat="37.972410" lon="-1.046695">
 <ele>395.280000</ele>
<time>2009-12-30T09:31:37Z</time>
</trkpt>
<trkpt lat="37.972362" lon="-1.046725">
 <ele>393.940000</ele>
<time>2009-12-30T09:31:41Z</time>
</trkpt>
<trkpt lat="37.972373" lon="-1.046734">
 <ele>395.000000</ele>
<time>2009-12-30T09:31:42Z</time>
</trkpt>
<trkpt lat="37.972372" lon="-1.046730">
 <ele>395.160000</ele>
<time>2009-12-30T09:31:43Z</time>
</trkpt>
<trkpt lat="37.972378" lon="-1.046730">
 <ele>394.280000</ele>
<time>2009-12-30T09:31:44Z</time>
</trkpt>
<trkpt lat="37.972372" lon="-1.046737">
 <ele>393.960000</ele>
<time>2009-12-30T09:31:45Z</time>
</trkpt>
<trkpt lat="37.972372" lon="-1.046737">
 <ele>394.600000</ele>
<time>2009-12-30T09:31:46Z</time>
</trkpt>
<trkpt lat="37.972355" lon="-1.046753">
 <ele>393.440000</ele>
<time>2009-12-30T09:31:54Z</time>
</trkpt>
<trkpt lat="37.972260" lon="-1.046852">
 <ele>390.100000</ele>
<time>2009-12-30T09:31:59Z</time>
</trkpt>
<trkpt lat="37.972276" lon="-1.046851">
 <ele>389.920000</ele>
<time>2009-12-30T09:32:00Z</time>
</trkpt>
<trkpt lat="37.972261" lon="-1.046854">
 <ele>390.800000</ele>
<time>2009-12-30T09:32:01Z</time>
</trkpt>
<trkpt lat="37.972221" lon="-1.046864">
 <ele>392.220000</ele>
<time>2009-12-30T09:32:04Z</time>
</trkpt>
<trkpt lat="37.972230" lon="-1.046857">
 <ele>394.120000</ele>
<time>2009-12-30T09:32:05Z</time>
</trkpt>
<trkpt lat="37.972227" lon="-1.046855">
 <ele>393.600000</ele>
<time>2009-12-30T09:32:06Z</time>
</trkpt>
<trkpt lat="37.972233" lon="-1.046861">
 <ele>393.580000</ele>
<time>2009-12-30T09:32:07Z</time>
</trkpt>
<trkpt lat="37.972227" lon="-1.046863">
 <ele>392.700000</ele>
<time>2009-12-30T09:32:08Z</time>
</trkpt>
<trkpt lat="37.972227" lon="-1.046863">
 <ele>393.100000</ele>
<time>2009-12-30T09:32:09Z</time>
</trkpt>
<trkpt lat="37.972223" lon="-1.046871">
 <ele>393.500000</ele>
<time>2009-12-30T09:32:17Z</time>
</trkpt>
<trkpt lat="37.972223" lon="-1.046875">
 <ele>395.040000</ele>
<time>2009-12-30T09:32:19Z</time>
</trkpt>
<trkpt lat="37.972204" lon="-1.046889">
 <ele>394.960000</ele>
<time>2009-12-30T09:32:21Z</time>
</trkpt>
<trkpt lat="37.972203" lon="-1.046896">
 <ele>394.260000</ele>
<time>2009-12-30T09:32:22Z</time>
</trkpt>
<trkpt lat="37.972210" lon="-1.046891">
 <ele>393.940000</ele>
<time>2009-12-30T09:32:23Z</time>
</trkpt>
<trkpt lat="37.972207" lon="-1.046892">
 <ele>394.420000</ele>
<time>2009-12-30T09:32:24Z</time>
</trkpt>
<trkpt lat="37.972208" lon="-1.046888">
 <ele>393.780000</ele>
<time>2009-12-30T09:32:25Z</time>
</trkpt>
<trkpt lat="37.972208" lon="-1.046888">
 <ele>394.100000</ele>
<time>2009-12-30T09:32:26Z</time>
</trkpt>
<trkpt lat="37.972194" lon="-1.046904">
 <ele>394.260000</ele>
<time>2009-12-30T09:33:43Z</time>
</trkpt>
<trkpt lat="37.972140" lon="-1.046940">
 <ele>395.660000</ele>
<time>2009-12-30T09:33:48Z</time>
</trkpt>
<trkpt lat="37.972140" lon="-1.046939">
 <ele>395.960000</ele>
<time>2009-12-30T09:33:49Z</time>
</trkpt>
<trkpt lat="37.972140" lon="-1.046949">
 <ele>395.260000</ele>
<time>2009-12-30T09:33:50Z</time>
</trkpt>
<trkpt lat="37.972140" lon="-1.046947">
 <ele>395.760000</ele>
<time>2009-12-30T09:33:51Z</time>
</trkpt>
<trkpt lat="37.972144" lon="-1.046945">
 <ele>395.580000</ele>
<time>2009-12-30T09:33:52Z</time>
</trkpt>
<trkpt lat="37.972142" lon="-1.046942">
 <ele>395.420000</ele>
<time>2009-12-30T09:33:53Z</time>
</trkpt>
<trkpt lat="37.972142" lon="-1.046942">
 <ele>395.500000</ele>
<time>2009-12-30T09:33:54Z</time>
</trkpt>
<trkpt lat="37.972137" lon="-1.046931">
 <ele>395.260000</ele>
<time>2009-12-30T09:33:55Z</time>
</trkpt>
<trkpt lat="37.972142" lon="-1.046870">
 <ele>394.920000</ele>
<time>2009-12-30T09:33:59Z</time>
</trkpt>
<trkpt lat="37.972134" lon="-1.046872">
 <ele>394.720000</ele>
<time>2009-12-30T09:34:00Z</time>
</trkpt>
<trkpt lat="37.972131" lon="-1.046872">
 <ele>395.440000</ele>
<time>2009-12-30T09:34:01Z</time>
</trkpt>
<trkpt lat="37.972126" lon="-1.046879">
 <ele>395.100000</ele>
<time>2009-12-30T09:34:02Z</time>
</trkpt>
<trkpt lat="37.972132" lon="-1.046870">
 <ele>395.020000</ele>
<time>2009-12-30T09:34:03Z</time>
</trkpt>
<trkpt lat="37.972095" lon="-1.046832">
 <ele>393.920000</ele>
<time>2009-12-30T09:34:07Z</time>
</trkpt>
<trkpt lat="37.972109" lon="-1.046831">
 <ele>393.980000</ele>
<time>2009-12-30T09:34:08Z</time>
</trkpt>
<trkpt lat="37.972112" lon="-1.046832">
 <ele>393.920000</ele>
<time>2009-12-30T09:34:09Z</time>
</trkpt>
<trkpt lat="37.972113" lon="-1.046836">
 <ele>394.140000</ele>
<time>2009-12-30T09:34:10Z</time>
</trkpt>
<trkpt lat="37.972107" lon="-1.046831">
 <ele>393.700000</ele>
<time>2009-12-30T09:34:11Z</time>
</trkpt>
<trkpt lat="37.972107" lon="-1.046830">
 <ele>394.260000</ele>
<time>2009-12-30T09:34:12Z</time>
</trkpt>
<trkpt lat="37.972107" lon="-1.046830">
 <ele>394.100000</ele>
<time>2009-12-30T09:34:13Z</time>
</trkpt>
<trkpt lat="37.972095" lon="-1.046812">
 <ele>392.180000</ele>
<time>2009-12-30T09:34:40Z</time>
</trkpt>
<trkpt lat="37.972047" lon="-1.046747">
 <ele>393.520000</ele>
<time>2009-12-30T09:34:43Z</time>
</trkpt>
<trkpt lat="37.972053" lon="-1.046727">
 <ele>385.180000</ele>
<time>2009-12-30T09:34:44Z</time>
</trkpt>
<trkpt lat="37.972051" lon="-1.046730">
 <ele>389.060000</ele>
<time>2009-12-30T09:34:45Z</time>
</trkpt>
<trkpt lat="37.972050" lon="-1.046735">
 <ele>389.680000</ele>
<time>2009-12-30T09:34:46Z</time>
</trkpt>
<trkpt lat="37.972048" lon="-1.046728">
 <ele>388.800000</ele>
<time>2009-12-30T09:34:47Z</time>
</trkpt>
<trkpt lat="37.972048" lon="-1.046728">
 <ele>389.200000</ele>
<time>2009-12-30T09:34:48Z</time>
</trkpt>
<trkpt lat="37.972027" lon="-1.046698">
 <ele>385.240000</ele>
<time>2009-12-30T09:35:40Z</time>
</trkpt>
<trkpt lat="37.971949" lon="-1.046601">
 <ele>386.700000</ele>
<time>2009-12-30T09:35:43Z</time>
</trkpt>
<trkpt lat="37.971940" lon="-1.046591">
 <ele>371.220000</ele>
<time>2009-12-30T09:35:44Z</time>
</trkpt>
<trkpt lat="37.971942" lon="-1.046582">
 <ele>378.600000</ele>
<time>2009-12-30T09:35:45Z</time>
</trkpt>
<trkpt lat="37.971940" lon="-1.046578">
 <ele>378.980000</ele>
<time>2009-12-30T09:35:46Z</time>
</trkpt>
<trkpt lat="37.971937" lon="-1.046580">
 <ele>378.820000</ele>
<time>2009-12-30T09:35:47Z</time>
</trkpt>
<trkpt lat="37.971910" lon="-1.046532">
 <ele>378.800000</ele>
<time>2009-12-30T09:35:51Z</time>
</trkpt>
<trkpt lat="37.971919" lon="-1.046538">
 <ele>378.000000</ele>
<time>2009-12-30T09:35:52Z</time>
</trkpt>
<trkpt lat="37.971921" lon="-1.046543">
 <ele>378.400000</ele>
<time>2009-12-30T09:35:53Z</time>
</trkpt>
<trkpt lat="37.971912" lon="-1.046543">
 <ele>378.400000</ele>
<time>2009-12-30T09:35:54Z</time>
</trkpt>
<trkpt lat="37.971913" lon="-1.046537">
 <ele>378.400000</ele>
<time>2009-12-30T09:35:55Z</time>
</trkpt>
<trkpt lat="37.971913" lon="-1.046537">
 <ele>378.400000</ele>
<time>2009-12-30T09:35:56Z</time>
</trkpt>
<trkpt lat="37.971905" lon="-1.046529">
 <ele>377.920000</ele>
<time>2009-12-30T09:35:59Z</time>
</trkpt>
<trkpt lat="37.971868" lon="-1.046498">
 <ele>377.680000</ele>
<time>2009-12-30T09:36:02Z</time>
</trkpt>
<trkpt lat="37.971881" lon="-1.046504">
 <ele>375.600000</ele>
<time>2009-12-30T09:36:03Z</time>
</trkpt>
<trkpt lat="37.971874" lon="-1.046497">
 <ele>376.500000</ele>
<time>2009-12-30T09:36:04Z</time>
</trkpt>
<trkpt lat="37.971868" lon="-1.046498">
 <ele>376.680000</ele>
<time>2009-12-30T09:36:05Z</time>
</trkpt>
<trkpt lat="37.971868" lon="-1.046497">
 <ele>376.360000</ele>
<time>2009-12-30T09:36:06Z</time>
</trkpt>
<trkpt lat="37.971868" lon="-1.046497">
 <ele>376.600000</ele>
<time>2009-12-30T09:36:07Z</time>
</trkpt>
<trkpt lat="37.971868" lon="-1.046497">
 <ele>376.600000</ele>
<time>2009-12-30T09:36:08Z</time>
</trkpt>
<trkpt lat="37.971868" lon="-1.046497">
 <ele>376.600000</ele>
<time>2009-12-30T09:36:09Z</time>
</trkpt>
<trkpt lat="37.971868" lon="-1.046497">
 <ele>376.600000</ele>
<time>2009-12-30T09:36:10Z</time>
</trkpt>
<trkpt lat="37.971868" lon="-1.046497">
 <ele>376.600000</ele>
<time>2009-12-30T09:36:11Z</time>
</trkpt>
<trkpt lat="37.971868" lon="-1.046497">
 <ele>376.600000</ele>
<time>2009-12-30T09:36:12Z</time>
</trkpt>
<trkpt lat="37.971868" lon="-1.046497">
 <ele>376.600000</ele>
<time>2009-12-30T09:36:13Z</time>
</trkpt>
<trkpt lat="37.971868" lon="-1.046497">
 <ele>376.600000</ele>
<time>2009-12-30T09:36:14Z</time>
</trkpt>
<trkpt lat="37.971868" lon="-1.046497">
 <ele>376.600000</ele>
<time>2009-12-30T09:36:15Z</time>
</trkpt>
<trkpt lat="37.971868" lon="-1.046497">
 <ele>376.600000</ele>
<time>2009-12-30T09:36:16Z</time>
</trkpt>
<trkpt lat="37.971868" lon="-1.046497">
 <ele>376.600000</ele>
<time>2009-12-30T09:36:17Z</time>
</trkpt>
<trkpt lat="37.971834" lon="-1.046444">
 <ele>374.280000</ele>
<time>2009-12-30T09:36:22Z</time>
</trkpt>
<trkpt lat="37.971823" lon="-1.046417">
 <ele>373.820000</ele>
<time>2009-12-30T09:36:23Z</time>
</trkpt>
<trkpt lat="37.971817" lon="-1.046433">
 <ele>374.260000</ele>
<time>2009-12-30T09:36:25Z</time>
</trkpt>
<trkpt lat="37.971795" lon="-1.046428">
 <ele>373.800000</ele>
<time>2009-12-30T09:36:26Z</time>
</trkpt>
<trkpt lat="37.971795" lon="-1.046432">
 <ele>373.920000</ele>
<time>2009-12-30T09:36:27Z</time>
</trkpt>
<trkpt lat="37.971783" lon="-1.046415">
 <ele>373.200000</ele>
<time>2009-12-30T09:36:28Z</time>
</trkpt>
<trkpt lat="37.971698" lon="-1.046360">
 <ele>372.460000</ele>
<time>2009-12-30T09:36:38Z</time>
</trkpt>
<trkpt lat="37.971688" lon="-1.046333">
 <ele>370.680000</ele>
<time>2009-12-30T09:36:42Z</time>
</trkpt>
<trkpt lat="37.971681" lon="-1.046322">
 <ele>370.960000</ele>
<time>2009-12-30T09:36:43Z</time>
</trkpt>
<trkpt lat="37.971632" lon="-1.046290">
 <ele>369.180000</ele>
<time>2009-12-30T09:36:47Z</time>
</trkpt>
<trkpt lat="37.971644" lon="-1.046308">
 <ele>369.400000</ele>
<time>2009-12-30T09:36:48Z</time>
</trkpt>
<trkpt lat="37.971642" lon="-1.046296">
 <ele>369.420000</ele>
<time>2009-12-30T09:36:49Z</time>
</trkpt>
<trkpt lat="37.971643" lon="-1.046297">
 <ele>369.260000</ele>
<time>2009-12-30T09:36:50Z</time>
</trkpt>
<trkpt lat="37.971638" lon="-1.046293">
 <ele>369.500000</ele>
<time>2009-12-30T09:36:51Z</time>
</trkpt>
<trkpt lat="37.971638" lon="-1.046293">
 <ele>369.500000</ele>
<time>2009-12-30T09:36:52Z</time>
</trkpt>
<trkpt lat="37.971638" lon="-1.046293">
 <ele>369.500000</ele>
<time>2009-12-30T09:36:53Z</time>
</trkpt>
<trkpt lat="37.971638" lon="-1.046293">
 <ele>369.500000</ele>
<time>2009-12-30T09:36:54Z</time>
</trkpt>
<trkpt lat="37.971638" lon="-1.046293">
 <ele>369.500000</ele>
<time>2009-12-30T09:36:55Z</time>
</trkpt>
<trkpt lat="37.971638" lon="-1.046293">
 <ele>369.500000</ele>
<time>2009-12-30T09:36:56Z</time>
</trkpt>
<trkpt lat="37.971638" lon="-1.046293">
 <ele>369.500000</ele>
<time>2009-12-30T09:36:57Z</time>
</trkpt>
<trkpt lat="37.971638" lon="-1.046293">
 <ele>369.500000</ele>
<time>2009-12-30T09:36:58Z</time>
</trkpt>
<trkpt lat="37.971638" lon="-1.046293">
 <ele>369.500000</ele>
<time>2009-12-30T09:36:59Z</time>
</trkpt>
<trkpt lat="37.971484" lon="-1.046228">
 <ele>367.620000</ele>
<time>2009-12-30T09:37:09Z</time>
</trkpt>
<trkpt lat="37.971458" lon="-1.046231">
 <ele>366.260000</ele>
<time>2009-12-30T09:37:13Z</time>
</trkpt>
<trkpt lat="37.971445" lon="-1.046228">
 <ele>367.120000</ele>
<time>2009-12-30T09:37:14Z</time>
</trkpt>
<trkpt lat="37.971415" lon="-1.046197">
 <ele>365.900000</ele>
<time>2009-12-30T09:37:19Z</time>
</trkpt>
<trkpt lat="37.971415" lon="-1.046201">
 <ele>365.580000</ele>
<time>2009-12-30T09:37:20Z</time>
</trkpt>
<trkpt lat="37.971414" lon="-1.046199">
 <ele>365.800000</ele>
<time>2009-12-30T09:37:21Z</time>
</trkpt>
<trkpt lat="37.971409" lon="-1.046204">
 <ele>365.600000</ele>
<time>2009-12-30T09:37:22Z</time>
</trkpt>
<trkpt lat="37.971359" lon="-1.046189">
 <ele>365.260000</ele>
<time>2009-12-30T09:37:25Z</time>
</trkpt>
<trkpt lat="37.971370" lon="-1.046185">
 <ele>364.620000</ele>
<time>2009-12-30T09:37:26Z</time>
</trkpt>
<trkpt lat="37.971364" lon="-1.046189">
 <ele>364.800000</ele>
<time>2009-12-30T09:37:27Z</time>
</trkpt>
<trkpt lat="37.971370" lon="-1.046188">
 <ele>364.980000</ele>
<time>2009-12-30T09:37:28Z</time>
</trkpt>
<trkpt lat="37.971354" lon="-1.046184">
 <ele>364.300000</ele>
<time>2009-12-30T09:37:29Z</time>
</trkpt>
<trkpt lat="37.971308" lon="-1.046164">
 <ele>364.180000</ele>
<time>2009-12-30T09:37:32Z</time>
</trkpt>
<trkpt lat="37.971313" lon="-1.046169">
 <ele>362.540000</ele>
<time>2009-12-30T09:37:33Z</time>
</trkpt>
<trkpt lat="37.971310" lon="-1.046162">
 <ele>363.340000</ele>
<time>2009-12-30T09:37:34Z</time>
</trkpt>
<trkpt lat="37.971296" lon="-1.046157">
 <ele>362.040000</ele>
<time>2009-12-30T09:37:37Z</time>
</trkpt>
<trkpt lat="37.971270" lon="-1.046137">
 <ele>362.020000</ele>
<time>2009-12-30T09:37:38Z</time>
</trkpt>
<trkpt lat="37.971279" lon="-1.046135">
 <ele>360.420000</ele>
<time>2009-12-30T09:37:39Z</time>
</trkpt>
<trkpt lat="37.971277" lon="-1.046142">
 <ele>360.900000</ele>
<time>2009-12-30T09:37:40Z</time>
</trkpt>
<trkpt lat="37.971261" lon="-1.046129">
 <ele>359.660000</ele>
<time>2009-12-30T09:37:42Z</time>
</trkpt>
<trkpt lat="37.971247" lon="-1.046120">
 <ele>360.640000</ele>
<time>2009-12-30T09:37:43Z</time>
</trkpt>
<trkpt lat="37.971258" lon="-1.046129">
 <ele>359.680000</ele>
<time>2009-12-30T09:37:44Z</time>
</trkpt>
<trkpt lat="37.971246" lon="-1.046133">
 <ele>360.240000</ele>
<time>2009-12-30T09:37:45Z</time>
</trkpt>
<trkpt lat="37.971258" lon="-1.046130">
 <ele>360.200000</ele>
<time>2009-12-30T09:37:46Z</time>
</trkpt>
<trkpt lat="37.971244" lon="-1.046125">
 <ele>359.960000</ele>
<time>2009-12-30T09:37:47Z</time>
</trkpt>
<trkpt lat="37.971110" lon="-1.046100">
 <ele>359.660000</ele>
<time>2009-12-30T09:38:00Z</time>
</trkpt>
<trkpt lat="37.971093" lon="-1.046094">
 <ele>359.360000</ele>
<time>2009-12-30T09:38:01Z</time>
</trkpt>
<trkpt lat="37.971039" lon="-1.046117">
 <ele>359.920000</ele>
<time>2009-12-30T09:38:07Z</time>
</trkpt>
<trkpt lat="37.970994" lon="-1.046127">
 <ele>359.080000</ele>
<time>2009-12-30T09:38:12Z</time>
</trkpt>
<trkpt lat="37.970997" lon="-1.046125">
 <ele>359.520000</ele>
<time>2009-12-30T09:38:13Z</time>
</trkpt>
<trkpt lat="37.971009" lon="-1.046129">
 <ele>358.760000</ele>
<time>2009-12-30T09:38:14Z</time>
</trkpt>
<trkpt lat="37.970999" lon="-1.046122">
 <ele>359.360000</ele>
<time>2009-12-30T09:38:15Z</time>
</trkpt>
<trkpt lat="37.970995" lon="-1.046128">
 <ele>359.040000</ele>
<time>2009-12-30T09:38:16Z</time>
</trkpt>
<trkpt lat="37.970995" lon="-1.046128">
 <ele>359.200000</ele>
<time>2009-12-30T09:38:17Z</time>
</trkpt>
<trkpt lat="37.970967" lon="-1.046133">
 <ele>360.200000</ele>
<time>2009-12-30T09:38:57Z</time>
</trkpt>
<trkpt lat="37.970878" lon="-1.046167">
 <ele>360.920000</ele>
<time>2009-12-30T09:39:00Z</time>
</trkpt>
<trkpt lat="37.970851" lon="-1.046146">
 <ele>364.580000</ele>
<time>2009-12-30T09:39:01Z</time>
</trkpt>
<trkpt lat="37.970850" lon="-1.046157">
 <ele>363.140000</ele>
<time>2009-12-30T09:39:02Z</time>
</trkpt>
<trkpt lat="37.970847" lon="-1.046154">
 <ele>362.800000</ele>
<time>2009-12-30T09:39:03Z</time>
</trkpt>
<trkpt lat="37.970847" lon="-1.046160">
 <ele>363.040000</ele>
<time>2009-12-30T09:39:04Z</time>
</trkpt>
<trkpt lat="37.970847" lon="-1.046160">
 <ele>362.800000</ele>
<time>2009-12-30T09:39:05Z</time>
</trkpt>
<trkpt lat="37.970818" lon="-1.046155">
 <ele>360.920000</ele>
<time>2009-12-30T09:41:39Z</time>
</trkpt>
<trkpt lat="37.970713" lon="-1.046119">
 <ele>360.880000</ele>
<time>2009-12-30T09:41:42Z</time>
</trkpt>
<trkpt lat="37.970665" lon="-1.046126">
 <ele>357.860000</ele>
<time>2009-12-30T09:41:47Z</time>
</trkpt>
<trkpt lat="37.970682" lon="-1.046136">
 <ele>358.520000</ele>
<time>2009-12-30T09:41:48Z</time>
</trkpt>
<trkpt lat="37.970676" lon="-1.046122">
 <ele>357.680000</ele>
<time>2009-12-30T09:41:49Z</time>
</trkpt>
<trkpt lat="37.970667" lon="-1.046120">
 <ele>358.580000</ele>
<time>2009-12-30T09:41:50Z</time>
</trkpt>
<trkpt lat="37.970667" lon="-1.046125">
 <ele>358.180000</ele>
<time>2009-12-30T09:41:51Z</time>
</trkpt>
<trkpt lat="37.970667" lon="-1.046125">
 <ele>358.100000</ele>
<time>2009-12-30T09:41:52Z</time>
</trkpt>
<trkpt lat="37.970656" lon="-1.046127">
 <ele>358.780000</ele>
<time>2009-12-30T09:41:54Z</time>
</trkpt>
<trkpt lat="37.970619" lon="-1.046133">
 <ele>362.000000</ele>
<time>2009-12-30T09:41:56Z</time>
</trkpt>
<trkpt lat="37.970589" lon="-1.046135">
 <ele>363.080000</ele>
<time>2009-12-30T09:41:58Z</time>
</trkpt>
<trkpt lat="37.970588" lon="-1.046138">
 <ele>362.840000</ele>
<time>2009-12-30T09:41:59Z</time>
</trkpt>
<trkpt lat="37.970589" lon="-1.046136">
 <ele>363.300000</ele>
<time>2009-12-30T09:42:00Z</time>
</trkpt>
<trkpt lat="37.970591" lon="-1.046127">
 <ele>362.100000</ele>
<time>2009-12-30T09:42:01Z</time>
</trkpt>
<trkpt lat="37.970573" lon="-1.046137">
 <ele>363.940000</ele>
<time>2009-12-30T09:42:02Z</time>
</trkpt>
<trkpt lat="37.970520" lon="-1.046154">
 <ele>364.860000</ele>
<time>2009-12-30T09:42:05Z</time>
</trkpt>
<trkpt lat="37.970528" lon="-1.046158">
 <ele>367.000000</ele>
<time>2009-12-30T09:42:06Z</time>
</trkpt>
<trkpt lat="37.970508" lon="-1.046172">
 <ele>365.740000</ele>
<time>2009-12-30T09:42:07Z</time>
</trkpt>
<trkpt lat="37.970496" lon="-1.046191">
 <ele>364.840000</ele>
<time>2009-12-30T09:42:10Z</time>
</trkpt>
<trkpt lat="37.970492" lon="-1.046183">
 <ele>364.760000</ele>
<time>2009-12-30T09:42:11Z</time>
</trkpt>
<trkpt lat="37.970502" lon="-1.046191">
 <ele>363.600000</ele>
<time>2009-12-30T09:42:12Z</time>
</trkpt>
<trkpt lat="37.970499" lon="-1.046209">
 <ele>364.620000</ele>
<time>2009-12-30T09:42:13Z</time>
</trkpt>
<trkpt lat="37.970506" lon="-1.046199">
 <ele>364.380000</ele>
<time>2009-12-30T09:42:14Z</time>
</trkpt>
<trkpt lat="37.970581" lon="-1.046160">
 <ele>365.400000</ele>
<time>2009-12-30T09:42:23Z</time>
</trkpt>
<trkpt lat="37.970624" lon="-1.046186">
 <ele>363.360000</ele>
<time>2009-12-30T09:42:29Z</time>
</trkpt>
<trkpt lat="37.970633" lon="-1.046188">
 <ele>362.800000</ele>
<time>2009-12-30T09:42:30Z</time>
</trkpt>
<trkpt lat="37.970647" lon="-1.046228">
 <ele>363.140000</ele>
<time>2009-12-30T09:42:32Z</time>
</trkpt>
<trkpt lat="37.970665" lon="-1.046229">
 <ele>361.900000</ele>
<time>2009-12-30T09:42:34Z</time>
</trkpt>
<trkpt lat="37.970678" lon="-1.046252">
 <ele>362.380000</ele>
<time>2009-12-30T09:42:35Z</time>
</trkpt>
<trkpt lat="37.970708" lon="-1.046262">
 <ele>361.620000</ele>
<time>2009-12-30T09:42:38Z</time>
</trkpt>
<trkpt lat="37.970706" lon="-1.046263">
 <ele>361.240000</ele>
<time>2009-12-30T09:42:39Z</time>
</trkpt>
<trkpt lat="37.970709" lon="-1.046262">
 <ele>361.760000</ele>
<time>2009-12-30T09:42:40Z</time>
</trkpt>
<trkpt lat="37.970700" lon="-1.046265">
 <ele>361.640000</ele>
<time>2009-12-30T09:42:41Z</time>
</trkpt>
<trkpt lat="37.970704" lon="-1.046277">
 <ele>361.920000</ele>
<time>2009-12-30T09:42:42Z</time>
</trkpt>
<trkpt lat="37.970706" lon="-1.046271">
 <ele>361.640000</ele>
<time>2009-12-30T09:42:43Z</time>
</trkpt>
<trkpt lat="37.970707" lon="-1.046272">
 <ele>361.960000</ele>
<time>2009-12-30T09:42:44Z</time>
</trkpt>
<trkpt lat="37.970701" lon="-1.046271">
 <ele>367.080000</ele>
<time>2009-12-30T09:42:57Z</time>
</trkpt>
<trkpt lat="37.970705" lon="-1.046272">
 <ele>375.080000</ele>
<time>2009-12-30T09:42:58Z</time>
</trkpt>
<trkpt lat="37.970728" lon="-1.046326">
 <ele>385.080000</ele>
<time>2009-12-30T09:43:01Z</time>
</trkpt>
<trkpt lat="37.970757" lon="-1.046325">
 <ele>376.420000</ele>
<time>2009-12-30T09:43:03Z</time>
</trkpt>
<trkpt lat="37.970746" lon="-1.046333">
 <ele>381.040000</ele>
<time>2009-12-30T09:43:06Z</time>
</trkpt>
<trkpt lat="37.970744" lon="-1.046340">
 <ele>380.680000</ele>
<time>2009-12-30T09:43:07Z</time>
</trkpt>
<trkpt lat="37.970748" lon="-1.046329">
 <ele>381.880000</ele>
<time>2009-12-30T09:43:08Z</time>
</trkpt>
<trkpt lat="37.970759" lon="-1.046327">
 <ele>380.600000</ele>
<time>2009-12-30T09:43:09Z</time>
</trkpt>
<trkpt lat="37.970753" lon="-1.046332">
 <ele>381.240000</ele>
<time>2009-12-30T09:43:10Z</time>
</trkpt>
<trkpt lat="37.970753" lon="-1.046332">
 <ele>380.600000</ele>
<time>2009-12-30T09:43:11Z</time>
</trkpt>
<trkpt lat="37.970751" lon="-1.046342">
 <ele>386.200000</ele>
<time>2009-12-30T09:43:16Z</time>
</trkpt>
<trkpt lat="37.970781" lon="-1.046399">
 <ele>388.400000</ele>
<time>2009-12-30T09:43:19Z</time>
</trkpt>
<trkpt lat="37.970796" lon="-1.046412">
 <ele>399.640000</ele>
<time>2009-12-30T09:43:23Z</time>
</trkpt>
<trkpt lat="37.970866" lon="-1.046406">
 <ele>393.840000</ele>
<time>2009-12-30T09:43:26Z</time>
</trkpt>
<trkpt lat="37.970983" lon="-1.046437">
 <ele>373.580000</ele>
<time>2009-12-30T09:43:34Z</time>
</trkpt>
<trkpt lat="37.971013" lon="-1.046452">
 <ele>372.280000</ele>
<time>2009-12-30T09:43:37Z</time>
</trkpt>
<trkpt lat="37.971032" lon="-1.046460">
 <ele>375.120000</ele>
<time>2009-12-30T09:43:39Z</time>
</trkpt>
<trkpt lat="37.971034" lon="-1.046485">
 <ele>372.920000</ele>
<time>2009-12-30T09:43:41Z</time>
</trkpt>
<trkpt lat="37.971056" lon="-1.046493">
 <ele>372.480000</ele>
<time>2009-12-30T09:43:42Z</time>
</trkpt>
<trkpt lat="37.971171" lon="-1.046494">
 <ele>363.720000</ele>
<time>2009-12-30T09:43:49Z</time>
</trkpt>
<trkpt lat="37.971222" lon="-1.046495">
 <ele>358.240000</ele>
<time>2009-12-30T09:43:54Z</time>
</trkpt>
<trkpt lat="37.971229" lon="-1.046499">
 <ele>356.200000</ele>
<time>2009-12-30T09:43:55Z</time>
</trkpt>
<trkpt lat="37.971242" lon="-1.046493">
 <ele>357.840000</ele>
<time>2009-12-30T09:43:56Z</time>
</trkpt>
<trkpt lat="37.971245" lon="-1.046510">
 <ele>357.640000</ele>
<time>2009-12-30T09:43:57Z</time>
</trkpt>
<trkpt lat="37.971252" lon="-1.046502">
 <ele>357.000000</ele>
<time>2009-12-30T09:43:58Z</time>
</trkpt>
<trkpt lat="37.971252" lon="-1.046502">
 <ele>357.800000</ele>
<time>2009-12-30T09:43:59Z</time>
</trkpt>
<trkpt lat="37.971243" lon="-1.046502">
 <ele>356.400000</ele>
<time>2009-12-30T09:44:34Z</time>
</trkpt>
<trkpt lat="37.971188" lon="-1.046462">
 <ele>349.140000</ele>
<time>2009-12-30T09:44:38Z</time>
</trkpt>
<trkpt lat="37.971175" lon="-1.046449">
 <ele>353.120000</ele>
<time>2009-12-30T09:44:40Z</time>
</trkpt>
<trkpt lat="37.971174" lon="-1.046452">
 <ele>351.880000</ele>
<time>2009-12-30T09:44:41Z</time>
</trkpt>
<trkpt lat="37.971174" lon="-1.046449">
 <ele>353.200000</ele>
<time>2009-12-30T09:44:42Z</time>
</trkpt>
<trkpt lat="37.971174" lon="-1.046451">
 <ele>353.060000</ele>
<time>2009-12-30T09:44:43Z</time>
</trkpt>
<trkpt lat="37.971170" lon="-1.046445">
 <ele>352.980000</ele>
<time>2009-12-30T09:44:44Z</time>
</trkpt>
<trkpt lat="37.971170" lon="-1.046445">
 <ele>352.900000</ele>
<time>2009-12-30T09:44:45Z</time>
</trkpt>
<trkpt lat="37.971166" lon="-1.046431">
 <ele>351.460000</ele>
<time>2009-12-30T09:44:55Z</time>
</trkpt>
<trkpt lat="37.971151" lon="-1.046373">
 <ele>352.160000</ele>
<time>2009-12-30T09:44:58Z</time>
</trkpt>
<trkpt lat="37.971161" lon="-1.046378">
 <ele>346.660000</ele>
<time>2009-12-30T09:44:59Z</time>
</trkpt>
<trkpt lat="37.971152" lon="-1.046373">
 <ele>349.300000</ele>
<time>2009-12-30T09:45:00Z</time>
</trkpt>
<trkpt lat="37.971155" lon="-1.046371">
 <ele>349.400000</ele>
<time>2009-12-30T09:45:01Z</time>
</trkpt>
<trkpt lat="37.971155" lon="-1.046370">
 <ele>349.480000</ele>
<time>2009-12-30T09:45:02Z</time>
</trkpt>
<trkpt lat="37.971155" lon="-1.046370">
 <ele>349.400000</ele>
<time>2009-12-30T09:45:03Z</time>
</trkpt>
<trkpt lat="37.971136" lon="-1.046365">
 <ele>349.080000</ele>
<time>2009-12-30T09:45:18Z</time>
</trkpt>
<trkpt lat="37.971035" lon="-1.046332">
 <ele>348.600000</ele>
<time>2009-12-30T09:45:24Z</time>
</trkpt>
<trkpt lat="37.971039" lon="-1.046338">
 <ele>348.460000</ele>
<time>2009-12-30T09:45:25Z</time>
</trkpt>
<trkpt lat="37.971030" lon="-1.046332">
 <ele>348.820000</ele>
<time>2009-12-30T09:45:26Z</time>
</trkpt>
<trkpt lat="37.971032" lon="-1.046337">
 <ele>348.440000</ele>
<time>2009-12-30T09:45:27Z</time>
</trkpt>
<trkpt lat="37.971028" lon="-1.046335">
 <ele>348.680000</ele>
<time>2009-12-30T09:45:28Z</time>
</trkpt>
<trkpt lat="37.971028" lon="-1.046335">
 <ele>348.600000</ele>
<time>2009-12-30T09:45:29Z</time>
</trkpt>
<trkpt lat="37.971043" lon="-1.046337">
 <ele>348.520000</ele>
<time>2009-12-30T09:45:39Z</time>
</trkpt>
<trkpt lat="37.971048" lon="-1.046362">
 <ele>355.000000</ele>
<time>2009-12-30T09:45:43Z</time>
</trkpt>
<trkpt lat="37.971013" lon="-1.046367">
 <ele>351.760000</ele>
<time>2009-12-30T09:45:44Z</time>
</trkpt>
<trkpt lat="37.970985" lon="-1.046366">
 <ele>356.480000</ele>
<time>2009-12-30T09:45:45Z</time>
</trkpt>
<trkpt lat="37.970982" lon="-1.046367">
 <ele>353.580000</ele>
<time>2009-12-30T09:45:46Z</time>
</trkpt>
<trkpt lat="37.970990" lon="-1.046373">
 <ele>351.860000</ele>
<time>2009-12-30T09:45:48Z</time>
</trkpt>
<trkpt lat="37.971021" lon="-1.046377">
 <ele>348.000000</ele>
<time>2009-12-30T09:45:51Z</time>
</trkpt>
<trkpt lat="37.971054" lon="-1.046376">
 <ele>349.600000</ele>
<time>2009-12-30T09:45:52Z</time>
</trkpt>
<trkpt lat="37.971082" lon="-1.046371">
 <ele>349.740000</ele>
<time>2009-12-30T09:45:55Z</time>
</trkpt>
<trkpt lat="37.971085" lon="-1.046365">
 <ele>351.440000</ele>
<time>2009-12-30T09:45:56Z</time>
</trkpt>
<trkpt lat="37.971061" lon="-1.046365">
 <ele>350.800000</ele>
<time>2009-12-30T09:45:57Z</time>
</trkpt>
<trkpt lat="37.971060" lon="-1.046362">
 <ele>351.860000</ele>
<time>2009-12-30T09:45:58Z</time>
</trkpt>
<trkpt lat="37.971076" lon="-1.046364">
 <ele>352.500000</ele>
<time>2009-12-30T09:45:59Z</time>
</trkpt>
<trkpt lat="37.971070" lon="-1.046360">
 <ele>352.520000</ele>
<time>2009-12-30T09:46:00Z</time>
</trkpt>
<trkpt lat="37.971075" lon="-1.046364">
 <ele>351.760000</ele>
<time>2009-12-30T09:46:01Z</time>
</trkpt>
<trkpt lat="37.971068" lon="-1.046363">
 <ele>352.480000</ele>
<time>2009-12-30T09:46:02Z</time>
</trkpt>
<trkpt lat="37.971068" lon="-1.046363">
 <ele>352.000000</ele>
<time>2009-12-30T09:46:03Z</time>
</trkpt>
<trkpt lat="37.971056" lon="-1.046351">
 <ele>351.000000</ele>
<time>2009-12-30T09:46:11Z</time>
</trkpt>
<trkpt lat="37.971021" lon="-1.046313">
 <ele>348.000000</ele>
<time>2009-12-30T09:46:13Z</time>
</trkpt>
<trkpt lat="37.970911" lon="-1.046255">
 <ele>351.300000</ele>
<time>2009-12-30T09:46:16Z</time>
</trkpt>
<trkpt lat="37.970649" lon="-1.046189">
 <ele>356.920000</ele>
<time>2009-12-30T09:46:24Z</time>
</trkpt>
<trkpt lat="37.970601" lon="-1.046215">
 <ele>359.040000</ele>
<time>2009-12-30T09:46:28Z</time>
</trkpt>
<trkpt lat="37.970567" lon="-1.046240">
 <ele>358.980000</ele>
<time>2009-12-30T09:46:30Z</time>
</trkpt>
<trkpt lat="37.970530" lon="-1.046260">
 <ele>359.220000</ele>
<time>2009-12-30T09:46:34Z</time>
</trkpt>
<trkpt lat="37.970471" lon="-1.046297">
 <ele>359.740000</ele>
<time>2009-12-30T09:46:39Z</time>
</trkpt>
<trkpt lat="37.970478" lon="-1.046299">
 <ele>359.220000</ele>
<time>2009-12-30T09:46:40Z</time>
</trkpt>
<trkpt lat="37.970471" lon="-1.046314">
 <ele>359.280000</ele>
<time>2009-12-30T09:46:41Z</time>
</trkpt>
<trkpt lat="37.970461" lon="-1.046305">
 <ele>359.100000</ele>
<time>2009-12-30T09:46:43Z</time>
</trkpt>
<trkpt lat="37.970445" lon="-1.046306">
 <ele>359.620000</ele>
<time>2009-12-30T09:46:44Z</time>
</trkpt>
<trkpt lat="37.970447" lon="-1.046317">
 <ele>360.200000</ele>
<time>2009-12-30T09:46:45Z</time>
</trkpt>
<trkpt lat="37.970473" lon="-1.046338">
 <ele>360.200000</ele>
<time>2009-12-30T09:46:48Z</time>
</trkpt>
<trkpt lat="37.970466" lon="-1.046340">
 <ele>360.060000</ele>
<time>2009-12-30T09:46:49Z</time>
</trkpt>
<trkpt lat="37.970414" lon="-1.046349">
 <ele>359.740000</ele>
<time>2009-12-30T09:46:52Z</time>
</trkpt>
<trkpt lat="37.970390" lon="-1.046337">
 <ele>359.500000</ele>
<time>2009-12-30T09:46:53Z</time>
</trkpt>
<trkpt lat="37.970379" lon="-1.046337">
 <ele>360.200000</ele>
<time>2009-12-30T09:46:54Z</time>
</trkpt>
<trkpt lat="37.970389" lon="-1.046335">
 <ele>359.300000</ele>
<time>2009-12-30T09:46:55Z</time>
</trkpt>
<trkpt lat="37.970383" lon="-1.046338">
 <ele>359.620000</ele>
<time>2009-12-30T09:46:56Z</time>
</trkpt>
<trkpt lat="37.970394" lon="-1.046343">
 <ele>360.620000</ele>
<time>2009-12-30T09:46:57Z</time>
</trkpt>
<trkpt lat="37.970398" lon="-1.046360">
 <ele>363.600000</ele>
<time>2009-12-30T09:47:01Z</time>
</trkpt>
<trkpt lat="37.970331" lon="-1.046369">
 <ele>361.000000</ele>
<time>2009-12-30T09:47:04Z</time>
</trkpt>
<trkpt lat="37.970288" lon="-1.046426">
 <ele>359.640000</ele>
<time>2009-12-30T09:47:11Z</time>
</trkpt>
<trkpt lat="37.970271" lon="-1.046432">
 <ele>359.920000</ele>
<time>2009-12-30T09:47:12Z</time>
</trkpt>
<trkpt lat="37.970207" lon="-1.046450">
 <ele>361.320000</ele>
<time>2009-12-30T09:47:18Z</time>
</trkpt>
<trkpt lat="37.970185" lon="-1.046464">
 <ele>361.900000</ele>
<time>2009-12-30T09:47:19Z</time>
</trkpt>
<trkpt lat="37.970181" lon="-1.046483">
 <ele>362.560000</ele>
<time>2009-12-30T09:47:21Z</time>
</trkpt>
<trkpt lat="37.970196" lon="-1.046477">
 <ele>363.060000</ele>
<time>2009-12-30T09:47:22Z</time>
</trkpt>
<trkpt lat="37.970214" lon="-1.046515">
 <ele>363.020000</ele>
<time>2009-12-30T09:47:25Z</time>
</trkpt>
<trkpt lat="37.970198" lon="-1.046518">
 <ele>364.400000</ele>
<time>2009-12-30T09:47:26Z</time>
</trkpt>
<trkpt lat="37.970167" lon="-1.046546">
 <ele>365.460000</ele>
<time>2009-12-30T09:47:30Z</time>
</trkpt>
<trkpt lat="37.970177" lon="-1.046611">
 <ele>369.100000</ele>
<time>2009-12-30T09:47:37Z</time>
</trkpt>
<trkpt lat="37.970153" lon="-1.046652">
 <ele>370.360000</ele>
<time>2009-12-30T09:47:41Z</time>
</trkpt>
<trkpt lat="37.970146" lon="-1.046653">
 <ele>370.540000</ele>
<time>2009-12-30T09:47:43Z</time>
</trkpt>
<trkpt lat="37.970156" lon="-1.046682">
 <ele>371.560000</ele>
<time>2009-12-30T09:47:46Z</time>
</trkpt>
<trkpt lat="37.970155" lon="-1.046706">
 <ele>372.420000</ele>
<time>2009-12-30T09:47:48Z</time>
</trkpt>
<trkpt lat="37.970145" lon="-1.046717">
 <ele>371.380000</ele>
<time>2009-12-30T09:47:49Z</time>
</trkpt>
<trkpt lat="37.970134" lon="-1.046749">
 <ele>372.960000</ele>
<time>2009-12-30T09:47:53Z</time>
</trkpt>
<trkpt lat="37.970116" lon="-1.046740">
 <ele>372.560000</ele>
<time>2009-12-30T09:47:54Z</time>
</trkpt>
<trkpt lat="37.970117" lon="-1.046741">
 <ele>373.880000</ele>
<time>2009-12-30T09:47:55Z</time>
</trkpt>
<trkpt lat="37.970120" lon="-1.046734">
 <ele>372.520000</ele>
<time>2009-12-30T09:47:56Z</time>
</trkpt>
<trkpt lat="37.970113" lon="-1.046742">
 <ele>373.320000</ele>
<time>2009-12-30T09:47:57Z</time>
</trkpt>
<trkpt lat="37.970113" lon="-1.046742">
 <ele>373.000000</ele>
<time>2009-12-30T09:47:58Z</time>
</trkpt>
<trkpt lat="37.970075" lon="-1.046741">
 <ele>369.280000</ele>
<time>2009-12-30T09:47:59Z</time>
</trkpt>
<trkpt lat="37.969975" lon="-1.046751">
 <ele>357.420000</ele>
<time>2009-12-30T09:48:01Z</time>
</trkpt>
<trkpt lat="37.969713" lon="-1.046822">
 <ele>359.380000</ele>
<time>2009-12-30T09:48:12Z</time>
</trkpt>
<trkpt lat="37.969571" lon="-1.046862">
 <ele>363.460000</ele>
<time>2009-12-30T09:48:24Z</time>
</trkpt>
<trkpt lat="37.969565" lon="-1.046868">
 <ele>362.620000</ele>
<time>2009-12-30T09:48:25Z</time>
</trkpt>
<trkpt lat="37.969459" lon="-1.046912">
 <ele>365.060000</ele>
<time>2009-12-30T09:48:34Z</time>
</trkpt>
<trkpt lat="37.969288" lon="-1.046979">
 <ele>363.620000</ele>
<time>2009-12-30T09:48:50Z</time>
</trkpt>
<trkpt lat="37.969204" lon="-1.047063">
 <ele>362.480000</ele>
<time>2009-12-30T09:49:00Z</time>
</trkpt>
<trkpt lat="37.969212" lon="-1.047058">
 <ele>362.380000</ele>
<time>2009-12-30T09:49:01Z</time>
</trkpt>
<trkpt lat="37.969202" lon="-1.047069">
 <ele>362.520000</ele>
<time>2009-12-30T09:49:02Z</time>
</trkpt>
<trkpt lat="37.969161" lon="-1.047095">
 <ele>361.880000</ele>
<time>2009-12-30T09:49:06Z</time>
</trkpt>
<trkpt lat="37.969165" lon="-1.047092">
 <ele>361.680000</ele>
<time>2009-12-30T09:49:07Z</time>
</trkpt>
<trkpt lat="37.969163" lon="-1.047093">
 <ele>361.500000</ele>
<time>2009-12-30T09:49:08Z</time>
</trkpt>
<trkpt lat="37.969161" lon="-1.047094">
 <ele>362.040000</ele>
<time>2009-12-30T09:49:09Z</time>
</trkpt>
<trkpt lat="37.969155" lon="-1.047097">
 <ele>361.720000</ele>
<time>2009-12-30T09:49:10Z</time>
</trkpt>
<trkpt lat="37.969096" lon="-1.047153">
 <ele>361.640000</ele>
<time>2009-12-30T09:49:15Z</time>
</trkpt>
<trkpt lat="37.969060" lon="-1.047170">
 <ele>361.860000</ele>
<time>2009-12-30T09:49:17Z</time>
</trkpt>
<trkpt lat="37.969014" lon="-1.047254">
 <ele>359.760000</ele>
<time>2009-12-30T09:49:26Z</time>
</trkpt>
<trkpt lat="37.968993" lon="-1.047311">
 <ele>357.980000</ele>
<time>2009-12-30T09:49:30Z</time>
</trkpt>
<trkpt lat="37.968948" lon="-1.047368">
 <ele>357.640000</ele>
<time>2009-12-30T09:49:35Z</time>
</trkpt>
<trkpt lat="37.968945" lon="-1.047366">
 <ele>356.740000</ele>
<time>2009-12-30T09:49:36Z</time>
</trkpt>
<trkpt lat="37.968914" lon="-1.047392">
 <ele>356.440000</ele>
<time>2009-12-30T09:49:40Z</time>
</trkpt>
<trkpt lat="37.968907" lon="-1.047389">
 <ele>355.980000</ele>
<time>2009-12-30T09:49:41Z</time>
</trkpt>
<trkpt lat="37.968907" lon="-1.047404">
 <ele>354.920000</ele>
<time>2009-12-30T09:49:42Z</time>
</trkpt>
<trkpt lat="37.968850" lon="-1.047467">
 <ele>354.240000</ele>
<time>2009-12-30T09:49:45Z</time>
</trkpt>
<trkpt lat="37.968856" lon="-1.047462">
 <ele>355.000000</ele>
<time>2009-12-30T09:49:46Z</time>
</trkpt>
<trkpt lat="37.968857" lon="-1.047466">
 <ele>355.520000</ele>
<time>2009-12-30T09:49:47Z</time>
</trkpt>
<trkpt lat="37.968852" lon="-1.047455">
 <ele>355.100000</ele>
<time>2009-12-30T09:49:48Z</time>
</trkpt>
<trkpt lat="37.968842" lon="-1.047470">
 <ele>356.140000</ele>
<time>2009-12-30T09:49:49Z</time>
</trkpt>
<trkpt lat="37.968840" lon="-1.047470">
 <ele>355.520000</ele>
<time>2009-12-30T09:49:50Z</time>
</trkpt>
<trkpt lat="37.968847" lon="-1.047467">
 <ele>356.000000</ele>
<time>2009-12-30T09:49:51Z</time>
</trkpt>
<trkpt lat="37.968842" lon="-1.047474">
 <ele>356.040000</ele>
<time>2009-12-30T09:49:52Z</time>
</trkpt>
<trkpt lat="37.968814" lon="-1.047513">
 <ele>355.860000</ele>
<time>2009-12-30T09:49:55Z</time>
</trkpt>
<trkpt lat="37.968823" lon="-1.047499">
 <ele>354.400000</ele>
<time>2009-12-30T09:49:56Z</time>
</trkpt>
<trkpt lat="37.968815" lon="-1.047497">
 <ele>355.820000</ele>
<time>2009-12-30T09:49:57Z</time>
</trkpt>
<trkpt lat="37.968819" lon="-1.047501">
 <ele>354.900000</ele>
<time>2009-12-30T09:49:58Z</time>
</trkpt>
<trkpt lat="37.968809" lon="-1.047509">
 <ele>355.220000</ele>
<time>2009-12-30T09:49:59Z</time>
</trkpt>
<trkpt lat="37.968774" lon="-1.047552">
 <ele>355.040000</ele>
<time>2009-12-30T09:50:03Z</time>
</trkpt>
<trkpt lat="37.968768" lon="-1.047562">
 <ele>354.720000</ele>
<time>2009-12-30T09:50:04Z</time>
</trkpt>
<trkpt lat="37.968738" lon="-1.047579">
 <ele>354.400000</ele>
<time>2009-12-30T09:50:10Z</time>
</trkpt>
<trkpt lat="37.968759" lon="-1.047588">
 <ele>353.860000</ele>
<time>2009-12-30T09:50:11Z</time>
</trkpt>
<trkpt lat="37.968740" lon="-1.047590">
 <ele>353.940000</ele>
<time>2009-12-30T09:50:12Z</time>
</trkpt>
<trkpt lat="37.968705" lon="-1.047618">
 <ele>354.160000</ele>
<time>2009-12-30T09:50:14Z</time>
</trkpt>
<trkpt lat="37.968700" lon="-1.047625">
 <ele>355.040000</ele>
<time>2009-12-30T09:50:16Z</time>
</trkpt>
<trkpt lat="37.968683" lon="-1.047630">
 <ele>354.760000</ele>
<time>2009-12-30T09:50:17Z</time>
</trkpt>
<trkpt lat="37.968663" lon="-1.047679">
 <ele>353.400000</ele>
<time>2009-12-30T09:50:20Z</time>
</trkpt>
<trkpt lat="37.968659" lon="-1.047675">
 <ele>353.740000</ele>
<time>2009-12-30T09:50:21Z</time>
</trkpt>
<trkpt lat="37.968659" lon="-1.047690">
 <ele>353.020000</ele>
<time>2009-12-30T09:50:22Z</time>
</trkpt>
<trkpt lat="37.968633" lon="-1.047699">
 <ele>351.420000</ele>
<time>2009-12-30T09:50:25Z</time>
</trkpt>
<trkpt lat="37.968627" lon="-1.047712">
 <ele>350.660000</ele>
<time>2009-12-30T09:50:26Z</time>
</trkpt>
<trkpt lat="37.968533" lon="-1.047822">
 <ele>348.240000</ele>
<time>2009-12-30T09:50:39Z</time>
</trkpt>
<trkpt lat="37.968501" lon="-1.047867">
 <ele>347.580000</ele>
<time>2009-12-30T09:50:44Z</time>
</trkpt>
<trkpt lat="37.968499" lon="-1.047865">
 <ele>348.660000</ele>
<time>2009-12-30T09:50:45Z</time>
</trkpt>
<trkpt lat="37.968496" lon="-1.047864">
 <ele>348.000000</ele>
<time>2009-12-30T09:50:46Z</time>
</trkpt>
<trkpt lat="37.968499" lon="-1.047869">
 <ele>348.120000</ele>
<time>2009-12-30T09:50:47Z</time>
</trkpt>
<trkpt lat="37.968493" lon="-1.047872">
 <ele>348.360000</ele>
<time>2009-12-30T09:50:48Z</time>
</trkpt>
<trkpt lat="37.968493" lon="-1.047872">
 <ele>348.200000</ele>
<time>2009-12-30T09:50:49Z</time>
</trkpt>
<trkpt lat="37.968487" lon="-1.047882">
 <ele>347.760000</ele>
<time>2009-12-30T09:50:51Z</time>
</trkpt>
<trkpt lat="37.968462" lon="-1.047916">
 <ele>346.980000</ele>
<time>2009-12-30T09:50:53Z</time>
</trkpt>
<trkpt lat="37.968437" lon="-1.047956">
 <ele>348.420000</ele>
<time>2009-12-30T09:50:57Z</time>
</trkpt>
<trkpt lat="37.968430" lon="-1.047947">
 <ele>347.820000</ele>
<time>2009-12-30T09:50:58Z</time>
</trkpt>
<trkpt lat="37.968423" lon="-1.047954">
 <ele>347.560000</ele>
<time>2009-12-30T09:51:00Z</time>
</trkpt>
<trkpt lat="37.968394" lon="-1.047973">
 <ele>346.140000</ele>
<time>2009-12-30T09:51:03Z</time>
</trkpt>
<trkpt lat="37.968389" lon="-1.047973">
 <ele>346.420000</ele>
<time>2009-12-30T09:51:04Z</time>
</trkpt>
<trkpt lat="37.968384" lon="-1.047997">
 <ele>345.460000</ele>
<time>2009-12-30T09:51:06Z</time>
</trkpt>
<trkpt lat="37.968367" lon="-1.048022">
 <ele>345.500000</ele>
<time>2009-12-30T09:51:09Z</time>
</trkpt>
<trkpt lat="37.968366" lon="-1.048031">
 <ele>345.180000</ele>
<time>2009-12-30T09:51:10Z</time>
</trkpt>
<trkpt lat="37.968371" lon="-1.048041">
 <ele>345.320000</ele>
<time>2009-12-30T09:51:11Z</time>
</trkpt>
<trkpt lat="37.968373" lon="-1.048028">
 <ele>345.500000</ele>
<time>2009-12-30T09:51:12Z</time>
</trkpt>
<trkpt lat="37.968366" lon="-1.048027">
 <ele>344.780000</ele>
<time>2009-12-30T09:51:13Z</time>
</trkpt>
<trkpt lat="37.968372" lon="-1.048032">
 <ele>345.620000</ele>
<time>2009-12-30T09:51:14Z</time>
</trkpt>
<trkpt lat="37.968370" lon="-1.048033">
 <ele>345.140000</ele>
<time>2009-12-30T09:51:15Z</time>
</trkpt>
<trkpt lat="37.968370" lon="-1.048033">
 <ele>345.300000</ele>
<time>2009-12-30T09:51:16Z</time>
</trkpt>
<trkpt lat="37.968363" lon="-1.048056">
 <ele>344.900000</ele>
<time>2009-12-30T09:51:24Z</time>
</trkpt>
<trkpt lat="37.968326" lon="-1.048159">
 <ele>345.320000</ele>
<time>2009-12-30T09:51:27Z</time>
</trkpt>
<trkpt lat="37.968317" lon="-1.048186">
 <ele>344.100000</ele>
<time>2009-12-30T09:51:30Z</time>
</trkpt>
<trkpt lat="37.968300" lon="-1.048232">
 <ele>345.320000</ele>
<time>2009-12-30T09:51:34Z</time>
</trkpt>
<trkpt lat="37.968307" lon="-1.048222">
 <ele>345.820000</ele>
<time>2009-12-30T09:51:35Z</time>
</trkpt>
<trkpt lat="37.968306" lon="-1.048234">
 <ele>345.300000</ele>
<time>2009-12-30T09:51:36Z</time>
</trkpt>
<trkpt lat="37.968298" lon="-1.048291">
 <ele>344.920000</ele>
<time>2009-12-30T09:51:39Z</time>
</trkpt>
<trkpt lat="37.968299" lon="-1.048276">
 <ele>344.600000</ele>
<time>2009-12-30T09:51:40Z</time>
</trkpt>
<trkpt lat="37.968304" lon="-1.048290">
 <ele>344.800000</ele>
<time>2009-12-30T09:51:41Z</time>
</trkpt>
<trkpt lat="37.968305" lon="-1.048324">
 <ele>345.080000</ele>
<time>2009-12-30T09:51:43Z</time>
</trkpt>
<trkpt lat="37.968303" lon="-1.048313">
 <ele>344.540000</ele>
<time>2009-12-30T09:51:44Z</time>
</trkpt>
<trkpt lat="37.968303" lon="-1.048334">
 <ele>344.840000</ele>
<time>2009-12-30T09:51:45Z</time>
</trkpt>
<trkpt lat="37.968302" lon="-1.048334">
 <ele>343.860000</ele>
<time>2009-12-30T09:51:46Z</time>
</trkpt>
<trkpt lat="37.968306" lon="-1.048359">
 <ele>343.480000</ele>
<time>2009-12-30T09:51:47Z</time>
</trkpt>
<trkpt lat="37.968309" lon="-1.048343">
 <ele>343.060000</ele>
<time>2009-12-30T09:51:48Z</time>
</trkpt>
<trkpt lat="37.968306" lon="-1.048351">
 <ele>343.440000</ele>
<time>2009-12-30T09:51:49Z</time>
</trkpt>
<trkpt lat="37.968308" lon="-1.048349">
 <ele>342.900000</ele>
<time>2009-12-30T09:51:50Z</time>
</trkpt>
<trkpt lat="37.968308" lon="-1.048355">
 <ele>343.060000</ele>
<time>2009-12-30T09:51:51Z</time>
</trkpt>
<trkpt lat="37.968308" lon="-1.048355">
 <ele>343.300000</ele>
<time>2009-12-30T09:51:52Z</time>
</trkpt>
<trkpt lat="37.968308" lon="-1.048355">
 <ele>343.300000</ele>
<time>2009-12-30T09:51:53Z</time>
</trkpt>
<trkpt lat="37.968308" lon="-1.048355">
 <ele>343.300000</ele>
<time>2009-12-30T09:51:54Z</time>
</trkpt>
<trkpt lat="37.968351" lon="-1.048523">
 <ele>337.100000</ele>
<time>2009-12-30T09:52:03Z</time>
</trkpt>
<trkpt lat="37.968353" lon="-1.048550">
 <ele>337.120000</ele>
<time>2009-12-30T09:52:04Z</time>
</trkpt>
<trkpt lat="37.968360" lon="-1.048566">
 <ele>336.480000</ele>
<time>2009-12-30T09:52:07Z</time>
</trkpt>
<trkpt lat="37.968354" lon="-1.048572">
 <ele>336.600000</ele>
<time>2009-12-30T09:52:08Z</time>
</trkpt>
<trkpt lat="37.968354" lon="-1.048569">
 <ele>336.340000</ele>
<time>2009-12-30T09:52:09Z</time>
</trkpt>
<trkpt lat="37.968356" lon="-1.048572">
 <ele>336.840000</ele>
<time>2009-12-30T09:52:10Z</time>
</trkpt>
<trkpt lat="37.968357" lon="-1.048578">
 <ele>336.360000</ele>
<time>2009-12-30T09:52:11Z</time>
</trkpt>
<trkpt lat="37.968357" lon="-1.048578">
 <ele>336.600000</ele>
<time>2009-12-30T09:52:12Z</time>
</trkpt>
<trkpt lat="37.968364" lon="-1.048594">
 <ele>334.000000</ele>
<time>2009-12-30T09:52:18Z</time>
</trkpt>
<trkpt lat="37.968399" lon="-1.048659">
 <ele>335.520000</ele>
<time>2009-12-30T09:52:21Z</time>
</trkpt>
<trkpt lat="37.968390" lon="-1.048658">
 <ele>324.780000</ele>
<time>2009-12-30T09:52:22Z</time>
</trkpt>
<trkpt lat="37.968395" lon="-1.048664">
 <ele>330.440000</ele>
<time>2009-12-30T09:52:23Z</time>
</trkpt>
<trkpt lat="37.968390" lon="-1.048663">
 <ele>329.840000</ele>
<time>2009-12-30T09:52:24Z</time>
</trkpt>
<trkpt lat="37.968390" lon="-1.048680">
 <ele>329.540000</ele>
<time>2009-12-30T09:52:25Z</time>
</trkpt>
<trkpt lat="37.968383" lon="-1.048702">
 <ele>330.440000</ele>
<time>2009-12-30T09:52:27Z</time>
</trkpt>
<trkpt lat="37.968391" lon="-1.048686">
 <ele>329.420000</ele>
<time>2009-12-30T09:52:28Z</time>
</trkpt>
<trkpt lat="37.968393" lon="-1.048699">
 <ele>330.180000</ele>
<time>2009-12-30T09:52:29Z</time>
</trkpt>
<trkpt lat="37.968385" lon="-1.048699">
 <ele>329.840000</ele>
<time>2009-12-30T09:52:30Z</time>
</trkpt>
<trkpt lat="37.968387" lon="-1.048700">
 <ele>330.240000</ele>
<time>2009-12-30T09:52:31Z</time>
</trkpt>
<trkpt lat="37.968387" lon="-1.048700">
 <ele>330.000000</ele>
<time>2009-12-30T09:52:32Z</time>
</trkpt>
<trkpt lat="37.968380" lon="-1.048725">
 <ele>329.440000</ele>
<time>2009-12-30T09:52:49Z</time>
</trkpt>
<trkpt lat="37.968360" lon="-1.048779">
 <ele>327.320000</ele>
<time>2009-12-30T09:52:51Z</time>
</trkpt>
<trkpt lat="37.968349" lon="-1.048806">
 <ele>328.860000</ele>
<time>2009-12-30T09:52:52Z</time>
</trkpt>
<trkpt lat="37.968364" lon="-1.048811">
 <ele>326.940000</ele>
<time>2009-12-30T09:52:53Z</time>
</trkpt>
<trkpt lat="37.968356" lon="-1.048821">
 <ele>327.380000</ele>
<time>2009-12-30T09:52:54Z</time>
</trkpt>
<trkpt lat="37.968356" lon="-1.048827">
 <ele>327.960000</ele>
<time>2009-12-30T09:52:55Z</time>
</trkpt>
<trkpt lat="37.968355" lon="-1.048825">
 <ele>327.560000</ele>
<time>2009-12-30T09:52:56Z</time>
</trkpt>
<trkpt lat="37.968355" lon="-1.048825">
 <ele>327.800000</ele>
<time>2009-12-30T09:52:57Z</time>
</trkpt>
<trkpt lat="37.968344" lon="-1.048860">
 <ele>326.160000</ele>
<time>2009-12-30T09:53:22Z</time>
</trkpt>
<trkpt lat="37.968313" lon="-1.048985">
 <ele>327.500000</ele>
<time>2009-12-30T09:53:25Z</time>
</trkpt>
<trkpt lat="37.968296" lon="-1.048996">
 <ele>320.380000</ele>
<time>2009-12-30T09:53:26Z</time>
</trkpt>
<trkpt lat="37.968299" lon="-1.048987">
 <ele>324.700000</ele>
<time>2009-12-30T09:53:27Z</time>
</trkpt>
<trkpt lat="37.968297" lon="-1.049005">
 <ele>323.780000</ele>
<time>2009-12-30T09:53:28Z</time>
</trkpt>
<trkpt lat="37.968297" lon="-1.049002">
 <ele>324.260000</ele>
<time>2009-12-30T09:53:29Z</time>
</trkpt>
<trkpt lat="37.968297" lon="-1.049002">
 <ele>324.100000</ele>
<time>2009-12-30T09:53:30Z</time>
</trkpt>
<trkpt lat="37.968289" lon="-1.049004">
 <ele>324.980000</ele>
<time>2009-12-30T09:53:31Z</time>
</trkpt>
<trkpt lat="37.968246" lon="-1.049021">
 <ele>323.740000</ele>
<time>2009-12-30T09:53:34Z</time>
</trkpt>
<trkpt lat="37.968261" lon="-1.049026">
 <ele>327.960000</ele>
<time>2009-12-30T09:53:35Z</time>
</trkpt>
<trkpt lat="37.968260" lon="-1.049027">
 <ele>325.400000</ele>
<time>2009-12-30T09:53:36Z</time>
</trkpt>
<trkpt lat="37.968263" lon="-1.049019">
 <ele>325.800000</ele>
<time>2009-12-30T09:53:37Z</time>
</trkpt>
<trkpt lat="37.968257" lon="-1.049025">
 <ele>325.800000</ele>
<time>2009-12-30T09:53:38Z</time>
</trkpt>
<trkpt lat="37.968218" lon="-1.049050">
 <ele>320.960000</ele>
<time>2009-12-30T09:53:43Z</time>
</trkpt>
<trkpt lat="37.968213" lon="-1.049050">
 <ele>322.120000</ele>
<time>2009-12-30T09:53:44Z</time>
</trkpt>
<trkpt lat="37.968196" lon="-1.049063">
 <ele>321.180000</ele>
<time>2009-12-30T09:53:46Z</time>
</trkpt>
<trkpt lat="37.968201" lon="-1.049051">
 <ele>320.640000</ele>
<time>2009-12-30T09:53:47Z</time>
</trkpt>
<trkpt lat="37.968192" lon="-1.049050">
 <ele>320.560000</ele>
<time>2009-12-30T09:53:48Z</time>
</trkpt>
<trkpt lat="37.968162" lon="-1.049041">
 <ele>321.020000</ele>
<time>2009-12-30T09:53:50Z</time>
</trkpt>
<trkpt lat="37.968178" lon="-1.049047">
 <ele>320.920000</ele>
<time>2009-12-30T09:53:51Z</time>
</trkpt>
<trkpt lat="37.968172" lon="-1.049046">
 <ele>321.120000</ele>
<time>2009-12-30T09:53:52Z</time>
</trkpt>
<trkpt lat="37.968178" lon="-1.049055">
 <ele>320.940000</ele>
<time>2009-12-30T09:53:53Z</time>
</trkpt>
<trkpt lat="37.968170" lon="-1.049048">
 <ele>321.340000</ele>
<time>2009-12-30T09:53:54Z</time>
</trkpt>
<trkpt lat="37.968170" lon="-1.049048">
 <ele>321.100000</ele>
<time>2009-12-30T09:53:55Z</time>
</trkpt>
<trkpt lat="37.968163" lon="-1.049054">
 <ele>320.980000</ele>
<time>2009-12-30T09:53:59Z</time>
</trkpt>
<trkpt lat="37.968141" lon="-1.049081">
 <ele>320.280000</ele>
<time>2009-12-30T09:54:01Z</time>
</trkpt>
<trkpt lat="37.968089" lon="-1.049131">
 <ele>322.580000</ele>
<time>2009-12-30T09:54:08Z</time>
</trkpt>
<trkpt lat="37.968102" lon="-1.049137">
 <ele>324.160000</ele>
<time>2009-12-30T09:54:09Z</time>
</trkpt>
<trkpt lat="37.968089" lon="-1.049130">
 <ele>322.860000</ele>
<time>2009-12-30T09:54:10Z</time>
</trkpt>
<trkpt lat="37.968081" lon="-1.049134">
 <ele>323.440000</ele>
<time>2009-12-30T09:54:11Z</time>
</trkpt>
<trkpt lat="37.968085" lon="-1.049138">
 <ele>323.600000</ele>
<time>2009-12-30T09:54:12Z</time>
</trkpt>
<trkpt lat="37.968085" lon="-1.049138">
 <ele>323.200000</ele>
<time>2009-12-30T09:54:13Z</time>
</trkpt>
<trkpt lat="37.968074" lon="-1.049153">
 <ele>322.720000</ele>
<time>2009-12-30T09:54:19Z</time>
</trkpt>
<trkpt lat="37.968038" lon="-1.049194">
 <ele>320.720000</ele>
<time>2009-12-30T09:54:21Z</time>
</trkpt>
<trkpt lat="37.967993" lon="-1.049266">
 <ele>318.840000</ele>
<time>2009-12-30T09:54:27Z</time>
</trkpt>
<trkpt lat="37.967984" lon="-1.049274">
 <ele>319.220000</ele>
<time>2009-12-30T09:54:28Z</time>
</trkpt>
<trkpt lat="37.967962" lon="-1.049270">
 <ele>318.600000</ele>
<time>2009-12-30T09:54:30Z</time>
</trkpt>
<trkpt lat="37.967933" lon="-1.049272">
 <ele>317.100000</ele>
<time>2009-12-30T09:54:31Z</time>
</trkpt>
<trkpt lat="37.967924" lon="-1.049282">
 <ele>316.660000</ele>
<time>2009-12-30T09:54:33Z</time>
</trkpt>
<trkpt lat="37.967876" lon="-1.049257">
 <ele>313.620000</ele>
<time>2009-12-30T09:54:38Z</time>
</trkpt>
<trkpt lat="37.967876" lon="-1.049260">
 <ele>313.780000</ele>
<time>2009-12-30T09:54:39Z</time>
</trkpt>
<trkpt lat="37.967868" lon="-1.049258">
 <ele>312.920000</ele>
<time>2009-12-30T09:54:41Z</time>
</trkpt>
<trkpt lat="37.967838" lon="-1.049243">
 <ele>311.860000</ele>
<time>2009-12-30T09:54:43Z</time>
</trkpt>
<trkpt lat="37.967853" lon="-1.049245">
 <ele>312.380000</ele>
<time>2009-12-30T09:54:44Z</time>
</trkpt>
<trkpt lat="37.967853" lon="-1.049253">
 <ele>312.040000</ele>
<time>2009-12-30T09:54:45Z</time>
</trkpt>
<trkpt lat="37.967854" lon="-1.049253">
 <ele>312.220000</ele>
<time>2009-12-30T09:54:46Z</time>
</trkpt>
<trkpt lat="37.967850" lon="-1.049248">
 <ele>312.060000</ele>
<time>2009-12-30T09:54:47Z</time>
</trkpt>
<trkpt lat="37.967850" lon="-1.049248">
 <ele>312.300000</ele>
<time>2009-12-30T09:54:48Z</time>
</trkpt>
<trkpt lat="37.967833" lon="-1.049245">
 <ele>312.980000</ele>
<time>2009-12-30T09:54:52Z</time>
</trkpt>
<trkpt lat="37.967768" lon="-1.049226">
 <ele>311.960000</ele>
<time>2009-12-30T09:54:55Z</time>
</trkpt>
<trkpt lat="37.967770" lon="-1.049231">
 <ele>314.400000</ele>
<time>2009-12-30T09:54:56Z</time>
</trkpt>
<trkpt lat="37.967764" lon="-1.049232">
 <ele>313.260000</ele>
<time>2009-12-30T09:54:57Z</time>
</trkpt>
<trkpt lat="37.967770" lon="-1.049233">
 <ele>313.120000</ele>
<time>2009-12-30T09:54:58Z</time>
</trkpt>
<trkpt lat="37.967765" lon="-1.049230">
 <ele>312.960000</ele>
<time>2009-12-30T09:54:59Z</time>
</trkpt>
<trkpt lat="37.967765" lon="-1.049230">
 <ele>313.200000</ele>
<time>2009-12-30T09:55:00Z</time>
</trkpt>
<trkpt lat="37.967762" lon="-1.049227">
 <ele>311.560000</ele>
<time>2009-12-30T09:55:02Z</time>
</trkpt>
<trkpt lat="37.967742" lon="-1.049219">
 <ele>311.020000</ele>
<time>2009-12-30T09:55:05Z</time>
</trkpt>
<trkpt lat="37.967760" lon="-1.049218">
 <ele>305.460000</ele>
<time>2009-12-30T09:55:06Z</time>
</trkpt>
<trkpt lat="37.967753" lon="-1.049218">
 <ele>307.340000</ele>
<time>2009-12-30T09:55:07Z</time>
</trkpt>
<trkpt lat="37.967746" lon="-1.049218">
 <ele>308.260000</ele>
<time>2009-12-30T09:55:08Z</time>
</trkpt>
<trkpt lat="37.967747" lon="-1.049218">
 <ele>307.940000</ele>
<time>2009-12-30T09:55:09Z</time>
</trkpt>
<trkpt lat="37.967747" lon="-1.049218">
 <ele>308.100000</ele>
<time>2009-12-30T09:55:10Z</time>
</trkpt>
<trkpt lat="37.967735" lon="-1.049218">
 <ele>308.500000</ele>
<time>2009-12-30T09:55:11Z</time>
</trkpt>
<trkpt lat="37.967573" lon="-1.049260">
 <ele>314.160000</ele>
<time>2009-12-30T09:55:20Z</time>
</trkpt>
<trkpt lat="37.967569" lon="-1.049272">
 <ele>314.540000</ele>
<time>2009-12-30T09:55:21Z</time>
</trkpt>
<trkpt lat="37.967569" lon="-1.049270">
 <ele>315.360000</ele>
<time>2009-12-30T09:55:22Z</time>
</trkpt>
<trkpt lat="37.967545" lon="-1.049274">
 <ele>315.920000</ele>
<time>2009-12-30T09:55:24Z</time>
</trkpt>
<trkpt lat="37.967519" lon="-1.049317">
 <ele>318.160000</ele>
<time>2009-12-30T09:55:27Z</time>
</trkpt>
<trkpt lat="37.967511" lon="-1.049320">
 <ele>318.180000</ele>
<time>2009-12-30T09:55:28Z</time>
</trkpt>
<trkpt lat="37.967488" lon="-1.049337">
 <ele>318.420000</ele>
<time>2009-12-30T09:55:30Z</time>
</trkpt>
<trkpt lat="37.967492" lon="-1.049322">
 <ele>317.880000</ele>
<time>2009-12-30T09:55:31Z</time>
</trkpt>
<trkpt lat="37.967473" lon="-1.049331">
 <ele>317.320000</ele>
<time>2009-12-30T09:55:32Z</time>
</trkpt>
<trkpt lat="37.967394" lon="-1.049364">
 <ele>316.840000</ele>
<time>2009-12-30T09:55:37Z</time>
</trkpt>
<trkpt lat="37.967369" lon="-1.049382">
 <ele>317.360000</ele>
<time>2009-12-30T09:55:39Z</time>
</trkpt>
<trkpt lat="37.967357" lon="-1.049388">
 <ele>317.420000</ele>
<time>2009-12-30T09:55:41Z</time>
</trkpt>
<trkpt lat="37.967375" lon="-1.049390">
 <ele>316.440000</ele>
<time>2009-12-30T09:55:42Z</time>
</trkpt>
<trkpt lat="37.967366" lon="-1.049393">
 <ele>316.940000</ele>
<time>2009-12-30T09:55:43Z</time>
</trkpt>
<trkpt lat="37.967364" lon="-1.049380">
 <ele>316.880000</ele>
<time>2009-12-30T09:55:44Z</time>
</trkpt>
<trkpt lat="37.967363" lon="-1.049392">
 <ele>316.560000</ele>
<time>2009-12-30T09:55:45Z</time>
</trkpt>
<trkpt lat="37.967363" lon="-1.049392">
 <ele>316.800000</ele>
<time>2009-12-30T09:55:46Z</time>
</trkpt>
<trkpt lat="37.967347" lon="-1.049401">
 <ele>316.360000</ele>
<time>2009-12-30T09:55:53Z</time>
</trkpt>
<trkpt lat="37.967298" lon="-1.049419">
 <ele>314.460000</ele>
<time>2009-12-30T09:55:55Z</time>
</trkpt>
<trkpt lat="37.967243" lon="-1.049449">
 <ele>314.780000</ele>
<time>2009-12-30T09:55:59Z</time>
</trkpt>
<trkpt lat="37.967239" lon="-1.049442">
 <ele>315.080000</ele>
<time>2009-12-30T09:56:00Z</time>
</trkpt>
<trkpt lat="37.967231" lon="-1.049437">
 <ele>314.500000</ele>
<time>2009-12-30T09:56:01Z</time>
</trkpt>
<trkpt lat="37.967122" lon="-1.049484">
 <ele>318.840000</ele>
<time>2009-12-30T09:56:09Z</time>
</trkpt>
<trkpt lat="37.967125" lon="-1.049481">
 <ele>318.800000</ele>
<time>2009-12-30T09:56:10Z</time>
</trkpt>
<trkpt lat="37.967110" lon="-1.049490">
 <ele>318.940000</ele>
<time>2009-12-30T09:56:11Z</time>
</trkpt>
<trkpt lat="37.967115" lon="-1.049485">
 <ele>318.320000</ele>
<time>2009-12-30T09:56:12Z</time>
</trkpt>
<trkpt lat="37.967107" lon="-1.049490">
 <ele>318.800000</ele>
<time>2009-12-30T09:56:13Z</time>
</trkpt>
<trkpt lat="37.967107" lon="-1.049490">
 <ele>318.400000</ele>
<time>2009-12-30T09:56:14Z</time>
</trkpt>
<trkpt lat="37.967076" lon="-1.049512">
 <ele>314.440000</ele>
<time>2009-12-30T09:56:32Z</time>
</trkpt>
<trkpt lat="37.966960" lon="-1.049592">
 <ele>316.060000</ele>
<time>2009-12-30T09:56:35Z</time>
</trkpt>
<trkpt lat="37.966945" lon="-1.049605">
 <ele>301.400000</ele>
<time>2009-12-30T09:56:36Z</time>
</trkpt>
<trkpt lat="37.966935" lon="-1.049612">
 <ele>308.600000</ele>
<time>2009-12-30T09:56:37Z</time>
</trkpt>
<trkpt lat="37.966936" lon="-1.049608">
 <ele>308.480000</ele>
<time>2009-12-30T09:56:38Z</time>
</trkpt>
<trkpt lat="37.966932" lon="-1.049615">
 <ele>309.280000</ele>
<time>2009-12-30T09:56:39Z</time>
</trkpt>
<trkpt lat="37.966932" lon="-1.049615">
 <ele>308.800000</ele>
<time>2009-12-30T09:56:40Z</time>
</trkpt>
<trkpt lat="37.966913" lon="-1.049627">
 <ele>310.320000</ele>
<time>2009-12-30T09:56:43Z</time>
</trkpt>
<trkpt lat="37.966846" lon="-1.049711">
 <ele>313.780000</ele>
<time>2009-12-30T09:56:49Z</time>
</trkpt>
<trkpt lat="37.966845" lon="-1.049723">
 <ele>314.000000</ele>
<time>2009-12-30T09:56:50Z</time>
</trkpt>
<trkpt lat="37.966783" lon="-1.049755">
 <ele>314.160000</ele>
<time>2009-12-30T09:56:53Z</time>
</trkpt>
<trkpt lat="37.966786" lon="-1.049742">
 <ele>314.100000</ele>
<time>2009-12-30T09:56:54Z</time>
</trkpt>
<trkpt lat="37.966795" lon="-1.049751">
 <ele>314.200000</ele>
<time>2009-12-30T09:56:55Z</time>
</trkpt>
<trkpt lat="37.966765" lon="-1.049781">
 <ele>315.500000</ele>
<time>2009-12-30T09:56:57Z</time>
</trkpt>
<trkpt lat="37.966736" lon="-1.049778">
 <ele>315.300000</ele>
<time>2009-12-30T09:57:01Z</time>
</trkpt>
<trkpt lat="37.966751" lon="-1.049797">
 <ele>315.680000</ele>
<time>2009-12-30T09:57:02Z</time>
</trkpt>
<trkpt lat="37.966729" lon="-1.049796">
 <ele>313.580000</ele>
<time>2009-12-30T09:57:03Z</time>
</trkpt>
<trkpt lat="37.966690" lon="-1.049831">
 <ele>312.860000</ele>
<time>2009-12-30T09:57:06Z</time>
</trkpt>
<trkpt lat="37.966694" lon="-1.049821">
 <ele>310.480000</ele>
<time>2009-12-30T09:57:07Z</time>
</trkpt>
<trkpt lat="37.966699" lon="-1.049830">
 <ele>311.280000</ele>
<time>2009-12-30T09:57:08Z</time>
</trkpt>
<trkpt lat="37.966691" lon="-1.049834">
 <ele>311.760000</ele>
<time>2009-12-30T09:57:09Z</time>
</trkpt>
<trkpt lat="37.966697" lon="-1.049826">
 <ele>311.480000</ele>
<time>2009-12-30T09:57:10Z</time>
</trkpt>
<trkpt lat="37.966685" lon="-1.049841">
 <ele>311.640000</ele>
<time>2009-12-30T09:57:11Z</time>
</trkpt>
<trkpt lat="37.966610" lon="-1.050013">
 <ele>306.900000</ele>
<time>2009-12-30T09:57:22Z</time>
</trkpt>
<trkpt lat="37.966601" lon="-1.050019">
 <ele>305.120000</ele>
<time>2009-12-30T09:57:23Z</time>
</trkpt>
<trkpt lat="37.966608" lon="-1.050103">
 <ele>302.000000</ele>
<time>2009-12-30T09:57:27Z</time>
</trkpt>
<trkpt lat="37.966603" lon="-1.050092">
 <ele>302.680000</ele>
<time>2009-12-30T09:57:28Z</time>
</trkpt>
<trkpt lat="37.966611" lon="-1.050094">
 <ele>302.260000</ele>
<time>2009-12-30T09:57:29Z</time>
</trkpt>
<trkpt lat="37.966598" lon="-1.050096">
 <ele>303.140000</ele>
<time>2009-12-30T09:57:30Z</time>
</trkpt>
<trkpt lat="37.966567" lon="-1.050149">
 <ele>304.080000</ele>
<time>2009-12-30T09:57:33Z</time>
</trkpt>
<trkpt lat="37.966402" lon="-1.050385">
 <ele>305.620000</ele>
<time>2009-12-30T09:57:52Z</time>
</trkpt>
<trkpt lat="37.966403" lon="-1.050382">
 <ele>307.200000</ele>
<time>2009-12-30T09:57:53Z</time>
</trkpt>
<trkpt lat="37.966404" lon="-1.050385">
 <ele>306.720000</ele>
<time>2009-12-30T09:57:54Z</time>
</trkpt>
<trkpt lat="37.966409" lon="-1.050386">
 <ele>306.600000</ele>
<time>2009-12-30T09:57:55Z</time>
</trkpt>
<trkpt lat="37.966402" lon="-1.050388">
 <ele>307.080000</ele>
<time>2009-12-30T09:57:56Z</time>
</trkpt>
<trkpt lat="37.966402" lon="-1.050388">
 <ele>306.600000</ele>
<time>2009-12-30T09:57:57Z</time>
</trkpt>
<trkpt lat="37.966386" lon="-1.050388">
 <ele>306.640000</ele>
<time>2009-12-30T09:58:00Z</time>
</trkpt>
<trkpt lat="37.966297" lon="-1.050383">
 <ele>305.920000</ele>
<time>2009-12-30T09:58:04Z</time>
</trkpt>
<trkpt lat="37.966314" lon="-1.050392">
 <ele>305.740000</ele>
<time>2009-12-30T09:58:05Z</time>
</trkpt>
<trkpt lat="37.966306" lon="-1.050390">
 <ele>305.380000</ele>
<time>2009-12-30T09:58:06Z</time>
</trkpt>
<trkpt lat="37.966245" lon="-1.050396">
 <ele>304.200000</ele>
<time>2009-12-30T09:58:11Z</time>
</trkpt>
<trkpt lat="37.966248" lon="-1.050391">
 <ele>305.920000</ele>
<time>2009-12-30T09:58:12Z</time>
</trkpt>
<trkpt lat="37.966232" lon="-1.050393">
 <ele>305.440000</ele>
<time>2009-12-30T09:58:13Z</time>
</trkpt>
<trkpt lat="37.966225" lon="-1.050391">
 <ele>305.500000</ele>
<time>2009-12-30T09:58:14Z</time>
</trkpt>
<trkpt lat="37.966223" lon="-1.050395">
 <ele>305.740000</ele>
<time>2009-12-30T09:58:15Z</time>
</trkpt>
<trkpt lat="37.966223" lon="-1.050395">
 <ele>305.500000</ele>
<time>2009-12-30T09:58:16Z</time>
</trkpt>
<trkpt lat="37.966223" lon="-1.050395">
 <ele>305.500000</ele>
<time>2009-12-30T09:58:17Z</time>
</trkpt>
<trkpt lat="37.966223" lon="-1.050395">
 <ele>305.500000</ele>
<time>2009-12-30T09:58:18Z</time>
</trkpt>
<trkpt lat="37.966223" lon="-1.050395">
 <ele>305.500000</ele>
<time>2009-12-30T09:58:19Z</time>
</trkpt>
<trkpt lat="37.966223" lon="-1.050395">
 <ele>305.500000</ele>
<time>2009-12-30T09:58:20Z</time>
</trkpt>
<trkpt lat="37.966223" lon="-1.050395">
 <ele>305.500000</ele>
<time>2009-12-30T09:58:21Z</time>
</trkpt>
<trkpt lat="37.966223" lon="-1.050395">
 <ele>305.500000</ele>
<time>2009-12-30T09:58:22Z</time>
</trkpt>
<trkpt lat="37.966223" lon="-1.050395">
 <ele>305.500000</ele>
<time>2009-12-30T09:58:23Z</time>
</trkpt>
<trkpt lat="37.966223" lon="-1.050395">
 <ele>305.500000</ele>
<time>2009-12-30T09:58:24Z</time>
</trkpt>
<trkpt lat="37.966223" lon="-1.050395">
 <ele>305.500000</ele>
<time>2009-12-30T09:58:25Z</time>
</trkpt>
<trkpt lat="37.966185" lon="-1.050445">
 <ele>317.140000</ele>
<time>2009-12-30T09:58:28Z</time>
</trkpt>
<trkpt lat="37.966154" lon="-1.050453">
 <ele>317.640000</ele>
<time>2009-12-30T09:58:30Z</time>
</trkpt>
<trkpt lat="37.966096" lon="-1.050458">
 <ele>311.640000</ele>
<time>2009-12-30T09:58:34Z</time>
</trkpt>
<trkpt lat="37.966102" lon="-1.050484">
 <ele>311.700000</ele>
<time>2009-12-30T09:58:35Z</time>
</trkpt>
<trkpt lat="37.966096" lon="-1.050471">
 <ele>313.100000</ele>
<time>2009-12-30T09:58:36Z</time>
</trkpt>
<trkpt lat="37.966067" lon="-1.050491">
 <ele>314.620000</ele>
<time>2009-12-30T09:58:38Z</time>
</trkpt>
<trkpt lat="37.965986" lon="-1.050522">
 <ele>313.680000</ele>
<time>2009-12-30T09:58:44Z</time>
</trkpt>
<trkpt lat="37.965952" lon="-1.050552">
 <ele>315.160000</ele>
<time>2009-12-30T09:58:47Z</time>
</trkpt>
<trkpt lat="37.965951" lon="-1.050552">
 <ele>316.560000</ele>
<time>2009-12-30T09:58:48Z</time>
</trkpt>
<trkpt lat="37.965894" lon="-1.050591">
 <ele>316.640000</ele>
<time>2009-12-30T09:58:52Z</time>
</trkpt>
<trkpt lat="37.965899" lon="-1.050594">
 <ele>319.380000</ele>
<time>2009-12-30T09:58:53Z</time>
</trkpt>
<trkpt lat="37.965889" lon="-1.050598">
 <ele>318.620000</ele>
<time>2009-12-30T09:58:54Z</time>
</trkpt>
<trkpt lat="37.965873" lon="-1.050634">
 <ele>317.400000</ele>
<time>2009-12-30T09:58:58Z</time>
</trkpt>
<trkpt lat="37.965876" lon="-1.050627">
 <ele>316.480000</ele>
<time>2009-12-30T09:58:59Z</time>
</trkpt>
<trkpt lat="37.965875" lon="-1.050628">
 <ele>316.380000</ele>
<time>2009-12-30T09:59:00Z</time>
</trkpt>
<trkpt lat="37.965814" lon="-1.050750">
 <ele>310.380000</ele>
<time>2009-12-30T09:59:08Z</time>
</trkpt>
<trkpt lat="37.965786" lon="-1.050798">
 <ele>310.140000</ele>
<time>2009-12-30T09:59:15Z</time>
</trkpt>
<trkpt lat="37.965780" lon="-1.050783">
 <ele>310.160000</ele>
<time>2009-12-30T09:59:16Z</time>
</trkpt>
<trkpt lat="37.965784" lon="-1.050799">
 <ele>309.240000</ele>
<time>2009-12-30T09:59:17Z</time>
</trkpt>
<trkpt lat="37.965759" lon="-1.050824">
 <ele>309.480000</ele>
<time>2009-12-30T09:59:20Z</time>
</trkpt>
<trkpt lat="37.965755" lon="-1.050827">
 <ele>309.380000</ele>
<time>2009-12-30T09:59:21Z</time>
</trkpt>
<trkpt lat="37.965701" lon="-1.050855">
 <ele>308.540000</ele>
<time>2009-12-30T09:59:27Z</time>
</trkpt>
<trkpt lat="37.965629" lon="-1.050826">
 <ele>309.560000</ele>
<time>2009-12-30T09:59:34Z</time>
</trkpt>
<trkpt lat="37.965523" lon="-1.050731">
 <ele>309.940000</ele>
<time>2009-12-30T09:59:45Z</time>
</trkpt>
<trkpt lat="37.965399" lon="-1.050643">
 <ele>311.560000</ele>
<time>2009-12-30T09:59:58Z</time>
</trkpt>
<trkpt lat="37.965386" lon="-1.050647">
 <ele>311.640000</ele>
<time>2009-12-30T10:00:00Z</time>
</trkpt>
<trkpt lat="37.965386" lon="-1.050648">
 <ele>311.500000</ele>
<time>2009-12-30T10:00:01Z</time>
</trkpt>
<trkpt lat="37.965381" lon="-1.050647">
 <ele>311.460000</ele>
<time>2009-12-30T10:00:02Z</time>
</trkpt>
<trkpt lat="37.965316" lon="-1.050663">
 <ele>310.140000</ele>
<time>2009-12-30T10:00:06Z</time>
</trkpt>
<trkpt lat="37.965320" lon="-1.050677">
 <ele>311.000000</ele>
<time>2009-12-30T10:00:08Z</time>
</trkpt>
<trkpt lat="37.965328" lon="-1.050675">
 <ele>310.620000</ele>
<time>2009-12-30T10:00:09Z</time>
</trkpt>
<trkpt lat="37.965310" lon="-1.050669">
 <ele>310.900000</ele>
<time>2009-12-30T10:00:10Z</time>
</trkpt>
<trkpt lat="37.965309" lon="-1.050680">
 <ele>310.820000</ele>
<time>2009-12-30T10:00:11Z</time>
</trkpt>
<trkpt lat="37.965272" lon="-1.050712">
 <ele>310.960000</ele>
<time>2009-12-30T10:00:14Z</time>
</trkpt>
<trkpt lat="37.965267" lon="-1.050733">
 <ele>312.200000</ele>
<time>2009-12-30T10:00:16Z</time>
</trkpt>
<trkpt lat="37.965254" lon="-1.050735">
 <ele>311.400000</ele>
<time>2009-12-30T10:00:17Z</time>
</trkpt>
<trkpt lat="37.965242" lon="-1.050751">
 <ele>312.820000</ele>
<time>2009-12-30T10:00:19Z</time>
</trkpt>
<trkpt lat="37.965233" lon="-1.050781">
 <ele>312.660000</ele>
<time>2009-12-30T10:00:23Z</time>
</trkpt>
<trkpt lat="37.965237" lon="-1.050782">
 <ele>311.700000</ele>
<time>2009-12-30T10:00:24Z</time>
</trkpt>
<trkpt lat="37.965230" lon="-1.050790">
 <ele>312.980000</ele>
<time>2009-12-30T10:00:25Z</time>
</trkpt>
<trkpt lat="37.965235" lon="-1.050783">
 <ele>311.980000</ele>
<time>2009-12-30T10:00:26Z</time>
</trkpt>
<trkpt lat="37.965232" lon="-1.050792">
 <ele>312.140000</ele>
<time>2009-12-30T10:00:27Z</time>
</trkpt>
<trkpt lat="37.965232" lon="-1.050792">
 <ele>312.300000</ele>
<time>2009-12-30T10:00:28Z</time>
</trkpt>
<trkpt lat="37.965234" lon="-1.050805">
 <ele>314.180000</ele>
<time>2009-12-30T10:00:36Z</time>
</trkpt>
<trkpt lat="37.965248" lon="-1.050877">
 <ele>314.180000</ele>
<time>2009-12-30T10:00:39Z</time>
</trkpt>
<trkpt lat="37.965245" lon="-1.050870">
 <ele>321.700000</ele>
<time>2009-12-30T10:00:40Z</time>
</trkpt>
<trkpt lat="37.965247" lon="-1.050871">
 <ele>318.240000</ele>
<time>2009-12-30T10:00:41Z</time>
</trkpt>
<trkpt lat="37.965241" lon="-1.050864">
 <ele>317.920000</ele>
<time>2009-12-30T10:00:42Z</time>
</trkpt>
<trkpt lat="37.965245" lon="-1.050875">
 <ele>318.320000</ele>
<time>2009-12-30T10:00:43Z</time>
</trkpt>
<trkpt lat="37.965245" lon="-1.050875">
 <ele>318.000000</ele>
<time>2009-12-30T10:00:44Z</time>
</trkpt>
<trkpt lat="37.965244" lon="-1.050885">
 <ele>318.080000</ele>
<time>2009-12-30T10:00:45Z</time>
</trkpt>
<trkpt lat="37.965236" lon="-1.050945">
 <ele>319.780000</ele>
<time>2009-12-30T10:00:48Z</time>
</trkpt>
<trkpt lat="37.965250" lon="-1.050935">
 <ele>319.480000</ele>
<time>2009-12-30T10:00:49Z</time>
</trkpt>
<trkpt lat="37.965259" lon="-1.050949">
 <ele>320.620000</ele>
<time>2009-12-30T10:00:50Z</time>
</trkpt>
<trkpt lat="37.965258" lon="-1.050994">
 <ele>320.380000</ele>
<time>2009-12-30T10:00:53Z</time>
</trkpt>
<trkpt lat="37.965267" lon="-1.051031">
 <ele>320.920000</ele>
<time>2009-12-30T10:00:55Z</time>
</trkpt>
<trkpt lat="37.965256" lon="-1.051103">
 <ele>320.900000</ele>
<time>2009-12-30T10:01:03Z</time>
</trkpt>
<trkpt lat="37.965265" lon="-1.051088">
 <ele>320.680000</ele>
<time>2009-12-30T10:01:04Z</time>
</trkpt>
<trkpt lat="37.965260" lon="-1.051092">
 <ele>321.020000</ele>
<time>2009-12-30T10:01:05Z</time>
</trkpt>
<trkpt lat="37.965257" lon="-1.051092">
 <ele>320.880000</ele>
<time>2009-12-30T10:01:06Z</time>
</trkpt>
<trkpt lat="37.965258" lon="-1.051097">
 <ele>320.880000</ele>
<time>2009-12-30T10:01:07Z</time>
</trkpt>
<trkpt lat="37.965258" lon="-1.051097">
 <ele>320.800000</ele>
<time>2009-12-30T10:01:08Z</time>
</trkpt>
<trkpt lat="37.965260" lon="-1.051101">
 <ele>320.720000</ele>
<time>2009-12-30T10:01:11Z</time>
</trkpt>
<trkpt lat="37.965260" lon="-1.051135">
 <ele>321.260000</ele>
<time>2009-12-30T10:01:14Z</time>
</trkpt>
<trkpt lat="37.965272" lon="-1.051121">
 <ele>321.040000</ele>
<time>2009-12-30T10:01:15Z</time>
</trkpt>
<trkpt lat="37.965270" lon="-1.051136">
 <ele>321.200000</ele>
<time>2009-12-30T10:01:17Z</time>
</trkpt>
<trkpt lat="37.965285" lon="-1.051191">
 <ele>321.340000</ele>
<time>2009-12-30T10:01:21Z</time>
</trkpt>
<trkpt lat="37.965276" lon="-1.051196">
 <ele>320.760000</ele>
<time>2009-12-30T10:01:22Z</time>
</trkpt>
<trkpt lat="37.965279" lon="-1.051251">
 <ele>320.200000</ele>
<time>2009-12-30T10:01:25Z</time>
</trkpt>
<trkpt lat="37.965270" lon="-1.051354">
 <ele>321.160000</ele>
<time>2009-12-30T10:01:34Z</time>
</trkpt>
<trkpt lat="37.965264" lon="-1.051344">
 <ele>321.740000</ele>
<time>2009-12-30T10:01:35Z</time>
</trkpt>
<trkpt lat="37.965257" lon="-1.051357">
 <ele>321.800000</ele>
<time>2009-12-30T10:01:36Z</time>
</trkpt>
<trkpt lat="37.965253" lon="-1.051370">
 <ele>322.420000</ele>
<time>2009-12-30T10:01:38Z</time>
</trkpt>
<trkpt lat="37.965256" lon="-1.051374">
 <ele>321.640000</ele>
<time>2009-12-30T10:01:41Z</time>
</trkpt>
<trkpt lat="37.965252" lon="-1.051382">
 <ele>322.520000</ele>
<time>2009-12-30T10:01:42Z</time>
</trkpt>
<trkpt lat="37.965252" lon="-1.051382">
 <ele>322.200000</ele>
<time>2009-12-30T10:01:43Z</time>
</trkpt>
<trkpt lat="37.965230" lon="-1.051415">
 <ele>325.760000</ele>
<time>2009-12-30T10:02:08Z</time>
</trkpt>
<trkpt lat="37.965133" lon="-1.051581">
 <ele>331.060000</ele>
<time>2009-12-30T10:02:13Z</time>
</trkpt>
<trkpt lat="37.965140" lon="-1.051572">
 <ele>329.960000</ele>
<time>2009-12-30T10:02:14Z</time>
</trkpt>
<trkpt lat="37.965134" lon="-1.051579">
 <ele>330.180000</ele>
<time>2009-12-30T10:02:15Z</time>
</trkpt>
<trkpt lat="37.965134" lon="-1.051577">
 <ele>330.540000</ele>
<time>2009-12-30T10:02:16Z</time>
</trkpt>
<trkpt lat="37.965133" lon="-1.051583">
 <ele>329.820000</ele>
<time>2009-12-30T10:02:17Z</time>
</trkpt>
<trkpt lat="37.965133" lon="-1.051583">
 <ele>330.300000</ele>
<time>2009-12-30T10:02:18Z</time>
</trkpt>
<trkpt lat="37.965133" lon="-1.051583">
 <ele>330.300000</ele>
<time>2009-12-30T10:02:19Z</time>
</trkpt>
<trkpt lat="37.965133" lon="-1.051583">
 <ele>330.300000</ele>
<time>2009-12-30T10:02:20Z</time>
</trkpt>
<trkpt lat="37.965133" lon="-1.051583">
 <ele>330.300000</ele>
<time>2009-12-30T10:02:21Z</time>
</trkpt>
<trkpt lat="37.965133" lon="-1.051583">
 <ele>330.300000</ele>
<time>2009-12-30T10:02:22Z</time>
</trkpt>
<trkpt lat="37.965133" lon="-1.051583">
 <ele>330.300000</ele>
<time>2009-12-30T10:02:23Z</time>
</trkpt>
<trkpt lat="37.965133" lon="-1.051583">
 <ele>330.300000</ele>
<time>2009-12-30T10:02:24Z</time>
</trkpt>
<trkpt lat="37.965133" lon="-1.051583">
 <ele>330.300000</ele>
<time>2009-12-30T10:02:25Z</time>
</trkpt>
<trkpt lat="37.965133" lon="-1.051583">
 <ele>330.300000</ele>
<time>2009-12-30T10:02:26Z</time>
</trkpt>
<trkpt lat="37.965133" lon="-1.051583">
 <ele>330.300000</ele>
<time>2009-12-30T10:02:27Z</time>
</trkpt>
<trkpt lat="37.965133" lon="-1.051583">
 <ele>330.300000</ele>
<time>2009-12-30T10:02:28Z</time>
</trkpt>
<trkpt lat="37.965133" lon="-1.051583">
 <ele>330.300000</ele>
<time>2009-12-30T10:02:29Z</time>
</trkpt>
<trkpt lat="37.965133" lon="-1.051583">
 <ele>330.300000</ele>
<time>2009-12-30T10:02:30Z</time>
</trkpt>
<trkpt lat="37.965133" lon="-1.051583">
 <ele>330.300000</ele>
<time>2009-12-30T10:02:31Z</time>
</trkpt>
<trkpt lat="37.965133" lon="-1.051583">
 <ele>330.300000</ele>
<time>2009-12-30T10:02:32Z</time>
</trkpt>
<trkpt lat="37.965104" lon="-1.051702">
 <ele>330.460000</ele>
<time>2009-12-30T10:02:36Z</time>
</trkpt>
<trkpt lat="37.965117" lon="-1.051710">
 <ele>329.120000</ele>
<time>2009-12-30T10:02:37Z</time>
</trkpt>
<trkpt lat="37.965116" lon="-1.051712">
 <ele>330.000000</ele>
<time>2009-12-30T10:02:38Z</time>
</trkpt>
<trkpt lat="37.965111" lon="-1.051705">
 <ele>329.580000</ele>
<time>2009-12-30T10:02:39Z</time>
</trkpt>
<trkpt lat="37.965108" lon="-1.051713">
 <ele>330.460000</ele>
<time>2009-12-30T10:02:40Z</time>
</trkpt>
<trkpt lat="37.965108" lon="-1.051713">
 <ele>329.900000</ele>
<time>2009-12-30T10:02:41Z</time>
</trkpt>
<trkpt lat="37.965103" lon="-1.051734">
 <ele>330.300000</ele>
<time>2009-12-30T10:02:51Z</time>
</trkpt>
<trkpt lat="37.965072" lon="-1.051848">
 <ele>330.720000</ele>
<time>2009-12-30T10:02:56Z</time>
</trkpt>
<trkpt lat="37.965068" lon="-1.051842">
 <ele>330.600000</ele>
<time>2009-12-30T10:02:57Z</time>
</trkpt>
<trkpt lat="37.965069" lon="-1.051840">
 <ele>331.100000</ele>
<time>2009-12-30T10:02:58Z</time>
</trkpt>
<trkpt lat="37.965072" lon="-1.051845">
 <ele>330.560000</ele>
<time>2009-12-30T10:02:59Z</time>
</trkpt>
<trkpt lat="37.965068" lon="-1.051848">
 <ele>330.880000</ele>
<time>2009-12-30T10:03:00Z</time>
</trkpt>
<trkpt lat="37.965068" lon="-1.051848">
 <ele>330.800000</ele>
<time>2009-12-30T10:03:01Z</time>
</trkpt>
<trkpt lat="37.965060" lon="-1.051854">
 <ele>330.560000</ele>
<time>2009-12-30T10:03:04Z</time>
</trkpt>
<trkpt lat="37.965023" lon="-1.051872">
 <ele>329.940000</ele>
<time>2009-12-30T10:03:06Z</time>
</trkpt>
<trkpt lat="37.964976" lon="-1.051886">
 <ele>330.580000</ele>
<time>2009-12-30T10:03:12Z</time>
</trkpt>
<trkpt lat="37.964979" lon="-1.051884">
 <ele>330.420000</ele>
<time>2009-12-30T10:03:13Z</time>
</trkpt>
<trkpt lat="37.964978" lon="-1.051887">
 <ele>330.500000</ele>
<time>2009-12-30T10:03:14Z</time>
</trkpt>
<trkpt lat="37.964978" lon="-1.051887">
 <ele>330.500000</ele>
<time>2009-12-30T10:03:15Z</time>
</trkpt>
<trkpt lat="37.964932" lon="-1.051896">
 <ele>331.400000</ele>
<time>2009-12-30T10:03:19Z</time>
</trkpt>
<trkpt lat="37.964912" lon="-1.051903">
 <ele>331.040000</ele>
<time>2009-12-30T10:03:21Z</time>
</trkpt>
<trkpt lat="37.964907" lon="-1.051900">
 <ele>330.420000</ele>
<time>2009-12-30T10:03:22Z</time>
</trkpt>
<trkpt lat="37.964916" lon="-1.051890">
 <ele>330.520000</ele>
<time>2009-12-30T10:03:23Z</time>
</trkpt>
<trkpt lat="37.964900" lon="-1.051894">
 <ele>330.200000</ele>
<time>2009-12-30T10:03:24Z</time>
</trkpt>
<trkpt lat="37.964896" lon="-1.051906">
 <ele>330.400000</ele>
<time>2009-12-30T10:03:25Z</time>
</trkpt>
<trkpt lat="37.964897" lon="-1.051900">
 <ele>330.240000</ele>
<time>2009-12-30T10:03:26Z</time>
</trkpt>
<trkpt lat="37.964897" lon="-1.051900">
 <ele>330.400000</ele>
<time>2009-12-30T10:03:27Z</time>
</trkpt>
<trkpt lat="37.964887" lon="-1.051920">
 <ele>331.240000</ele>
<time>2009-12-30T10:04:12Z</time>
</trkpt>
<trkpt lat="37.964843" lon="-1.052004">
 <ele>330.300000</ele>
<time>2009-12-30T10:04:15Z</time>
</trkpt>
<trkpt lat="37.964845" lon="-1.052010">
 <ele>333.440000</ele>
<time>2009-12-30T10:04:16Z</time>
</trkpt>
<trkpt lat="37.964843" lon="-1.052011">
 <ele>331.640000</ele>
<time>2009-12-30T10:04:17Z</time>
</trkpt>
<trkpt lat="37.964843" lon="-1.052007">
 <ele>331.960000</ele>
<time>2009-12-30T10:04:18Z</time>
</trkpt>
<trkpt lat="37.964840" lon="-1.052015">
 <ele>331.480000</ele>
<time>2009-12-30T10:04:19Z</time>
</trkpt>
<trkpt lat="37.964840" lon="-1.052015">
 <ele>331.800000</ele>
<time>2009-12-30T10:04:20Z</time>
</trkpt>
<trkpt lat="37.964834" lon="-1.052033">
 <ele>328.960000</ele>
<time>2009-12-30T10:04:44Z</time>
</trkpt>
<trkpt lat="37.964768" lon="-1.052146">
 <ele>323.460000</ele>
<time>2009-12-30T10:04:53Z</time>
</trkpt>
<trkpt lat="37.964765" lon="-1.052162">
 <ele>323.320000</ele>
<time>2009-12-30T10:04:54Z</time>
</trkpt>
<trkpt lat="37.964754" lon="-1.052183">
 <ele>323.000000</ele>
<time>2009-12-30T10:04:57Z</time>
</trkpt>
<trkpt lat="37.964758" lon="-1.052185">
 <ele>322.280000</ele>
<time>2009-12-30T10:04:58Z</time>
</trkpt>
<trkpt lat="37.964753" lon="-1.052184">
 <ele>322.160000</ele>
<time>2009-12-30T10:04:59Z</time>
</trkpt>
<trkpt lat="37.964752" lon="-1.052181">
 <ele>322.980000</ele>
<time>2009-12-30T10:05:00Z</time>
</trkpt>
<trkpt lat="37.964750" lon="-1.052188">
 <ele>321.940000</ele>
<time>2009-12-30T10:05:01Z</time>
</trkpt>
<trkpt lat="37.964750" lon="-1.052188">
 <ele>322.500000</ele>
<time>2009-12-30T10:05:02Z</time>
</trkpt>
<trkpt lat="37.964739" lon="-1.052202">
 <ele>322.220000</ele>
<time>2009-12-30T10:05:07Z</time>
</trkpt>
<trkpt lat="37.964702" lon="-1.052246">
 <ele>321.560000</ele>
<time>2009-12-30T10:05:09Z</time>
</trkpt>
<trkpt lat="37.964665" lon="-1.052313">
 <ele>321.660000</ele>
<time>2009-12-30T10:05:15Z</time>
</trkpt>
<trkpt lat="37.964665" lon="-1.052307">
 <ele>321.780000</ele>
<time>2009-12-30T10:05:16Z</time>
</trkpt>
<trkpt lat="37.964655" lon="-1.052324">
 <ele>320.820000</ele>
<time>2009-12-30T10:05:17Z</time>
</trkpt>
<trkpt lat="37.964633" lon="-1.052354">
 <ele>320.920000</ele>
<time>2009-12-30T10:05:20Z</time>
</trkpt>
<trkpt lat="37.964624" lon="-1.052361">
 <ele>320.460000</ele>
<time>2009-12-30T10:05:21Z</time>
</trkpt>
<trkpt lat="37.964615" lon="-1.052349">
 <ele>320.960000</ele>
<time>2009-12-30T10:05:22Z</time>
</trkpt>
<trkpt lat="37.964604" lon="-1.052364">
 <ele>320.180000</ele>
<time>2009-12-30T10:05:23Z</time>
</trkpt>
<trkpt lat="37.964594" lon="-1.052403">
 <ele>319.520000</ele>
<time>2009-12-30T10:05:27Z</time>
</trkpt>
<trkpt lat="37.964599" lon="-1.052401">
 <ele>318.460000</ele>
<time>2009-12-30T10:05:28Z</time>
</trkpt>
<trkpt lat="37.964595" lon="-1.052401">
 <ele>319.240000</ele>
<time>2009-12-30T10:05:29Z</time>
</trkpt>
<trkpt lat="37.964592" lon="-1.052401">
 <ele>319.020000</ele>
<time>2009-12-30T10:05:30Z</time>
</trkpt>
<trkpt lat="37.964592" lon="-1.052407">
 <ele>318.860000</ele>
<time>2009-12-30T10:05:31Z</time>
</trkpt>
<trkpt lat="37.964592" lon="-1.052407">
 <ele>319.100000</ele>
<time>2009-12-30T10:05:32Z</time>
</trkpt>
<trkpt lat="37.964585" lon="-1.052409">
 <ele>317.860000</ele>
<time>2009-12-30T10:05:43Z</time>
</trkpt>
<trkpt lat="37.964548" lon="-1.052409">
 <ele>313.460000</ele>
<time>2009-12-30T10:05:45Z</time>
</trkpt>
<trkpt lat="37.964524" lon="-1.052415">
 <ele>312.840000</ele>
<time>2009-12-30T10:05:47Z</time>
</trkpt>
<trkpt lat="37.964547" lon="-1.052421">
 <ele>314.220000</ele>
<time>2009-12-30T10:05:48Z</time>
</trkpt>
<trkpt lat="37.964544" lon="-1.052412">
 <ele>314.240000</ele>
<time>2009-12-30T10:05:49Z</time>
</trkpt>
<trkpt lat="37.964535" lon="-1.052421">
 <ele>313.860000</ele>
<time>2009-12-30T10:05:50Z</time>
</trkpt>
<trkpt lat="37.964535" lon="-1.052420">
 <ele>314.700000</ele>
<time>2009-12-30T10:05:51Z</time>
</trkpt>
<trkpt lat="37.964533" lon="-1.052420">
 <ele>314.300000</ele>
<time>2009-12-30T10:05:53Z</time>
</trkpt>
<trkpt lat="37.964533" lon="-1.052420">
 <ele>314.300000</ele>
<time>2009-12-30T10:05:54Z</time>
</trkpt>
<trkpt lat="37.964533" lon="-1.052420">
 <ele>314.300000</ele>
<time>2009-12-30T10:05:55Z</time>
</trkpt>
<trkpt lat="37.964533" lon="-1.052420">
 <ele>314.300000</ele>
<time>2009-12-30T10:05:56Z</time>
</trkpt>
<trkpt lat="37.964533" lon="-1.052420">
 <ele>314.300000</ele>
<time>2009-12-30T10:05:57Z</time>
</trkpt>
<trkpt lat="37.964529" lon="-1.052424">
 <ele>313.420000</ele>
<time>2009-12-30T10:05:58Z</time>
</trkpt>
<trkpt lat="37.964480" lon="-1.052446">
 <ele>309.700000</ele>
<time>2009-12-30T10:06:03Z</time>
</trkpt>
<trkpt lat="37.964478" lon="-1.052448">
 <ele>309.280000</ele>
<time>2009-12-30T10:06:04Z</time>
</trkpt>
<trkpt lat="37.964491" lon="-1.052460">
 <ele>309.340000</ele>
<time>2009-12-30T10:06:05Z</time>
</trkpt>
<trkpt lat="37.964483" lon="-1.052469">
 <ele>309.320000</ele>
<time>2009-12-30T10:06:06Z</time>
</trkpt>
<trkpt lat="37.964485" lon="-1.052450">
 <ele>309.420000</ele>
<time>2009-12-30T10:06:07Z</time>
</trkpt>
<trkpt lat="37.964482" lon="-1.052460">
 <ele>309.260000</ele>
<time>2009-12-30T10:06:08Z</time>
</trkpt>
<trkpt lat="37.964482" lon="-1.052460">
 <ele>309.500000</ele>
<time>2009-12-30T10:06:09Z</time>
</trkpt>
<trkpt lat="37.964476" lon="-1.052455">
 <ele>308.100000</ele>
<time>2009-12-30T10:06:13Z</time>
</trkpt>
<trkpt lat="37.964439" lon="-1.052434">
 <ele>302.080000</ele>
<time>2009-12-30T10:06:17Z</time>
</trkpt>
<trkpt lat="37.964447" lon="-1.052428">
 <ele>303.980000</ele>
<time>2009-12-30T10:06:18Z</time>
</trkpt>
<trkpt lat="37.964448" lon="-1.052429">
 <ele>304.640000</ele>
<time>2009-12-30T10:06:19Z</time>
</trkpt>
<trkpt lat="37.964435" lon="-1.052427">
 <ele>303.860000</ele>
<time>2009-12-30T10:06:20Z</time>
</trkpt>
<trkpt lat="37.964400" lon="-1.052419">
 <ele>304.420000</ele>
<time>2009-12-30T10:06:23Z</time>
</trkpt>
<trkpt lat="37.964411" lon="-1.052419">
 <ele>302.240000</ele>
<time>2009-12-30T10:06:24Z</time>
</trkpt>
<trkpt lat="37.964402" lon="-1.052418">
 <ele>303.060000</ele>
<time>2009-12-30T10:06:25Z</time>
</trkpt>
<trkpt lat="37.964409" lon="-1.052419">
 <ele>303.600000</ele>
<time>2009-12-30T10:06:26Z</time>
</trkpt>
<trkpt lat="37.964402" lon="-1.052418">
 <ele>302.800000</ele>
<time>2009-12-30T10:06:27Z</time>
</trkpt>
<trkpt lat="37.964402" lon="-1.052418">
 <ele>303.200000</ele>
<time>2009-12-30T10:06:28Z</time>
</trkpt>
<trkpt lat="37.964387" lon="-1.052416">
 <ele>302.360000</ele>
<time>2009-12-30T10:06:46Z</time>
</trkpt>
<trkpt lat="37.964330" lon="-1.052394">
 <ele>299.080000</ele>
<time>2009-12-30T10:06:50Z</time>
</trkpt>
<trkpt lat="37.964328" lon="-1.052372">
 <ele>300.800000</ele>
<time>2009-12-30T10:06:52Z</time>
</trkpt>
<trkpt lat="37.964322" lon="-1.052395">
 <ele>301.020000</ele>
<time>2009-12-30T10:06:53Z</time>
</trkpt>
<trkpt lat="37.964330" lon="-1.052385">
 <ele>300.680000</ele>
<time>2009-12-30T10:06:54Z</time>
</trkpt>
<trkpt lat="37.964320" lon="-1.052387">
 <ele>301.140000</ele>
<time>2009-12-30T10:06:55Z</time>
</trkpt>
<trkpt lat="37.964300" lon="-1.052337">
 <ele>294.340000</ele>
<time>2009-12-30T10:07:00Z</time>
</trkpt>
<trkpt lat="37.964295" lon="-1.052318">
 <ele>293.620000</ele>
<time>2009-12-30T10:07:02Z</time>
</trkpt>
<trkpt lat="37.964295" lon="-1.052332">
 <ele>292.200000</ele>
<time>2009-12-30T10:07:03Z</time>
</trkpt>
<trkpt lat="37.964300" lon="-1.052333">
 <ele>291.280000</ele>
<time>2009-12-30T10:07:04Z</time>
</trkpt>
<trkpt lat="37.964297" lon="-1.052336">
 <ele>291.280000</ele>
<time>2009-12-30T10:07:05Z</time>
</trkpt>
<trkpt lat="37.964290" lon="-1.052328">
 <ele>292.220000</ele>
<time>2009-12-30T10:07:06Z</time>
</trkpt>
<trkpt lat="37.964295" lon="-1.052327">
 <ele>290.540000</ele>
<time>2009-12-30T10:07:07Z</time>
</trkpt>
<trkpt lat="37.964285" lon="-1.052323">
 <ele>291.180000</ele>
<time>2009-12-30T10:07:08Z</time>
</trkpt>
<trkpt lat="37.964227" lon="-1.052303">
 <ele>288.560000</ele>
<time>2009-12-30T10:07:12Z</time>
</trkpt>
<trkpt lat="37.964237" lon="-1.052304">
 <ele>291.480000</ele>
<time>2009-12-30T10:07:13Z</time>
</trkpt>
<trkpt lat="37.964235" lon="-1.052295">
 <ele>288.840000</ele>
<time>2009-12-30T10:07:14Z</time>
</trkpt>
<trkpt lat="37.964220" lon="-1.052300">
 <ele>291.040000</ele>
<time>2009-12-30T10:07:15Z</time>
</trkpt>
<trkpt lat="37.964222" lon="-1.052297">
 <ele>290.880000</ele>
<time>2009-12-30T10:07:16Z</time>
</trkpt>
<trkpt lat="37.964222" lon="-1.052297">
 <ele>290.400000</ele>
<time>2009-12-30T10:07:17Z</time>
</trkpt>
<trkpt lat="37.964213" lon="-1.052290">
 <ele>291.080000</ele>
<time>2009-12-30T10:07:20Z</time>
</trkpt>
<trkpt lat="37.964179" lon="-1.052237">
 <ele>290.560000</ele>
<time>2009-12-30T10:07:23Z</time>
</trkpt>
<trkpt lat="37.964157" lon="-1.052262">
 <ele>293.440000</ele>
<time>2009-12-30T10:07:24Z</time>
</trkpt>
<trkpt lat="37.964177" lon="-1.052257">
 <ele>290.860000</ele>
<time>2009-12-30T10:07:26Z</time>
</trkpt>
<trkpt lat="37.964221" lon="-1.052148">
 <ele>291.360000</ele>
<time>2009-12-30T10:07:37Z</time>
</trkpt>
<trkpt lat="37.964218" lon="-1.052068">
 <ele>293.980000</ele>
<time>2009-12-30T10:07:44Z</time>
</trkpt>
<trkpt lat="37.964203" lon="-1.052028">
 <ele>294.760000</ele>
<time>2009-12-30T10:07:47Z</time>
</trkpt>
<trkpt lat="37.964186" lon="-1.052041">
 <ele>293.440000</ele>
<time>2009-12-30T10:07:48Z</time>
</trkpt>
<trkpt lat="37.964194" lon="-1.052022">
 <ele>294.820000</ele>
<time>2009-12-30T10:07:50Z</time>
</trkpt>
<trkpt lat="37.964157" lon="-1.051998">
 <ele>295.060000</ele>
<time>2009-12-30T10:07:54Z</time>
</trkpt>
<trkpt lat="37.964111" lon="-1.051953">
 <ele>290.780000</ele>
<time>2009-12-30T10:08:01Z</time>
</trkpt>
<trkpt lat="37.964105" lon="-1.051945">
 <ele>288.520000</ele>
<time>2009-12-30T10:08:03Z</time>
</trkpt>
<trkpt lat="37.964102" lon="-1.051948">
 <ele>287.780000</ele>
<time>2009-12-30T10:08:04Z</time>
</trkpt>
<trkpt lat="37.964100" lon="-1.051954">
 <ele>287.740000</ele>
<time>2009-12-30T10:08:05Z</time>
</trkpt>
<trkpt lat="37.964109" lon="-1.051953">
 <ele>288.040000</ele>
<time>2009-12-30T10:08:06Z</time>
</trkpt>
<trkpt lat="37.964094" lon="-1.051946">
 <ele>287.160000</ele>
<time>2009-12-30T10:08:07Z</time>
</trkpt>
<trkpt lat="37.964002" lon="-1.051939">
 <ele>286.460000</ele>
<time>2009-12-30T10:08:11Z</time>
</trkpt>
<trkpt lat="37.964012" lon="-1.051949">
 <ele>288.640000</ele>
<time>2009-12-30T10:08:13Z</time>
</trkpt>
<trkpt lat="37.963985" lon="-1.051942">
 <ele>288.040000</ele>
<time>2009-12-30T10:08:14Z</time>
</trkpt>
<trkpt lat="37.963922" lon="-1.051965">
 <ele>289.480000</ele>
<time>2009-12-30T10:08:18Z</time>
</trkpt>
<trkpt lat="37.963806" lon="-1.051982">
 <ele>287.160000</ele>
<time>2009-12-30T10:08:27Z</time>
</trkpt>
<trkpt lat="37.963785" lon="-1.051959">
 <ele>284.600000</ele>
<time>2009-12-30T10:08:30Z</time>
</trkpt>
<trkpt lat="37.963758" lon="-1.051950">
 <ele>282.360000</ele>
<time>2009-12-30T10:08:33Z</time>
</trkpt>
<trkpt lat="37.963746" lon="-1.051945">
 <ele>280.840000</ele>
<time>2009-12-30T10:08:35Z</time>
</trkpt>
<trkpt lat="37.963736" lon="-1.051925">
 <ele>280.160000</ele>
<time>2009-12-30T10:08:37Z</time>
</trkpt>
<trkpt lat="37.963651" lon="-1.051828">
 <ele>274.540000</ele>
<time>2009-12-30T10:08:47Z</time>
</trkpt>
<trkpt lat="37.963603" lon="-1.051775">
 <ele>276.040000</ele>
<time>2009-12-30T10:08:53Z</time>
</trkpt>
<trkpt lat="37.963586" lon="-1.051724">
 <ele>278.340000</ele>
<time>2009-12-30T10:08:57Z</time>
</trkpt>
<trkpt lat="37.963562" lon="-1.051642">
 <ele>279.640000</ele>
<time>2009-12-30T10:09:05Z</time>
</trkpt>
<trkpt lat="37.963541" lon="-1.051633">
 <ele>280.360000</ele>
<time>2009-12-30T10:09:06Z</time>
</trkpt>
<trkpt lat="37.963532" lon="-1.051640">
 <ele>282.440000</ele>
<time>2009-12-30T10:09:08Z</time>
</trkpt>
<trkpt lat="37.963531" lon="-1.051648">
 <ele>281.440000</ele>
<time>2009-12-30T10:09:09Z</time>
</trkpt>
<trkpt lat="37.963537" lon="-1.051644">
 <ele>282.360000</ele>
<time>2009-12-30T10:09:10Z</time>
</trkpt>
<trkpt lat="37.963534" lon="-1.051641">
 <ele>282.780000</ele>
<time>2009-12-30T10:09:11Z</time>
</trkpt>
<trkpt lat="37.963539" lon="-1.051646">
 <ele>282.060000</ele>
<time>2009-12-30T10:09:12Z</time>
</trkpt>
<trkpt lat="37.963525" lon="-1.051660">
 <ele>283.160000</ele>
<time>2009-12-30T10:09:13Z</time>
</trkpt>
<trkpt lat="37.963511" lon="-1.051691">
 <ele>282.560000</ele>
<time>2009-12-30T10:09:15Z</time>
</trkpt>
<trkpt lat="37.963526" lon="-1.051688">
 <ele>283.140000</ele>
<time>2009-12-30T10:09:16Z</time>
</trkpt>
<trkpt lat="37.963525" lon="-1.051682">
 <ele>283.120000</ele>
<time>2009-12-30T10:09:17Z</time>
</trkpt>
<trkpt lat="37.963507" lon="-1.051678">
 <ele>283.060000</ele>
<time>2009-12-30T10:09:18Z</time>
</trkpt>
<trkpt lat="37.963481" lon="-1.051678">
 <ele>282.240000</ele>
<time>2009-12-30T10:09:21Z</time>
</trkpt>
<trkpt lat="37.963496" lon="-1.051672">
 <ele>284.020000</ele>
<time>2009-12-30T10:09:22Z</time>
</trkpt>
<trkpt lat="37.963477" lon="-1.051686">
 <ele>283.060000</ele>
<time>2009-12-30T10:09:23Z</time>
</trkpt>
<trkpt lat="37.963485" lon="-1.051676">
 <ele>282.880000</ele>
<time>2009-12-30T10:09:24Z</time>
</trkpt>
<trkpt lat="37.963465" lon="-1.051669">
 <ele>285.200000</ele>
<time>2009-12-30T10:09:25Z</time>
</trkpt>
<trkpt lat="37.963388" lon="-1.051625">
 <ele>290.820000</ele>
<time>2009-12-30T10:09:29Z</time>
</trkpt>
<trkpt lat="37.963387" lon="-1.051623">
 <ele>286.460000</ele>
<time>2009-12-30T10:09:30Z</time>
</trkpt>
<trkpt lat="37.963352" lon="-1.051578">
 <ele>285.960000</ele>
<time>2009-12-30T10:09:34Z</time>
</trkpt>
<trkpt lat="37.963356" lon="-1.051594">
 <ele>285.020000</ele>
<time>2009-12-30T10:09:35Z</time>
</trkpt>
<trkpt lat="37.963345" lon="-1.051584">
 <ele>284.320000</ele>
<time>2009-12-30T10:09:36Z</time>
</trkpt>
<trkpt lat="37.963338" lon="-1.051593">
 <ele>285.060000</ele>
<time>2009-12-30T10:09:37Z</time>
</trkpt>
<trkpt lat="37.963307" lon="-1.051586">
 <ele>286.360000</ele>
<time>2009-12-30T10:09:39Z</time>
</trkpt>
<trkpt lat="37.963315" lon="-1.051594">
 <ele>284.940000</ele>
<time>2009-12-30T10:09:40Z</time>
</trkpt>
<trkpt lat="37.963308" lon="-1.051582">
 <ele>285.640000</ele>
<time>2009-12-30T10:09:41Z</time>
</trkpt>
<trkpt lat="37.963310" lon="-1.051580">
 <ele>285.840000</ele>
<time>2009-12-30T10:09:42Z</time>
</trkpt>
<trkpt lat="37.963303" lon="-1.051583">
 <ele>285.760000</ele>
<time>2009-12-30T10:09:43Z</time>
</trkpt>
<trkpt lat="37.963303" lon="-1.051583">
 <ele>285.600000</ele>
<time>2009-12-30T10:09:44Z</time>
</trkpt>
<trkpt lat="37.963292" lon="-1.051574">
 <ele>284.240000</ele>
<time>2009-12-30T10:09:48Z</time>
</trkpt>
<trkpt lat="37.963250" lon="-1.051444">
 <ele>281.960000</ele>
<time>2009-12-30T10:09:59Z</time>
</trkpt>
<trkpt lat="37.963257" lon="-1.051436">
 <ele>281.840000</ele>
<time>2009-12-30T10:10:00Z</time>
</trkpt>
<trkpt lat="37.963253" lon="-1.051443">
 <ele>281.380000</ele>
<time>2009-12-30T10:10:01Z</time>
</trkpt>
<trkpt lat="37.963251" lon="-1.051436">
 <ele>282.020000</ele>
<time>2009-12-30T10:10:02Z</time>
</trkpt>
<trkpt lat="37.963253" lon="-1.051369">
 <ele>281.340000</ele>
<time>2009-12-30T10:10:06Z</time>
</trkpt>
<trkpt lat="37.963261" lon="-1.051368">
 <ele>281.720000</ele>
<time>2009-12-30T10:10:07Z</time>
</trkpt>
<trkpt lat="37.963279" lon="-1.051316">
 <ele>282.340000</ele>
<time>2009-12-30T10:10:11Z</time>
</trkpt>
<trkpt lat="37.963276" lon="-1.051294">
 <ele>282.900000</ele>
<time>2009-12-30T10:10:14Z</time>
</trkpt>
<trkpt lat="37.963279" lon="-1.051289">
 <ele>283.260000</ele>
<time>2009-12-30T10:10:15Z</time>
</trkpt>
<trkpt lat="37.963277" lon="-1.051291">
 <ele>283.700000</ele>
<time>2009-12-30T10:10:16Z</time>
</trkpt>
<trkpt lat="37.963279" lon="-1.051300">
 <ele>282.720000</ele>
<time>2009-12-30T10:10:17Z</time>
</trkpt>
<trkpt lat="37.963278" lon="-1.051288">
 <ele>283.760000</ele>
<time>2009-12-30T10:10:18Z</time>
</trkpt>
<trkpt lat="37.963278" lon="-1.051288">
 <ele>283.200000</ele>
<time>2009-12-30T10:10:19Z</time>
</trkpt>
<trkpt lat="37.963273" lon="-1.051287">
 <ele>284.200000</ele>
<time>2009-12-30T10:10:31Z</time>
</trkpt>
<trkpt lat="37.963248" lon="-1.051290">
 <ele>286.740000</ele>
<time>2009-12-30T10:10:33Z</time>
</trkpt>
<trkpt lat="37.963233" lon="-1.051288">
 <ele>286.460000</ele>
<time>2009-12-30T10:10:35Z</time>
</trkpt>
<trkpt lat="37.963226" lon="-1.051294">
 <ele>283.880000</ele>
<time>2009-12-30T10:10:36Z</time>
</trkpt>
<trkpt lat="37.963162" lon="-1.051311">
 <ele>283.100000</ele>
<time>2009-12-30T10:10:44Z</time>
</trkpt>
<trkpt lat="37.963157" lon="-1.051314">
 <ele>281.900000</ele>
<time>2009-12-30T10:10:45Z</time>
</trkpt>
<trkpt lat="37.963158" lon="-1.051311">
 <ele>282.900000</ele>
<time>2009-12-30T10:10:46Z</time>
</trkpt>
<trkpt lat="37.963160" lon="-1.051315">
 <ele>282.280000</ele>
<time>2009-12-30T10:10:47Z</time>
</trkpt>
<trkpt lat="37.963160" lon="-1.051314">
 <ele>282.480000</ele>
<time>2009-12-30T10:10:48Z</time>
</trkpt>
<trkpt lat="37.963155" lon="-1.051315">
 <ele>282.240000</ele>
<time>2009-12-30T10:10:49Z</time>
</trkpt>
<trkpt lat="37.963155" lon="-1.051315">
 <ele>282.400000</ele>
<time>2009-12-30T10:10:50Z</time>
</trkpt>
<trkpt lat="37.963131" lon="-1.051312">
 <ele>280.160000</ele>
<time>2009-12-30T10:11:18Z</time>
</trkpt>
<trkpt lat="37.963082" lon="-1.051317">
 <ele>273.300000</ele>
<time>2009-12-30T10:11:20Z</time>
</trkpt>
<trkpt lat="37.963058" lon="-1.051319">
 <ele>281.100000</ele>
<time>2009-12-30T10:11:21Z</time>
</trkpt>
<trkpt lat="37.963042" lon="-1.051281">
 <ele>272.340000</ele>
<time>2009-12-30T10:11:22Z</time>
</trkpt>
<trkpt lat="37.963040" lon="-1.051288">
 <ele>276.920000</ele>
<time>2009-12-30T10:11:23Z</time>
</trkpt>
<trkpt lat="37.963036" lon="-1.051294">
 <ele>276.560000</ele>
<time>2009-12-30T10:11:24Z</time>
</trkpt>
<trkpt lat="37.963038" lon="-1.051292">
 <ele>276.960000</ele>
<time>2009-12-30T10:11:25Z</time>
</trkpt>
<trkpt lat="37.963038" lon="-1.051292">
 <ele>276.800000</ele>
<time>2009-12-30T10:11:26Z</time>
</trkpt>
<trkpt lat="37.963038" lon="-1.051292">
 <ele>276.800000</ele>
<time>2009-12-30T10:11:27Z</time>
</trkpt>
<trkpt lat="37.963038" lon="-1.051292">
 <ele>276.800000</ele>
<time>2009-12-30T10:11:28Z</time>
</trkpt>
<trkpt lat="37.963038" lon="-1.051292">
 <ele>276.800000</ele>
<time>2009-12-30T10:11:29Z</time>
</trkpt>
<trkpt lat="37.963038" lon="-1.051292">
 <ele>276.800000</ele>
<time>2009-12-30T10:11:30Z</time>
</trkpt>
<trkpt lat="37.963038" lon="-1.051292">
 <ele>276.800000</ele>
<time>2009-12-30T10:11:31Z</time>
</trkpt>
<trkpt lat="37.963038" lon="-1.051292">
 <ele>276.800000</ele>
<time>2009-12-30T10:11:32Z</time>
</trkpt>
<trkpt lat="37.963038" lon="-1.051292">
 <ele>276.800000</ele>
<time>2009-12-30T10:11:33Z</time>
</trkpt>
<trkpt lat="37.963038" lon="-1.051292">
 <ele>276.800000</ele>
<time>2009-12-30T10:11:34Z</time>
</trkpt>
<trkpt lat="37.963038" lon="-1.051292">
 <ele>276.800000</ele>
<time>2009-12-30T10:11:35Z</time>
</trkpt>
<trkpt lat="37.963038" lon="-1.051292">
 <ele>276.800000</ele>
<time>2009-12-30T10:11:36Z</time>
</trkpt>
<trkpt lat="37.963025" lon="-1.051297">
 <ele>275.800000</ele>
<time>2009-12-30T10:11:37Z</time>
</trkpt>
<trkpt lat="37.962951" lon="-1.051321">
 <ele>272.620000</ele>
<time>2009-12-30T10:11:43Z</time>
</trkpt>
<trkpt lat="37.962920" lon="-1.051334">
 <ele>271.000000</ele>
<time>2009-12-30T10:11:46Z</time>
</trkpt>
<trkpt lat="37.962917" lon="-1.051324">
 <ele>270.400000</ele>
<time>2009-12-30T10:11:47Z</time>
</trkpt>
<trkpt lat="37.962920" lon="-1.051302">
 <ele>269.680000</ele>
<time>2009-12-30T10:11:49Z</time>
</trkpt>
<trkpt lat="37.962926" lon="-1.051298">
 <ele>270.360000</ele>
<time>2009-12-30T10:11:50Z</time>
</trkpt>
<trkpt lat="37.962918" lon="-1.051310">
 <ele>269.520000</ele>
<time>2009-12-30T10:11:51Z</time>
</trkpt>
<trkpt lat="37.962927" lon="-1.051316">
 <ele>270.260000</ele>
<time>2009-12-30T10:11:52Z</time>
</trkpt>
<trkpt lat="37.962920" lon="-1.051307">
 <ele>269.860000</ele>
<time>2009-12-30T10:11:53Z</time>
</trkpt>
<trkpt lat="37.962920" lon="-1.051307">
 <ele>270.100000</ele>
<time>2009-12-30T10:11:54Z</time>
</trkpt>
<trkpt lat="37.962913" lon="-1.051305">
 <ele>269.900000</ele>
<time>2009-12-30T10:11:55Z</time>
</trkpt>
<trkpt lat="37.962866" lon="-1.051304">
 <ele>270.040000</ele>
<time>2009-12-30T10:11:58Z</time>
</trkpt>
<trkpt lat="37.962885" lon="-1.051294">
 <ele>269.120000</ele>
<time>2009-12-30T10:11:59Z</time>
</trkpt>
<trkpt lat="37.962871" lon="-1.051305">
 <ele>269.000000</ele>
<time>2009-12-30T10:12:00Z</time>
</trkpt>
<trkpt lat="37.962876" lon="-1.051301">
 <ele>269.880000</ele>
<time>2009-12-30T10:12:01Z</time>
</trkpt>
<trkpt lat="37.962870" lon="-1.051303">
 <ele>269.080000</ele>
<time>2009-12-30T10:12:02Z</time>
</trkpt>
<trkpt lat="37.962870" lon="-1.051303">
 <ele>269.400000</ele>
<time>2009-12-30T10:12:03Z</time>
</trkpt>
<trkpt lat="37.962860" lon="-1.051318">
 <ele>269.160000</ele>
<time>2009-12-30T10:12:05Z</time>
</trkpt>
<trkpt lat="37.962812" lon="-1.051394">
 <ele>269.320000</ele>
<time>2009-12-30T10:12:08Z</time>
</trkpt>
<trkpt lat="37.962696" lon="-1.051492">
 <ele>274.720000</ele>
<time>2009-12-30T10:12:16Z</time>
</trkpt>
<trkpt lat="37.962596" lon="-1.051533">
 <ele>280.740000</ele>
<time>2009-12-30T10:12:26Z</time>
</trkpt>
<trkpt lat="37.962591" lon="-1.051536">
 <ele>281.480000</ele>
<time>2009-12-30T10:12:28Z</time>
</trkpt>
<trkpt lat="37.962595" lon="-1.051545">
 <ele>280.220000</ele>
<time>2009-12-30T10:12:29Z</time>
</trkpt>
<trkpt lat="37.962590" lon="-1.051544">
 <ele>280.700000</ele>
<time>2009-12-30T10:12:30Z</time>
</trkpt>
<trkpt lat="37.962594" lon="-1.051535">
 <ele>280.300000</ele>
<time>2009-12-30T10:12:31Z</time>
</trkpt>
<trkpt lat="37.962590" lon="-1.051538">
 <ele>280.300000</ele>
<time>2009-12-30T10:12:32Z</time>
</trkpt>
<trkpt lat="37.962590" lon="-1.051538">
 <ele>280.300000</ele>
<time>2009-12-30T10:12:33Z</time>
</trkpt>
<trkpt lat="37.962584" lon="-1.051535">
 <ele>280.260000</ele>
<time>2009-12-30T10:12:36Z</time>
</trkpt>
<trkpt lat="37.962542" lon="-1.051532">
 <ele>280.860000</ele>
<time>2009-12-30T10:12:40Z</time>
</trkpt>
<trkpt lat="37.962520" lon="-1.051524">
 <ele>280.920000</ele>
<time>2009-12-30T10:12:41Z</time>
</trkpt>
<trkpt lat="37.962360" lon="-1.051516">
 <ele>281.780000</ele>
<time>2009-12-30T10:12:53Z</time>
</trkpt>
<trkpt lat="37.962319" lon="-1.051489">
 <ele>281.000000</ele>
<time>2009-12-30T10:12:56Z</time>
</trkpt>
<trkpt lat="37.962231" lon="-1.051444">
 <ele>275.500000</ele>
<time>2009-12-30T10:13:05Z</time>
</trkpt>
<trkpt lat="37.962096" lon="-1.051472">
 <ele>279.220000</ele>
<time>2009-12-30T10:13:16Z</time>
</trkpt>
<trkpt lat="37.962053" lon="-1.051454">
 <ele>272.900000</ele>
<time>2009-12-30T10:13:20Z</time>
</trkpt>
<trkpt lat="37.961958" lon="-1.051391">
 <ele>271.400000</ele>
<time>2009-12-30T10:13:29Z</time>
</trkpt>
<trkpt lat="37.961813" lon="-1.051330">
 <ele>271.480000</ele>
<time>2009-12-30T10:13:44Z</time>
</trkpt>
<trkpt lat="37.961789" lon="-1.051346">
 <ele>271.780000</ele>
<time>2009-12-30T10:13:47Z</time>
</trkpt>
<trkpt lat="37.961772" lon="-1.051358">
 <ele>270.660000</ele>
<time>2009-12-30T10:13:48Z</time>
</trkpt>
<trkpt lat="37.961704" lon="-1.051454">
 <ele>272.840000</ele>
<time>2009-12-30T10:13:58Z</time>
</trkpt>
<trkpt lat="37.961586" lon="-1.051609">
 <ele>277.060000</ele>
<time>2009-12-30T10:14:12Z</time>
</trkpt>
<trkpt lat="37.961574" lon="-1.051607">
 <ele>276.600000</ele>
<time>2009-12-30T10:14:13Z</time>
</trkpt>
<trkpt lat="37.961537" lon="-1.051643">
 <ele>277.360000</ele>
<time>2009-12-30T10:14:15Z</time>
</trkpt>
<trkpt lat="37.961422" lon="-1.051791">
 <ele>269.660000</ele>
<time>2009-12-30T10:14:33Z</time>
</trkpt>
<trkpt lat="37.961424" lon="-1.051789">
 <ele>269.740000</ele>
<time>2009-12-30T10:14:34Z</time>
</trkpt>
<trkpt lat="37.961421" lon="-1.051791">
 <ele>269.960000</ele>
<time>2009-12-30T10:14:35Z</time>
</trkpt>
<trkpt lat="37.961430" lon="-1.051794">
 <ele>269.700000</ele>
<time>2009-12-30T10:14:36Z</time>
</trkpt>
<trkpt lat="37.961422" lon="-1.051795">
 <ele>270.020000</ele>
<time>2009-12-30T10:14:37Z</time>
</trkpt>
<trkpt lat="37.961371" lon="-1.051837">
 <ele>268.060000</ele>
<time>2009-12-30T10:14:41Z</time>
</trkpt>
<trkpt lat="37.961370" lon="-1.051833">
 <ele>264.600000</ele>
<time>2009-12-30T10:14:42Z</time>
</trkpt>
<trkpt lat="37.961361" lon="-1.051841">
 <ele>265.820000</ele>
<time>2009-12-30T10:14:43Z</time>
</trkpt>
<trkpt lat="37.961273" lon="-1.051919">
 <ele>262.880000</ele>
<time>2009-12-30T10:14:53Z</time>
</trkpt>
<trkpt lat="37.961276" lon="-1.051918">
 <ele>263.320000</ele>
<time>2009-12-30T10:14:54Z</time>
</trkpt>
<trkpt lat="37.961265" lon="-1.051912">
 <ele>263.120000</ele>
<time>2009-12-30T10:14:55Z</time>
</trkpt>
<trkpt lat="37.961275" lon="-1.051911">
 <ele>263.360000</ele>
<time>2009-12-30T10:14:56Z</time>
</trkpt>
<trkpt lat="37.961267" lon="-1.051918">
 <ele>262.880000</ele>
<time>2009-12-30T10:14:57Z</time>
</trkpt>
<trkpt lat="37.961248" lon="-1.051953">
 <ele>259.480000</ele>
<time>2009-12-30T10:15:02Z</time>
</trkpt>
<trkpt lat="37.961239" lon="-1.051942">
 <ele>260.720000</ele>
<time>2009-12-30T10:15:03Z</time>
</trkpt>
<trkpt lat="37.961244" lon="-1.051945">
 <ele>260.000000</ele>
<time>2009-12-30T10:15:04Z</time>
</trkpt>
<trkpt lat="37.961232" lon="-1.051941">
 <ele>259.040000</ele>
<time>2009-12-30T10:15:05Z</time>
</trkpt>
<trkpt lat="37.961230" lon="-1.051948">
 <ele>259.680000</ele>
<time>2009-12-30T10:15:06Z</time>
</trkpt>
<trkpt lat="37.961177" lon="-1.051973">
 <ele>259.320000</ele>
<time>2009-12-30T10:15:09Z</time>
</trkpt>
<trkpt lat="37.961122" lon="-1.052028">
 <ele>261.080000</ele>
<time>2009-12-30T10:15:15Z</time>
</trkpt>
<trkpt lat="37.961084" lon="-1.052130">
 <ele>261.260000</ele>
<time>2009-12-30T10:15:22Z</time>
</trkpt>
<trkpt lat="37.961121" lon="-1.052176">
 <ele>260.240000</ele>
<time>2009-12-30T10:15:26Z</time>
</trkpt>
<trkpt lat="37.961132" lon="-1.052242">
 <ele>259.380000</ele>
<time>2009-12-30T10:15:32Z</time>
</trkpt>
<trkpt lat="37.961141" lon="-1.052291">
 <ele>257.560000</ele>
<time>2009-12-30T10:15:36Z</time>
</trkpt>
<trkpt lat="37.961136" lon="-1.052278">
 <ele>256.260000</ele>
<time>2009-12-30T10:15:37Z</time>
</trkpt>
<trkpt lat="37.961140" lon="-1.052284">
 <ele>257.100000</ele>
<time>2009-12-30T10:15:38Z</time>
</trkpt>
<trkpt lat="37.961136" lon="-1.052280">
 <ele>256.940000</ele>
<time>2009-12-30T10:15:39Z</time>
</trkpt>
<trkpt lat="37.961138" lon="-1.052288">
 <ele>256.780000</ele>
<time>2009-12-30T10:15:40Z</time>
</trkpt>
<trkpt lat="37.961167" lon="-1.052495">
 <ele>260.860000</ele>
<time>2009-12-30T10:15:54Z</time>
</trkpt>
<trkpt lat="37.961150" lon="-1.052501">
 <ele>263.380000</ele>
<time>2009-12-30T10:15:57Z</time>
</trkpt>
<trkpt lat="37.961148" lon="-1.052493">
 <ele>264.100000</ele>
<time>2009-12-30T10:15:58Z</time>
</trkpt>
<trkpt lat="37.961160" lon="-1.052503">
 <ele>263.480000</ele>
<time>2009-12-30T10:15:59Z</time>
</trkpt>
<trkpt lat="37.961151" lon="-1.052512">
 <ele>264.440000</ele>
<time>2009-12-30T10:16:00Z</time>
</trkpt>
<trkpt lat="37.961153" lon="-1.052510">
 <ele>263.080000</ele>
<time>2009-12-30T10:16:01Z</time>
</trkpt>
<trkpt lat="37.961153" lon="-1.052510">
 <ele>263.400000</ele>
<time>2009-12-30T10:16:02Z</time>
</trkpt>
<trkpt lat="37.961157" lon="-1.052518">
 <ele>262.800000</ele>
<time>2009-12-30T10:16:03Z</time>
</trkpt>
<trkpt lat="37.961176" lon="-1.052636">
 <ele>261.320000</ele>
<time>2009-12-30T10:16:12Z</time>
</trkpt>
<trkpt lat="37.961180" lon="-1.052633">
 <ele>260.880000</ele>
<time>2009-12-30T10:16:13Z</time>
</trkpt>
<trkpt lat="37.961188" lon="-1.052640">
 <ele>260.600000</ele>
<time>2009-12-30T10:16:14Z</time>
</trkpt>
<trkpt lat="37.961184" lon="-1.052630">
 <ele>261.480000</ele>
<time>2009-12-30T10:16:15Z</time>
</trkpt>
<trkpt lat="37.961185" lon="-1.052646">
 <ele>260.160000</ele>
<time>2009-12-30T10:16:16Z</time>
</trkpt>
<trkpt lat="37.961156" lon="-1.052707">
 <ele>262.520000</ele>
<time>2009-12-30T10:16:21Z</time>
</trkpt>
<trkpt lat="37.961151" lon="-1.052722">
 <ele>262.140000</ele>
<time>2009-12-30T10:16:22Z</time>
</trkpt>
<trkpt lat="37.961093" lon="-1.052754">
 <ele>258.260000</ele>
<time>2009-12-30T10:16:28Z</time>
</trkpt>
<trkpt lat="37.961067" lon="-1.052726">
 <ele>258.280000</ele>
<time>2009-12-30T10:16:33Z</time>
</trkpt>
<trkpt lat="37.961059" lon="-1.052714">
 <ele>255.460000</ele>
<time>2009-12-30T10:16:35Z</time>
</trkpt>
<trkpt lat="37.961049" lon="-1.052698">
 <ele>254.740000</ele>
<time>2009-12-30T10:16:37Z</time>
</trkpt>
<trkpt lat="37.961038" lon="-1.052653">
 <ele>254.200000</ele>
<time>2009-12-30T10:16:41Z</time>
</trkpt>
<trkpt lat="37.961019" lon="-1.052644">
 <ele>252.360000</ele>
<time>2009-12-30T10:16:44Z</time>
</trkpt>
<trkpt lat="37.961000" lon="-1.052647">
 <ele>250.940000</ele>
<time>2009-12-30T10:16:45Z</time>
</trkpt>
<trkpt lat="37.960889" lon="-1.052617">
 <ele>255.560000</ele>
<time>2009-12-30T10:16:52Z</time>
</trkpt>
<trkpt lat="37.960763" lon="-1.052600">
 <ele>248.000000</ele>
<time>2009-12-30T10:17:05Z</time>
</trkpt>
<trkpt lat="37.960724" lon="-1.052634">
 <ele>246.100000</ele>
<time>2009-12-30T10:17:09Z</time>
</trkpt>
<trkpt lat="37.960724" lon="-1.052636">
 <ele>245.980000</ele>
<time>2009-12-30T10:17:10Z</time>
</trkpt>
<trkpt lat="37.960724" lon="-1.052633">
 <ele>245.320000</ele>
<time>2009-12-30T10:17:11Z</time>
</trkpt>
<trkpt lat="37.960726" lon="-1.052624">
 <ele>246.240000</ele>
<time>2009-12-30T10:17:12Z</time>
</trkpt>
<trkpt lat="37.960721" lon="-1.052633">
 <ele>244.640000</ele>
<time>2009-12-30T10:17:13Z</time>
</trkpt>
<trkpt lat="37.960727" lon="-1.052630">
 <ele>243.680000</ele>
<time>2009-12-30T10:17:14Z</time>
</trkpt>
<trkpt lat="37.960744" lon="-1.052612">
 <ele>240.940000</ele>
<time>2009-12-30T10:17:17Z</time>
</trkpt>
<trkpt lat="37.960732" lon="-1.052624">
 <ele>242.480000</ele>
<time>2009-12-30T10:17:19Z</time>
</trkpt>
<trkpt lat="37.960729" lon="-1.052635">
 <ele>242.100000</ele>
<time>2009-12-30T10:17:20Z</time>
</trkpt>
<trkpt lat="37.960728" lon="-1.052628">
 <ele>242.300000</ele>
<time>2009-12-30T10:17:21Z</time>
</trkpt>
<trkpt lat="37.960730" lon="-1.052632">
 <ele>242.240000</ele>
<time>2009-12-30T10:17:22Z</time>
</trkpt>
<trkpt lat="37.960730" lon="-1.052632">
 <ele>242.480000</ele>
<time>2009-12-30T10:17:23Z</time>
</trkpt>
<trkpt lat="37.960730" lon="-1.052632">
 <ele>242.400000</ele>
<time>2009-12-30T10:17:25Z</time>
</trkpt>
<trkpt lat="37.960730" lon="-1.052632">
 <ele>242.400000</ele>
<time>2009-12-30T10:17:26Z</time>
</trkpt>
<trkpt lat="37.960730" lon="-1.052632">
 <ele>242.400000</ele>
<time>2009-12-30T10:17:27Z</time>
</trkpt>
<trkpt lat="37.960730" lon="-1.052632">
 <ele>242.400000</ele>
<time>2009-12-30T10:17:28Z</time>
</trkpt>
<trkpt lat="37.960730" lon="-1.052632">
 <ele>242.400000</ele>
<time>2009-12-30T10:17:29Z</time>
</trkpt>
<trkpt lat="37.960730" lon="-1.052632">
 <ele>242.400000</ele>
<time>2009-12-30T10:17:30Z</time>
</trkpt>
<trkpt lat="37.960730" lon="-1.052632">
 <ele>242.400000</ele>
<time>2009-12-30T10:17:31Z</time>
</trkpt>
<trkpt lat="37.960730" lon="-1.052632">
 <ele>242.400000</ele>
<time>2009-12-30T10:17:32Z</time>
</trkpt>
<trkpt lat="37.960730" lon="-1.052632">
 <ele>242.400000</ele>
<time>2009-12-30T10:17:33Z</time>
</trkpt>
<trkpt lat="37.960730" lon="-1.052632">
 <ele>242.400000</ele>
<time>2009-12-30T10:17:34Z</time>
</trkpt>
<trkpt lat="37.960730" lon="-1.052632">
 <ele>242.400000</ele>
<time>2009-12-30T10:17:35Z</time>
</trkpt>
<trkpt lat="37.960730" lon="-1.052632">
 <ele>242.400000</ele>
<time>2009-12-30T10:17:36Z</time>
</trkpt>
<trkpt lat="37.960730" lon="-1.052632">
 <ele>242.400000</ele>
<time>2009-12-30T10:17:37Z</time>
</trkpt>
<trkpt lat="37.960730" lon="-1.052632">
 <ele>242.400000</ele>
<time>2009-12-30T10:17:38Z</time>
</trkpt>
<trkpt lat="37.960730" lon="-1.052632">
 <ele>242.400000</ele>
<time>2009-12-30T10:17:39Z</time>
</trkpt>
<trkpt lat="37.960730" lon="-1.052632">
 <ele>242.400000</ele>
<time>2009-12-30T10:17:40Z</time>
</trkpt>
<trkpt lat="37.960730" lon="-1.052632">
 <ele>242.400000</ele>
<time>2009-12-30T10:17:41Z</time>
</trkpt>
<trkpt lat="37.960730" lon="-1.052632">
 <ele>242.400000</ele>
<time>2009-12-30T10:17:42Z</time>
</trkpt>
<trkpt lat="37.960730" lon="-1.052632">
 <ele>242.400000</ele>
<time>2009-12-30T10:17:43Z</time>
</trkpt>
<trkpt lat="37.960728" lon="-1.052625">
 <ele>244.360000</ele>
<time>2009-12-30T10:17:44Z</time>
</trkpt>
<trkpt lat="37.960718" lon="-1.052588">
 <ele>241.960000</ele>
<time>2009-12-30T10:17:47Z</time>
</trkpt>
<trkpt lat="37.960719" lon="-1.052606">
 <ele>249.240000</ele>
<time>2009-12-30T10:17:48Z</time>
</trkpt>
<trkpt lat="37.960731" lon="-1.052607">
 <ele>245.960000</ele>
<time>2009-12-30T10:17:49Z</time>
</trkpt>
<trkpt lat="37.960724" lon="-1.052603">
 <ele>245.380000</ele>
<time>2009-12-30T10:17:50Z</time>
</trkpt>
<trkpt lat="37.960725" lon="-1.052602">
 <ele>245.300000</ele>
<time>2009-12-30T10:17:51Z</time>
</trkpt>
<trkpt lat="37.960725" lon="-1.052602">
 <ele>245.700000</ele>
<time>2009-12-30T10:17:52Z</time>
</trkpt>
<trkpt lat="37.960706" lon="-1.052574">
 <ele>246.020000</ele>
<time>2009-12-30T10:18:32Z</time>
</trkpt>
<trkpt lat="37.960683" lon="-1.052541">
 <ele>246.300000</ele>
<time>2009-12-30T10:18:34Z</time>
</trkpt>
<trkpt lat="37.960633" lon="-1.052396">
 <ele>247.340000</ele>
<time>2009-12-30T10:18:39Z</time>
</trkpt>
<trkpt lat="37.960632" lon="-1.052417">
 <ele>247.880000</ele>
<time>2009-12-30T10:18:40Z</time>
</trkpt>
<trkpt lat="37.960627" lon="-1.052410">
 <ele>247.000000</ele>
<time>2009-12-30T10:18:41Z</time>
</trkpt>
<trkpt lat="37.960624" lon="-1.052415">
 <ele>248.040000</ele>
<time>2009-12-30T10:18:42Z</time>
</trkpt>
<trkpt lat="37.960628" lon="-1.052407">
 <ele>247.400000</ele>
<time>2009-12-30T10:18:43Z</time>
</trkpt>
<trkpt lat="37.960628" lon="-1.052407">
 <ele>247.400000</ele>
<time>2009-12-30T10:18:44Z</time>
</trkpt>
<trkpt lat="37.960627" lon="-1.052368">
 <ele>247.480000</ele>
<time>2009-12-30T10:19:24Z</time>
</trkpt>
<trkpt lat="37.960631" lon="-1.052275">
 <ele>247.000000</ele>
<time>2009-12-30T10:19:26Z</time>
</trkpt>
<trkpt lat="37.960647" lon="-1.052199">
 <ele>245.900000</ele>
<time>2009-12-30T10:19:29Z</time>
</trkpt>
<trkpt lat="37.960627" lon="-1.052208">
 <ele>245.620000</ele>
<time>2009-12-30T10:19:30Z</time>
</trkpt>
<trkpt lat="37.960641" lon="-1.052209">
 <ele>245.680000</ele>
<time>2009-12-30T10:19:31Z</time>
</trkpt>
<trkpt lat="37.960641" lon="-1.052202">
 <ele>246.140000</ele>
<time>2009-12-30T10:19:32Z</time>
</trkpt>
<trkpt lat="37.960642" lon="-1.052203">
 <ele>245.500000</ele>
<time>2009-12-30T10:19:33Z</time>
</trkpt>
<trkpt lat="37.960642" lon="-1.052203">
 <ele>245.900000</ele>
<time>2009-12-30T10:19:34Z</time>
</trkpt>
<trkpt lat="37.960653" lon="-1.052179">
 <ele>245.700000</ele>
<time>2009-12-30T10:19:55Z</time>
</trkpt>
<trkpt lat="37.960697" lon="-1.052086">
 <ele>245.460000</ele>
<time>2009-12-30T10:19:59Z</time>
</trkpt>
<trkpt lat="37.960704" lon="-1.052082">
 <ele>247.080000</ele>
<time>2009-12-30T10:20:00Z</time>
</trkpt>
<trkpt lat="37.960700" lon="-1.052086">
 <ele>246.920000</ele>
<time>2009-12-30T10:20:01Z</time>
</trkpt>
<trkpt lat="37.960697" lon="-1.052083">
 <ele>246.280000</ele>
<time>2009-12-30T10:20:02Z</time>
</trkpt>
<trkpt lat="37.960700" lon="-1.052080">
 <ele>246.920000</ele>
<time>2009-12-30T10:20:03Z</time>
</trkpt>
<trkpt lat="37.960700" lon="-1.052080">
 <ele>246.600000</ele>
<time>2009-12-30T10:20:04Z</time>
</trkpt>
<trkpt lat="37.960705" lon="-1.052063">
 <ele>252.640000</ele>
<time>2009-12-30T10:20:44Z</time>
</trkpt>
<trkpt lat="37.960728" lon="-1.052018">
 <ele>252.300000</ele>
<time>2009-12-30T10:20:47Z</time>
</trkpt>
<trkpt lat="37.960712" lon="-1.051993">
 <ele>276.560000</ele>
<time>2009-12-30T10:20:48Z</time>
</trkpt>
<trkpt lat="37.960718" lon="-1.051989">
 <ele>263.880000</ele>
<time>2009-12-30T10:20:49Z</time>
</trkpt>
<trkpt lat="37.960717" lon="-1.051997">
 <ele>265.000000</ele>
<time>2009-12-30T10:20:50Z</time>
</trkpt>
<trkpt lat="37.960718" lon="-1.051993">
 <ele>264.520000</ele>
<time>2009-12-30T10:20:51Z</time>
</trkpt>
<trkpt lat="37.960718" lon="-1.051993">
 <ele>264.200000</ele>
<time>2009-12-30T10:20:52Z</time>
</trkpt>
<trkpt lat="37.960721" lon="-1.051979">
 <ele>265.600000</ele>
<time>2009-12-30T10:20:57Z</time>
</trkpt>
<trkpt lat="37.960733" lon="-1.051898">
 <ele>268.400000</ele>
<time>2009-12-30T10:21:03Z</time>
</trkpt>
<trkpt lat="37.960740" lon="-1.051901">
 <ele>268.400000</ele>
<time>2009-12-30T10:21:04Z</time>
</trkpt>
<trkpt lat="37.960731" lon="-1.051896">
 <ele>268.780000</ele>
<time>2009-12-30T10:21:05Z</time>
</trkpt>
<trkpt lat="37.960731" lon="-1.051895">
 <ele>268.420000</ele>
<time>2009-12-30T10:21:06Z</time>
</trkpt>
<trkpt lat="37.960733" lon="-1.051893">
 <ele>268.660000</ele>
<time>2009-12-30T10:21:07Z</time>
</trkpt>
<trkpt lat="37.960733" lon="-1.051893">
 <ele>268.500000</ele>
<time>2009-12-30T10:21:08Z</time>
</trkpt>
<trkpt lat="37.960727" lon="-1.051883">
 <ele>270.460000</ele>
<time>2009-12-30T10:21:52Z</time>
</trkpt>
<trkpt lat="37.960705" lon="-1.051837">
 <ele>272.100000</ele>
<time>2009-12-30T10:21:55Z</time>
</trkpt>
<trkpt lat="37.960696" lon="-1.051853">
 <ele>280.760000</ele>
<time>2009-12-30T10:21:56Z</time>
</trkpt>
<trkpt lat="37.960700" lon="-1.051852">
 <ele>279.000000</ele>
<time>2009-12-30T10:21:57Z</time>
</trkpt>
<trkpt lat="37.960674" lon="-1.051847">
 <ele>275.700000</ele>
<time>2009-12-30T10:21:58Z</time>
</trkpt>
<trkpt lat="37.960665" lon="-1.051823">
 <ele>274.920000</ele>
<time>2009-12-30T10:22:00Z</time>
</trkpt>
<trkpt lat="37.960680" lon="-1.051833">
 <ele>276.680000</ele>
<time>2009-12-30T10:22:01Z</time>
</trkpt>
<trkpt lat="37.960684" lon="-1.051830">
 <ele>275.000000</ele>
<time>2009-12-30T10:22:02Z</time>
</trkpt>
<trkpt lat="37.960687" lon="-1.051828">
 <ele>275.700000</ele>
<time>2009-12-30T10:22:03Z</time>
</trkpt>
<trkpt lat="37.960683" lon="-1.051823">
 <ele>275.300000</ele>
<time>2009-12-30T10:22:04Z</time>
</trkpt>
<trkpt lat="37.960683" lon="-1.051823">
 <ele>275.700000</ele>
<time>2009-12-30T10:22:05Z</time>
</trkpt>
<trkpt lat="37.960687" lon="-1.051808">
 <ele>274.100000</ele>
<time>2009-12-30T10:22:17Z</time>
</trkpt>
<trkpt lat="37.960720" lon="-1.051755">
 <ele>275.700000</ele>
<time>2009-12-30T10:22:20Z</time>
</trkpt>
<trkpt lat="37.960701" lon="-1.051732">
 <ele>274.160000</ele>
<time>2009-12-30T10:22:23Z</time>
</trkpt>
<trkpt lat="37.960681" lon="-1.051742">
 <ele>274.940000</ele>
<time>2009-12-30T10:22:24Z</time>
</trkpt>
<trkpt lat="37.960694" lon="-1.051738">
 <ele>274.800000</ele>
<time>2009-12-30T10:22:25Z</time>
</trkpt>
<trkpt lat="37.960697" lon="-1.051743">
 <ele>274.580000</ele>
<time>2009-12-30T10:22:26Z</time>
</trkpt>
<trkpt lat="37.960692" lon="-1.051738">
 <ele>274.900000</ele>
<time>2009-12-30T10:22:27Z</time>
</trkpt>
<trkpt lat="37.960692" lon="-1.051738">
 <ele>274.500000</ele>
<time>2009-12-30T10:22:28Z</time>
</trkpt>
<trkpt lat="37.960692" lon="-1.051738">
 <ele>274.500000</ele>
<time>2009-12-30T10:22:29Z</time>
</trkpt>
<trkpt lat="37.960692" lon="-1.051738">
 <ele>274.500000</ele>
<time>2009-12-30T10:22:30Z</time>
</trkpt>
<trkpt lat="37.960692" lon="-1.051738">
 <ele>274.500000</ele>
<time>2009-12-30T10:22:31Z</time>
</trkpt>
<trkpt lat="37.960692" lon="-1.051738">
 <ele>274.500000</ele>
<time>2009-12-30T10:22:32Z</time>
</trkpt>
<trkpt lat="37.960628" lon="-1.051751">
 <ele>292.380000</ele>
<time>2009-12-30T10:22:34Z</time>
</trkpt>
<trkpt lat="37.960521" lon="-1.051790">
 <ele>297.020000</ele>
<time>2009-12-30T10:22:38Z</time>
</trkpt>
<trkpt lat="37.960515" lon="-1.051791">
 <ele>297.180000</ele>
<time>2009-12-30T10:22:39Z</time>
</trkpt>
<trkpt lat="37.960527" lon="-1.051789">
 <ele>295.640000</ele>
<time>2009-12-30T10:22:40Z</time>
</trkpt>
<trkpt lat="37.960538" lon="-1.051783">
 <ele>296.060000</ele>
<time>2009-12-30T10:22:41Z</time>
</trkpt>
<trkpt lat="37.960539" lon="-1.051780">
 <ele>295.760000</ele>
<time>2009-12-30T10:22:42Z</time>
</trkpt>
<trkpt lat="37.960531" lon="-1.051778">
 <ele>295.680000</ele>
<time>2009-12-30T10:22:43Z</time>
</trkpt>
<trkpt lat="37.960537" lon="-1.051780">
 <ele>295.280000</ele>
<time>2009-12-30T10:22:44Z</time>
</trkpt>
<trkpt lat="37.960537" lon="-1.051780">
 <ele>295.600000</ele>
<time>2009-12-30T10:22:45Z</time>
</trkpt>
<trkpt lat="37.960559" lon="-1.051762">
 <ele>292.040000</ele>
<time>2009-12-30T10:23:24Z</time>
</trkpt>
<trkpt lat="37.960609" lon="-1.051727">
 <ele>280.820000</ele>
<time>2009-12-30T10:23:26Z</time>
</trkpt>
<trkpt lat="37.960633" lon="-1.051710">
 <ele>292.640000</ele>
<time>2009-12-30T10:23:27Z</time>
</trkpt>
<trkpt lat="37.960632" lon="-1.051683">
 <ele>278.620000</ele>
<time>2009-12-30T10:23:28Z</time>
</trkpt>
<trkpt lat="37.960638" lon="-1.051684">
 <ele>284.660000</ele>
<time>2009-12-30T10:23:29Z</time>
</trkpt>
<trkpt lat="37.960637" lon="-1.051686">
 <ele>285.880000</ele>
<time>2009-12-30T10:23:30Z</time>
</trkpt>
<trkpt lat="37.960637" lon="-1.051685">
 <ele>284.840000</ele>
<time>2009-12-30T10:23:31Z</time>
</trkpt>
<trkpt lat="37.960633" lon="-1.051681">
 <ele>284.440000</ele>
<time>2009-12-30T10:23:38Z</time>
</trkpt>
<trkpt lat="37.960628" lon="-1.051674">
 <ele>285.700000</ele>
<time>2009-12-30T10:23:41Z</time>
</trkpt>
<trkpt lat="37.960602" lon="-1.051691">
 <ele>281.200000</ele>
<time>2009-12-30T10:23:42Z</time>
</trkpt>
<trkpt lat="37.960599" lon="-1.051680">
 <ele>285.260000</ele>
<time>2009-12-30T10:23:43Z</time>
</trkpt>
<trkpt lat="37.960603" lon="-1.051678">
 <ele>282.860000</ele>
<time>2009-12-30T10:23:44Z</time>
</trkpt>
<trkpt lat="37.960600" lon="-1.051682">
 <ele>284.540000</ele>
<time>2009-12-30T10:23:45Z</time>
</trkpt>
<trkpt lat="37.960600" lon="-1.051682">
 <ele>283.900000</ele>
<time>2009-12-30T10:23:46Z</time>
</trkpt>
<trkpt lat="37.960583" lon="-1.051680">
 <ele>285.100000</ele>
<time>2009-12-30T10:24:00Z</time>
</trkpt>
<trkpt lat="37.960557" lon="-1.051663">
 <ele>288.560000</ele>
<time>2009-12-30T10:24:02Z</time>
</trkpt>
<trkpt lat="37.960549" lon="-1.051652">
 <ele>285.860000</ele>
<time>2009-12-30T10:24:05Z</time>
</trkpt>
<trkpt lat="37.960549" lon="-1.051653">
 <ele>283.680000</ele>
<time>2009-12-30T10:24:06Z</time>
</trkpt>
<trkpt lat="37.960546" lon="-1.051650">
 <ele>281.840000</ele>
<time>2009-12-30T10:24:07Z</time>
</trkpt>
<trkpt lat="37.960547" lon="-1.051646">
 <ele>282.980000</ele>
<time>2009-12-30T10:24:08Z</time>
</trkpt>
<trkpt lat="37.960551" lon="-1.051646">
 <ele>281.600000</ele>
<time>2009-12-30T10:24:09Z</time>
</trkpt>
<trkpt lat="37.960574" lon="-1.051616">
 <ele>281.440000</ele>
<time>2009-12-30T10:24:13Z</time>
</trkpt>
<trkpt lat="37.960580" lon="-1.051613">
 <ele>280.340000</ele>
<time>2009-12-30T10:24:14Z</time>
</trkpt>
<trkpt lat="37.960569" lon="-1.051611">
 <ele>283.900000</ele>
<time>2009-12-30T10:24:15Z</time>
</trkpt>
<trkpt lat="37.960564" lon="-1.051611">
 <ele>281.660000</ele>
<time>2009-12-30T10:24:16Z</time>
</trkpt>
<trkpt lat="37.960565" lon="-1.051620">
 <ele>281.980000</ele>
<time>2009-12-30T10:24:17Z</time>
</trkpt>
<trkpt lat="37.960567" lon="-1.051613">
 <ele>282.940000</ele>
<time>2009-12-30T10:24:18Z</time>
</trkpt>
<trkpt lat="37.960567" lon="-1.051613">
 <ele>282.300000</ele>
<time>2009-12-30T10:24:19Z</time>
</trkpt>
<trkpt lat="37.960567" lon="-1.051613">
 <ele>282.300000</ele>
<time>2009-12-30T10:24:20Z</time>
</trkpt>
<trkpt lat="37.960567" lon="-1.051613">
 <ele>282.300000</ele>
<time>2009-12-30T10:24:21Z</time>
</trkpt>
<trkpt lat="37.960567" lon="-1.051613">
 <ele>282.300000</ele>
<time>2009-12-30T10:24:22Z</time>
</trkpt>
<trkpt lat="37.960567" lon="-1.051613">
 <ele>282.300000</ele>
<time>2009-12-30T10:24:23Z</time>
</trkpt>
<trkpt lat="37.960567" lon="-1.051613">
 <ele>282.300000</ele>
<time>2009-12-30T10:24:24Z</time>
</trkpt>
<trkpt lat="37.960567" lon="-1.051613">
 <ele>282.300000</ele>
<time>2009-12-30T10:24:25Z</time>
</trkpt>
<trkpt lat="37.960567" lon="-1.051613">
 <ele>282.300000</ele>
<time>2009-12-30T10:24:26Z</time>
</trkpt>
<trkpt lat="37.960567" lon="-1.051613">
 <ele>282.300000</ele>
<time>2009-12-30T10:24:27Z</time>
</trkpt>
<trkpt lat="37.960567" lon="-1.051613">
 <ele>282.300000</ele>
<time>2009-12-30T10:24:28Z</time>
</trkpt>
<trkpt lat="37.960567" lon="-1.051613">
 <ele>282.300000</ele>
<time>2009-12-30T10:24:29Z</time>
</trkpt>
<trkpt lat="37.960567" lon="-1.051613">
 <ele>282.300000</ele>
<time>2009-12-30T10:24:30Z</time>
</trkpt>
<trkpt lat="37.960567" lon="-1.051613">
 <ele>282.300000</ele>
<time>2009-12-30T10:24:31Z</time>
</trkpt>
<trkpt lat="37.960567" lon="-1.051613">
 <ele>282.300000</ele>
<time>2009-12-30T10:24:32Z</time>
</trkpt>
<trkpt lat="37.960567" lon="-1.051613">
 <ele>282.300000</ele>
<time>2009-12-30T10:24:33Z</time>
</trkpt>
<trkpt lat="37.960567" lon="-1.051613">
 <ele>282.300000</ele>
<time>2009-12-30T10:24:34Z</time>
</trkpt>
<trkpt lat="37.960567" lon="-1.051613">
 <ele>282.300000</ele>
<time>2009-12-30T10:24:35Z</time>
</trkpt>
<trkpt lat="37.960524" lon="-1.051582">
 <ele>287.600000</ele>
<time>2009-12-30T10:24:37Z</time>
</trkpt>
<trkpt lat="37.960458" lon="-1.051539">
 <ele>292.480000</ele>
<time>2009-12-30T10:24:40Z</time>
</trkpt>
<trkpt lat="37.960466" lon="-1.051540">
 <ele>291.560000</ele>
<time>2009-12-30T10:24:41Z</time>
</trkpt>
<trkpt lat="37.960456" lon="-1.051544">
 <ele>290.260000</ele>
<time>2009-12-30T10:24:42Z</time>
</trkpt>
<trkpt lat="37.960456" lon="-1.051542">
 <ele>289.800000</ele>
<time>2009-12-30T10:24:43Z</time>
</trkpt>
<trkpt lat="37.960453" lon="-1.051538">
 <ele>291.240000</ele>
<time>2009-12-30T10:24:44Z</time>
</trkpt>
<trkpt lat="37.960453" lon="-1.051538">
 <ele>290.200000</ele>
<time>2009-12-30T10:24:45Z</time>
</trkpt>
<trkpt lat="37.960446" lon="-1.051527">
 <ele>293.120000</ele>
<time>2009-12-30T10:24:56Z</time>
</trkpt>
<trkpt lat="37.960407" lon="-1.051476">
 <ele>292.260000</ele>
<time>2009-12-30T10:24:59Z</time>
</trkpt>
<trkpt lat="37.960402" lon="-1.051453">
 <ele>300.740000</ele>
<time>2009-12-30T10:25:03Z</time>
</trkpt>
<trkpt lat="37.960395" lon="-1.051421">
 <ele>301.380000</ele>
<time>2009-12-30T10:25:05Z</time>
</trkpt>
<trkpt lat="37.960376" lon="-1.051369">
 <ele>302.140000</ele>
<time>2009-12-30T10:25:11Z</time>
</trkpt>
<trkpt lat="37.960369" lon="-1.051356">
 <ele>297.700000</ele>
<time>2009-12-30T10:25:12Z</time>
</trkpt>
<trkpt lat="37.960368" lon="-1.051359">
 <ele>300.220000</ele>
<time>2009-12-30T10:25:13Z</time>
</trkpt>
<trkpt lat="37.960369" lon="-1.051360">
 <ele>299.340000</ele>
<time>2009-12-30T10:25:14Z</time>
</trkpt>
<trkpt lat="37.960366" lon="-1.051367">
 <ele>299.260000</ele>
<time>2009-12-30T10:25:15Z</time>
</trkpt>
<trkpt lat="37.960378" lon="-1.051359">
 <ele>299.080000</ele>
<time>2009-12-30T10:25:16Z</time>
</trkpt>
<trkpt lat="37.960370" lon="-1.051358">
 <ele>299.320000</ele>
<time>2009-12-30T10:25:17Z</time>
</trkpt>
<trkpt lat="37.960370" lon="-1.051358">
 <ele>299.400000</ele>
<time>2009-12-30T10:25:18Z</time>
</trkpt>
<trkpt lat="37.960365" lon="-1.051355">
 <ele>297.440000</ele>
<time>2009-12-30T10:25:26Z</time>
</trkpt>
<trkpt lat="37.960362" lon="-1.051309">
 <ele>290.280000</ele>
<time>2009-12-30T10:25:30Z</time>
</trkpt>
<trkpt lat="37.960348" lon="-1.051287">
 <ele>294.000000</ele>
<time>2009-12-30T10:25:32Z</time>
</trkpt>
<trkpt lat="37.960367" lon="-1.051263">
 <ele>293.540000</ele>
<time>2009-12-30T10:25:35Z</time>
</trkpt>
<trkpt lat="37.960361" lon="-1.051237">
 <ele>293.540000</ele>
<time>2009-12-30T10:25:36Z</time>
</trkpt>
<trkpt lat="37.960334" lon="-1.051219">
 <ele>292.920000</ele>
<time>2009-12-30T10:25:40Z</time>
</trkpt>
<trkpt lat="37.960321" lon="-1.051216">
 <ele>293.760000</ele>
<time>2009-12-30T10:25:42Z</time>
</trkpt>
<trkpt lat="37.960332" lon="-1.051219">
 <ele>295.160000</ele>
<time>2009-12-30T10:25:43Z</time>
</trkpt>
<trkpt lat="37.960329" lon="-1.051221">
 <ele>294.080000</ele>
<time>2009-12-30T10:25:44Z</time>
</trkpt>
<trkpt lat="37.960330" lon="-1.051224">
 <ele>294.660000</ele>
<time>2009-12-30T10:25:45Z</time>
</trkpt>
<trkpt lat="37.960325" lon="-1.051223">
 <ele>294.900000</ele>
<time>2009-12-30T10:25:46Z</time>
</trkpt>
<trkpt lat="37.960325" lon="-1.051223">
 <ele>294.500000</ele>
<time>2009-12-30T10:25:47Z</time>
</trkpt>
<trkpt lat="37.960326" lon="-1.051225">
 <ele>295.220000</ele>
<time>2009-12-30T10:25:55Z</time>
</trkpt>
<trkpt lat="37.960323" lon="-1.051225">
 <ele>295.700000</ele>
<time>2009-12-30T10:25:56Z</time>
</trkpt>
<trkpt lat="37.960315" lon="-1.051224">
 <ele>291.280000</ele>
<time>2009-12-30T10:25:58Z</time>
</trkpt>
<trkpt lat="37.960340" lon="-1.051217">
 <ele>295.480000</ele>
<time>2009-12-30T10:25:59Z</time>
</trkpt>
<trkpt lat="37.960344" lon="-1.051221">
 <ele>293.060000</ele>
<time>2009-12-30T10:26:00Z</time>
</trkpt>
<trkpt lat="37.960329" lon="-1.051220">
 <ele>292.260000</ele>
<time>2009-12-30T10:26:01Z</time>
</trkpt>
<trkpt lat="37.960308" lon="-1.051207">
 <ele>290.700000</ele>
<time>2009-12-30T10:26:05Z</time>
</trkpt>
<trkpt lat="37.960313" lon="-1.051211">
 <ele>290.900000</ele>
<time>2009-12-30T10:26:06Z</time>
</trkpt>
<trkpt lat="37.960307" lon="-1.051206">
 <ele>291.140000</ele>
<time>2009-12-30T10:26:07Z</time>
</trkpt>
<trkpt lat="37.960303" lon="-1.051211">
 <ele>291.300000</ele>
<time>2009-12-30T10:26:08Z</time>
</trkpt>
<trkpt lat="37.960303" lon="-1.051208">
 <ele>291.300000</ele>
<time>2009-12-30T10:26:09Z</time>
</trkpt>
<trkpt lat="37.960255" lon="-1.051197">
 <ele>296.520000</ele>
<time>2009-12-30T10:26:14Z</time>
</trkpt>
<trkpt lat="37.960247" lon="-1.051204">
 <ele>292.360000</ele>
<time>2009-12-30T10:26:16Z</time>
</trkpt>
<trkpt lat="37.960220" lon="-1.051200">
 <ele>292.160000</ele>
<time>2009-12-30T10:26:19Z</time>
</trkpt>
<trkpt lat="37.960226" lon="-1.051225">
 <ele>293.220000</ele>
<time>2009-12-30T10:26:21Z</time>
</trkpt>
<trkpt lat="37.960239" lon="-1.051217">
 <ele>293.100000</ele>
<time>2009-12-30T10:26:22Z</time>
</trkpt>
<trkpt lat="37.960231" lon="-1.051212">
 <ele>294.280000</ele>
<time>2009-12-30T10:26:23Z</time>
</trkpt>
<trkpt lat="37.960217" lon="-1.051222">
 <ele>293.200000</ele>
<time>2009-12-30T10:26:24Z</time>
</trkpt>
<trkpt lat="37.960225" lon="-1.051222">
 <ele>294.080000</ele>
<time>2009-12-30T10:26:25Z</time>
</trkpt>
<trkpt lat="37.960225" lon="-1.051222">
 <ele>293.600000</ele>
<time>2009-12-30T10:26:26Z</time>
</trkpt>
<trkpt lat="37.960223" lon="-1.051227">
 <ele>292.880000</ele>
<time>2009-12-30T10:26:48Z</time>
</trkpt>
<trkpt lat="37.960208" lon="-1.051242">
 <ele>293.180000</ele>
<time>2009-12-30T10:26:51Z</time>
</trkpt>
<trkpt lat="37.960227" lon="-1.051232">
 <ele>290.300000</ele>
<time>2009-12-30T10:26:52Z</time>
</trkpt>
<trkpt lat="37.960210" lon="-1.051236">
 <ele>292.980000</ele>
<time>2009-12-30T10:26:53Z</time>
</trkpt>
<trkpt lat="37.960166" lon="-1.051236">
 <ele>296.900000</ele>
<time>2009-12-30T10:26:57Z</time>
</trkpt>
<trkpt lat="37.960152" lon="-1.051232">
 <ele>293.840000</ele>
<time>2009-12-30T10:26:58Z</time>
</trkpt>
<trkpt lat="37.960065" lon="-1.051241">
 <ele>293.440000</ele>
<time>2009-12-30T10:27:06Z</time>
</trkpt>
<trkpt lat="37.960036" lon="-1.051268">
 <ele>293.800000</ele>
<time>2009-12-30T10:27:09Z</time>
</trkpt>
<trkpt lat="37.960003" lon="-1.051268">
 <ele>293.620000</ele>
<time>2009-12-30T10:27:11Z</time>
</trkpt>
<trkpt lat="37.959961" lon="-1.051266">
 <ele>290.360000</ele>
<time>2009-12-30T10:27:17Z</time>
</trkpt>
<trkpt lat="37.959944" lon="-1.051263">
 <ele>290.620000</ele>
<time>2009-12-30T10:27:18Z</time>
</trkpt>
<trkpt lat="37.959946" lon="-1.051257">
 <ele>291.240000</ele>
<time>2009-12-30T10:27:19Z</time>
</trkpt>
<trkpt lat="37.959933" lon="-1.051254">
 <ele>290.620000</ele>
<time>2009-12-30T10:27:20Z</time>
</trkpt>
<trkpt lat="37.959879" lon="-1.051240">
 <ele>292.980000</ele>
<time>2009-12-30T10:27:27Z</time>
</trkpt>
<trkpt lat="37.959863" lon="-1.051241">
 <ele>292.800000</ele>
<time>2009-12-30T10:27:28Z</time>
</trkpt>
<trkpt lat="37.959845" lon="-1.051250">
 <ele>292.680000</ele>
<time>2009-12-30T10:27:33Z</time>
</trkpt>
<trkpt lat="37.959844" lon="-1.051253">
 <ele>293.260000</ele>
<time>2009-12-30T10:27:34Z</time>
</trkpt>
<trkpt lat="37.959824" lon="-1.051260">
 <ele>293.100000</ele>
<time>2009-12-30T10:27:37Z</time>
</trkpt>
<trkpt lat="37.959770" lon="-1.051270">
 <ele>293.520000</ele>
<time>2009-12-30T10:27:41Z</time>
</trkpt>
<trkpt lat="37.959720" lon="-1.051282">
 <ele>292.260000</ele>
<time>2009-12-30T10:27:44Z</time>
</trkpt>
<trkpt lat="37.959682" lon="-1.051300">
 <ele>289.720000</ele>
<time>2009-12-30T10:27:47Z</time>
</trkpt>
<trkpt lat="37.959669" lon="-1.051306">
 <ele>289.180000</ele>
<time>2009-12-30T10:27:49Z</time>
</trkpt>
<trkpt lat="37.959672" lon="-1.051306">
 <ele>289.560000</ele>
<time>2009-12-30T10:27:50Z</time>
</trkpt>
<trkpt lat="37.959673" lon="-1.051310">
 <ele>289.440000</ele>
<time>2009-12-30T10:27:51Z</time>
</trkpt>
<trkpt lat="37.959664" lon="-1.051316">
 <ele>289.580000</ele>
<time>2009-12-30T10:27:52Z</time>
</trkpt>
<trkpt lat="37.959679" lon="-1.051378">
 <ele>293.340000</ele>
<time>2009-12-30T10:27:55Z</time>
</trkpt>
<trkpt lat="37.959647" lon="-1.051438">
 <ele>297.620000</ele>
<time>2009-12-30T10:28:00Z</time>
</trkpt>
<trkpt lat="37.959617" lon="-1.051476">
 <ele>299.720000</ele>
<time>2009-12-30T10:28:04Z</time>
</trkpt>
<trkpt lat="37.959614" lon="-1.051489">
 <ele>301.440000</ele>
<time>2009-12-30T10:28:05Z</time>
</trkpt>
<trkpt lat="37.959548" lon="-1.051552">
 <ele>303.020000</ele>
<time>2009-12-30T10:28:09Z</time>
</trkpt>
<trkpt lat="37.959486" lon="-1.051595">
 <ele>300.380000</ele>
<time>2009-12-30T10:28:13Z</time>
</trkpt>
<trkpt lat="37.959480" lon="-1.051585">
 <ele>298.920000</ele>
<time>2009-12-30T10:28:15Z</time>
</trkpt>
<trkpt lat="37.959487" lon="-1.051588">
 <ele>299.480000</ele>
<time>2009-12-30T10:28:16Z</time>
</trkpt>
<trkpt lat="37.959466" lon="-1.051603">
 <ele>300.460000</ele>
<time>2009-12-30T10:28:17Z</time>
</trkpt>
<trkpt lat="37.959410" lon="-1.051644">
 <ele>303.300000</ele>
<time>2009-12-30T10:28:22Z</time>
</trkpt>
<trkpt lat="37.959395" lon="-1.051664">
 <ele>302.320000</ele>
<time>2009-12-30T10:28:24Z</time>
</trkpt>
<trkpt lat="37.959397" lon="-1.051673">
 <ele>300.760000</ele>
<time>2009-12-30T10:28:25Z</time>
</trkpt>
<trkpt lat="37.959390" lon="-1.051690">
 <ele>302.140000</ele>
<time>2009-12-30T10:28:26Z</time>
</trkpt>
<trkpt lat="37.959389" lon="-1.051677">
 <ele>300.080000</ele>
<time>2009-12-30T10:28:27Z</time>
</trkpt>
<trkpt lat="37.959379" lon="-1.051687">
 <ele>298.860000</ele>
<time>2009-12-30T10:28:29Z</time>
</trkpt>
<trkpt lat="37.959362" lon="-1.051696">
 <ele>299.860000</ele>
<time>2009-12-30T10:28:31Z</time>
</trkpt>
<trkpt lat="37.959385" lon="-1.051697">
 <ele>298.720000</ele>
<time>2009-12-30T10:28:32Z</time>
</trkpt>
<trkpt lat="37.959379" lon="-1.051700">
 <ele>298.660000</ele>
<time>2009-12-30T10:28:33Z</time>
</trkpt>
<trkpt lat="37.959367" lon="-1.051696">
 <ele>295.340000</ele>
<time>2009-12-30T10:28:38Z</time>
</trkpt>
<trkpt lat="37.959368" lon="-1.051709">
 <ele>293.040000</ele>
<time>2009-12-30T10:28:39Z</time>
</trkpt>
<trkpt lat="37.959364" lon="-1.051700">
 <ele>293.640000</ele>
<time>2009-12-30T10:28:40Z</time>
</trkpt>
<trkpt lat="37.959369" lon="-1.051703">
 <ele>293.940000</ele>
<time>2009-12-30T10:28:41Z</time>
</trkpt>
<trkpt lat="37.959365" lon="-1.051700">
 <ele>293.060000</ele>
<time>2009-12-30T10:28:42Z</time>
</trkpt>
<trkpt lat="37.959365" lon="-1.051700">
 <ele>294.100000</ele>
<time>2009-12-30T10:28:43Z</time>
</trkpt>
<trkpt lat="37.959365" lon="-1.051700">
 <ele>294.100000</ele>
<time>2009-12-30T10:28:44Z</time>
</trkpt>
<trkpt lat="37.959365" lon="-1.051700">
 <ele>294.100000</ele>
<time>2009-12-30T10:28:45Z</time>
</trkpt>
<trkpt lat="37.959365" lon="-1.051700">
 <ele>294.100000</ele>
<time>2009-12-30T10:28:46Z</time>
</trkpt>
<trkpt lat="37.959365" lon="-1.051700">
 <ele>294.100000</ele>
<time>2009-12-30T10:28:47Z</time>
</trkpt>
<trkpt lat="37.959365" lon="-1.051700">
 <ele>294.100000</ele>
<time>2009-12-30T10:28:48Z</time>
</trkpt>
<trkpt lat="37.959365" lon="-1.051700">
 <ele>294.100000</ele>
<time>2009-12-30T10:28:49Z</time>
</trkpt>
<trkpt lat="37.959351" lon="-1.051719">
 <ele>291.720000</ele>
<time>2009-12-30T10:28:51Z</time>
</trkpt>
<trkpt lat="37.959344" lon="-1.051831">
 <ele>297.420000</ele>
<time>2009-12-30T10:28:57Z</time>
</trkpt>
<trkpt lat="37.959325" lon="-1.051918">
 <ele>303.840000</ele>
<time>2009-12-30T10:29:03Z</time>
</trkpt>
<trkpt lat="37.959327" lon="-1.051928">
 <ele>308.320000</ele>
<time>2009-12-30T10:29:05Z</time>
</trkpt>
<trkpt lat="37.959326" lon="-1.051947">
 <ele>306.940000</ele>
<time>2009-12-30T10:29:06Z</time>
</trkpt>
<trkpt lat="37.959312" lon="-1.051960">
 <ele>311.360000</ele>
<time>2009-12-30T10:29:08Z</time>
</trkpt>
<trkpt lat="37.959267" lon="-1.051988">
 <ele>313.500000</ele>
<time>2009-12-30T10:29:13Z</time>
</trkpt>
<trkpt lat="37.959239" lon="-1.051996">
 <ele>312.960000</ele>
<time>2009-12-30T10:29:17Z</time>
</trkpt>
<trkpt lat="37.959176" lon="-1.052034">
 <ele>307.900000</ele>
<time>2009-12-30T10:29:21Z</time>
</trkpt>
<trkpt lat="37.959134" lon="-1.052036">
 <ele>305.100000</ele>
<time>2009-12-30T10:29:23Z</time>
</trkpt>
<trkpt lat="37.959060" lon="-1.052053">
 <ele>299.860000</ele>
<time>2009-12-30T10:29:26Z</time>
</trkpt>
<trkpt lat="37.959054" lon="-1.052084">
 <ele>299.700000</ele>
<time>2009-12-30T10:29:28Z</time>
</trkpt>
<trkpt lat="37.959042" lon="-1.052132">
 <ele>300.560000</ele>
<time>2009-12-30T10:29:31Z</time>
</trkpt>
<trkpt lat="37.958998" lon="-1.052146">
 <ele>300.060000</ele>
<time>2009-12-30T10:29:34Z</time>
</trkpt>
<trkpt lat="37.958981" lon="-1.052197">
 <ele>302.180000</ele>
<time>2009-12-30T10:29:37Z</time>
</trkpt>
<trkpt lat="37.958974" lon="-1.052258">
 <ele>304.020000</ele>
<time>2009-12-30T10:29:43Z</time>
</trkpt>
<trkpt lat="37.958960" lon="-1.052277">
 <ele>302.620000</ele>
<time>2009-12-30T10:29:44Z</time>
</trkpt>
<trkpt lat="37.958951" lon="-1.052368">
 <ele>301.700000</ele>
<time>2009-12-30T10:29:51Z</time>
</trkpt>
<trkpt lat="37.958933" lon="-1.052397">
 <ele>302.960000</ele>
<time>2009-12-30T10:29:53Z</time>
</trkpt>
<trkpt lat="37.958935" lon="-1.052436">
 <ele>303.240000</ele>
<time>2009-12-30T10:29:56Z</time>
</trkpt>
<trkpt lat="37.958922" lon="-1.052465">
 <ele>302.460000</ele>
<time>2009-12-30T10:29:58Z</time>
</trkpt>
<trkpt lat="37.958924" lon="-1.052509">
 <ele>303.980000</ele>
<time>2009-12-30T10:30:01Z</time>
</trkpt>
<trkpt lat="37.958914" lon="-1.052549">
 <ele>305.400000</ele>
<time>2009-12-30T10:30:03Z</time>
</trkpt>
<trkpt lat="37.958855" lon="-1.052631">
 <ele>299.700000</ele>
<time>2009-12-30T10:30:08Z</time>
</trkpt>
<trkpt lat="37.958850" lon="-1.052675">
 <ele>296.780000</ele>
<time>2009-12-30T10:30:10Z</time>
</trkpt>
<trkpt lat="37.958815" lon="-1.052682">
 <ele>296.380000</ele>
<time>2009-12-30T10:30:12Z</time>
</trkpt>
<trkpt lat="37.958810" lon="-1.052720">
 <ele>292.280000</ele>
<time>2009-12-30T10:30:14Z</time>
</trkpt>
<trkpt lat="37.958792" lon="-1.052747">
 <ele>290.140000</ele>
<time>2009-12-30T10:30:16Z</time>
</trkpt>
<trkpt lat="37.958798" lon="-1.052769">
 <ele>287.360000</ele>
<time>2009-12-30T10:30:17Z</time>
</trkpt>
<trkpt lat="37.958774" lon="-1.052797">
 <ele>285.580000</ele>
<time>2009-12-30T10:30:21Z</time>
</trkpt>
<trkpt lat="37.958577" lon="-1.052851">
 <ele>282.740000</ele>
<time>2009-12-30T10:30:38Z</time>
</trkpt>
<trkpt lat="37.958462" lon="-1.052868">
 <ele>281.700000</ele>
<time>2009-12-30T10:30:47Z</time>
</trkpt>
<trkpt lat="37.958441" lon="-1.052870">
 <ele>280.840000</ele>
<time>2009-12-30T10:30:48Z</time>
</trkpt>
<trkpt lat="37.958348" lon="-1.052838">
 <ele>282.420000</ele>
<time>2009-12-30T10:30:55Z</time>
</trkpt>
<trkpt lat="37.958176" lon="-1.052718">
 <ele>280.740000</ele>
<time>2009-12-30T10:31:12Z</time>
</trkpt>
<trkpt lat="37.958129" lon="-1.052616">
 <ele>280.540000</ele>
<time>2009-12-30T10:31:21Z</time>
</trkpt>
<trkpt lat="37.958044" lon="-1.052334">
 <ele>278.900000</ele>
<time>2009-12-30T10:31:40Z</time>
</trkpt>
<trkpt lat="37.957945" lon="-1.052196">
 <ele>278.780000</ele>
<time>2009-12-30T10:31:53Z</time>
</trkpt>
<trkpt lat="37.957776" lon="-1.052038">
 <ele>274.320000</ele>
<time>2009-12-30T10:32:11Z</time>
</trkpt>
<trkpt lat="37.957642" lon="-1.052022">
 <ele>275.000000</ele>
<time>2009-12-30T10:32:21Z</time>
</trkpt>
<trkpt lat="37.957651" lon="-1.052019">
 <ele>274.940000</ele>
<time>2009-12-30T10:32:22Z</time>
</trkpt>
<trkpt lat="37.957652" lon="-1.052017">
 <ele>275.420000</ele>
<time>2009-12-30T10:32:23Z</time>
</trkpt>
<trkpt lat="37.957642" lon="-1.052019">
 <ele>275.740000</ele>
<time>2009-12-30T10:32:24Z</time>
</trkpt>
<trkpt lat="37.957638" lon="-1.052012">
 <ele>275.080000</ele>
<time>2009-12-30T10:32:25Z</time>
</trkpt>
<trkpt lat="37.957640" lon="-1.052013">
 <ele>275.960000</ele>
<time>2009-12-30T10:32:26Z</time>
</trkpt>
<trkpt lat="37.957640" lon="-1.052013">
 <ele>275.400000</ele>
<time>2009-12-30T10:32:27Z</time>
</trkpt>
<trkpt lat="37.957633" lon="-1.052015">
 <ele>276.000000</ele>
<time>2009-12-30T10:32:29Z</time>
</trkpt>
<trkpt lat="37.957600" lon="-1.052042">
 <ele>279.340000</ele>
<time>2009-12-30T10:32:33Z</time>
</trkpt>
<trkpt lat="37.957589" lon="-1.052071">
 <ele>278.840000</ele>
<time>2009-12-30T10:32:34Z</time>
</trkpt>
<trkpt lat="37.957586" lon="-1.052070">
 <ele>279.200000</ele>
<time>2009-12-30T10:32:37Z</time>
</trkpt>
<trkpt lat="37.957570" lon="-1.052074">
 <ele>279.960000</ele>
<time>2009-12-30T10:32:38Z</time>
</trkpt>
<trkpt lat="37.957544" lon="-1.052123">
 <ele>282.420000</ele>
<time>2009-12-30T10:32:42Z</time>
</trkpt>
<trkpt lat="37.957539" lon="-1.052133">
 <ele>283.920000</ele>
<time>2009-12-30T10:32:44Z</time>
</trkpt>
<trkpt lat="37.957538" lon="-1.052148">
 <ele>284.660000</ele>
<time>2009-12-30T10:32:45Z</time>
</trkpt>
<trkpt lat="37.957536" lon="-1.052147">
 <ele>286.700000</ele>
<time>2009-12-30T10:32:46Z</time>
</trkpt>
<trkpt lat="37.957526" lon="-1.052146">
 <ele>285.960000</ele>
<time>2009-12-30T10:32:47Z</time>
</trkpt>
<trkpt lat="37.957529" lon="-1.052145">
 <ele>285.720000</ele>
<time>2009-12-30T10:32:48Z</time>
</trkpt>
<trkpt lat="37.957527" lon="-1.052176">
 <ele>287.200000</ele>
<time>2009-12-30T10:32:50Z</time>
</trkpt>
<trkpt lat="37.957518" lon="-1.052214">
 <ele>288.040000</ele>
<time>2009-12-30T10:32:53Z</time>
</trkpt>
<trkpt lat="37.957520" lon="-1.052209">
 <ele>288.040000</ele>
<time>2009-12-30T10:32:54Z</time>
</trkpt>
<trkpt lat="37.957514" lon="-1.052217">
 <ele>287.560000</ele>
<time>2009-12-30T10:32:55Z</time>
</trkpt>
<trkpt lat="37.957522" lon="-1.052208">
 <ele>287.600000</ele>
<time>2009-12-30T10:32:56Z</time>
</trkpt>
<trkpt lat="37.957518" lon="-1.052218">
 <ele>287.760000</ele>
<time>2009-12-30T10:32:57Z</time>
</trkpt>
<trkpt lat="37.957461" lon="-1.052362">
 <ele>290.920000</ele>
<time>2009-12-30T10:33:08Z</time>
</trkpt>
<trkpt lat="37.957455" lon="-1.052387">
 <ele>291.360000</ele>
<time>2009-12-30T10:33:09Z</time>
</trkpt>
<trkpt lat="37.957434" lon="-1.052419">
 <ele>289.300000</ele>
<time>2009-12-30T10:33:14Z</time>
</trkpt>
<trkpt lat="37.957427" lon="-1.052429">
 <ele>288.980000</ele>
<time>2009-12-30T10:33:16Z</time>
</trkpt>
<trkpt lat="37.957390" lon="-1.052442">
 <ele>288.820000</ele>
<time>2009-12-30T10:33:19Z</time>
</trkpt>
<trkpt lat="37.957380" lon="-1.052450">
 <ele>288.200000</ele>
<time>2009-12-30T10:33:20Z</time>
</trkpt>
<trkpt lat="37.957348" lon="-1.052457">
 <ele>287.060000</ele>
<time>2009-12-30T10:33:24Z</time>
</trkpt>
<trkpt lat="37.957355" lon="-1.052465">
 <ele>287.840000</ele>
<time>2009-12-30T10:33:25Z</time>
</trkpt>
<trkpt lat="37.957355" lon="-1.052471">
 <ele>287.040000</ele>
<time>2009-12-30T10:33:26Z</time>
</trkpt>
<trkpt lat="37.957357" lon="-1.052462">
 <ele>287.820000</ele>
<time>2009-12-30T10:33:27Z</time>
</trkpt>
<trkpt lat="37.957352" lon="-1.052465">
 <ele>287.100000</ele>
<time>2009-12-30T10:33:28Z</time>
</trkpt>
<trkpt lat="37.957352" lon="-1.052465">
 <ele>287.500000</ele>
<time>2009-12-30T10:33:29Z</time>
</trkpt>
<trkpt lat="37.957335" lon="-1.052465">
 <ele>287.700000</ele>
<time>2009-12-30T10:33:35Z</time>
</trkpt>
<trkpt lat="37.957254" lon="-1.052459">
 <ele>287.760000</ele>
<time>2009-12-30T10:33:39Z</time>
</trkpt>
<trkpt lat="37.957235" lon="-1.052463">
 <ele>287.700000</ele>
<time>2009-12-30T10:33:41Z</time>
</trkpt>
<trkpt lat="37.957203" lon="-1.052493">
 <ele>287.260000</ele>
<time>2009-12-30T10:33:46Z</time>
</trkpt>
<trkpt lat="37.957204" lon="-1.052498">
 <ele>286.720000</ele>
<time>2009-12-30T10:33:47Z</time>
</trkpt>
<trkpt lat="37.957193" lon="-1.052506">
 <ele>287.020000</ele>
<time>2009-12-30T10:33:49Z</time>
</trkpt>
<trkpt lat="37.957179" lon="-1.052525">
 <ele>286.920000</ele>
<time>2009-12-30T10:33:50Z</time>
</trkpt>
<trkpt lat="37.957185" lon="-1.052511">
 <ele>287.100000</ele>
<time>2009-12-30T10:33:51Z</time>
</trkpt>
<trkpt lat="37.957181" lon="-1.052521">
 <ele>287.800000</ele>
<time>2009-12-30T10:33:52Z</time>
</trkpt>
<trkpt lat="37.957188" lon="-1.052516">
 <ele>286.900000</ele>
<time>2009-12-30T10:33:53Z</time>
</trkpt>
<trkpt lat="37.957180" lon="-1.052522">
 <ele>287.540000</ele>
<time>2009-12-30T10:33:54Z</time>
</trkpt>
<trkpt lat="37.957180" lon="-1.052522">
 <ele>287.300000</ele>
<time>2009-12-30T10:33:55Z</time>
</trkpt>
<trkpt lat="37.957173" lon="-1.052532">
 <ele>287.980000</ele>
<time>2009-12-30T10:33:56Z</time>
</trkpt>
<trkpt lat="37.957134" lon="-1.052612">
 <ele>286.760000</ele>
<time>2009-12-30T10:33:59Z</time>
</trkpt>
<trkpt lat="37.957075" lon="-1.052708">
 <ele>289.320000</ele>
<time>2009-12-30T10:34:09Z</time>
</trkpt>
<trkpt lat="37.957074" lon="-1.052725">
 <ele>290.040000</ele>
<time>2009-12-30T10:34:10Z</time>
</trkpt>
<trkpt lat="37.957076" lon="-1.052726">
 <ele>290.220000</ele>
<time>2009-12-30T10:34:11Z</time>
</trkpt>
<trkpt lat="37.957077" lon="-1.052722">
 <ele>290.620000</ele>
<time>2009-12-30T10:34:12Z</time>
</trkpt>
<trkpt lat="37.957066" lon="-1.052733">
 <ele>291.260000</ele>
<time>2009-12-30T10:34:13Z</time>
</trkpt>
<trkpt lat="37.957072" lon="-1.052717">
 <ele>290.280000</ele>
<time>2009-12-30T10:34:14Z</time>
</trkpt>
<trkpt lat="37.957068" lon="-1.052728">
 <ele>291.160000</ele>
<time>2009-12-30T10:34:15Z</time>
</trkpt>
<trkpt lat="37.956978" lon="-1.052894">
 <ele>287.800000</ele>
<time>2009-12-30T10:34:27Z</time>
</trkpt>
<trkpt lat="37.956968" lon="-1.052971">
 <ele>288.080000</ele>
<time>2009-12-30T10:34:32Z</time>
</trkpt>
<trkpt lat="37.956980" lon="-1.053019">
 <ele>285.320000</ele>
<time>2009-12-30T10:34:37Z</time>
</trkpt>
<trkpt lat="37.956978" lon="-1.053014">
 <ele>287.000000</ele>
<time>2009-12-30T10:34:38Z</time>
</trkpt>
<trkpt lat="37.956981" lon="-1.053028">
 <ele>284.920000</ele>
<time>2009-12-30T10:34:39Z</time>
</trkpt>
<trkpt lat="37.956970" lon="-1.053023">
 <ele>284.360000</ele>
<time>2009-12-30T10:34:40Z</time>
</trkpt>
<trkpt lat="37.956971" lon="-1.053034">
 <ele>283.740000</ele>
<time>2009-12-30T10:34:41Z</time>
</trkpt>
<trkpt lat="37.956971" lon="-1.053058">
 <ele>284.140000</ele>
<time>2009-12-30T10:34:44Z</time>
</trkpt>
<trkpt lat="37.956971" lon="-1.053063">
 <ele>284.520000</ele>
<time>2009-12-30T10:34:45Z</time>
</trkpt>
<trkpt lat="37.956969" lon="-1.053117">
 <ele>287.560000</ele>
<time>2009-12-30T10:34:50Z</time>
</trkpt>
<trkpt lat="37.956953" lon="-1.053138">
 <ele>288.000000</ele>
<time>2009-12-30T10:34:52Z</time>
</trkpt>
<trkpt lat="37.956932" lon="-1.053215">
 <ele>288.420000</ele>
<time>2009-12-30T10:34:58Z</time>
</trkpt>
<trkpt lat="37.956930" lon="-1.053237">
 <ele>288.600000</ele>
<time>2009-12-30T10:34:59Z</time>
</trkpt>
<trkpt lat="37.956882" lon="-1.053334">
 <ele>288.100000</ele>
<time>2009-12-30T10:35:06Z</time>
</trkpt>
<trkpt lat="37.956803" lon="-1.053551">
 <ele>290.200000</ele>
<time>2009-12-30T10:35:26Z</time>
</trkpt>
<trkpt lat="37.956796" lon="-1.053548">
 <ele>290.660000</ele>
<time>2009-12-30T10:35:27Z</time>
</trkpt>
<trkpt lat="37.956804" lon="-1.053572">
 <ele>290.920000</ele>
<time>2009-12-30T10:35:28Z</time>
</trkpt>
<trkpt lat="37.956791" lon="-1.053593">
 <ele>291.580000</ele>
<time>2009-12-30T10:35:31Z</time>
</trkpt>
<trkpt lat="37.956792" lon="-1.053591">
 <ele>291.440000</ele>
<time>2009-12-30T10:35:32Z</time>
</trkpt>
<trkpt lat="37.956792" lon="-1.053594">
 <ele>291.680000</ele>
<time>2009-12-30T10:35:33Z</time>
</trkpt>
<trkpt lat="37.956793" lon="-1.053590">
 <ele>291.500000</ele>
<time>2009-12-30T10:35:34Z</time>
</trkpt>
<trkpt lat="37.956792" lon="-1.053598">
 <ele>291.740000</ele>
<time>2009-12-30T10:35:35Z</time>
</trkpt>
<trkpt lat="37.956792" lon="-1.053598">
 <ele>291.500000</ele>
<time>2009-12-30T10:35:36Z</time>
</trkpt>
<trkpt lat="37.956788" lon="-1.053599">
 <ele>291.460000</ele>
<time>2009-12-30T10:35:56Z</time>
</trkpt>
<trkpt lat="37.956785" lon="-1.053594">
 <ele>291.240000</ele>
<time>2009-12-30T10:35:57Z</time>
</trkpt>
<trkpt lat="37.956777" lon="-1.053575">
 <ele>291.240000</ele>
<time>2009-12-30T10:36:00Z</time>
</trkpt>
<trkpt lat="37.956775" lon="-1.053561">
 <ele>290.640000</ele>
<time>2009-12-30T10:36:01Z</time>
</trkpt>
<trkpt lat="37.956794" lon="-1.053521">
 <ele>289.500000</ele>
<time>2009-12-30T10:36:07Z</time>
</trkpt>
<trkpt lat="37.956798" lon="-1.053497">
 <ele>289.260000</ele>
<time>2009-12-30T10:36:08Z</time>
</trkpt>
<trkpt lat="37.956856" lon="-1.053396">
 <ele>286.360000</ele>
<time>2009-12-30T10:36:20Z</time>
</trkpt>
<trkpt lat="37.956926" lon="-1.053224">
 <ele>286.880000</ele>
<time>2009-12-30T10:36:35Z</time>
</trkpt>
<trkpt lat="37.957038" lon="-1.052855">
 <ele>285.400000</ele>
<time>2009-12-30T10:37:03Z</time>
</trkpt>
<trkpt lat="37.957081" lon="-1.052771">
 <ele>287.440000</ele>
<time>2009-12-30T10:37:10Z</time>
</trkpt>
<trkpt lat="37.957218" lon="-1.052552">
 <ele>281.620000</ele>
<time>2009-12-30T10:37:30Z</time>
</trkpt>
<trkpt lat="37.957394" lon="-1.052462">
 <ele>276.980000</ele>
<time>2009-12-30T10:37:49Z</time>
</trkpt>
<trkpt lat="37.957438" lon="-1.052459">
 <ele>277.760000</ele>
<time>2009-12-30T10:37:55Z</time>
</trkpt>
<trkpt lat="37.957429" lon="-1.052461">
 <ele>276.920000</ele>
<time>2009-12-30T10:37:56Z</time>
</trkpt>
<trkpt lat="37.957437" lon="-1.052452">
 <ele>277.420000</ele>
<time>2009-12-30T10:37:57Z</time>
</trkpt>
<trkpt lat="37.957449" lon="-1.052456">
 <ele>277.260000</ele>
<time>2009-12-30T10:37:59Z</time>
</trkpt>
<trkpt lat="37.957457" lon="-1.052456">
 <ele>276.940000</ele>
<time>2009-12-30T10:38:00Z</time>
</trkpt>
<trkpt lat="37.957493" lon="-1.052414">
 <ele>276.040000</ele>
<time>2009-12-30T10:38:06Z</time>
</trkpt>
<trkpt lat="37.957539" lon="-1.052250">
 <ele>272.100000</ele>
<time>2009-12-30T10:38:20Z</time>
</trkpt>
<trkpt lat="37.957549" lon="-1.052232">
 <ele>272.120000</ele>
<time>2009-12-30T10:38:21Z</time>
</trkpt>
<trkpt lat="37.957543" lon="-1.052230">
 <ele>272.180000</ele>
<time>2009-12-30T10:38:22Z</time>
</trkpt>
<trkpt lat="37.957550" lon="-1.052193">
 <ele>272.300000</ele>
<time>2009-12-30T10:38:24Z</time>
</trkpt>
<trkpt lat="37.957551" lon="-1.052189">
 <ele>272.040000</ele>
<time>2009-12-30T10:38:26Z</time>
</trkpt>
<trkpt lat="37.957551" lon="-1.052171">
 <ele>271.980000</ele>
<time>2009-12-30T10:38:27Z</time>
</trkpt>
<trkpt lat="37.957590" lon="-1.052061">
 <ele>272.720000</ele>
<time>2009-12-30T10:38:36Z</time>
</trkpt>
<trkpt lat="37.957630" lon="-1.051963">
 <ele>272.560000</ele>
<time>2009-12-30T10:38:44Z</time>
</trkpt>
<trkpt lat="37.957635" lon="-1.051875">
 <ele>271.120000</ele>
<time>2009-12-30T10:38:49Z</time>
</trkpt>
<trkpt lat="37.957803" lon="-1.050921">
 <ele>267.980000</ele>
<time>2009-12-30T10:39:58Z</time>
</trkpt>
<trkpt lat="37.957804" lon="-1.050929">
 <ele>268.320000</ele>
<time>2009-12-30T10:39:59Z</time>
</trkpt>
<trkpt lat="37.957804" lon="-1.050926">
 <ele>267.460000</ele>
<time>2009-12-30T10:40:00Z</time>
</trkpt>
<trkpt lat="37.957796" lon="-1.050918">
 <ele>268.000000</ele>
<time>2009-12-30T10:40:01Z</time>
</trkpt>
<trkpt lat="37.957802" lon="-1.050918">
 <ele>267.840000</ele>
<time>2009-12-30T10:40:02Z</time>
</trkpt>
<trkpt lat="37.957860" lon="-1.050853">
 <ele>268.440000</ele>
<time>2009-12-30T10:40:06Z</time>
</trkpt>
<trkpt lat="37.957857" lon="-1.050851">
 <ele>268.880000</ele>
<time>2009-12-30T10:40:07Z</time>
</trkpt>
<trkpt lat="37.957873" lon="-1.050833">
 <ele>268.080000</ele>
<time>2009-12-30T10:40:08Z</time>
</trkpt>
<trkpt lat="37.957875" lon="-1.050835">
 <ele>268.720000</ele>
<time>2009-12-30T10:40:09Z</time>
</trkpt>
<trkpt lat="37.957885" lon="-1.050822">
 <ele>268.040000</ele>
<time>2009-12-30T10:40:10Z</time>
</trkpt>
<trkpt lat="37.957949" lon="-1.050764">
 <ele>267.740000</ele>
<time>2009-12-30T10:40:20Z</time>
</trkpt>
<trkpt lat="37.958000" lon="-1.050736">
 <ele>267.920000</ele>
<time>2009-12-30T10:40:25Z</time>
</trkpt>
<trkpt lat="37.958019" lon="-1.050726">
 <ele>267.440000</ele>
<time>2009-12-30T10:40:28Z</time>
</trkpt>
<trkpt lat="37.958034" lon="-1.050732">
 <ele>268.260000</ele>
<time>2009-12-30T10:40:30Z</time>
</trkpt>
<trkpt lat="37.958046" lon="-1.050717">
 <ele>266.580000</ele>
<time>2009-12-30T10:40:31Z</time>
</trkpt>
<trkpt lat="37.958099" lon="-1.050592">
 <ele>264.480000</ele>
<time>2009-12-30T10:40:43Z</time>
</trkpt>
<trkpt lat="37.958109" lon="-1.050551">
 <ele>264.700000</ele>
<time>2009-12-30T10:40:45Z</time>
</trkpt>
<trkpt lat="37.958114" lon="-1.050528">
 <ele>266.620000</ele>
<time>2009-12-30T10:40:48Z</time>
</trkpt>
<trkpt lat="37.958113" lon="-1.050512">
 <ele>267.460000</ele>
<time>2009-12-30T10:40:51Z</time>
</trkpt>
<trkpt lat="37.958116" lon="-1.050521">
 <ele>269.600000</ele>
<time>2009-12-30T10:40:52Z</time>
</trkpt>
<trkpt lat="37.958108" lon="-1.050507">
 <ele>270.100000</ele>
<time>2009-12-30T10:40:53Z</time>
</trkpt>
<trkpt lat="37.958093" lon="-1.050498">
 <ele>272.360000</ele>
<time>2009-12-30T10:40:55Z</time>
</trkpt>
<trkpt lat="37.958078" lon="-1.050504">
 <ele>271.940000</ele>
<time>2009-12-30T10:40:57Z</time>
</trkpt>
<trkpt lat="37.958048" lon="-1.050522">
 <ele>269.920000</ele>
<time>2009-12-30T10:41:00Z</time>
</trkpt>
<trkpt lat="37.958042" lon="-1.050537">
 <ele>268.440000</ele>
<time>2009-12-30T10:41:01Z</time>
</trkpt>
<trkpt lat="37.957997" lon="-1.050544">
 <ele>267.340000</ele>
<time>2009-12-30T10:41:05Z</time>
</trkpt>
<trkpt lat="37.957958" lon="-1.050576">
 <ele>267.100000</ele>
<time>2009-12-30T10:41:09Z</time>
</trkpt>
<trkpt lat="37.957947" lon="-1.050566">
 <ele>266.680000</ele>
<time>2009-12-30T10:41:10Z</time>
</trkpt>
<trkpt lat="37.957900" lon="-1.050577">
 <ele>267.080000</ele>
<time>2009-12-30T10:41:13Z</time>
</trkpt>
<trkpt lat="37.957793" lon="-1.050594">
 <ele>265.080000</ele>
<time>2009-12-30T10:41:20Z</time>
</trkpt>
<trkpt lat="37.957585" lon="-1.050685">
 <ele>266.540000</ele>
<time>2009-12-30T10:41:40Z</time>
</trkpt>
<trkpt lat="37.957583" lon="-1.050688">
 <ele>266.580000</ele>
<time>2009-12-30T10:41:42Z</time>
</trkpt>
<trkpt lat="37.957573" lon="-1.050711">
 <ele>267.920000</ele>
<time>2009-12-30T10:41:46Z</time>
</trkpt>
<trkpt lat="37.957581" lon="-1.050719">
 <ele>267.140000</ele>
<time>2009-12-30T10:41:47Z</time>
</trkpt>
<trkpt lat="37.957576" lon="-1.050716">
 <ele>268.400000</ele>
<time>2009-12-30T10:41:48Z</time>
</trkpt>
<trkpt lat="37.957545" lon="-1.050746">
 <ele>269.340000</ele>
<time>2009-12-30T10:41:51Z</time>
</trkpt>
<trkpt lat="37.957548" lon="-1.050747">
 <ele>268.940000</ele>
<time>2009-12-30T10:41:52Z</time>
</trkpt>
<trkpt lat="37.957530" lon="-1.050777">
 <ele>270.400000</ele>
<time>2009-12-30T10:41:55Z</time>
</trkpt>
<trkpt lat="37.957504" lon="-1.050832">
 <ele>275.240000</ele>
<time>2009-12-30T10:42:00Z</time>
</trkpt>
<trkpt lat="37.957487" lon="-1.050897">
 <ele>275.640000</ele>
<time>2009-12-30T10:42:08Z</time>
</trkpt>
<trkpt lat="37.957477" lon="-1.050906">
 <ele>276.160000</ele>
<time>2009-12-30T10:42:09Z</time>
</trkpt>
<trkpt lat="37.957474" lon="-1.050923">
 <ele>272.120000</ele>
<time>2009-12-30T10:42:12Z</time>
</trkpt>
<trkpt lat="37.957470" lon="-1.050940">
 <ele>273.340000</ele>
<time>2009-12-30T10:42:13Z</time>
</trkpt>
<trkpt lat="37.957448" lon="-1.050956">
 <ele>273.460000</ele>
<time>2009-12-30T10:42:15Z</time>
</trkpt>
<trkpt lat="37.957423" lon="-1.050962">
 <ele>271.980000</ele>
<time>2009-12-30T10:42:20Z</time>
</trkpt>
<trkpt lat="37.957429" lon="-1.050954">
 <ele>273.160000</ele>
<time>2009-12-30T10:42:21Z</time>
</trkpt>
<trkpt lat="37.957422" lon="-1.050958">
 <ele>271.540000</ele>
<time>2009-12-30T10:42:22Z</time>
</trkpt>
<trkpt lat="37.957422" lon="-1.050967">
 <ele>272.640000</ele>
<time>2009-12-30T10:42:23Z</time>
</trkpt>
<trkpt lat="37.957420" lon="-1.050965">
 <ele>272.320000</ele>
<time>2009-12-30T10:42:24Z</time>
</trkpt>
<trkpt lat="37.957420" lon="-1.050965">
 <ele>272.400000</ele>
<time>2009-12-30T10:42:25Z</time>
</trkpt>
<trkpt lat="37.957408" lon="-1.050970">
 <ele>272.920000</ele>
<time>2009-12-30T10:42:26Z</time>
</trkpt>
<trkpt lat="37.957280" lon="-1.051002">
 <ele>272.480000</ele>
<time>2009-12-30T10:42:32Z</time>
</trkpt>
<trkpt lat="37.957263" lon="-1.051031">
 <ele>273.560000</ele>
<time>2009-12-30T10:42:33Z</time>
</trkpt>
<trkpt lat="37.957260" lon="-1.051092">
 <ele>276.900000</ele>
<time>2009-12-30T10:42:37Z</time>
</trkpt>
<trkpt lat="37.957212" lon="-1.051115">
 <ele>275.000000</ele>
<time>2009-12-30T10:42:42Z</time>
</trkpt>
<trkpt lat="37.957203" lon="-1.051123">
 <ele>274.200000</ele>
<time>2009-12-30T10:42:43Z</time>
</trkpt>
<trkpt lat="37.957200" lon="-1.051119">
 <ele>274.040000</ele>
<time>2009-12-30T10:42:45Z</time>
</trkpt>
<trkpt lat="37.957218" lon="-1.051110">
 <ele>272.640000</ele>
<time>2009-12-30T10:42:46Z</time>
</trkpt>
<trkpt lat="37.957223" lon="-1.051105">
 <ele>272.220000</ele>
<time>2009-12-30T10:42:47Z</time>
</trkpt>
<trkpt lat="37.957209" lon="-1.051115">
 <ele>273.560000</ele>
<time>2009-12-30T10:42:48Z</time>
</trkpt>
<trkpt lat="37.957213" lon="-1.051110">
 <ele>272.280000</ele>
<time>2009-12-30T10:42:49Z</time>
</trkpt>
<trkpt lat="37.957213" lon="-1.051110">
 <ele>273.000000</ele>
<time>2009-12-30T10:42:50Z</time>
</trkpt>
<trkpt lat="37.957211" lon="-1.051120">
 <ele>273.000000</ele>
<time>2009-12-30T10:42:51Z</time>
</trkpt>
<trkpt lat="37.957152" lon="-1.051182">
 <ele>271.040000</ele>
<time>2009-12-30T10:42:55Z</time>
</trkpt>
<trkpt lat="37.957026" lon="-1.051224">
 <ele>262.460000</ele>
<time>2009-12-30T10:43:02Z</time>
</trkpt>
<trkpt lat="37.956798" lon="-1.051279">
 <ele>257.220000</ele>
<time>2009-12-30T10:43:15Z</time>
</trkpt>
<trkpt lat="37.956618" lon="-1.051300">
 <ele>251.580000</ele>
<time>2009-12-30T10:43:30Z</time>
</trkpt>
<trkpt lat="37.956496" lon="-1.051292">
 <ele>248.360000</ele>
<time>2009-12-30T10:43:40Z</time>
</trkpt>
<trkpt lat="37.956465" lon="-1.051159">
 <ele>243.680000</ele>
<time>2009-12-30T10:43:50Z</time>
</trkpt>
<trkpt lat="37.956477" lon="-1.051095">
 <ele>242.060000</ele>
<time>2009-12-30T10:43:54Z</time>
</trkpt>
<trkpt lat="37.956470" lon="-1.051018">
 <ele>240.980000</ele>
<time>2009-12-30T10:43:59Z</time>
</trkpt>
<trkpt lat="37.956485" lon="-1.050865">
 <ele>238.600000</ele>
<time>2009-12-30T10:44:09Z</time>
</trkpt>
<trkpt lat="37.956419" lon="-1.050588">
 <ele>232.360000</ele>
<time>2009-12-30T10:44:32Z</time>
</trkpt>
<trkpt lat="37.956390" lon="-1.050612">
 <ele>232.160000</ele>
<time>2009-12-30T10:44:36Z</time>
</trkpt>
<trkpt lat="37.956352" lon="-1.050648">
 <ele>231.080000</ele>
<time>2009-12-30T10:44:41Z</time>
</trkpt>
<trkpt lat="37.956347" lon="-1.050654">
 <ele>231.280000</ele>
<time>2009-12-30T10:44:43Z</time>
</trkpt>
<trkpt lat="37.956351" lon="-1.050674">
 <ele>230.860000</ele>
<time>2009-12-30T10:44:44Z</time>
</trkpt>
<trkpt lat="37.956326" lon="-1.050707">
 <ele>231.440000</ele>
<time>2009-12-30T10:44:49Z</time>
</trkpt>
<trkpt lat="37.956328" lon="-1.050699">
 <ele>231.240000</ele>
<time>2009-12-30T10:44:50Z</time>
</trkpt>
<trkpt lat="37.956321" lon="-1.050707">
 <ele>231.580000</ele>
<time>2009-12-30T10:44:51Z</time>
</trkpt>
<trkpt lat="37.956327" lon="-1.050698">
 <ele>231.580000</ele>
<time>2009-12-30T10:44:52Z</time>
</trkpt>
<trkpt lat="37.956322" lon="-1.050707">
 <ele>231.820000</ele>
<time>2009-12-30T10:44:53Z</time>
</trkpt>
<trkpt lat="37.956203" lon="-1.050838">
 <ele>231.140000</ele>
<time>2009-12-30T10:45:04Z</time>
</trkpt>
<trkpt lat="37.956180" lon="-1.050859">
 <ele>230.960000</ele>
<time>2009-12-30T10:45:06Z</time>
</trkpt>
<trkpt lat="37.956138" lon="-1.050938">
 <ele>230.100000</ele>
<time>2009-12-30T10:45:15Z</time>
</trkpt>
<trkpt lat="37.956136" lon="-1.050952">
 <ele>229.340000</ele>
<time>2009-12-30T10:45:16Z</time>
</trkpt>
<trkpt lat="37.956084" lon="-1.051054">
 <ele>228.380000</ele>
<time>2009-12-30T10:45:24Z</time>
</trkpt>
<trkpt lat="37.956083" lon="-1.051050">
 <ele>228.420000</ele>
<time>2009-12-30T10:45:25Z</time>
</trkpt>
<trkpt lat="37.956079" lon="-1.051074">
 <ele>228.400000</ele>
<time>2009-12-30T10:45:26Z</time>
</trkpt>
<trkpt lat="37.956056" lon="-1.051112">
 <ele>227.220000</ele>
<time>2009-12-30T10:45:31Z</time>
</trkpt>
<trkpt lat="37.956053" lon="-1.051129">
 <ele>226.900000</ele>
<time>2009-12-30T10:45:32Z</time>
</trkpt>
<trkpt lat="37.956034" lon="-1.051132">
 <ele>226.620000</ele>
<time>2009-12-30T10:45:34Z</time>
</trkpt>
<trkpt lat="37.956034" lon="-1.051140">
 <ele>227.020000</ele>
<time>2009-12-30T10:45:35Z</time>
</trkpt>
<trkpt lat="37.956000" lon="-1.051253">
 <ele>226.480000</ele>
<time>2009-12-30T10:45:42Z</time>
</trkpt>
<trkpt lat="37.955881" lon="-1.051641">
 <ele>223.140000</ele>
<time>2009-12-30T10:46:09Z</time>
</trkpt>
<trkpt lat="37.955972" lon="-1.051772">
 <ele>217.720000</ele>
<time>2009-12-30T10:46:20Z</time>
</trkpt>
<trkpt lat="37.956039" lon="-1.051804">
 <ele>215.000000</ele>
<time>2009-12-30T10:46:27Z</time>
</trkpt>
<trkpt lat="37.956136" lon="-1.051844">
 <ele>213.080000</ele>
<time>2009-12-30T10:46:37Z</time>
</trkpt>
<trkpt lat="37.956244" lon="-1.051858">
 <ele>213.000000</ele>
<time>2009-12-30T10:46:48Z</time>
</trkpt>
<trkpt lat="37.956301" lon="-1.051876">
 <ele>212.360000</ele>
<time>2009-12-30T10:46:53Z</time>
</trkpt>
<trkpt lat="37.956496" lon="-1.051904">
 <ele>215.300000</ele>
<time>2009-12-30T10:47:14Z</time>
</trkpt>
<trkpt lat="37.956509" lon="-1.051913">
 <ele>215.620000</ele>
<time>2009-12-30T10:47:17Z</time>
</trkpt>
<trkpt lat="37.956514" lon="-1.051912">
 <ele>215.080000</ele>
<time>2009-12-30T10:47:18Z</time>
</trkpt>
<trkpt lat="37.956514" lon="-1.051911">
 <ele>214.660000</ele>
<time>2009-12-30T10:47:19Z</time>
</trkpt>
<trkpt lat="37.956512" lon="-1.051948">
 <ele>213.900000</ele>
<time>2009-12-30T10:47:22Z</time>
</trkpt>
<trkpt lat="37.956502" lon="-1.051968">
 <ele>214.020000</ele>
<time>2009-12-30T10:47:24Z</time>
</trkpt>
<trkpt lat="37.956498" lon="-1.051983">
 <ele>214.360000</ele>
<time>2009-12-30T10:47:25Z</time>
</trkpt>
<trkpt lat="37.956434" lon="-1.052039">
 <ele>216.000000</ele>
<time>2009-12-30T10:47:33Z</time>
</trkpt>
<trkpt lat="37.956188" lon="-1.052182">
 <ele>219.680000</ele>
<time>2009-12-30T10:47:57Z</time>
</trkpt>
<trkpt lat="37.956146" lon="-1.052186">
 <ele>220.620000</ele>
<time>2009-12-30T10:48:01Z</time>
</trkpt>
<trkpt lat="37.956128" lon="-1.052198">
 <ele>221.020000</ele>
<time>2009-12-30T10:48:02Z</time>
</trkpt>
<trkpt lat="37.955969" lon="-1.052259">
 <ele>218.820000</ele>
<time>2009-12-30T10:48:14Z</time>
</trkpt>
<trkpt lat="37.955901" lon="-1.052244">
 <ele>222.300000</ele>
<time>2009-12-30T10:48:20Z</time>
</trkpt>
<trkpt lat="37.955850" lon="-1.052237">
 <ele>223.300000</ele>
<time>2009-12-30T10:48:24Z</time>
</trkpt>
<trkpt lat="37.955563" lon="-1.052221">
 <ele>221.060000</ele>
<time>2009-12-30T10:48:48Z</time>
</trkpt>
<trkpt lat="37.955517" lon="-1.052300">
 <ele>221.380000</ele>
<time>2009-12-30T10:48:54Z</time>
</trkpt>
<trkpt lat="37.955524" lon="-1.052436">
 <ele>215.680000</ele>
<time>2009-12-30T10:49:01Z</time>
</trkpt>
<trkpt lat="37.955553" lon="-1.052511">
 <ele>210.220000</ele>
<time>2009-12-30T10:49:08Z</time>
</trkpt>
<trkpt lat="37.955554" lon="-1.052516">
 <ele>211.700000</ele>
<time>2009-12-30T10:49:09Z</time>
</trkpt>
<trkpt lat="37.955559" lon="-1.052521">
 <ele>210.680000</ele>
<time>2009-12-30T10:49:10Z</time>
</trkpt>
<trkpt lat="37.955559" lon="-1.052520">
 <ele>210.520000</ele>
<time>2009-12-30T10:49:11Z</time>
</trkpt>
<trkpt lat="37.955573" lon="-1.052544">
 <ele>207.560000</ele>
<time>2009-12-30T10:49:12Z</time>
</trkpt>
<trkpt lat="37.955636" lon="-1.052660">
 <ele>204.120000</ele>
<time>2009-12-30T10:49:20Z</time>
</trkpt>
<trkpt lat="37.955640" lon="-1.052682">
 <ele>203.720000</ele>
<time>2009-12-30T10:49:21Z</time>
</trkpt>
<trkpt lat="37.955668" lon="-1.052704">
 <ele>202.240000</ele>
<time>2009-12-30T10:49:24Z</time>
</trkpt>
<trkpt lat="37.955684" lon="-1.052730">
 <ele>201.440000</ele>
<time>2009-12-30T10:49:26Z</time>
</trkpt>
<trkpt lat="37.955730" lon="-1.052738">
 <ele>201.700000</ele>
<time>2009-12-30T10:49:29Z</time>
</trkpt>
<trkpt lat="37.955763" lon="-1.052769">
 <ele>200.540000</ele>
<time>2009-12-30T10:49:33Z</time>
</trkpt>
<trkpt lat="37.955646" lon="-1.053038">
 <ele>208.160000</ele>
<time>2009-12-30T10:49:55Z</time>
</trkpt>
<trkpt lat="37.955527" lon="-1.053144">
 <ele>209.440000</ele>
<time>2009-12-30T10:50:06Z</time>
</trkpt>
<trkpt lat="37.955460" lon="-1.053170">
 <ele>222.100000</ele>
<time>2009-12-30T10:50:12Z</time>
</trkpt>
<trkpt lat="37.955453" lon="-1.053162">
 <ele>219.900000</ele>
<time>2009-12-30T10:50:14Z</time>
</trkpt>
<trkpt lat="37.955441" lon="-1.053170">
 <ele>220.160000</ele>
<time>2009-12-30T10:50:15Z</time>
</trkpt>
<trkpt lat="37.955392" lon="-1.053258">
 <ele>221.120000</ele>
<time>2009-12-30T10:50:21Z</time>
</trkpt>
<trkpt lat="37.955364" lon="-1.053314">
 <ele>216.400000</ele>
<time>2009-12-30T10:50:27Z</time>
</trkpt>
<trkpt lat="37.955357" lon="-1.053320">
 <ele>216.880000</ele>
<time>2009-12-30T10:50:28Z</time>
</trkpt>
<trkpt lat="37.955332" lon="-1.053359">
 <ele>213.840000</ele>
<time>2009-12-30T10:50:32Z</time>
</trkpt>
<trkpt lat="37.955326" lon="-1.053372">
 <ele>213.180000</ele>
<time>2009-12-30T10:50:33Z</time>
</trkpt>
<trkpt lat="37.955299" lon="-1.053423">
 <ele>210.100000</ele>
<time>2009-12-30T10:50:38Z</time>
</trkpt>
<trkpt lat="37.955282" lon="-1.053439">
 <ele>210.720000</ele>
<time>2009-12-30T10:50:39Z</time>
</trkpt>
<trkpt lat="37.955243" lon="-1.053527">
 <ele>206.680000</ele>
<time>2009-12-30T10:50:45Z</time>
</trkpt>
<trkpt lat="37.955193" lon="-1.053605">
 <ele>205.080000</ele>
<time>2009-12-30T10:50:52Z</time>
</trkpt>
<trkpt lat="37.955161" lon="-1.053667">
 <ele>201.940000</ele>
<time>2009-12-30T10:50:58Z</time>
</trkpt>
<trkpt lat="37.955155" lon="-1.053682">
 <ele>201.720000</ele>
<time>2009-12-30T10:50:59Z</time>
</trkpt>
<trkpt lat="37.955128" lon="-1.053732">
 <ele>199.320000</ele>
<time>2009-12-30T10:51:06Z</time>
</trkpt>
<trkpt lat="37.955136" lon="-1.053728">
 <ele>198.780000</ele>
<time>2009-12-30T10:51:07Z</time>
</trkpt>
<trkpt lat="37.955134" lon="-1.053719">
 <ele>197.660000</ele>
<time>2009-12-30T10:51:08Z</time>
</trkpt>
<trkpt lat="37.955125" lon="-1.053733">
 <ele>199.440000</ele>
<time>2009-12-30T10:51:09Z</time>
</trkpt>
<trkpt lat="37.955127" lon="-1.053732">
 <ele>197.920000</ele>
<time>2009-12-30T10:51:10Z</time>
</trkpt>
<trkpt lat="37.955127" lon="-1.053732">
 <ele>198.800000</ele>
<time>2009-12-30T10:51:11Z</time>
</trkpt>
<trkpt lat="37.955119" lon="-1.053747">
 <ele>198.000000</ele>
<time>2009-12-30T10:51:13Z</time>
</trkpt>
<trkpt lat="37.955089" lon="-1.053826">
 <ele>196.100000</ele>
<time>2009-12-30T10:51:17Z</time>
</trkpt>
<trkpt lat="37.955090" lon="-1.053821">
 <ele>197.420000</ele>
<time>2009-12-30T10:51:18Z</time>
</trkpt>
<trkpt lat="37.955087" lon="-1.053818">
 <ele>197.480000</ele>
<time>2009-12-30T10:51:19Z</time>
</trkpt>
<trkpt lat="37.955079" lon="-1.053824">
 <ele>197.740000</ele>
<time>2009-12-30T10:51:20Z</time>
</trkpt>
<trkpt lat="37.955082" lon="-1.053827">
 <ele>197.580000</ele>
<time>2009-12-30T10:51:21Z</time>
</trkpt>
<trkpt lat="37.955082" lon="-1.053827">
 <ele>197.500000</ele>
<time>2009-12-30T10:51:22Z</time>
</trkpt>
<trkpt lat="37.955082" lon="-1.053827">
 <ele>197.500000</ele>
<time>2009-12-30T10:51:23Z</time>
</trkpt>
<trkpt lat="37.955082" lon="-1.053827">
 <ele>197.500000</ele>
<time>2009-12-30T10:51:24Z</time>
</trkpt>
<trkpt lat="37.955082" lon="-1.053827">
 <ele>197.500000</ele>
<time>2009-12-30T10:51:25Z</time>
</trkpt>
<trkpt lat="37.955082" lon="-1.053827">
 <ele>197.500000</ele>
<time>2009-12-30T10:51:26Z</time>
</trkpt>
<trkpt lat="37.955082" lon="-1.053827">
 <ele>197.500000</ele>
<time>2009-12-30T10:51:27Z</time>
</trkpt>
<trkpt lat="37.955082" lon="-1.053827">
 <ele>197.500000</ele>
<time>2009-12-30T10:51:28Z</time>
</trkpt>
<trkpt lat="37.955082" lon="-1.053827">
 <ele>197.500000</ele>
<time>2009-12-30T10:51:29Z</time>
</trkpt>
<trkpt lat="37.955082" lon="-1.053827">
 <ele>197.500000</ele>
<time>2009-12-30T10:51:30Z</time>
</trkpt>
<trkpt lat="37.955082" lon="-1.053827">
 <ele>197.500000</ele>
<time>2009-12-30T10:51:31Z</time>
</trkpt>
<trkpt lat="37.955082" lon="-1.053827">
 <ele>197.500000</ele>
<time>2009-12-30T10:51:32Z</time>
</trkpt>
<trkpt lat="37.955082" lon="-1.053827">
 <ele>197.500000</ele>
<time>2009-12-30T10:51:33Z</time>
</trkpt>
<trkpt lat="37.955082" lon="-1.053827">
 <ele>197.500000</ele>
<time>2009-12-30T10:51:34Z</time>
</trkpt>
<trkpt lat="37.955082" lon="-1.053827">
 <ele>197.500000</ele>
<time>2009-12-30T10:51:35Z</time>
</trkpt>
<trkpt lat="37.955082" lon="-1.053827">
 <ele>197.500000</ele>
<time>2009-12-30T10:51:36Z</time>
</trkpt>
<trkpt lat="37.955082" lon="-1.053827">
 <ele>197.500000</ele>
<time>2009-12-30T10:51:37Z</time>
</trkpt>
<trkpt lat="37.955082" lon="-1.053827">
 <ele>197.500000</ele>
<time>2009-12-30T10:51:38Z</time>
</trkpt>
<trkpt lat="37.955082" lon="-1.053827">
 <ele>197.500000</ele>
<time>2009-12-30T10:51:39Z</time>
</trkpt>
<trkpt lat="37.955058" lon="-1.053876">
 <ele>193.180000</ele>
<time>2009-12-30T10:51:41Z</time>
</trkpt>
<trkpt lat="37.955017" lon="-1.053951">
 <ele>193.520000</ele>
<time>2009-12-30T10:51:45Z</time>
</trkpt>
<trkpt lat="37.955020" lon="-1.053953">
 <ele>193.220000</ele>
<time>2009-12-30T10:51:46Z</time>
</trkpt>
<trkpt lat="37.955008" lon="-1.053976">
 <ele>192.520000</ele>
<time>2009-12-30T10:51:48Z</time>
</trkpt>
<trkpt lat="37.955003" lon="-1.054003">
 <ele>193.280000</ele>
<time>2009-12-30T10:51:50Z</time>
</trkpt>
<trkpt lat="37.954995" lon="-1.054000">
 <ele>193.640000</ele>
<time>2009-12-30T10:51:51Z</time>
</trkpt>
<trkpt lat="37.954991" lon="-1.054014">
 <ele>193.500000</ele>
<time>2009-12-30T10:51:52Z</time>
</trkpt>
<trkpt lat="37.954941" lon="-1.054056">
 <ele>192.460000</ele>
<time>2009-12-30T10:51:58Z</time>
</trkpt>
<trkpt lat="37.954831" lon="-1.054080">
 <ele>189.060000</ele>
<time>2009-12-30T10:52:09Z</time>
</trkpt>
<trkpt lat="37.954780" lon="-1.054071">
 <ele>190.860000</ele>
<time>2009-12-30T10:52:13Z</time>
</trkpt>
<trkpt lat="37.954678" lon="-1.054067">
 <ele>194.700000</ele>
<time>2009-12-30T10:52:24Z</time>
</trkpt>
<trkpt lat="37.954677" lon="-1.054071">
 <ele>194.720000</ele>
<time>2009-12-30T10:52:25Z</time>
</trkpt>
<trkpt lat="37.954679" lon="-1.054068">
 <ele>193.880000</ele>
<time>2009-12-30T10:52:26Z</time>
</trkpt>
<trkpt lat="37.954681" lon="-1.054067">
 <ele>194.980000</ele>
<time>2009-12-30T10:52:27Z</time>
</trkpt>
<trkpt lat="37.954673" lon="-1.054070">
 <ele>194.100000</ele>
<time>2009-12-30T10:52:28Z</time>
</trkpt>
<trkpt lat="37.954673" lon="-1.054070">
 <ele>194.500000</ele>
<time>2009-12-30T10:52:29Z</time>
</trkpt>
<trkpt lat="37.954648" lon="-1.054086">
 <ele>190.380000</ele>
<time>2009-12-30T10:52:53Z</time>
</trkpt>
<trkpt lat="37.954548" lon="-1.054159">
 <ele>186.020000</ele>
<time>2009-12-30T10:52:56Z</time>
</trkpt>
<trkpt lat="37.954508" lon="-1.054181">
 <ele>180.320000</ele>
<time>2009-12-30T10:53:00Z</time>
</trkpt>
<trkpt lat="37.954512" lon="-1.054178">
 <ele>179.780000</ele>
<time>2009-12-30T10:53:01Z</time>
</trkpt>
<trkpt lat="37.954500" lon="-1.054180">
 <ele>180.720000</ele>
<time>2009-12-30T10:53:02Z</time>
</trkpt>
<trkpt lat="37.954483" lon="-1.054190">
 <ele>181.400000</ele>
<time>2009-12-30T10:53:04Z</time>
</trkpt>
<trkpt lat="37.954481" lon="-1.054203">
 <ele>179.740000</ele>
<time>2009-12-30T10:53:06Z</time>
</trkpt>
<trkpt lat="37.954466" lon="-1.054212">
 <ele>177.040000</ele>
<time>2009-12-30T10:53:07Z</time>
</trkpt>
<trkpt lat="37.954472" lon="-1.054207">
 <ele>177.760000</ele>
<time>2009-12-30T10:53:08Z</time>
</trkpt>
<trkpt lat="37.954469" lon="-1.054206">
 <ele>177.220000</ele>
<time>2009-12-30T10:53:09Z</time>
</trkpt>
<trkpt lat="37.954473" lon="-1.054205">
 <ele>177.040000</ele>
<time>2009-12-30T10:53:10Z</time>
</trkpt>
<trkpt lat="37.954462" lon="-1.054214">
 <ele>176.960000</ele>
<time>2009-12-30T10:53:11Z</time>
</trkpt>
<trkpt lat="37.954417" lon="-1.054232">
 <ele>176.600000</ele>
<time>2009-12-30T10:53:14Z</time>
</trkpt>
<trkpt lat="37.954422" lon="-1.054222">
 <ele>176.200000</ele>
<time>2009-12-30T10:53:15Z</time>
</trkpt>
<trkpt lat="37.954422" lon="-1.054229">
 <ele>176.840000</ele>
<time>2009-12-30T10:53:16Z</time>
</trkpt>
<trkpt lat="37.954383" lon="-1.054240">
 <ele>179.620000</ele>
<time>2009-12-30T10:53:19Z</time>
</trkpt>
<trkpt lat="37.954372" lon="-1.054241">
 <ele>180.600000</ele>
<time>2009-12-30T10:53:21Z</time>
</trkpt>
<trkpt lat="37.954358" lon="-1.054258">
 <ele>179.820000</ele>
<time>2009-12-30T10:53:22Z</time>
</trkpt>
<trkpt lat="37.954348" lon="-1.054260">
 <ele>180.040000</ele>
<time>2009-12-30T10:53:23Z</time>
</trkpt>
<trkpt lat="37.954342" lon="-1.054252">
 <ele>181.740000</ele>
<time>2009-12-30T10:53:24Z</time>
</trkpt>
<trkpt lat="37.954330" lon="-1.054259">
 <ele>182.600000</ele>
<time>2009-12-30T10:53:26Z</time>
</trkpt>
<trkpt lat="37.954304" lon="-1.054260">
 <ele>181.100000</ele>
<time>2009-12-30T10:53:27Z</time>
</trkpt>
<trkpt lat="37.954320" lon="-1.054259">
 <ele>181.200000</ele>
<time>2009-12-30T10:53:28Z</time>
</trkpt>
<trkpt lat="37.954304" lon="-1.054268">
 <ele>181.200000</ele>
<time>2009-12-30T10:53:29Z</time>
</trkpt>
<trkpt lat="37.954284" lon="-1.054262">
 <ele>178.340000</ele>
<time>2009-12-30T10:53:33Z</time>
</trkpt>
<trkpt lat="37.954296" lon="-1.054265">
 <ele>178.440000</ele>
<time>2009-12-30T10:53:34Z</time>
</trkpt>
<trkpt lat="37.954282" lon="-1.054261">
 <ele>178.480000</ele>
<time>2009-12-30T10:53:35Z</time>
</trkpt>
<trkpt lat="37.954281" lon="-1.054277">
 <ele>178.440000</ele>
<time>2009-12-30T10:53:36Z</time>
</trkpt>
<trkpt lat="37.954280" lon="-1.054270">
 <ele>178.120000</ele>
<time>2009-12-30T10:53:37Z</time>
</trkpt>
<trkpt lat="37.954280" lon="-1.054270">
 <ele>178.600000</ele>
<time>2009-12-30T10:53:38Z</time>
</trkpt>
<trkpt lat="37.954264" lon="-1.054273">
 <ele>176.760000</ele>
<time>2009-12-30T10:53:51Z</time>
</trkpt>
<trkpt lat="37.954179" lon="-1.054260">
 <ele>172.200000</ele>
<time>2009-12-30T10:53:56Z</time>
</trkpt>
<trkpt lat="37.954180" lon="-1.054263">
 <ele>172.600000</ele>
<time>2009-12-30T10:53:57Z</time>
</trkpt>
<trkpt lat="37.954184" lon="-1.054264">
 <ele>172.080000</ele>
<time>2009-12-30T10:53:58Z</time>
</trkpt>
<trkpt lat="37.954183" lon="-1.054260">
 <ele>172.220000</ele>
<time>2009-12-30T10:53:59Z</time>
</trkpt>
<trkpt lat="37.954172" lon="-1.054215">
 <ele>172.460000</ele>
<time>2009-12-30T10:54:03Z</time>
</trkpt>
<trkpt lat="37.954173" lon="-1.054223">
 <ele>173.920000</ele>
<time>2009-12-30T10:54:04Z</time>
</trkpt>
<trkpt lat="37.954174" lon="-1.054226">
 <ele>173.900000</ele>
<time>2009-12-30T10:54:05Z</time>
</trkpt>
<trkpt lat="37.954186" lon="-1.054214">
 <ele>173.620000</ele>
<time>2009-12-30T10:54:06Z</time>
</trkpt>
<trkpt lat="37.954178" lon="-1.054220">
 <ele>174.500000</ele>
<time>2009-12-30T10:54:07Z</time>
</trkpt>
<trkpt lat="37.954178" lon="-1.054220">
 <ele>173.700000</ele>
<time>2009-12-30T10:54:08Z</time>
</trkpt>
<trkpt lat="37.954182" lon="-1.054223">
 <ele>176.500000</ele>
<time>2009-12-30T10:54:16Z</time>
</trkpt>
<trkpt lat="37.954218" lon="-1.054235">
 <ele>184.580000</ele>
<time>2009-12-30T10:54:20Z</time>
</trkpt>
<trkpt lat="37.954222" lon="-1.054229">
 <ele>177.440000</ele>
<time>2009-12-30T10:54:21Z</time>
</trkpt>
<trkpt lat="37.954223" lon="-1.054222">
 <ele>178.480000</ele>
<time>2009-12-30T10:54:22Z</time>
</trkpt>
<trkpt lat="37.954225" lon="-1.054213">
 <ele>177.980000</ele>
<time>2009-12-30T10:54:23Z</time>
</trkpt>
<trkpt lat="37.954230" lon="-1.054218">
 <ele>177.900000</ele>
<time>2009-12-30T10:54:24Z</time>
</trkpt>
<trkpt lat="37.954230" lon="-1.054218">
 <ele>178.300000</ele>
<time>2009-12-30T10:54:25Z</time>
</trkpt>
<trkpt lat="37.954230" lon="-1.054213">
 <ele>178.060000</ele>
<time>2009-12-30T10:54:26Z</time>
</trkpt>
<trkpt lat="37.954268" lon="-1.054051">
 <ele>179.920000</ele>
<time>2009-12-30T10:54:38Z</time>
</trkpt>
<trkpt lat="37.954257" lon="-1.054052">
 <ele>180.380000</ele>
<time>2009-12-30T10:54:39Z</time>
</trkpt>
<trkpt lat="37.954265" lon="-1.054041">
 <ele>181.180000</ele>
<time>2009-12-30T10:54:40Z</time>
</trkpt>
<trkpt lat="37.954264" lon="-1.053967">
 <ele>179.140000</ele>
<time>2009-12-30T10:54:44Z</time>
</trkpt>
<trkpt lat="37.954250" lon="-1.053970">
 <ele>175.840000</ele>
<time>2009-12-30T10:54:46Z</time>
</trkpt>
<trkpt lat="37.954241" lon="-1.053976">
 <ele>174.920000</ele>
<time>2009-12-30T10:54:47Z</time>
</trkpt>
<trkpt lat="37.954247" lon="-1.053977">
 <ele>175.860000</ele>
<time>2009-12-30T10:54:48Z</time>
</trkpt>
<trkpt lat="37.954242" lon="-1.053969">
 <ele>175.300000</ele>
<time>2009-12-30T10:54:49Z</time>
</trkpt>
<trkpt lat="37.954226" lon="-1.053979">
 <ele>173.000000</ele>
<time>2009-12-30T10:54:51Z</time>
</trkpt>
<trkpt lat="37.954210" lon="-1.053993">
 <ele>169.540000</ele>
<time>2009-12-30T10:54:54Z</time>
</trkpt>
<trkpt lat="37.954209" lon="-1.054016">
 <ele>172.320000</ele>
<time>2009-12-30T10:54:56Z</time>
</trkpt>
<trkpt lat="37.954193" lon="-1.054026">
 <ele>175.940000</ele>
<time>2009-12-30T10:54:59Z</time>
</trkpt>
<trkpt lat="37.954193" lon="-1.054041">
 <ele>175.140000</ele>
<time>2009-12-30T10:55:00Z</time>
</trkpt>
<trkpt lat="37.954172" lon="-1.054059">
 <ele>175.380000</ele>
<time>2009-12-30T10:55:03Z</time>
</trkpt>
<trkpt lat="37.954171" lon="-1.054071">
 <ele>174.960000</ele>
<time>2009-12-30T10:55:04Z</time>
</trkpt>
<trkpt lat="37.954163" lon="-1.054071">
 <ele>173.300000</ele>
<time>2009-12-30T10:55:06Z</time>
</trkpt>
<trkpt lat="37.954173" lon="-1.054073">
 <ele>172.880000</ele>
<time>2009-12-30T10:55:07Z</time>
</trkpt>
<trkpt lat="37.954159" lon="-1.054081">
 <ele>173.560000</ele>
<time>2009-12-30T10:55:08Z</time>
</trkpt>
<trkpt lat="37.954124" lon="-1.054124">
 <ele>172.400000</ele>
<time>2009-12-30T10:55:12Z</time>
</trkpt>
<trkpt lat="37.954108" lon="-1.054148">
 <ele>173.360000</ele>
<time>2009-12-30T10:55:13Z</time>
</trkpt>
<trkpt lat="37.954016" lon="-1.054251">
 <ele>172.560000</ele>
<time>2009-12-30T10:55:23Z</time>
</trkpt>
<trkpt lat="37.954010" lon="-1.054264">
 <ele>172.660000</ele>
<time>2009-12-30T10:55:24Z</time>
</trkpt>
<trkpt lat="37.953956" lon="-1.054301">
 <ele>176.000000</ele>
<time>2009-12-30T10:55:30Z</time>
</trkpt>
<trkpt lat="37.953957" lon="-1.054288">
 <ele>176.280000</ele>
<time>2009-12-30T10:55:31Z</time>
</trkpt>
<trkpt lat="37.953954" lon="-1.054299">
 <ele>175.360000</ele>
<time>2009-12-30T10:55:32Z</time>
</trkpt>
<trkpt lat="37.953955" lon="-1.054293">
 <ele>176.180000</ele>
<time>2009-12-30T10:55:33Z</time>
</trkpt>
<trkpt lat="37.953948" lon="-1.054297">
 <ele>175.780000</ele>
<time>2009-12-30T10:55:34Z</time>
</trkpt>
<trkpt lat="37.953948" lon="-1.054297">
 <ele>175.700000</ele>
<time>2009-12-30T10:55:35Z</time>
</trkpt>
<trkpt lat="37.953933" lon="-1.054301">
 <ele>176.740000</ele>
<time>2009-12-30T10:55:41Z</time>
</trkpt>
<trkpt lat="37.953841" lon="-1.054326">
 <ele>179.520000</ele>
<time>2009-12-30T10:55:47Z</time>
</trkpt>
<trkpt lat="37.953850" lon="-1.054322">
 <ele>180.600000</ele>
<time>2009-12-30T10:55:48Z</time>
</trkpt>
<trkpt lat="37.953849" lon="-1.054325">
 <ele>179.680000</ele>
<time>2009-12-30T10:55:49Z</time>
</trkpt>
<trkpt lat="37.953845" lon="-1.054335">
 <ele>179.960000</ele>
<time>2009-12-30T10:55:50Z</time>
</trkpt>
<trkpt lat="37.953845" lon="-1.054327">
 <ele>179.640000</ele>
<time>2009-12-30T10:55:51Z</time>
</trkpt>
<trkpt lat="37.953845" lon="-1.054327">
 <ele>179.800000</ele>
<time>2009-12-30T10:55:52Z</time>
</trkpt>
<trkpt lat="37.953821" lon="-1.054314">
 <ele>180.600000</ele>
<time>2009-12-30T10:56:55Z</time>
</trkpt>
<trkpt lat="37.953763" lon="-1.054299">
 <ele>181.760000</ele>
<time>2009-12-30T10:56:57Z</time>
</trkpt>
<trkpt lat="37.953732" lon="-1.054291">
 <ele>177.840000</ele>
<time>2009-12-30T10:56:58Z</time>
</trkpt>
<trkpt lat="37.953735" lon="-1.054255">
 <ele>181.840000</ele>
<time>2009-12-30T10:56:59Z</time>
</trkpt>
<trkpt lat="37.953721" lon="-1.054253">
 <ele>179.240000</ele>
<time>2009-12-30T10:57:00Z</time>
</trkpt>
<trkpt lat="37.953721" lon="-1.054268">
 <ele>179.360000</ele>
<time>2009-12-30T10:57:01Z</time>
</trkpt>
<trkpt lat="37.953680" lon="-1.054290">
 <ele>179.640000</ele>
<time>2009-12-30T10:57:03Z</time>
</trkpt>
<trkpt lat="37.953661" lon="-1.054305">
 <ele>181.740000</ele>
<time>2009-12-30T10:57:04Z</time>
</trkpt>
<trkpt lat="37.953675" lon="-1.054314">
 <ele>180.340000</ele>
<time>2009-12-30T10:57:05Z</time>
</trkpt>
<trkpt lat="37.953669" lon="-1.054313">
 <ele>182.220000</ele>
<time>2009-12-30T10:57:06Z</time>
</trkpt>
<trkpt lat="37.953624" lon="-1.054347">
 <ele>182.580000</ele>
<time>2009-12-30T10:57:09Z</time>
</trkpt>
<trkpt lat="37.953603" lon="-1.054363">
 <ele>183.200000</ele>
<time>2009-12-30T10:57:11Z</time>
</trkpt>
<trkpt lat="37.953593" lon="-1.054361">
 <ele>182.460000</ele>
<time>2009-12-30T10:57:12Z</time>
</trkpt>
<trkpt lat="37.953568" lon="-1.054389">
 <ele>182.820000</ele>
<time>2009-12-30T10:57:16Z</time>
</trkpt>
<trkpt lat="37.953535" lon="-1.054403">
 <ele>184.280000</ele>
<time>2009-12-30T10:57:21Z</time>
</trkpt>
<trkpt lat="37.953527" lon="-1.054427">
 <ele>184.120000</ele>
<time>2009-12-30T10:57:22Z</time>
</trkpt>
<trkpt lat="37.953519" lon="-1.054422">
 <ele>183.880000</ele>
<time>2009-12-30T10:57:23Z</time>
</trkpt>
<trkpt lat="37.953513" lon="-1.054435">
 <ele>184.140000</ele>
<time>2009-12-30T10:57:24Z</time>
</trkpt>
<trkpt lat="37.953480" lon="-1.054469">
 <ele>189.080000</ele>
<time>2009-12-30T10:57:30Z</time>
</trkpt>
<trkpt lat="37.953479" lon="-1.054467">
 <ele>188.520000</ele>
<time>2009-12-30T10:57:31Z</time>
</trkpt>
<trkpt lat="37.953481" lon="-1.054465">
 <ele>189.360000</ele>
<time>2009-12-30T10:57:32Z</time>
</trkpt>
<trkpt lat="37.953478" lon="-1.054474">
 <ele>189.820000</ele>
<time>2009-12-30T10:57:33Z</time>
</trkpt>
<trkpt lat="37.953481" lon="-1.054471">
 <ele>188.920000</ele>
<time>2009-12-30T10:57:34Z</time>
</trkpt>
<trkpt lat="37.953477" lon="-1.054475">
 <ele>189.560000</ele>
<time>2009-12-30T10:57:35Z</time>
</trkpt>
<trkpt lat="37.953477" lon="-1.054475">
 <ele>189.000000</ele>
<time>2009-12-30T10:57:36Z</time>
</trkpt>
<trkpt lat="37.953470" lon="-1.054486">
 <ele>190.920000</ele>
<time>2009-12-30T10:57:37Z</time>
</trkpt>
<trkpt lat="37.953431" lon="-1.054541">
 <ele>199.520000</ele>
<time>2009-12-30T10:57:41Z</time>
</trkpt>
<trkpt lat="37.953402" lon="-1.054603">
 <ele>193.940000</ele>
<time>2009-12-30T10:57:46Z</time>
</trkpt>
<trkpt lat="37.953395" lon="-1.054618">
 <ele>193.700000</ele>
<time>2009-12-30T10:57:47Z</time>
</trkpt>
<trkpt lat="37.953328" lon="-1.054718">
 <ele>196.040000</ele>
<time>2009-12-30T10:57:58Z</time>
</trkpt>
<trkpt lat="37.953332" lon="-1.054722">
 <ele>195.260000</ele>
<time>2009-12-30T10:57:59Z</time>
</trkpt>
<trkpt lat="37.953325" lon="-1.054726">
 <ele>195.120000</ele>
<time>2009-12-30T10:58:00Z</time>
</trkpt>
<trkpt lat="37.953297" lon="-1.054795">
 <ele>197.080000</ele>
<time>2009-12-30T10:58:03Z</time>
</trkpt>
<trkpt lat="37.953262" lon="-1.054849">
 <ele>196.940000</ele>
<time>2009-12-30T10:58:10Z</time>
</trkpt>
<trkpt lat="37.953262" lon="-1.054846">
 <ele>196.740000</ele>
<time>2009-12-30T10:58:11Z</time>
</trkpt>
<trkpt lat="37.953260" lon="-1.054846">
 <ele>196.240000</ele>
<time>2009-12-30T10:58:12Z</time>
</trkpt>
<trkpt lat="37.953260" lon="-1.054853">
 <ele>196.700000</ele>
<time>2009-12-30T10:58:13Z</time>
</trkpt>
<trkpt lat="37.953294" lon="-1.055164">
 <ele>197.320000</ele>
<time>2009-12-30T10:58:35Z</time>
</trkpt>
<trkpt lat="37.953286" lon="-1.055221">
 <ele>198.240000</ele>
<time>2009-12-30T10:58:40Z</time>
</trkpt>
<trkpt lat="37.953280" lon="-1.055217">
 <ele>197.980000</ele>
<time>2009-12-30T10:58:41Z</time>
</trkpt>
<trkpt lat="37.953278" lon="-1.055216">
 <ele>198.480000</ele>
<time>2009-12-30T10:58:42Z</time>
</trkpt>
<trkpt lat="37.953285" lon="-1.055230">
 <ele>197.780000</ele>
<time>2009-12-30T10:58:43Z</time>
</trkpt>
<trkpt lat="37.953269" lon="-1.055307">
 <ele>200.560000</ele>
<time>2009-12-30T10:58:46Z</time>
</trkpt>
<trkpt lat="37.953265" lon="-1.055390">
 <ele>208.580000</ele>
<time>2009-12-30T10:58:55Z</time>
</trkpt>
<trkpt lat="37.953273" lon="-1.055384">
 <ele>209.380000</ele>
<time>2009-12-30T10:58:56Z</time>
</trkpt>
<trkpt lat="37.953266" lon="-1.055386">
 <ele>210.320000</ele>
<time>2009-12-30T10:58:57Z</time>
</trkpt>
<trkpt lat="37.953262" lon="-1.055381">
 <ele>208.600000</ele>
<time>2009-12-30T10:58:58Z</time>
</trkpt>
<trkpt lat="37.953251" lon="-1.055423">
 <ele>210.260000</ele>
<time>2009-12-30T10:59:00Z</time>
</trkpt>
<trkpt lat="37.953188" lon="-1.055563">
 <ele>204.200000</ele>
<time>2009-12-30T10:59:09Z</time>
</trkpt>
<trkpt lat="37.953183" lon="-1.055574">
 <ele>203.920000</ele>
<time>2009-12-30T10:59:10Z</time>
</trkpt>
<trkpt lat="37.953110" lon="-1.055668">
 <ele>201.880000</ele>
<time>2009-12-30T10:59:19Z</time>
</trkpt>
<trkpt lat="37.953102" lon="-1.055686">
 <ele>202.540000</ele>
<time>2009-12-30T10:59:20Z</time>
</trkpt>
<trkpt lat="37.953026" lon="-1.055794">
 <ele>201.960000</ele>
<time>2009-12-30T10:59:31Z</time>
</trkpt>
<trkpt lat="37.953024" lon="-1.055793">
 <ele>201.900000</ele>
<time>2009-12-30T10:59:32Z</time>
</trkpt>
<trkpt lat="37.953018" lon="-1.055805">
 <ele>201.840000</ele>
<time>2009-12-30T10:59:33Z</time>
</trkpt>
<trkpt lat="37.953006" lon="-1.055844">
 <ele>199.260000</ele>
<time>2009-12-30T10:59:36Z</time>
</trkpt>
<trkpt lat="37.952995" lon="-1.055862">
 <ele>198.760000</ele>
<time>2009-12-30T10:59:37Z</time>
</trkpt>
<trkpt lat="37.952901" lon="-1.056007">
 <ele>205.400000</ele>
<time>2009-12-30T10:59:53Z</time>
</trkpt>
<trkpt lat="37.952893" lon="-1.056018">
 <ele>205.920000</ele>
<time>2009-12-30T10:59:54Z</time>
</trkpt>
<trkpt lat="37.952839" lon="-1.056085">
 <ele>212.480000</ele>
<time>2009-12-30T11:00:03Z</time>
</trkpt>
<trkpt lat="37.952650" lon="-1.056388">
 <ele>205.460000</ele>
<time>2009-12-30T11:00:25Z</time>
</trkpt>
<trkpt lat="37.952583" lon="-1.056558">
 <ele>203.840000</ele>
<time>2009-12-30T11:00:39Z</time>
</trkpt>
<trkpt lat="37.952541" lon="-1.056630">
 <ele>204.140000</ele>
<time>2009-12-30T11:00:45Z</time>
</trkpt>
<trkpt lat="37.952096" lon="-1.057179">
 <ele>198.560000</ele>
<time>2009-12-30T11:01:37Z</time>
</trkpt>
<trkpt lat="37.951636" lon="-1.057238">
 <ele>187.500000</ele>
<time>2009-12-30T11:02:25Z</time>
</trkpt>
<trkpt lat="37.951449" lon="-1.057308">
 <ele>185.340000</ele>
<time>2009-12-30T11:02:40Z</time>
</trkpt>
<trkpt lat="37.951437" lon="-1.057315">
 <ele>185.780000</ele>
<time>2009-12-30T11:02:43Z</time>
</trkpt>
<trkpt lat="37.951399" lon="-1.057344">
 <ele>186.880000</ele>
<time>2009-12-30T11:02:47Z</time>
</trkpt>
<trkpt lat="37.951407" lon="-1.057342">
 <ele>187.500000</ele>
<time>2009-12-30T11:02:48Z</time>
</trkpt>
<trkpt lat="37.951392" lon="-1.057352">
 <ele>187.080000</ele>
<time>2009-12-30T11:02:49Z</time>
</trkpt>
<trkpt lat="37.951379" lon="-1.057377">
 <ele>190.400000</ele>
<time>2009-12-30T11:02:52Z</time>
</trkpt>
<trkpt lat="37.951384" lon="-1.057376">
 <ele>190.180000</ele>
<time>2009-12-30T11:02:53Z</time>
</trkpt>
<trkpt lat="37.951378" lon="-1.057373">
 <ele>191.300000</ele>
<time>2009-12-30T11:02:54Z</time>
</trkpt>
<trkpt lat="37.951379" lon="-1.057393">
 <ele>191.900000</ele>
<time>2009-12-30T11:02:55Z</time>
</trkpt>
<trkpt lat="37.951370" lon="-1.057445">
 <ele>197.660000</ele>
<time>2009-12-30T11:03:00Z</time>
</trkpt>
<trkpt lat="37.951362" lon="-1.057463">
 <ele>199.720000</ele>
<time>2009-12-30T11:03:02Z</time>
</trkpt>
<trkpt lat="37.951378" lon="-1.057471">
 <ele>198.940000</ele>
<time>2009-12-30T11:03:03Z</time>
</trkpt>
<trkpt lat="37.951360" lon="-1.057460">
 <ele>200.840000</ele>
<time>2009-12-30T11:03:04Z</time>
</trkpt>
<trkpt lat="37.951371" lon="-1.057450">
 <ele>198.580000</ele>
<time>2009-12-30T11:03:05Z</time>
</trkpt>
<trkpt lat="37.951366" lon="-1.057467">
 <ele>201.540000</ele>
<time>2009-12-30T11:03:06Z</time>
</trkpt>
<trkpt lat="37.951291" lon="-1.057580">
 <ele>191.700000</ele>
<time>2009-12-30T11:03:13Z</time>
</trkpt>
<trkpt lat="37.951093" lon="-1.057849">
 <ele>185.920000</ele>
<time>2009-12-30T11:03:39Z</time>
</trkpt>
<trkpt lat="37.951147" lon="-1.057888">
 <ele>190.480000</ele>
<time>2009-12-30T11:03:45Z</time>
</trkpt>
<trkpt lat="37.951153" lon="-1.057914">
 <ele>188.740000</ele>
<time>2009-12-30T11:03:46Z</time>
</trkpt>
<trkpt lat="37.951172" lon="-1.057921">
 <ele>189.720000</ele>
<time>2009-12-30T11:03:48Z</time>
</trkpt>
<trkpt lat="37.951170" lon="-1.057925">
 <ele>188.640000</ele>
<time>2009-12-30T11:03:49Z</time>
</trkpt>
<trkpt lat="37.951184" lon="-1.057997">
 <ele>187.820000</ele>
<time>2009-12-30T11:03:52Z</time>
</trkpt>
<trkpt lat="37.951186" lon="-1.057991">
 <ele>186.440000</ele>
<time>2009-12-30T11:03:53Z</time>
</trkpt>
<trkpt lat="37.951181" lon="-1.058006">
 <ele>187.680000</ele>
<time>2009-12-30T11:03:54Z</time>
</trkpt>
<trkpt lat="37.951203" lon="-1.058069">
 <ele>187.820000</ele>
<time>2009-12-30T11:03:58Z</time>
</trkpt>
<trkpt lat="37.951184" lon="-1.058147">
 <ele>185.640000</ele>
<time>2009-12-30T11:04:04Z</time>
</trkpt>
<trkpt lat="37.951191" lon="-1.058208">
 <ele>187.480000</ele>
<time>2009-12-30T11:04:07Z</time>
</trkpt>
<trkpt lat="37.951162" lon="-1.058254">
 <ele>190.400000</ele>
<time>2009-12-30T11:04:10Z</time>
</trkpt>
<trkpt lat="37.951164" lon="-1.058256">
 <ele>192.260000</ele>
<time>2009-12-30T11:04:11Z</time>
</trkpt>
<trkpt lat="37.951160" lon="-1.058316">
 <ele>194.540000</ele>
<time>2009-12-30T11:04:14Z</time>
</trkpt>
<trkpt lat="37.951165" lon="-1.058310">
 <ele>196.080000</ele>
<time>2009-12-30T11:04:15Z</time>
</trkpt>
<trkpt lat="37.951168" lon="-1.058321">
 <ele>198.320000</ele>
<time>2009-12-30T11:04:16Z</time>
</trkpt>
<trkpt lat="37.951143" lon="-1.058377">
 <ele>202.980000</ele>
<time>2009-12-30T11:04:21Z</time>
</trkpt>
<trkpt lat="37.951124" lon="-1.058467">
 <ele>203.040000</ele>
<time>2009-12-30T11:04:28Z</time>
</trkpt>
<trkpt lat="37.951118" lon="-1.058528">
 <ele>204.480000</ele>
<time>2009-12-30T11:04:33Z</time>
</trkpt>
<trkpt lat="37.951121" lon="-1.058546">
 <ele>203.260000</ele>
<time>2009-12-30T11:04:34Z</time>
</trkpt>
<trkpt lat="37.951101" lon="-1.058655">
 <ele>194.540000</ele>
<time>2009-12-30T11:04:41Z</time>
</trkpt>
<trkpt lat="37.951090" lon="-1.058840">
 <ele>192.000000</ele>
<time>2009-12-30T11:04:53Z</time>
</trkpt>
<trkpt lat="37.951068" lon="-1.058898">
 <ele>191.080000</ele>
<time>2009-12-30T11:04:57Z</time>
</trkpt>
<trkpt lat="37.951039" lon="-1.058939">
 <ele>188.400000</ele>
<time>2009-12-30T11:05:01Z</time>
</trkpt>
<trkpt lat="37.951036" lon="-1.058980">
 <ele>188.180000</ele>
<time>2009-12-30T11:05:03Z</time>
</trkpt>
<trkpt lat="37.951022" lon="-1.058997">
 <ele>189.340000</ele>
<time>2009-12-30T11:05:05Z</time>
</trkpt>
<trkpt lat="37.951009" lon="-1.059012">
 <ele>188.840000</ele>
<time>2009-12-30T11:05:06Z</time>
</trkpt>
<trkpt lat="37.950994" lon="-1.059036">
 <ele>188.260000</ele>
<time>2009-12-30T11:05:09Z</time>
</trkpt>
<trkpt lat="37.950989" lon="-1.059055">
 <ele>188.380000</ele>
<time>2009-12-30T11:05:10Z</time>
</trkpt>
<trkpt lat="37.950922" lon="-1.059159">
 <ele>183.960000</ele>
<time>2009-12-30T11:05:20Z</time>
</trkpt>
<trkpt lat="37.950814" lon="-1.059225">
 <ele>178.500000</ele>
<time>2009-12-30T11:05:33Z</time>
</trkpt>
<trkpt lat="37.950754" lon="-1.059239">
 <ele>176.380000</ele>
<time>2009-12-30T11:05:38Z</time>
</trkpt>
<trkpt lat="37.950636" lon="-1.059275">
 <ele>174.420000</ele>
<time>2009-12-30T11:05:49Z</time>
</trkpt>
<trkpt lat="37.950548" lon="-1.059281">
 <ele>172.800000</ele>
<time>2009-12-30T11:05:56Z</time>
</trkpt>
<trkpt lat="37.950536" lon="-1.059278">
 <ele>172.380000</ele>
<time>2009-12-30T11:05:59Z</time>
</trkpt>
<trkpt lat="37.950510" lon="-1.059272">
 <ele>171.900000</ele>
<time>2009-12-30T11:06:02Z</time>
</trkpt>
<trkpt lat="37.950507" lon="-1.059267">
 <ele>172.840000</ele>
<time>2009-12-30T11:06:04Z</time>
</trkpt>
<trkpt lat="37.950490" lon="-1.059274">
 <ele>172.420000</ele>
<time>2009-12-30T11:06:06Z</time>
</trkpt>
<trkpt lat="37.950468" lon="-1.059297">
 <ele>173.500000</ele>
<time>2009-12-30T11:06:11Z</time>
</trkpt>
<trkpt lat="37.950479" lon="-1.059311">
 <ele>174.940000</ele>
<time>2009-12-30T11:06:14Z</time>
</trkpt>
<trkpt lat="37.950459" lon="-1.059311">
 <ele>176.740000</ele>
<time>2009-12-30T11:06:15Z</time>
</trkpt>
<trkpt lat="37.950468" lon="-1.059315">
 <ele>176.460000</ele>
<time>2009-12-30T11:06:16Z</time>
</trkpt>
<trkpt lat="37.950463" lon="-1.059309">
 <ele>175.840000</ele>
<time>2009-12-30T11:06:17Z</time>
</trkpt>
<trkpt lat="37.950452" lon="-1.059323">
 <ele>178.520000</ele>
<time>2009-12-30T11:06:18Z</time>
</trkpt>
<trkpt lat="37.950365" lon="-1.059469">
 <ele>194.920000</ele>
<time>2009-12-30T11:06:28Z</time>
</trkpt>
<trkpt lat="37.950357" lon="-1.059481">
 <ele>196.800000</ele>
<time>2009-12-30T11:06:29Z</time>
</trkpt>
<trkpt lat="37.950264" lon="-1.059649">
 <ele>191.280000</ele>
<time>2009-12-30T11:06:43Z</time>
</trkpt>
<trkpt lat="37.950244" lon="-1.059671">
 <ele>188.300000</ele>
<time>2009-12-30T11:06:44Z</time>
</trkpt>
<trkpt lat="37.950063" lon="-1.059815">
 <ele>183.360000</ele>
<time>2009-12-30T11:07:01Z</time>
</trkpt>
<trkpt lat="37.950062" lon="-1.059822">
 <ele>183.140000</ele>
<time>2009-12-30T11:07:02Z</time>
</trkpt>
<trkpt lat="37.950013" lon="-1.059859">
 <ele>183.280000</ele>
<time>2009-12-30T11:07:06Z</time>
</trkpt>
<trkpt lat="37.950002" lon="-1.059869">
 <ele>181.620000</ele>
<time>2009-12-30T11:07:07Z</time>
</trkpt>
<trkpt lat="37.949900" lon="-1.059912">
 <ele>179.940000</ele>
<time>2009-12-30T11:07:17Z</time>
</trkpt>
<trkpt lat="37.949889" lon="-1.059926">
 <ele>180.520000</ele>
<time>2009-12-30T11:07:18Z</time>
</trkpt>
<trkpt lat="37.949885" lon="-1.059922">
 <ele>178.800000</ele>
<time>2009-12-30T11:07:19Z</time>
</trkpt>
<trkpt lat="37.949840" lon="-1.059931">
 <ele>180.100000</ele>
<time>2009-12-30T11:07:23Z</time>
</trkpt>
<trkpt lat="37.949780" lon="-1.059943">
 <ele>179.640000</ele>
<time>2009-12-30T11:07:29Z</time>
</trkpt>
<trkpt lat="37.949767" lon="-1.059945">
 <ele>180.720000</ele>
<time>2009-12-30T11:07:31Z</time>
</trkpt>
<trkpt lat="37.949724" lon="-1.059963">
 <ele>180.040000</ele>
<time>2009-12-30T11:07:36Z</time>
</trkpt>
<trkpt lat="37.949702" lon="-1.059969">
 <ele>179.460000</ele>
<time>2009-12-30T11:07:38Z</time>
</trkpt>
<trkpt lat="37.949696" lon="-1.059973">
 <ele>179.880000</ele>
<time>2009-12-30T11:07:41Z</time>
</trkpt>
<trkpt lat="37.949695" lon="-1.059973">
 <ele>179.980000</ele>
<time>2009-12-30T11:07:42Z</time>
</trkpt>
<trkpt lat="37.949689" lon="-1.059972">
 <ele>179.860000</ele>
<time>2009-12-30T11:07:43Z</time>
</trkpt>
<trkpt lat="37.949650" lon="-1.059989">
 <ele>178.940000</ele>
<time>2009-12-30T11:07:47Z</time>
</trkpt>
<trkpt lat="37.949633" lon="-1.060002">
 <ele>178.240000</ele>
<time>2009-12-30T11:07:48Z</time>
</trkpt>
<trkpt lat="37.949570" lon="-1.060024">
 <ele>178.760000</ele>
<time>2009-12-30T11:07:56Z</time>
</trkpt>
<trkpt lat="37.949556" lon="-1.060031">
 <ele>176.940000</ele>
<time>2009-12-30T11:07:58Z</time>
</trkpt>
<trkpt lat="37.949524" lon="-1.060043">
 <ele>177.440000</ele>
<time>2009-12-30T11:08:01Z</time>
</trkpt>
<trkpt lat="37.949515" lon="-1.060052">
 <ele>175.760000</ele>
<time>2009-12-30T11:08:02Z</time>
</trkpt>
<trkpt lat="37.949458" lon="-1.060095">
 <ele>174.420000</ele>
<time>2009-12-30T11:08:08Z</time>
</trkpt>
<trkpt lat="37.949450" lon="-1.060100">
 <ele>174.300000</ele>
<time>2009-12-30T11:08:09Z</time>
</trkpt>
<trkpt lat="37.949370" lon="-1.060104">
 <ele>172.440000</ele>
<time>2009-12-30T11:08:18Z</time>
</trkpt>
<trkpt lat="37.949332" lon="-1.060102">
 <ele>171.400000</ele>
<time>2009-12-30T11:08:23Z</time>
</trkpt>
<trkpt lat="37.949339" lon="-1.060108">
 <ele>171.340000</ele>
<time>2009-12-30T11:08:24Z</time>
</trkpt>
<trkpt lat="37.949335" lon="-1.060101">
 <ele>171.620000</ele>
<time>2009-12-30T11:08:25Z</time>
</trkpt>
<trkpt lat="37.949337" lon="-1.060102">
 <ele>171.020000</ele>
<time>2009-12-30T11:08:26Z</time>
</trkpt>
<trkpt lat="37.949320" lon="-1.060107">
 <ele>170.540000</ele>
<time>2009-12-30T11:08:27Z</time>
</trkpt>
<trkpt lat="37.949298" lon="-1.060122">
 <ele>170.000000</ele>
<time>2009-12-30T11:08:30Z</time>
</trkpt>
<trkpt lat="37.949289" lon="-1.060133">
 <ele>169.900000</ele>
<time>2009-12-30T11:08:31Z</time>
</trkpt>
<trkpt lat="37.949216" lon="-1.060169">
 <ele>172.240000</ele>
<time>2009-12-30T11:08:38Z</time>
</trkpt>
<trkpt lat="37.949216" lon="-1.060170">
 <ele>171.880000</ele>
<time>2009-12-30T11:08:39Z</time>
</trkpt>
<trkpt lat="37.949212" lon="-1.060170">
 <ele>172.900000</ele>
<time>2009-12-30T11:08:40Z</time>
</trkpt>
<trkpt lat="37.949190" lon="-1.060200">
 <ele>174.660000</ele>
<time>2009-12-30T11:08:43Z</time>
</trkpt>
<trkpt lat="37.949208" lon="-1.060202">
 <ele>176.680000</ele>
<time>2009-12-30T11:08:44Z</time>
</trkpt>
<trkpt lat="37.949204" lon="-1.060196">
 <ele>176.160000</ele>
<time>2009-12-30T11:08:45Z</time>
</trkpt>
<trkpt lat="37.949214" lon="-1.060212">
 <ele>176.900000</ele>
<time>2009-12-30T11:08:47Z</time>
</trkpt>
<trkpt lat="37.949237" lon="-1.060240">
 <ele>176.040000</ele>
<time>2009-12-30T11:08:50Z</time>
</trkpt>
<trkpt lat="37.949233" lon="-1.060251">
 <ele>176.620000</ele>
<time>2009-12-30T11:08:51Z</time>
</trkpt>
<trkpt lat="37.949238" lon="-1.060261">
 <ele>174.160000</ele>
<time>2009-12-30T11:08:52Z</time>
</trkpt>
<trkpt lat="37.949242" lon="-1.060259">
 <ele>175.100000</ele>
<time>2009-12-30T11:08:53Z</time>
</trkpt>
<trkpt lat="37.949288" lon="-1.060281">
 <ele>176.560000</ele>
<time>2009-12-30T11:08:56Z</time>
</trkpt>
<trkpt lat="37.949286" lon="-1.060275">
 <ele>174.880000</ele>
<time>2009-12-30T11:08:57Z</time>
</trkpt>
<trkpt lat="37.949293" lon="-1.060278">
 <ele>177.000000</ele>
<time>2009-12-30T11:08:58Z</time>
</trkpt>
<trkpt lat="37.949325" lon="-1.060280">
 <ele>177.460000</ele>
<time>2009-12-30T11:09:02Z</time>
</trkpt>
<trkpt lat="37.949331" lon="-1.060278">
 <ele>174.960000</ele>
<time>2009-12-30T11:09:03Z</time>
</trkpt>
<trkpt lat="37.949330" lon="-1.060278">
 <ele>174.200000</ele>
<time>2009-12-30T11:09:04Z</time>
</trkpt>
<trkpt lat="37.949347" lon="-1.060288">
 <ele>171.860000</ele>
<time>2009-12-30T11:09:07Z</time>
</trkpt>
<trkpt lat="37.949363" lon="-1.060293">
 <ele>170.860000</ele>
<time>2009-12-30T11:09:09Z</time>
</trkpt>
<trkpt lat="37.949367" lon="-1.060298">
 <ele>169.940000</ele>
<time>2009-12-30T11:09:10Z</time>
</trkpt>
<trkpt lat="37.949457" lon="-1.060347">
 <ele>169.180000</ele>
<time>2009-12-30T11:09:20Z</time>
</trkpt>
<trkpt lat="37.949490" lon="-1.060372">
 <ele>167.640000</ele>
<time>2009-12-30T11:09:23Z</time>
</trkpt>
<trkpt lat="37.949539" lon="-1.060405">
 <ele>168.780000</ele>
<time>2009-12-30T11:09:29Z</time>
</trkpt>
<trkpt lat="37.949533" lon="-1.060406">
 <ele>169.220000</ele>
<time>2009-12-30T11:09:30Z</time>
</trkpt>
<trkpt lat="37.949551" lon="-1.060409">
 <ele>168.020000</ele>
<time>2009-12-30T11:09:31Z</time>
</trkpt>
<trkpt lat="37.949587" lon="-1.060418">
 <ele>167.060000</ele>
<time>2009-12-30T11:09:34Z</time>
</trkpt>
<trkpt lat="37.949606" lon="-1.060407">
 <ele>166.280000</ele>
<time>2009-12-30T11:09:36Z</time>
</trkpt>
<trkpt lat="37.949605" lon="-1.060408">
 <ele>167.120000</ele>
<time>2009-12-30T11:09:37Z</time>
</trkpt>
<trkpt lat="37.949600" lon="-1.060409">
 <ele>168.460000</ele>
<time>2009-12-30T11:09:38Z</time>
</trkpt>
<trkpt lat="37.949598" lon="-1.060410">
 <ele>166.140000</ele>
<time>2009-12-30T11:09:39Z</time>
</trkpt>
<trkpt lat="37.949598" lon="-1.060420">
 <ele>168.140000</ele>
<time>2009-12-30T11:09:40Z</time>
</trkpt>
<trkpt lat="37.949603" lon="-1.060413">
 <ele>167.500000</ele>
<time>2009-12-30T11:09:41Z</time>
</trkpt>
<trkpt lat="37.949603" lon="-1.060413">
 <ele>167.500000</ele>
<time>2009-12-30T11:09:42Z</time>
</trkpt>
<trkpt lat="37.949604" lon="-1.060418">
 <ele>165.220000</ele>
<time>2009-12-30T11:09:54Z</time>
</trkpt>
<trkpt lat="37.949614" lon="-1.060416">
 <ele>158.140000</ele>
<time>2009-12-30T11:09:56Z</time>
</trkpt>
<trkpt lat="37.949610" lon="-1.060426">
 <ele>156.520000</ele>
<time>2009-12-30T11:09:58Z</time>
</trkpt>
<trkpt lat="37.949612" lon="-1.060438">
 <ele>160.480000</ele>
<time>2009-12-30T11:09:59Z</time>
</trkpt>
<trkpt lat="37.949619" lon="-1.060432">
 <ele>160.700000</ele>
<time>2009-12-30T11:10:00Z</time>
</trkpt>
<trkpt lat="37.949674" lon="-1.060365">
 <ele>162.440000</ele>
<time>2009-12-30T11:10:06Z</time>
</trkpt>
<trkpt lat="37.949687" lon="-1.060350">
 <ele>163.460000</ele>
<time>2009-12-30T11:10:07Z</time>
</trkpt>
<trkpt lat="37.949715" lon="-1.060327">
 <ele>162.420000</ele>
<time>2009-12-30T11:10:11Z</time>
</trkpt>
<trkpt lat="37.949715" lon="-1.060324">
 <ele>163.280000</ele>
<time>2009-12-30T11:10:12Z</time>
</trkpt>
<trkpt lat="37.949717" lon="-1.060330">
 <ele>164.040000</ele>
<time>2009-12-30T11:10:13Z</time>
</trkpt>
<trkpt lat="37.949718" lon="-1.060331">
 <ele>164.620000</ele>
<time>2009-12-30T11:10:14Z</time>
</trkpt>
<trkpt lat="37.949722" lon="-1.060323">
 <ele>163.540000</ele>
<time>2009-12-30T11:10:15Z</time>
</trkpt>
<trkpt lat="37.949723" lon="-1.060323">
 <ele>165.220000</ele>
<time>2009-12-30T11:10:16Z</time>
</trkpt>
<trkpt lat="37.949723" lon="-1.060323">
 <ele>164.100000</ele>
<time>2009-12-30T11:10:17Z</time>
</trkpt>
<trkpt lat="37.949742" lon="-1.060318">
 <ele>174.620000</ele>
<time>2009-12-30T11:10:29Z</time>
</trkpt>
<trkpt lat="37.949828" lon="-1.060271">
 <ele>165.940000</ele>
<time>2009-12-30T11:10:32Z</time>
</trkpt>
<trkpt lat="37.949894" lon="-1.060266">
 <ele>178.140000</ele>
<time>2009-12-30T11:10:38Z</time>
</trkpt>
<trkpt lat="37.949900" lon="-1.060268">
 <ele>177.720000</ele>
<time>2009-12-30T11:10:39Z</time>
</trkpt>
<trkpt lat="37.949895" lon="-1.060277">
 <ele>175.740000</ele>
<time>2009-12-30T11:10:40Z</time>
</trkpt>
<trkpt lat="37.949897" lon="-1.060271">
 <ele>176.500000</ele>
<time>2009-12-30T11:10:41Z</time>
</trkpt>
<trkpt lat="37.949899" lon="-1.060273">
 <ele>176.020000</ele>
<time>2009-12-30T11:10:42Z</time>
</trkpt>
<trkpt lat="37.949918" lon="-1.060287">
 <ele>169.280000</ele>
<time>2009-12-30T11:10:46Z</time>
</trkpt>
<trkpt lat="37.949911" lon="-1.060307">
 <ele>169.100000</ele>
<time>2009-12-30T11:10:47Z</time>
</trkpt>
<trkpt lat="37.949913" lon="-1.060304">
 <ele>168.960000</ele>
<time>2009-12-30T11:10:48Z</time>
</trkpt>
<trkpt lat="37.949941" lon="-1.060310">
 <ele>162.940000</ele>
<time>2009-12-30T11:10:52Z</time>
</trkpt>
<trkpt lat="37.949938" lon="-1.060305">
 <ele>162.460000</ele>
<time>2009-12-30T11:10:53Z</time>
</trkpt>
<trkpt lat="37.949935" lon="-1.060309">
 <ele>162.440000</ele>
<time>2009-12-30T11:10:54Z</time>
</trkpt>
<trkpt lat="37.949943" lon="-1.060309">
 <ele>163.540000</ele>
<time>2009-12-30T11:10:55Z</time>
</trkpt>
<trkpt lat="37.949942" lon="-1.060310">
 <ele>162.260000</ele>
<time>2009-12-30T11:10:56Z</time>
</trkpt>
<trkpt lat="37.949965" lon="-1.060341">
 <ele>159.960000</ele>
<time>2009-12-30T11:10:59Z</time>
</trkpt>
<trkpt lat="37.949976" lon="-1.060357">
 <ele>161.780000</ele>
<time>2009-12-30T11:11:00Z</time>
</trkpt>
<trkpt lat="37.949964" lon="-1.060352">
 <ele>159.460000</ele>
<time>2009-12-30T11:11:01Z</time>
</trkpt>
<trkpt lat="37.949969" lon="-1.060360">
 <ele>160.320000</ele>
<time>2009-12-30T11:11:02Z</time>
</trkpt>
<trkpt lat="37.949962" lon="-1.060351">
 <ele>160.520000</ele>
<time>2009-12-30T11:11:03Z</time>
</trkpt>
<trkpt lat="37.949973" lon="-1.060365">
 <ele>159.760000</ele>
<time>2009-12-30T11:11:04Z</time>
</trkpt>
<trkpt lat="37.950041" lon="-1.060389">
 <ele>159.660000</ele>
<time>2009-12-30T11:11:07Z</time>
</trkpt>
<trkpt lat="37.950122" lon="-1.060358">
 <ele>155.760000</ele>
<time>2009-12-30T11:11:12Z</time>
</trkpt>
<trkpt lat="37.950133" lon="-1.060368">
 <ele>154.040000</ele>
<time>2009-12-30T11:11:15Z</time>
</trkpt>
<trkpt lat="37.950157" lon="-1.060364">
 <ele>151.960000</ele>
<time>2009-12-30T11:11:17Z</time>
</trkpt>
<trkpt lat="37.950206" lon="-1.060344">
 <ele>151.440000</ele>
<time>2009-12-30T11:11:21Z</time>
</trkpt>
<trkpt lat="37.950207" lon="-1.060360">
 <ele>151.720000</ele>
<time>2009-12-30T11:11:22Z</time>
</trkpt>
<trkpt lat="37.950224" lon="-1.060359">
 <ele>152.160000</ele>
<time>2009-12-30T11:11:24Z</time>
</trkpt>
<trkpt lat="37.950243" lon="-1.060358">
 <ele>152.300000</ele>
<time>2009-12-30T11:11:26Z</time>
</trkpt>
<trkpt lat="37.950249" lon="-1.060367">
 <ele>152.040000</ele>
<time>2009-12-30T11:11:27Z</time>
</trkpt>
<trkpt lat="37.950312" lon="-1.060378">
 <ele>154.300000</ele>
<time>2009-12-30T11:11:33Z</time>
</trkpt>
<trkpt lat="37.950354" lon="-1.060397">
 <ele>158.360000</ele>
<time>2009-12-30T11:11:37Z</time>
</trkpt>
<trkpt lat="37.950348" lon="-1.060414">
 <ele>158.780000</ele>
<time>2009-12-30T11:11:39Z</time>
</trkpt>
<trkpt lat="37.950349" lon="-1.060403">
 <ele>160.820000</ele>
<time>2009-12-30T11:11:40Z</time>
</trkpt>
<trkpt lat="37.950364" lon="-1.060414">
 <ele>161.180000</ele>
<time>2009-12-30T11:11:41Z</time>
</trkpt>
<trkpt lat="37.950383" lon="-1.060431">
 <ele>165.800000</ele>
<time>2009-12-30T11:11:44Z</time>
</trkpt>
<trkpt lat="37.950349" lon="-1.060473">
 <ele>167.760000</ele>
<time>2009-12-30T11:11:48Z</time>
</trkpt>
<trkpt lat="37.950343" lon="-1.060479">
 <ele>167.540000</ele>
<time>2009-12-30T11:11:50Z</time>
</trkpt>
<trkpt lat="37.950324" lon="-1.060521">
 <ele>168.660000</ele>
<time>2009-12-30T11:11:54Z</time>
</trkpt>
<trkpt lat="37.950327" lon="-1.060535">
 <ele>169.120000</ele>
<time>2009-12-30T11:11:55Z</time>
</trkpt>
<trkpt lat="37.950303" lon="-1.060667">
 <ele>168.040000</ele>
<time>2009-12-30T11:12:02Z</time>
</trkpt>
<trkpt lat="37.950298" lon="-1.060713">
 <ele>167.820000</ele>
<time>2009-12-30T11:12:07Z</time>
</trkpt>
<trkpt lat="37.950283" lon="-1.060715">
 <ele>168.060000</ele>
<time>2009-12-30T11:12:08Z</time>
</trkpt>
<trkpt lat="37.950254" lon="-1.060756">
 <ele>167.440000</ele>
<time>2009-12-30T11:12:12Z</time>
</trkpt>
<trkpt lat="37.950251" lon="-1.060775">
 <ele>167.060000</ele>
<time>2009-12-30T11:12:13Z</time>
</trkpt>
<trkpt lat="37.950208" lon="-1.060818">
 <ele>165.500000</ele>
<time>2009-12-30T11:12:17Z</time>
</trkpt>
<trkpt lat="37.950201" lon="-1.060814">
 <ele>164.120000</ele>
<time>2009-12-30T11:12:19Z</time>
</trkpt>
<trkpt lat="37.950206" lon="-1.060829">
 <ele>164.560000</ele>
<time>2009-12-30T11:12:20Z</time>
</trkpt>
<trkpt lat="37.950207" lon="-1.060838">
 <ele>163.900000</ele>
<time>2009-12-30T11:12:21Z</time>
</trkpt>
<trkpt lat="37.950206" lon="-1.060830">
 <ele>164.640000</ele>
<time>2009-12-30T11:12:22Z</time>
</trkpt>
<trkpt lat="37.950202" lon="-1.060838">
 <ele>163.840000</ele>
<time>2009-12-30T11:12:23Z</time>
</trkpt>
<trkpt lat="37.950182" lon="-1.060983">
 <ele>159.400000</ele>
<time>2009-12-30T11:12:29Z</time>
</trkpt>
<trkpt lat="37.950159" lon="-1.060980">
 <ele>158.540000</ele>
<time>2009-12-30T11:12:31Z</time>
</trkpt>
<trkpt lat="37.950158" lon="-1.060995">
 <ele>158.860000</ele>
<time>2009-12-30T11:12:32Z</time>
</trkpt>
<trkpt lat="37.950103" lon="-1.061049">
 <ele>162.900000</ele>
<time>2009-12-30T11:12:40Z</time>
</trkpt>
<trkpt lat="37.950076" lon="-1.061073">
 <ele>163.760000</ele>
<time>2009-12-30T11:12:43Z</time>
</trkpt>
<trkpt lat="37.950068" lon="-1.061115">
 <ele>165.740000</ele>
<time>2009-12-30T11:12:48Z</time>
</trkpt>
<trkpt lat="37.950076" lon="-1.061116">
 <ele>165.420000</ele>
<time>2009-12-30T11:12:50Z</time>
</trkpt>
<trkpt lat="37.950078" lon="-1.061122">
 <ele>165.000000</ele>
<time>2009-12-30T11:12:51Z</time>
</trkpt>
<trkpt lat="37.950073" lon="-1.061125">
 <ele>165.240000</ele>
<time>2009-12-30T11:12:52Z</time>
</trkpt>
<trkpt lat="37.950073" lon="-1.061125">
 <ele>165.000000</ele>
<time>2009-12-30T11:12:53Z</time>
</trkpt>
<trkpt lat="37.950072" lon="-1.061127">
 <ele>170.520000</ele>
<time>2009-12-30T11:12:55Z</time>
</trkpt>
<trkpt lat="37.950080" lon="-1.061234">
 <ele>170.580000</ele>
<time>2009-12-30T11:13:01Z</time>
</trkpt>
<trkpt lat="37.950107" lon="-1.061517">
 <ele>146.420000</ele>
<time>2009-12-30T11:13:16Z</time>
</trkpt>
<trkpt lat="37.950119" lon="-1.061521">
 <ele>146.620000</ele>
<time>2009-12-30T11:13:17Z</time>
</trkpt>
<trkpt lat="37.950117" lon="-1.061533">
 <ele>143.720000</ele>
<time>2009-12-30T11:13:18Z</time>
</trkpt>
<trkpt lat="37.950132" lon="-1.061579">
 <ele>142.640000</ele>
<time>2009-12-30T11:13:21Z</time>
</trkpt>
<trkpt lat="37.950130" lon="-1.061564">
 <ele>137.880000</ele>
<time>2009-12-30T11:13:22Z</time>
</trkpt>
<trkpt lat="37.950133" lon="-1.061560">
 <ele>139.440000</ele>
<time>2009-12-30T11:13:23Z</time>
</trkpt>
<trkpt lat="37.950125" lon="-1.061571">
 <ele>140.260000</ele>
<time>2009-12-30T11:13:24Z</time>
</trkpt>
<trkpt lat="37.950143" lon="-1.061639">
 <ele>136.480000</ele>
<time>2009-12-30T11:13:28Z</time>
</trkpt>
<trkpt lat="37.950143" lon="-1.061695">
 <ele>128.480000</ele>
<time>2009-12-30T11:13:33Z</time>
</trkpt>
<trkpt lat="37.950199" lon="-1.061763">
 <ele>125.860000</ele>
<time>2009-12-30T11:13:37Z</time>
</trkpt>
<trkpt lat="37.950191" lon="-1.061785">
 <ele>122.440000</ele>
<time>2009-12-30T11:13:40Z</time>
</trkpt>
<trkpt lat="37.950261" lon="-1.061888">
 <ele>110.540000</ele>
<time>2009-12-30T11:13:49Z</time>
</trkpt>
<trkpt lat="37.950266" lon="-1.061900">
 <ele>109.960000</ele>
<time>2009-12-30T11:13:50Z</time>
</trkpt>
<trkpt lat="37.950332" lon="-1.061946">
 <ele>116.620000</ele>
<time>2009-12-30T11:13:55Z</time>
</trkpt>
<trkpt lat="37.950381" lon="-1.061973">
 <ele>123.620000</ele>
<time>2009-12-30T11:14:01Z</time>
</trkpt>
<trkpt lat="37.950400" lon="-1.061976">
 <ele>120.480000</ele>
<time>2009-12-30T11:14:04Z</time>
</trkpt>
<trkpt lat="37.950387" lon="-1.061982">
 <ele>119.680000</ele>
<time>2009-12-30T11:14:05Z</time>
</trkpt>
<trkpt lat="37.950400" lon="-1.061999">
 <ele>121.820000</ele>
<time>2009-12-30T11:14:06Z</time>
</trkpt>
<trkpt lat="37.950407" lon="-1.061991">
 <ele>125.160000</ele>
<time>2009-12-30T11:14:07Z</time>
</trkpt>
<trkpt lat="37.950458" lon="-1.062032">
 <ele>124.080000</ele>
<time>2009-12-30T11:14:09Z</time>
</trkpt>
<trkpt lat="37.950457" lon="-1.062031">
 <ele>129.860000</ele>
<time>2009-12-30T11:14:10Z</time>
</trkpt>
<trkpt lat="37.950470" lon="-1.062054">
 <ele>127.240000</ele>
<time>2009-12-30T11:14:11Z</time>
</trkpt>
<trkpt lat="37.950504" lon="-1.062157">
 <ele>121.460000</ele>
<time>2009-12-30T11:14:17Z</time>
</trkpt>
<trkpt lat="37.950523" lon="-1.062161">
 <ele>122.300000</ele>
<time>2009-12-30T11:14:18Z</time>
</trkpt>
<trkpt lat="37.950520" lon="-1.062160">
 <ele>121.860000</ele>
<time>2009-12-30T11:14:19Z</time>
</trkpt>
<trkpt lat="37.950525" lon="-1.062166">
 <ele>120.220000</ele>
<time>2009-12-30T11:14:20Z</time>
</trkpt>
<trkpt lat="37.950600" lon="-1.062258">
 <ele>108.380000</ele>
<time>2009-12-30T11:14:30Z</time>
</trkpt>
<trkpt lat="37.950598" lon="-1.062276">
 <ele>108.960000</ele>
<time>2009-12-30T11:14:31Z</time>
</trkpt>
<trkpt lat="37.950572" lon="-1.062511">
 <ele>108.480000</ele>
<time>2009-12-30T11:14:48Z</time>
</trkpt>
<trkpt lat="37.950550" lon="-1.062507">
 <ele>104.380000</ele>
<time>2009-12-30T11:14:49Z</time>
</trkpt>
<trkpt lat="37.950502" lon="-1.062558">
 <ele>98.320000</ele>
<time>2009-12-30T11:14:51Z</time>
</trkpt>
<trkpt lat="37.950427" lon="-1.062642">
 <ele>99.220000</ele>
<time>2009-12-30T11:14:56Z</time>
</trkpt>
<trkpt lat="37.950352" lon="-1.062676">
 <ele>107.000000</ele>
<time>2009-12-30T11:15:05Z</time>
</trkpt>
<trkpt lat="37.950281" lon="-1.062666">
 <ele>105.860000</ele>
<time>2009-12-30T11:15:09Z</time>
</trkpt>
<trkpt lat="37.950285" lon="-1.062670">
 <ele>104.600000</ele>
<time>2009-12-30T11:15:10Z</time>
</trkpt>
<trkpt lat="37.950266" lon="-1.062672">
 <ele>103.040000</ele>
<time>2009-12-30T11:15:11Z</time>
</trkpt>
<trkpt lat="37.950232" lon="-1.062671">
 <ele>104.660000</ele>
<time>2009-12-30T11:15:13Z</time>
</trkpt>
<trkpt lat="37.950105" lon="-1.062663">
 <ele>99.300000</ele>
<time>2009-12-30T11:15:27Z</time>
</trkpt>
<trkpt lat="37.950093" lon="-1.062632">
 <ele>101.280000</ele>
<time>2009-12-30T11:15:31Z</time>
</trkpt>
<trkpt lat="37.950106" lon="-1.062613">
 <ele>100.780000</ele>
<time>2009-12-30T11:15:32Z</time>
</trkpt>
<trkpt lat="37.950095" lon="-1.062620">
 <ele>102.560000</ele>
<time>2009-12-30T11:15:33Z</time>
</trkpt>
<trkpt lat="37.950091" lon="-1.062607">
 <ele>103.640000</ele>
<time>2009-12-30T11:15:34Z</time>
</trkpt>
<trkpt lat="37.950108" lon="-1.062561">
 <ele>111.120000</ele>
<time>2009-12-30T11:15:39Z</time>
</trkpt>
<trkpt lat="37.950110" lon="-1.062547">
 <ele>112.980000</ele>
<time>2009-12-30T11:15:40Z</time>
</trkpt>
<trkpt lat="37.950104" lon="-1.062515">
 <ele>117.320000</ele>
<time>2009-12-30T11:15:44Z</time>
</trkpt>
<trkpt lat="37.950119" lon="-1.062474">
 <ele>117.160000</ele>
<time>2009-12-30T11:15:47Z</time>
</trkpt>
<trkpt lat="37.950084" lon="-1.062448">
 <ele>117.800000</ele>
<time>2009-12-30T11:15:49Z</time>
</trkpt>
<trkpt lat="37.950085" lon="-1.062427">
 <ele>117.680000</ele>
<time>2009-12-30T11:15:51Z</time>
</trkpt>
<trkpt lat="37.950061" lon="-1.062398">
 <ele>115.600000</ele>
<time>2009-12-30T11:15:53Z</time>
</trkpt>
<trkpt lat="37.950054" lon="-1.062390">
 <ele>114.760000</ele>
<time>2009-12-30T11:15:55Z</time>
</trkpt>
<trkpt lat="37.950040" lon="-1.062370">
 <ele>115.340000</ele>
<time>2009-12-30T11:15:56Z</time>
</trkpt>
<trkpt lat="37.950038" lon="-1.062302">
 <ele>115.960000</ele>
<time>2009-12-30T11:16:00Z</time>
</trkpt>
<trkpt lat="37.950043" lon="-1.062255">
 <ele>116.280000</ele>
<time>2009-12-30T11:16:06Z</time>
</trkpt>
<trkpt lat="37.950032" lon="-1.062234">
 <ele>115.800000</ele>
<time>2009-12-30T11:16:08Z</time>
</trkpt>
<trkpt lat="37.950007" lon="-1.062209">
 <ele>118.200000</ele>
<time>2009-12-30T11:16:12Z</time>
</trkpt>
<trkpt lat="37.950003" lon="-1.062186">
 <ele>119.360000</ele>
<time>2009-12-30T11:16:14Z</time>
</trkpt>
<trkpt lat="37.949943" lon="-1.062166">
 <ele>120.260000</ele>
<time>2009-12-30T11:16:17Z</time>
</trkpt>
<trkpt lat="37.949649" lon="-1.062103">
 <ele>123.460000</ele>
<time>2009-12-30T11:16:39Z</time>
</trkpt>
<trkpt lat="37.949660" lon="-1.062066">
 <ele>112.700000</ele>
<time>2009-12-30T11:16:44Z</time>
</trkpt>
<trkpt lat="37.949657" lon="-1.062068">
 <ele>110.200000</ele>
<time>2009-12-30T11:16:47Z</time>
</trkpt>
<trkpt lat="37.949656" lon="-1.062068">
 <ele>109.800000</ele>
<time>2009-12-30T11:16:48Z</time>
</trkpt>
<trkpt lat="37.949659" lon="-1.062065">
 <ele>108.980000</ele>
<time>2009-12-30T11:16:50Z</time>
</trkpt>
<trkpt lat="37.949642" lon="-1.062068">
 <ele>106.060000</ele>
<time>2009-12-30T11:16:51Z</time>
</trkpt>
<trkpt lat="37.949590" lon="-1.062117">
 <ele>104.300000</ele>
<time>2009-12-30T11:16:56Z</time>
</trkpt>
<trkpt lat="37.949593" lon="-1.062122">
 <ele>103.300000</ele>
<time>2009-12-30T11:16:58Z</time>
</trkpt>
<trkpt lat="37.949592" lon="-1.062123">
 <ele>104.280000</ele>
<time>2009-12-30T11:16:59Z</time>
</trkpt>
<trkpt lat="37.949597" lon="-1.062139">
 <ele>103.480000</ele>
<time>2009-12-30T11:17:00Z</time>
</trkpt>
<trkpt lat="37.949589" lon="-1.062134">
 <ele>103.320000</ele>
<time>2009-12-30T11:17:02Z</time>
</trkpt>
<trkpt lat="37.949587" lon="-1.062151">
 <ele>102.660000</ele>
<time>2009-12-30T11:17:03Z</time>
</trkpt>
<trkpt lat="37.949558" lon="-1.062200">
 <ele>97.640000</ele>
<time>2009-12-30T11:17:08Z</time>
</trkpt>
<trkpt lat="37.949564" lon="-1.062199">
 <ele>99.680000</ele>
<time>2009-12-30T11:17:10Z</time>
</trkpt>
<trkpt lat="37.949568" lon="-1.062194">
 <ele>98.800000</ele>
<time>2009-12-30T11:17:11Z</time>
</trkpt>
<trkpt lat="37.949568" lon="-1.062195">
 <ele>98.600000</ele>
<time>2009-12-30T11:17:12Z</time>
</trkpt>
<trkpt lat="37.949572" lon="-1.062202">
 <ele>98.900000</ele>
<time>2009-12-30T11:17:14Z</time>
</trkpt>
<trkpt lat="37.949572" lon="-1.062202">
 <ele>99.300000</ele>
<time>2009-12-30T11:17:15Z</time>
</trkpt>
<trkpt lat="37.949588" lon="-1.062205">
 <ele>103.660000</ele>
<time>2009-12-30T11:17:52Z</time>
</trkpt>
<trkpt lat="37.949645" lon="-1.062234">
 <ele>117.440000</ele>
<time>2009-12-30T11:17:56Z</time>
</trkpt>
<trkpt lat="37.949625" lon="-1.062231">
 <ele>106.760000</ele>
<time>2009-12-30T11:17:57Z</time>
</trkpt>
<trkpt lat="37.949631" lon="-1.062236">
 <ele>106.140000</ele>
<time>2009-12-30T11:17:58Z</time>
</trkpt>
<trkpt lat="37.949625" lon="-1.062235">
 <ele>104.980000</ele>
<time>2009-12-30T11:17:59Z</time>
</trkpt>
<trkpt lat="37.949629" lon="-1.062245">
 <ele>106.900000</ele>
<time>2009-12-30T11:18:00Z</time>
</trkpt>
<trkpt lat="37.949622" lon="-1.062243">
 <ele>104.500000</ele>
<time>2009-12-30T11:18:01Z</time>
</trkpt>
<trkpt lat="37.949622" lon="-1.062243">
 <ele>106.100000</ele>
<time>2009-12-30T11:18:02Z</time>
</trkpt>
<trkpt lat="37.949623" lon="-1.062244">
 <ele>108.820000</ele>
<time>2009-12-30T11:18:38Z</time>
</trkpt>
<trkpt lat="37.949618" lon="-1.062247">
 <ele>112.620000</ele>
<time>2009-12-30T11:18:39Z</time>
</trkpt>
<trkpt lat="37.949623" lon="-1.062241">
 <ele>117.220000</ele>
<time>2009-12-30T11:18:42Z</time>
</trkpt>
<trkpt lat="37.949626" lon="-1.062240">
 <ele>109.840000</ele>
<time>2009-12-30T11:18:43Z</time>
</trkpt>
<trkpt lat="37.949626" lon="-1.062245">
 <ele>109.880000</ele>
<time>2009-12-30T11:18:44Z</time>
</trkpt>
<trkpt lat="37.949625" lon="-1.062258">
 <ele>111.300000</ele>
<time>2009-12-30T11:18:45Z</time>
</trkpt>
<trkpt lat="37.949623" lon="-1.062252">
 <ele>109.460000</ele>
<time>2009-12-30T11:18:46Z</time>
</trkpt>
<trkpt lat="37.949623" lon="-1.062252">
 <ele>110.500000</ele>
<time>2009-12-30T11:18:47Z</time>
</trkpt>
<trkpt lat="37.949616" lon="-1.062271">
 <ele>106.980000</ele>
<time>2009-12-30T11:19:14Z</time>
</trkpt>
<trkpt lat="37.949588" lon="-1.062348">
 <ele>107.800000</ele>
<time>2009-12-30T11:19:17Z</time>
</trkpt>
<trkpt lat="37.949593" lon="-1.062326">
 <ele>92.960000</ele>
<time>2009-12-30T11:19:18Z</time>
</trkpt>
<trkpt lat="37.949594" lon="-1.062337">
 <ele>99.700000</ele>
<time>2009-12-30T11:19:19Z</time>
</trkpt>
<trkpt lat="37.949601" lon="-1.062380">
 <ele>101.940000</ele>
<time>2009-12-30T11:19:22Z</time>
</trkpt>
<trkpt lat="37.949607" lon="-1.062362">
 <ele>102.200000</ele>
<time>2009-12-30T11:19:23Z</time>
</trkpt>
<trkpt lat="37.949612" lon="-1.062363">
 <ele>102.800000</ele>
<time>2009-12-30T11:19:24Z</time>
</trkpt>
<trkpt lat="37.949609" lon="-1.062354">
 <ele>102.040000</ele>
<time>2009-12-30T11:19:25Z</time>
</trkpt>
<trkpt lat="37.949612" lon="-1.062363">
 <ele>102.680000</ele>
<time>2009-12-30T11:19:26Z</time>
</trkpt>
<trkpt lat="37.949612" lon="-1.062363">
 <ele>102.200000</ele>
<time>2009-12-30T11:19:27Z</time>
</trkpt>
<trkpt lat="37.949619" lon="-1.062376">
 <ele>101.280000</ele>
<time>2009-12-30T11:19:29Z</time>
</trkpt>
<trkpt lat="37.949667" lon="-1.062438">
 <ele>99.380000</ele>
<time>2009-12-30T11:19:33Z</time>
</trkpt>
<trkpt lat="37.949682" lon="-1.062458">
 <ele>101.120000</ele>
<time>2009-12-30T11:19:35Z</time>
</trkpt>
<trkpt lat="37.949676" lon="-1.062623">
 <ele>98.900000</ele>
<time>2009-12-30T11:19:48Z</time>
</trkpt>
<trkpt lat="37.949623" lon="-1.062724">
 <ele>93.920000</ele>
<time>2009-12-30T11:19:57Z</time>
</trkpt>
<trkpt lat="37.949632" lon="-1.062722">
 <ele>93.580000</ele>
<time>2009-12-30T11:19:58Z</time>
</trkpt>
<trkpt lat="37.949625" lon="-1.062741">
 <ele>91.740000</ele>
<time>2009-12-30T11:19:59Z</time>
</trkpt>
<trkpt lat="37.949554" lon="-1.062833">
 <ele>93.820000</ele>
<time>2009-12-30T11:20:07Z</time>
</trkpt>
<trkpt lat="37.949476" lon="-1.062908">
 <ele>91.380000</ele>
<time>2009-12-30T11:20:20Z</time>
</trkpt>
<trkpt lat="37.949459" lon="-1.062923">
 <ele>92.460000</ele>
<time>2009-12-30T11:20:21Z</time>
</trkpt>
<trkpt lat="37.949416" lon="-1.062974">
 <ele>89.840000</ele>
<time>2009-12-30T11:20:28Z</time>
</trkpt>
<trkpt lat="37.949419" lon="-1.062974">
 <ele>90.520000</ele>
<time>2009-12-30T11:20:29Z</time>
</trkpt>
<trkpt lat="37.949422" lon="-1.062987">
 <ele>90.120000</ele>
<time>2009-12-30T11:20:30Z</time>
</trkpt>
<trkpt lat="37.949421" lon="-1.062966">
 <ele>89.760000</ele>
<time>2009-12-30T11:20:31Z</time>
</trkpt>
<trkpt lat="37.949420" lon="-1.062975">
 <ele>90.880000</ele>
<time>2009-12-30T11:20:32Z</time>
</trkpt>
<trkpt lat="37.949420" lon="-1.062975">
 <ele>90.400000</ele>
<time>2009-12-30T11:20:33Z</time>
</trkpt>
<trkpt lat="37.949414" lon="-1.062972">
 <ele>90.320000</ele>
<time>2009-12-30T11:20:37Z</time>
</trkpt>
<trkpt lat="37.949336" lon="-1.062976">
 <ele>92.340000</ele>
<time>2009-12-30T11:20:43Z</time>
</trkpt>
<trkpt lat="37.949337" lon="-1.062967">
 <ele>90.280000</ele>
<time>2009-12-30T11:20:44Z</time>
</trkpt>
<trkpt lat="37.949326" lon="-1.062973">
 <ele>91.000000</ele>
<time>2009-12-30T11:20:45Z</time>
</trkpt>
<trkpt lat="37.949309" lon="-1.062992">
 <ele>90.380000</ele>
<time>2009-12-30T11:20:48Z</time>
</trkpt>
<trkpt lat="37.949305" lon="-1.063004">
 <ele>89.860000</ele>
<time>2009-12-30T11:20:49Z</time>
</trkpt>
<trkpt lat="37.949253" lon="-1.063018">
 <ele>92.580000</ele>
<time>2009-12-30T11:20:52Z</time>
</trkpt>
<trkpt lat="37.949257" lon="-1.063006">
 <ele>93.780000</ele>
<time>2009-12-30T11:20:53Z</time>
</trkpt>
<trkpt lat="37.949257" lon="-1.062996">
 <ele>94.740000</ele>
<time>2009-12-30T11:20:54Z</time>
</trkpt>
<trkpt lat="37.949266" lon="-1.062985">
 <ele>95.760000</ele>
<time>2009-12-30T11:20:55Z</time>
</trkpt>
<trkpt lat="37.949263" lon="-1.062992">
 <ele>96.700000</ele>
<time>2009-12-30T11:20:56Z</time>
</trkpt>
<trkpt lat="37.949268" lon="-1.062995">
 <ele>95.100000</ele>
<time>2009-12-30T11:20:57Z</time>
</trkpt>
<trkpt lat="37.949262" lon="-1.062988">
 <ele>96.780000</ele>
<time>2009-12-30T11:20:58Z</time>
</trkpt>
<trkpt lat="37.949262" lon="-1.062988">
 <ele>95.500000</ele>
<time>2009-12-30T11:20:59Z</time>
</trkpt>
<trkpt lat="37.949262" lon="-1.062988">
 <ele>95.500000</ele>
<time>2009-12-30T11:21:00Z</time>
</trkpt>
<trkpt lat="37.949262" lon="-1.062988">
 <ele>95.500000</ele>
<time>2009-12-30T11:21:01Z</time>
</trkpt>
<trkpt lat="37.949262" lon="-1.062988">
 <ele>95.500000</ele>
<time>2009-12-30T11:21:02Z</time>
</trkpt>
<trkpt lat="37.949262" lon="-1.062988">
 <ele>95.500000</ele>
<time>2009-12-30T11:21:03Z</time>
</trkpt>
<trkpt lat="37.949262" lon="-1.062988">
 <ele>95.500000</ele>
<time>2009-12-30T11:21:04Z</time>
</trkpt>
<trkpt lat="37.949262" lon="-1.062988">
 <ele>95.500000</ele>
<time>2009-12-30T11:21:05Z</time>
</trkpt>
<trkpt lat="37.949262" lon="-1.062988">
 <ele>95.500000</ele>
<time>2009-12-30T11:21:06Z</time>
</trkpt>
<trkpt lat="37.949262" lon="-1.062988">
 <ele>95.500000</ele>
<time>2009-12-30T11:21:07Z</time>
</trkpt>
<trkpt lat="37.949262" lon="-1.062988">
 <ele>95.500000</ele>
<time>2009-12-30T11:21:08Z</time>
</trkpt>
<trkpt lat="37.949262" lon="-1.062988">
 <ele>95.500000</ele>
<time>2009-12-30T11:21:09Z</time>
</trkpt>
<trkpt lat="37.949262" lon="-1.062988">
 <ele>95.500000</ele>
<time>2009-12-30T11:21:10Z</time>
</trkpt>
<trkpt lat="37.949262" lon="-1.062988">
 <ele>95.500000</ele>
<time>2009-12-30T11:21:11Z</time>
</trkpt>
<trkpt lat="37.949262" lon="-1.062988">
 <ele>95.500000</ele>
<time>2009-12-30T11:21:12Z</time>
</trkpt>
<trkpt lat="37.949262" lon="-1.062988">
 <ele>95.500000</ele>
<time>2009-12-30T11:21:13Z</time>
</trkpt>
<trkpt lat="37.949262" lon="-1.062988">
 <ele>95.500000</ele>
<time>2009-12-30T11:21:14Z</time>
</trkpt>
<trkpt lat="37.949262" lon="-1.062988">
 <ele>95.500000</ele>
<time>2009-12-30T11:21:15Z</time>
</trkpt>
<trkpt lat="37.949262" lon="-1.062988">
 <ele>95.500000</ele>
<time>2009-12-30T11:21:16Z</time>
</trkpt>
<trkpt lat="37.949262" lon="-1.062988">
 <ele>95.500000</ele>
<time>2009-12-30T11:21:17Z</time>
</trkpt>
<trkpt lat="37.949262" lon="-1.062988">
 <ele>95.500000</ele>
<time>2009-12-30T11:21:18Z</time>
</trkpt>
<trkpt lat="37.949262" lon="-1.062988">
 <ele>95.500000</ele>
<time>2009-12-30T11:21:19Z</time>
</trkpt>
<trkpt lat="37.949262" lon="-1.062988">
 <ele>95.500000</ele>
<time>2009-12-30T11:21:20Z</time>
</trkpt>
<trkpt lat="37.949262" lon="-1.062988">
 <ele>95.500000</ele>
<time>2009-12-30T11:21:21Z</time>
</trkpt>
<trkpt lat="37.949279" lon="-1.062988">
 <ele>95.260000</ele>
<time>2009-12-30T11:21:22Z</time>
</trkpt>
<trkpt lat="37.949348" lon="-1.062997">
 <ele>94.380000</ele>
<time>2009-12-30T11:21:25Z</time>
</trkpt>
<trkpt lat="37.949349" lon="-1.062983">
 <ele>94.000000</ele>
<time>2009-12-30T11:21:26Z</time>
</trkpt>
<trkpt lat="37.949350" lon="-1.062987">
 <ele>93.960000</ele>
<time>2009-12-30T11:21:27Z</time>
</trkpt>
<trkpt lat="37.949358" lon="-1.062993">
 <ele>94.040000</ele>
<time>2009-12-30T11:21:28Z</time>
</trkpt>
<trkpt lat="37.949360" lon="-1.062992">
 <ele>94.200000</ele>
<time>2009-12-30T11:21:29Z</time>
</trkpt>
<trkpt lat="37.949360" lon="-1.062992">
 <ele>94.200000</ele>
<time>2009-12-30T11:21:30Z</time>
</trkpt>
<trkpt lat="37.949349" lon="-1.062998">
 <ele>91.040000</ele>
<time>2009-12-30T11:21:46Z</time>
</trkpt>
<trkpt lat="37.949256" lon="-1.063114">
 <ele>88.840000</ele>
<time>2009-12-30T11:21:54Z</time>
</trkpt>
<trkpt lat="37.949273" lon="-1.063143">
 <ele>90.200000</ele>
<time>2009-12-30T11:21:57Z</time>
</trkpt>
<trkpt lat="37.949268" lon="-1.063159">
 <ele>90.900000</ele>
<time>2009-12-30T11:21:58Z</time>
</trkpt>
<trkpt lat="37.949294" lon="-1.063203">
 <ele>93.460000</ele>
<time>2009-12-30T11:22:02Z</time>
</trkpt>
<trkpt lat="37.949295" lon="-1.063216">
 <ele>94.260000</ele>
<time>2009-12-30T11:22:04Z</time>
</trkpt>
<trkpt lat="37.949296" lon="-1.063228">
 <ele>93.200000</ele>
<time>2009-12-30T11:22:05Z</time>
</trkpt>
<trkpt lat="37.949320" lon="-1.063257">
 <ele>96.440000</ele>
<time>2009-12-30T11:22:08Z</time>
</trkpt>
<trkpt lat="37.949303" lon="-1.063243">
 <ele>95.040000</ele>
<time>2009-12-30T11:22:09Z</time>
</trkpt>
<trkpt lat="37.949306" lon="-1.063250">
 <ele>98.780000</ele>
<time>2009-12-30T11:22:10Z</time>
</trkpt>
<trkpt lat="37.949307" lon="-1.063261">
 <ele>95.360000</ele>
<time>2009-12-30T11:22:11Z</time>
</trkpt>
<trkpt lat="37.949286" lon="-1.063326">
 <ele>97.600000</ele>
<time>2009-12-30T11:22:14Z</time>
</trkpt>
<trkpt lat="37.949263" lon="-1.063408">
 <ele>96.360000</ele>
<time>2009-12-30T11:22:20Z</time>
</trkpt>
<trkpt lat="37.949282" lon="-1.063450">
 <ele>99.240000</ele>
<time>2009-12-30T11:22:23Z</time>
</trkpt>
<trkpt lat="37.949292" lon="-1.063483">
 <ele>98.280000</ele>
<time>2009-12-30T11:22:25Z</time>
</trkpt>
<trkpt lat="37.949286" lon="-1.063492">
 <ele>98.740000</ele>
<time>2009-12-30T11:22:26Z</time>
</trkpt>
<trkpt lat="37.949286" lon="-1.063497">
 <ele>95.760000</ele>
<time>2009-12-30T11:22:27Z</time>
</trkpt>
<trkpt lat="37.949296" lon="-1.063566">
 <ele>93.340000</ele>
<time>2009-12-30T11:22:30Z</time>
</trkpt>
<trkpt lat="37.949297" lon="-1.063596">
 <ele>95.100000</ele>
<time>2009-12-30T11:22:32Z</time>
</trkpt>
<trkpt lat="37.949295" lon="-1.063605">
 <ele>98.100000</ele>
<time>2009-12-30T11:22:34Z</time>
</trkpt>
<trkpt lat="37.949295" lon="-1.063688">
 <ele>94.140000</ele>
<time>2009-12-30T11:22:39Z</time>
</trkpt>
<trkpt lat="37.949296" lon="-1.063701">
 <ele>97.780000</ele>
<time>2009-12-30T11:22:40Z</time>
</trkpt>
<trkpt lat="37.949321" lon="-1.063759">
 <ele>99.500000</ele>
<time>2009-12-30T11:22:45Z</time>
</trkpt>
<trkpt lat="37.949314" lon="-1.063774">
 <ele>100.680000</ele>
<time>2009-12-30T11:22:46Z</time>
</trkpt>
<trkpt lat="37.949310" lon="-1.063832">
 <ele>102.180000</ele>
<time>2009-12-30T11:22:50Z</time>
</trkpt>
<trkpt lat="37.949305" lon="-1.063824">
 <ele>102.480000</ele>
<time>2009-12-30T11:22:51Z</time>
</trkpt>
<trkpt lat="37.949315" lon="-1.063834">
 <ele>103.220000</ele>
<time>2009-12-30T11:22:52Z</time>
</trkpt>
<trkpt lat="37.949323" lon="-1.063888">
 <ele>101.840000</ele>
<time>2009-12-30T11:22:55Z</time>
</trkpt>
<trkpt lat="37.949315" lon="-1.063872">
 <ele>102.120000</ele>
<time>2009-12-30T11:22:56Z</time>
</trkpt>
<trkpt lat="37.949329" lon="-1.063888">
 <ele>100.320000</ele>
<time>2009-12-30T11:22:57Z</time>
</trkpt>
<trkpt lat="37.949365" lon="-1.063948">
 <ele>102.140000</ele>
<time>2009-12-30T11:23:01Z</time>
</trkpt>
<trkpt lat="37.949377" lon="-1.063962">
 <ele>106.140000</ele>
<time>2009-12-30T11:23:02Z</time>
</trkpt>
<trkpt lat="37.949431" lon="-1.064151">
 <ele>97.160000</ele>
<time>2009-12-30T11:23:14Z</time>
</trkpt>
<trkpt lat="37.949461" lon="-1.064190">
 <ele>93.360000</ele>
<time>2009-12-30T11:23:17Z</time>
</trkpt>
<trkpt lat="37.949557" lon="-1.064257">
 <ele>95.240000</ele>
<time>2009-12-30T11:23:24Z</time>
</trkpt>
<trkpt lat="37.949655" lon="-1.064294">
 <ele>92.560000</ele>
<time>2009-12-30T11:23:31Z</time>
</trkpt>
<trkpt lat="37.949790" lon="-1.064393">
 <ele>90.340000</ele>
<time>2009-12-30T11:23:45Z</time>
</trkpt>
<trkpt lat="37.949937" lon="-1.064425">
 <ele>84.260000</ele>
<time>2009-12-30T11:23:55Z</time>
</trkpt>
<trkpt lat="37.949942" lon="-1.064435">
 <ele>85.840000</ele>
<time>2009-12-30T11:23:57Z</time>
</trkpt>
<trkpt lat="37.949932" lon="-1.064430">
 <ele>85.060000</ele>
<time>2009-12-30T11:23:58Z</time>
</trkpt>
<trkpt lat="37.949936" lon="-1.064429">
 <ele>85.180000</ele>
<time>2009-12-30T11:23:59Z</time>
</trkpt>
<trkpt lat="37.949942" lon="-1.064437">
 <ele>85.340000</ele>
<time>2009-12-30T11:24:00Z</time>
</trkpt>
<trkpt lat="37.949982" lon="-1.064461">
 <ele>83.440000</ele>
<time>2009-12-30T11:24:03Z</time>
</trkpt>
<trkpt lat="37.950009" lon="-1.064462">
 <ele>81.320000</ele>
<time>2009-12-30T11:24:05Z</time>
</trkpt>
<trkpt lat="37.950013" lon="-1.064480">
 <ele>82.100000</ele>
<time>2009-12-30T11:24:06Z</time>
</trkpt>
<trkpt lat="37.950050" lon="-1.064517">
 <ele>80.800000</ele>
<time>2009-12-30T11:24:11Z</time>
</trkpt>
<trkpt lat="37.950050" lon="-1.064515">
 <ele>80.880000</ele>
<time>2009-12-30T11:24:12Z</time>
</trkpt>
<trkpt lat="37.950053" lon="-1.064512">
 <ele>82.400000</ele>
<time>2009-12-30T11:24:13Z</time>
</trkpt>
<trkpt lat="37.950058" lon="-1.064512">
 <ele>80.220000</ele>
<time>2009-12-30T11:24:14Z</time>
</trkpt>
<trkpt lat="37.950060" lon="-1.064517">
 <ele>82.380000</ele>
<time>2009-12-30T11:24:15Z</time>
</trkpt>
<trkpt lat="37.950060" lon="-1.064517">
 <ele>81.500000</ele>
<time>2009-12-30T11:24:16Z</time>
</trkpt>
<trkpt lat="37.950069" lon="-1.064520">
 <ele>82.980000</ele>
<time>2009-12-30T11:24:17Z</time>
</trkpt>
<trkpt lat="37.950127" lon="-1.064545">
 <ele>82.880000</ele>
<time>2009-12-30T11:24:20Z</time>
</trkpt>
<trkpt lat="37.950134" lon="-1.064555">
 <ele>86.960000</ele>
<time>2009-12-30T11:24:22Z</time>
</trkpt>
<trkpt lat="37.950135" lon="-1.064545">
 <ele>88.020000</ele>
<time>2009-12-30T11:24:23Z</time>
</trkpt>
<trkpt lat="37.950141" lon="-1.064552">
 <ele>86.780000</ele>
<time>2009-12-30T11:24:24Z</time>
</trkpt>
<trkpt lat="37.950256" lon="-1.064627">
 <ele>92.900000</ele>
<time>2009-12-30T11:24:36Z</time>
</trkpt>
<trkpt lat="37.950264" lon="-1.064628">
 <ele>95.020000</ele>
<time>2009-12-30T11:24:37Z</time>
</trkpt>
<trkpt lat="37.950261" lon="-1.064626">
 <ele>95.160000</ele>
<time>2009-12-30T11:24:38Z</time>
</trkpt>
<trkpt lat="37.950269" lon="-1.064628">
 <ele>96.160000</ele>
<time>2009-12-30T11:24:39Z</time>
</trkpt>
<trkpt lat="37.950324" lon="-1.064677">
 <ele>95.220000</ele>
<time>2009-12-30T11:24:42Z</time>
</trkpt>
<trkpt lat="37.950407" lon="-1.064802">
 <ele>84.500000</ele>
<time>2009-12-30T11:24:54Z</time>
</trkpt>
<trkpt lat="37.950445" lon="-1.064866">
 <ele>82.640000</ele>
<time>2009-12-30T11:24:58Z</time>
</trkpt>
<trkpt lat="37.950479" lon="-1.064900">
 <ele>79.900000</ele>
<time>2009-12-30T11:25:01Z</time>
</trkpt>
<trkpt lat="37.950578" lon="-1.065066">
 <ele>67.820000</ele>
<time>2009-12-30T11:25:13Z</time>
</trkpt>
<trkpt lat="37.950576" lon="-1.065087">
 <ele>69.400000</ele>
<time>2009-12-30T11:25:15Z</time>
</trkpt>
<trkpt lat="37.950893" lon="-1.065316">
 <ele>77.880000</ele>
<time>2009-12-30T11:25:43Z</time>
</trkpt>
<trkpt lat="37.950902" lon="-1.065324">
 <ele>75.160000</ele>
<time>2009-12-30T11:25:44Z</time>
</trkpt>
<trkpt lat="37.950999" lon="-1.065405">
 <ele>76.020000</ele>
<time>2009-12-30T11:25:55Z</time>
</trkpt>
<trkpt lat="37.951013" lon="-1.065423">
 <ele>78.020000</ele>
<time>2009-12-30T11:25:56Z</time>
</trkpt>
<trkpt lat="37.951297" lon="-1.065720">
 <ele>83.720000</ele>
<time>2009-12-30T11:26:28Z</time>
</trkpt>
<trkpt lat="37.951645" lon="-1.066160">
 <ele>84.300000</ele>
<time>2009-12-30T11:27:07Z</time>
</trkpt>
<trkpt lat="37.951674" lon="-1.066217">
 <ele>84.580000</ele>
<time>2009-12-30T11:27:12Z</time>
</trkpt>
<trkpt lat="37.951678" lon="-1.066234">
 <ele>83.540000</ele>
<time>2009-12-30T11:27:13Z</time>
</trkpt>
<trkpt lat="37.951736" lon="-1.066322">
 <ele>88.180000</ele>
<time>2009-12-30T11:27:19Z</time>
</trkpt>
<trkpt lat="37.951816" lon="-1.066495">
 <ele>81.560000</ele>
<time>2009-12-30T11:27:33Z</time>
</trkpt>
<trkpt lat="37.951803" lon="-1.066490">
 <ele>80.380000</ele>
<time>2009-12-30T11:27:36Z</time>
</trkpt>
<trkpt lat="37.951813" lon="-1.066518">
 <ele>80.360000</ele>
<time>2009-12-30T11:27:37Z</time>
</trkpt>
<trkpt lat="37.951871" lon="-1.066583">
 <ele>84.540000</ele>
<time>2009-12-30T11:27:46Z</time>
</trkpt>
<trkpt lat="37.951882" lon="-1.066604">
 <ele>85.600000</ele>
<time>2009-12-30T11:27:48Z</time>
</trkpt>
<trkpt lat="37.951939" lon="-1.066689">
 <ele>86.480000</ele>
<time>2009-12-30T11:27:56Z</time>
</trkpt>
<trkpt lat="37.952169" lon="-1.067113">
 <ele>82.260000</ele>
<time>2009-12-30T11:28:28Z</time>
</trkpt>
<trkpt lat="37.952187" lon="-1.067168">
 <ele>82.560000</ele>
<time>2009-12-30T11:28:30Z</time>
</trkpt>
<trkpt lat="37.952208" lon="-1.067181">
 <ele>83.640000</ele>
<time>2009-12-30T11:28:32Z</time>
</trkpt>
<trkpt lat="37.952215" lon="-1.067194">
 <ele>84.060000</ele>
<time>2009-12-30T11:28:33Z</time>
</trkpt>
<trkpt lat="37.952281" lon="-1.067395">
 <ele>78.260000</ele>
<time>2009-12-30T11:28:49Z</time>
</trkpt>
<trkpt lat="37.952352" lon="-1.067471">
 <ele>80.600000</ele>
<time>2009-12-30T11:28:57Z</time>
</trkpt>
<trkpt lat="37.952379" lon="-1.067511">
 <ele>79.120000</ele>
<time>2009-12-30T11:29:00Z</time>
</trkpt>
<trkpt lat="37.952535" lon="-1.067665">
 <ele>77.540000</ele>
<time>2009-12-30T11:29:18Z</time>
</trkpt>
<trkpt lat="37.952539" lon="-1.067671">
 <ele>75.700000</ele>
<time>2009-12-30T11:29:19Z</time>
</trkpt>
<trkpt lat="37.952591" lon="-1.067698">
 <ele>80.000000</ele>
<time>2009-12-30T11:29:24Z</time>
</trkpt>
<trkpt lat="37.952606" lon="-1.067712">
 <ele>79.020000</ele>
<time>2009-12-30T11:29:25Z</time>
</trkpt>
<trkpt lat="37.952714" lon="-1.067865">
 <ele>79.120000</ele>
<time>2009-12-30T11:29:39Z</time>
</trkpt>
<trkpt lat="37.952806" lon="-1.068009">
 <ele>78.280000</ele>
<time>2009-12-30T11:29:51Z</time>
</trkpt>
<trkpt lat="37.952880" lon="-1.068109">
 <ele>78.200000</ele>
<time>2009-12-30T11:30:01Z</time>
</trkpt>
<trkpt lat="37.952876" lon="-1.068100">
 <ele>78.480000</ele>
<time>2009-12-30T11:30:02Z</time>
</trkpt>
<trkpt lat="37.952875" lon="-1.068102">
 <ele>77.620000</ele>
<time>2009-12-30T11:30:03Z</time>
</trkpt>
<trkpt lat="37.952876" lon="-1.068108">
 <ele>78.700000</ele>
<time>2009-12-30T11:30:04Z</time>
</trkpt>
<trkpt lat="37.952895" lon="-1.068143">
 <ele>76.740000</ele>
<time>2009-12-30T11:30:07Z</time>
</trkpt>
<trkpt lat="37.952940" lon="-1.068248">
 <ele>76.600000</ele>
<time>2009-12-30T11:30:17Z</time>
</trkpt>
<trkpt lat="37.952961" lon="-1.068267">
 <ele>76.420000</ele>
<time>2009-12-30T11:30:19Z</time>
</trkpt>
<trkpt lat="37.953032" lon="-1.068276">
 <ele>79.860000</ele>
<time>2009-12-30T11:30:25Z</time>
</trkpt>
<trkpt lat="37.953032" lon="-1.068286">
 <ele>79.720000</ele>
<time>2009-12-30T11:30:26Z</time>
</trkpt>
<trkpt lat="37.953054" lon="-1.068294">
 <ele>82.220000</ele>
<time>2009-12-30T11:30:28Z</time>
</trkpt>
<trkpt lat="37.953102" lon="-1.068315">
 <ele>84.900000</ele>
<time>2009-12-30T11:30:33Z</time>
</trkpt>
<trkpt lat="37.953108" lon="-1.068351">
 <ele>85.160000</ele>
<time>2009-12-30T11:30:35Z</time>
</trkpt>
<trkpt lat="37.953151" lon="-1.068370">
 <ele>82.420000</ele>
<time>2009-12-30T11:30:39Z</time>
</trkpt>
<trkpt lat="37.953162" lon="-1.068411">
 <ele>79.120000</ele>
<time>2009-12-30T11:30:42Z</time>
</trkpt>
<trkpt lat="37.953202" lon="-1.068417">
 <ele>77.060000</ele>
<time>2009-12-30T11:30:44Z</time>
</trkpt>
<trkpt lat="37.953208" lon="-1.068461">
 <ele>76.080000</ele>
<time>2009-12-30T11:30:47Z</time>
</trkpt>
<trkpt lat="37.953258" lon="-1.068499">
 <ele>75.520000</ele>
<time>2009-12-30T11:30:52Z</time>
</trkpt>
<trkpt lat="37.953463" lon="-1.068656">
 <ele>76.480000</ele>
<time>2009-12-30T11:31:13Z</time>
</trkpt>
<trkpt lat="37.953483" lon="-1.068674">
 <ele>76.400000</ele>
<time>2009-12-30T11:31:14Z</time>
</trkpt>
<trkpt lat="37.953642" lon="-1.068769">
 <ele>78.760000</ele>
<time>2009-12-30T11:31:29Z</time>
</trkpt>
<trkpt lat="37.953643" lon="-1.068780">
 <ele>81.620000</ele>
<time>2009-12-30T11:31:30Z</time>
</trkpt>
<trkpt lat="37.953686" lon="-1.068822">
 <ele>82.120000</ele>
<time>2009-12-30T11:31:35Z</time>
</trkpt>
<trkpt lat="37.953950" lon="-1.068888">
 <ele>85.280000</ele>
<time>2009-12-30T11:31:57Z</time>
</trkpt>
<trkpt lat="37.954002" lon="-1.068903">
 <ele>82.580000</ele>
<time>2009-12-30T11:32:03Z</time>
</trkpt>
<trkpt lat="37.954018" lon="-1.068915">
 <ele>83.620000</ele>
<time>2009-12-30T11:32:04Z</time>
</trkpt>
<trkpt lat="37.954046" lon="-1.068933">
 <ele>83.760000</ele>
<time>2009-12-30T11:32:09Z</time>
</trkpt>
<trkpt lat="37.954056" lon="-1.068931">
 <ele>85.200000</ele>
<time>2009-12-30T11:32:10Z</time>
</trkpt>
<trkpt lat="37.954129" lon="-1.068949">
 <ele>80.660000</ele>
<time>2009-12-30T11:32:17Z</time>
</trkpt>
<trkpt lat="37.954142" lon="-1.068943">
 <ele>77.180000</ele>
<time>2009-12-30T11:32:18Z</time>
</trkpt>
<trkpt lat="37.954198" lon="-1.068967">
 <ele>68.760000</ele>
<time>2009-12-30T11:32:23Z</time>
</trkpt>
<trkpt lat="37.954243" lon="-1.068979">
 <ele>67.100000</ele>
<time>2009-12-30T11:32:26Z</time>
</trkpt>
<trkpt lat="37.954370" lon="-1.068997">
 <ele>60.720000</ele>
<time>2009-12-30T11:32:34Z</time>
</trkpt>
<trkpt lat="37.954438" lon="-1.069000">
 <ele>61.220000</ele>
<time>2009-12-30T11:32:41Z</time>
</trkpt>
<trkpt lat="37.954460" lon="-1.069003">
 <ele>61.160000</ele>
<time>2009-12-30T11:32:42Z</time>
</trkpt>
<trkpt lat="37.954621" lon="-1.068989">
 <ele>65.060000</ele>
<time>2009-12-30T11:32:53Z</time>
</trkpt>
<trkpt lat="37.954660" lon="-1.069024">
 <ele>68.980000</ele>
<time>2009-12-30T11:32:57Z</time>
</trkpt>
<trkpt lat="37.954675" lon="-1.069006">
 <ele>70.120000</ele>
<time>2009-12-30T11:32:59Z</time>
</trkpt>
<trkpt lat="37.954696" lon="-1.069012">
 <ele>71.280000</ele>
<time>2009-12-30T11:33:00Z</time>
</trkpt>
<trkpt lat="37.954782" lon="-1.068995">
 <ele>69.120000</ele>
<time>2009-12-30T11:33:06Z</time>
</trkpt>
<trkpt lat="37.955046" lon="-1.068986">
 <ele>68.600000</ele>
<time>2009-12-30T11:33:26Z</time>
</trkpt>
<trkpt lat="37.955088" lon="-1.068990">
 <ele>70.420000</ele>
<time>2009-12-30T11:33:30Z</time>
</trkpt>
<trkpt lat="37.955241" lon="-1.068985">
 <ele>67.700000</ele>
<time>2009-12-30T11:33:43Z</time>
</trkpt>
<trkpt lat="37.955765" lon="-1.068975">
 <ele>70.580000</ele>
<time>2009-12-30T11:34:25Z</time>
</trkpt>
<trkpt lat="37.955827" lon="-1.068969">
 <ele>71.080000</ele>
<time>2009-12-30T11:34:30Z</time>
</trkpt>
<trkpt lat="37.955911" lon="-1.068968">
 <ele>69.580000</ele>
<time>2009-12-30T11:34:37Z</time>
</trkpt>
<trkpt lat="37.956067" lon="-1.068964">
 <ele>70.940000</ele>
<time>2009-12-30T11:34:50Z</time>
</trkpt>
<trkpt lat="37.956161" lon="-1.068972">
 <ele>74.040000</ele>
<time>2009-12-30T11:34:58Z</time>
</trkpt>
<trkpt lat="37.956185" lon="-1.068985">
 <ele>74.820000</ele>
<time>2009-12-30T11:35:01Z</time>
</trkpt>
<trkpt lat="37.956208" lon="-1.068978">
 <ele>75.080000</ele>
<time>2009-12-30T11:35:02Z</time>
</trkpt>
<trkpt lat="37.956270" lon="-1.068974">
 <ele>77.680000</ele>
<time>2009-12-30T11:35:08Z</time>
</trkpt>
<trkpt lat="37.956283" lon="-1.068966">
 <ele>77.980000</ele>
<time>2009-12-30T11:35:09Z</time>
</trkpt>
<trkpt lat="37.956381" lon="-1.068940">
 <ele>79.980000</ele>
<time>2009-12-30T11:35:18Z</time>
</trkpt>
<trkpt lat="37.956418" lon="-1.068949">
 <ele>79.440000</ele>
<time>2009-12-30T11:35:21Z</time>
</trkpt>
<trkpt lat="37.956517" lon="-1.068930">
 <ele>87.400000</ele>
<time>2009-12-30T11:35:29Z</time>
</trkpt>
<trkpt lat="37.956528" lon="-1.068924">
 <ele>88.560000</ele>
<time>2009-12-30T11:35:31Z</time>
</trkpt>
<trkpt lat="37.956540" lon="-1.068888">
 <ele>87.640000</ele>
<time>2009-12-30T11:35:35Z</time>
</trkpt>
<trkpt lat="37.956580" lon="-1.068875">
 <ele>86.580000</ele>
<time>2009-12-30T11:35:37Z</time>
</trkpt>
<trkpt lat="37.956565" lon="-1.068853">
 <ele>85.640000</ele>
<time>2009-12-30T11:35:38Z</time>
</trkpt>
<trkpt lat="37.956552" lon="-1.068851">
 <ele>84.620000</ele>
<time>2009-12-30T11:35:39Z</time>
</trkpt>
<trkpt lat="37.956562" lon="-1.068851">
 <ele>84.960000</ele>
<time>2009-12-30T11:35:40Z</time>
</trkpt>
<trkpt lat="37.956563" lon="-1.068847">
 <ele>83.360000</ele>
<time>2009-12-30T11:35:41Z</time>
</trkpt>
<trkpt lat="37.956550" lon="-1.068810">
 <ele>82.380000</ele>
<time>2009-12-30T11:35:43Z</time>
</trkpt>
<trkpt lat="37.956535" lon="-1.068826">
 <ele>81.340000</ele>
<time>2009-12-30T11:35:44Z</time>
</trkpt>
<trkpt lat="37.956547" lon="-1.068826">
 <ele>80.300000</ele>
<time>2009-12-30T11:35:45Z</time>
</trkpt>
<trkpt lat="37.956544" lon="-1.068819">
 <ele>81.160000</ele>
<time>2009-12-30T11:35:46Z</time>
</trkpt>
<trkpt lat="37.956557" lon="-1.068799">
 <ele>82.240000</ele>
<time>2009-12-30T11:35:49Z</time>
</trkpt>
<trkpt lat="37.956543" lon="-1.068810">
 <ele>80.300000</ele>
<time>2009-12-30T11:35:50Z</time>
</trkpt>
<trkpt lat="37.956537" lon="-1.068800">
 <ele>80.820000</ele>
<time>2009-12-30T11:35:51Z</time>
</trkpt>
<trkpt lat="37.956550" lon="-1.068748">
 <ele>82.160000</ele>
<time>2009-12-30T11:35:54Z</time>
</trkpt>
<trkpt lat="37.956541" lon="-1.068736">
 <ele>84.120000</ele>
<time>2009-12-30T11:35:56Z</time>
</trkpt>
<trkpt lat="37.956544" lon="-1.068739">
 <ele>81.640000</ele>
<time>2009-12-30T11:35:57Z</time>
</trkpt>
<trkpt lat="37.956559" lon="-1.068732">
 <ele>82.560000</ele>
<time>2009-12-30T11:35:58Z</time>
</trkpt>
<trkpt lat="37.956601" lon="-1.068690">
 <ele>88.540000</ele>
<time>2009-12-30T11:36:04Z</time>
</trkpt>
<trkpt lat="37.956609" lon="-1.068682">
 <ele>89.240000</ele>
<time>2009-12-30T11:36:05Z</time>
</trkpt>
<trkpt lat="37.956652" lon="-1.068663">
 <ele>88.640000</ele>
<time>2009-12-30T11:36:09Z</time>
</trkpt>
<trkpt lat="37.956669" lon="-1.068641">
 <ele>89.420000</ele>
<time>2009-12-30T11:36:10Z</time>
</trkpt>
<trkpt lat="37.956670" lon="-1.068642">
 <ele>89.840000</ele>
<time>2009-12-30T11:36:11Z</time>
</trkpt>
<trkpt lat="37.956667" lon="-1.068638">
 <ele>89.380000</ele>
<time>2009-12-30T11:36:12Z</time>
</trkpt>
<trkpt lat="37.956700" lon="-1.068616">
 <ele>89.200000</ele>
<time>2009-12-30T11:36:14Z</time>
</trkpt>
<trkpt lat="37.956744" lon="-1.068575">
 <ele>86.940000</ele>
<time>2009-12-30T11:36:21Z</time>
</trkpt>
<trkpt lat="37.956768" lon="-1.068555">
 <ele>86.640000</ele>
<time>2009-12-30T11:36:22Z</time>
</trkpt>
<trkpt lat="37.956961" lon="-1.068441">
 <ele>83.480000</ele>
<time>2009-12-30T11:36:38Z</time>
</trkpt>
<trkpt lat="37.956971" lon="-1.068434">
 <ele>83.240000</ele>
<time>2009-12-30T11:36:39Z</time>
</trkpt>
<trkpt lat="37.957026" lon="-1.068398">
 <ele>83.480000</ele>
<time>2009-12-30T11:36:44Z</time>
</trkpt>
<trkpt lat="37.957037" lon="-1.068389">
 <ele>82.560000</ele>
<time>2009-12-30T11:36:45Z</time>
</trkpt>
<trkpt lat="37.957320" lon="-1.068104">
 <ele>89.160000</ele>
<time>2009-12-30T11:37:13Z</time>
</trkpt>
<trkpt lat="37.957395" lon="-1.068033">
 <ele>90.220000</ele>
<time>2009-12-30T11:37:22Z</time>
</trkpt>
<trkpt lat="37.957430" lon="-1.068018">
 <ele>89.180000</ele>
<time>2009-12-30T11:37:24Z</time>
</trkpt>
<trkpt lat="37.957431" lon="-1.068032">
 <ele>89.140000</ele>
<time>2009-12-30T11:37:25Z</time>
</trkpt>
<trkpt lat="37.957435" lon="-1.068023">
 <ele>89.380000</ele>
<time>2009-12-30T11:37:26Z</time>
</trkpt>
<trkpt lat="37.957496" lon="-1.067985">
 <ele>88.080000</ele>
<time>2009-12-30T11:37:30Z</time>
</trkpt>
<trkpt lat="37.957487" lon="-1.067977">
 <ele>88.560000</ele>
<time>2009-12-30T11:37:31Z</time>
</trkpt>
<trkpt lat="37.957506" lon="-1.067961">
 <ele>88.440000</ele>
<time>2009-12-30T11:37:33Z</time>
</trkpt>
<trkpt lat="37.957540" lon="-1.067957">
 <ele>94.060000</ele>
<time>2009-12-30T11:37:38Z</time>
</trkpt>
<trkpt lat="37.957547" lon="-1.067953">
 <ele>95.180000</ele>
<time>2009-12-30T11:37:39Z</time>
</trkpt>
<trkpt lat="37.957603" lon="-1.067966">
 <ele>92.300000</ele>
<time>2009-12-30T11:37:44Z</time>
</trkpt>
<trkpt lat="37.957619" lon="-1.067963">
 <ele>87.560000</ele>
<time>2009-12-30T11:37:50Z</time>
</trkpt>
<trkpt lat="37.957604" lon="-1.067893">
 <ele>87.000000</ele>
<time>2009-12-30T11:37:53Z</time>
</trkpt>
<trkpt lat="37.957633" lon="-1.067831">
 <ele>81.720000</ele>
<time>2009-12-30T11:37:57Z</time>
</trkpt>
<trkpt lat="37.957611" lon="-1.067774">
 <ele>81.300000</ele>
<time>2009-12-30T11:38:01Z</time>
</trkpt>
<trkpt lat="37.957627" lon="-1.067754">
 <ele>80.040000</ele>
<time>2009-12-30T11:38:04Z</time>
</trkpt>
<trkpt lat="37.957617" lon="-1.067758">
 <ele>76.500000</ele>
<time>2009-12-30T11:38:06Z</time>
</trkpt>
<trkpt lat="37.957617" lon="-1.067747">
 <ele>73.860000</ele>
<time>2009-12-30T11:38:09Z</time>
</trkpt>
<trkpt lat="37.957604" lon="-1.067733">
 <ele>72.360000</ele>
<time>2009-12-30T11:38:10Z</time>
</trkpt>
<trkpt lat="37.957600" lon="-1.067725">
 <ele>73.220000</ele>
<time>2009-12-30T11:38:11Z</time>
</trkpt>
<trkpt lat="37.957598" lon="-1.067745">
 <ele>72.320000</ele>
<time>2009-12-30T11:38:12Z</time>
</trkpt>
<trkpt lat="37.957595" lon="-1.067740">
 <ele>71.720000</ele>
<time>2009-12-30T11:38:13Z</time>
</trkpt>
<trkpt lat="37.957601" lon="-1.067742">
 <ele>73.500000</ele>
<time>2009-12-30T11:38:14Z</time>
</trkpt>
<trkpt lat="37.957595" lon="-1.067740">
 <ele>71.820000</ele>
<time>2009-12-30T11:38:15Z</time>
</trkpt>
<trkpt lat="37.957595" lon="-1.067740">
 <ele>72.700000</ele>
<time>2009-12-30T11:38:16Z</time>
</trkpt>
<trkpt lat="37.957590" lon="-1.067748">
 <ele>71.700000</ele>
<time>2009-12-30T11:38:26Z</time>
</trkpt>
<trkpt lat="37.957575" lon="-1.067785">
 <ele>67.600000</ele>
<time>2009-12-30T11:38:28Z</time>
</trkpt>
<trkpt lat="37.957594" lon="-1.067823">
 <ele>65.420000</ele>
<time>2009-12-30T11:38:30Z</time>
</trkpt>
<trkpt lat="37.957622" lon="-1.067873">
 <ele>61.540000</ele>
<time>2009-12-30T11:38:33Z</time>
</trkpt>
<trkpt lat="37.957845" lon="-1.068101">
 <ele>59.160000</ele>
<time>2009-12-30T11:38:53Z</time>
</trkpt>
<trkpt lat="37.957857" lon="-1.068111">
 <ele>61.420000</ele>
<time>2009-12-30T11:38:54Z</time>
</trkpt>
<trkpt lat="37.957872" lon="-1.068092">
 <ele>69.520000</ele>
<time>2009-12-30T11:38:56Z</time>
</trkpt>
<trkpt lat="37.957894" lon="-1.068080">
 <ele>74.300000</ele>
<time>2009-12-30T11:39:00Z</time>
</trkpt>
<trkpt lat="37.957912" lon="-1.068081">
 <ele>75.920000</ele>
<time>2009-12-30T11:39:02Z</time>
</trkpt>
<trkpt lat="37.957910" lon="-1.068094">
 <ele>75.620000</ele>
<time>2009-12-30T11:39:03Z</time>
</trkpt>
<trkpt lat="37.957930" lon="-1.068147">
 <ele>79.380000</ele>
<time>2009-12-30T11:39:09Z</time>
</trkpt>
<trkpt lat="37.957954" lon="-1.068209">
 <ele>86.860000</ele>
<time>2009-12-30T11:39:15Z</time>
</trkpt>
<trkpt lat="37.957948" lon="-1.068217">
 <ele>92.040000</ele>
<time>2009-12-30T11:39:16Z</time>
</trkpt>
<trkpt lat="37.957960" lon="-1.068214">
 <ele>91.900000</ele>
<time>2009-12-30T11:39:17Z</time>
</trkpt>
<trkpt lat="37.957961" lon="-1.068219">
 <ele>94.860000</ele>
<time>2009-12-30T11:39:18Z</time>
</trkpt>
<trkpt lat="37.957946" lon="-1.068395">
 <ele>96.460000</ele>
<time>2009-12-30T11:39:30Z</time>
</trkpt>
<trkpt lat="37.957918" lon="-1.068430">
 <ele>98.260000</ele>
<time>2009-12-30T11:39:34Z</time>
</trkpt>
<trkpt lat="37.957900" lon="-1.068444">
 <ele>97.880000</ele>
<time>2009-12-30T11:39:36Z</time>
</trkpt>
<trkpt lat="37.957902" lon="-1.068451">
 <ele>97.960000</ele>
<time>2009-12-30T11:39:37Z</time>
</trkpt>
<trkpt lat="37.957864" lon="-1.068565">
 <ele>110.960000</ele>
<time>2009-12-30T11:39:47Z</time>
</trkpt>
<trkpt lat="37.957855" lon="-1.068545">
 <ele>108.600000</ele>
<time>2009-12-30T11:39:48Z</time>
</trkpt>
<trkpt lat="37.957855" lon="-1.068555">
 <ele>112.600000</ele>
<time>2009-12-30T11:39:49Z</time>
</trkpt>
<trkpt lat="37.957811" lon="-1.068786">
 <ele>107.440000</ele>
<time>2009-12-30T11:40:02Z</time>
</trkpt>
<trkpt lat="37.957802" lon="-1.068882">
 <ele>98.160000</ele>
<time>2009-12-30T11:40:05Z</time>
</trkpt>
<trkpt lat="37.957819" lon="-1.069194">
 <ele>81.800000</ele>
<time>2009-12-30T11:40:18Z</time>
</trkpt>
<trkpt lat="37.957946" lon="-1.069696">
 <ele>59.480000</ele>
<time>2009-12-30T11:40:44Z</time>
</trkpt>
<trkpt lat="37.957958" lon="-1.069715">
 <ele>62.020000</ele>
<time>2009-12-30T11:40:45Z</time>
</trkpt>
<trkpt lat="37.958003" lon="-1.069794">
 <ele>60.140000</ele>
<time>2009-12-30T11:40:52Z</time>
</trkpt>
<trkpt lat="37.958353" lon="-1.070265">
 <ele>64.900000</ele>
<time>2009-12-30T11:41:30Z</time>
</trkpt>
<trkpt lat="37.958446" lon="-1.070313">
 <ele>74.760000</ele>
<time>2009-12-30T11:41:38Z</time>
</trkpt>
<trkpt lat="37.958483" lon="-1.070343">
 <ele>75.000000</ele>
<time>2009-12-30T11:41:42Z</time>
</trkpt>
<trkpt lat="37.958596" lon="-1.070445">
 <ele>75.320000</ele>
<time>2009-12-30T11:41:52Z</time>
</trkpt>
<trkpt lat="37.958702" lon="-1.070498">
 <ele>74.640000</ele>
<time>2009-12-30T11:42:03Z</time>
</trkpt>
<trkpt lat="37.958772" lon="-1.070569">
 <ele>68.840000</ele>
<time>2009-12-30T11:42:09Z</time>
</trkpt>
<trkpt lat="37.958888" lon="-1.070675">
 <ele>67.740000</ele>
<time>2009-12-30T11:42:18Z</time>
</trkpt>
<trkpt lat="37.958914" lon="-1.070680">
 <ele>69.120000</ele>
<time>2009-12-30T11:42:21Z</time>
</trkpt>
<trkpt lat="37.958939" lon="-1.070698">
 <ele>71.240000</ele>
<time>2009-12-30T11:42:22Z</time>
</trkpt>
<trkpt lat="37.959116" lon="-1.070773">
 <ele>71.420000</ele>
<time>2009-12-30T11:42:38Z</time>
</trkpt>
<trkpt lat="37.959173" lon="-1.070835">
 <ele>71.720000</ele>
<time>2009-12-30T11:42:44Z</time>
</trkpt>
<trkpt lat="37.959223" lon="-1.070885">
 <ele>69.920000</ele>
<time>2009-12-30T11:42:51Z</time>
</trkpt>
<trkpt lat="37.959330" lon="-1.070969">
 <ele>67.720000</ele>
<time>2009-12-30T11:43:03Z</time>
</trkpt>
<trkpt lat="37.959374" lon="-1.070995">
 <ele>69.100000</ele>
<time>2009-12-30T11:43:06Z</time>
</trkpt>
<trkpt lat="37.959459" lon="-1.071142">
 <ele>65.800000</ele>
<time>2009-12-30T11:43:18Z</time>
</trkpt>
<trkpt lat="37.959505" lon="-1.071393">
 <ele>59.320000</ele>
<time>2009-12-30T11:43:33Z</time>
</trkpt>
<trkpt lat="37.959683" lon="-1.071864">
 <ele>61.540000</ele>
<time>2009-12-30T11:44:06Z</time>
</trkpt>
<trkpt lat="37.959970" lon="-1.071886">
 <ele>73.280000</ele>
<time>2009-12-30T11:44:30Z</time>
</trkpt>
<trkpt lat="37.960035" lon="-1.071780">
 <ele>74.500000</ele>
<time>2009-12-30T11:44:39Z</time>
</trkpt>
<trkpt lat="37.960060" lon="-1.071523">
 <ele>74.820000</ele>
<time>2009-12-30T11:44:53Z</time>
</trkpt>
<trkpt lat="37.960067" lon="-1.071472">
 <ele>74.740000</ele>
<time>2009-12-30T11:44:56Z</time>
</trkpt>
<trkpt lat="37.959933" lon="-1.070966">
 <ele>72.260000</ele>
<time>2009-12-30T11:45:32Z</time>
</trkpt>
<trkpt lat="37.959835" lon="-1.070910">
 <ele>67.380000</ele>
<time>2009-12-30T11:45:39Z</time>
</trkpt>
<trkpt lat="37.959620" lon="-1.070801">
 <ele>59.880000</ele>
<time>2009-12-30T11:45:55Z</time>
</trkpt>
<trkpt lat="37.959534" lon="-1.070739">
 <ele>59.840000</ele>
<time>2009-12-30T11:46:04Z</time>
</trkpt>
<trkpt lat="37.959472" lon="-1.070632">
 <ele>59.360000</ele>
<time>2009-12-30T11:46:14Z</time>
</trkpt>
<trkpt lat="37.959481" lon="-1.070622">
 <ele>59.020000</ele>
<time>2009-12-30T11:46:16Z</time>
</trkpt>
<trkpt lat="37.959478" lon="-1.070621">
 <ele>59.340000</ele>
<time>2009-12-30T11:46:17Z</time>
</trkpt>
<trkpt lat="37.959480" lon="-1.070622">
 <ele>58.860000</ele>
<time>2009-12-30T11:46:18Z</time>
</trkpt>
<trkpt lat="37.959478" lon="-1.070629">
 <ele>59.420000</ele>
<time>2009-12-30T11:46:19Z</time>
</trkpt>
<trkpt lat="37.959478" lon="-1.070620">
 <ele>58.780000</ele>
<time>2009-12-30T11:46:20Z</time>
</trkpt>
<trkpt lat="37.959478" lon="-1.070620">
 <ele>59.100000</ele>
<time>2009-12-30T11:46:21Z</time>
</trkpt>
<trkpt lat="37.959477" lon="-1.070615">
 <ele>59.500000</ele>
<time>2009-12-30T11:46:34Z</time>
</trkpt>
<trkpt lat="37.959461" lon="-1.070580">
 <ele>62.340000</ele>
<time>2009-12-30T11:46:38Z</time>
</trkpt>
<trkpt lat="37.959474" lon="-1.070581">
 <ele>61.960000</ele>
<time>2009-12-30T11:46:39Z</time>
</trkpt>
<trkpt lat="37.959479" lon="-1.070557">
 <ele>63.120000</ele>
<time>2009-12-30T11:46:41Z</time>
</trkpt>
<trkpt lat="37.959483" lon="-1.070537">
 <ele>63.600000</ele>
<time>2009-12-30T11:46:42Z</time>
</trkpt>
<trkpt lat="37.959542" lon="-1.070464">
 <ele>72.240000</ele>
<time>2009-12-30T11:46:51Z</time>
</trkpt>
<trkpt lat="37.959548" lon="-1.070470">
 <ele>73.700000</ele>
<time>2009-12-30T11:46:53Z</time>
</trkpt>
<trkpt lat="37.959570" lon="-1.070467">
 <ele>72.940000</ele>
<time>2009-12-30T11:46:54Z</time>
</trkpt>
<trkpt lat="37.960004" lon="-1.070377">
 <ele>77.660000</ele>
<time>2009-12-30T11:47:31Z</time>
</trkpt>
<trkpt lat="37.960090" lon="-1.070341">
 <ele>74.220000</ele>
<time>2009-12-30T11:47:40Z</time>
</trkpt>
<trkpt lat="37.960245" lon="-1.070205">
 <ele>73.260000</ele>
<time>2009-12-30T11:47:54Z</time>
</trkpt>
<trkpt lat="37.960261" lon="-1.070204">
 <ele>72.660000</ele>
<time>2009-12-30T11:47:56Z</time>
</trkpt>
<trkpt lat="37.960360" lon="-1.070115">
 <ele>73.360000</ele>
<time>2009-12-30T11:48:06Z</time>
</trkpt>
<trkpt lat="37.960382" lon="-1.070122">
 <ele>73.060000</ele>
<time>2009-12-30T11:48:07Z</time>
</trkpt>
<trkpt lat="37.960410" lon="-1.070090">
 <ele>72.580000</ele>
<time>2009-12-30T11:48:09Z</time>
</trkpt>
<trkpt lat="37.960506" lon="-1.070008">
 <ele>70.740000</ele>
<time>2009-12-30T11:48:20Z</time>
</trkpt>
<trkpt lat="37.960580" lon="-1.070023">
 <ele>79.280000</ele>
<time>2009-12-30T11:48:30Z</time>
</trkpt>
<trkpt lat="37.960595" lon="-1.070023">
 <ele>80.160000</ele>
<time>2009-12-30T11:48:32Z</time>
</trkpt>
<trkpt lat="37.960594" lon="-1.070010">
 <ele>80.220000</ele>
<time>2009-12-30T11:48:33Z</time>
</trkpt>
<trkpt lat="37.960683" lon="-1.070022">
 <ele>80.500000</ele>
<time>2009-12-30T11:48:39Z</time>
</trkpt>
<trkpt lat="37.960792" lon="-1.069991">
 <ele>83.060000</ele>
<time>2009-12-30T11:48:48Z</time>
</trkpt>
<trkpt lat="37.961027" lon="-1.069827">
 <ele>81.000000</ele>
<time>2009-12-30T11:49:07Z</time>
</trkpt>
<trkpt lat="37.961054" lon="-1.069836">
 <ele>83.360000</ele>
<time>2009-12-30T11:49:10Z</time>
</trkpt>
<trkpt lat="37.961063" lon="-1.069834">
 <ele>84.680000</ele>
<time>2009-12-30T11:49:11Z</time>
</trkpt>
<trkpt lat="37.961062" lon="-1.069841">
 <ele>83.840000</ele>
<time>2009-12-30T11:49:12Z</time>
</trkpt>
<trkpt lat="37.961076" lon="-1.069833">
 <ele>84.720000</ele>
<time>2009-12-30T11:49:13Z</time>
</trkpt>
<trkpt lat="37.961187" lon="-1.069770">
 <ele>85.640000</ele>
<time>2009-12-30T11:49:22Z</time>
</trkpt>
<trkpt lat="37.961201" lon="-1.069760">
 <ele>85.160000</ele>
<time>2009-12-30T11:49:23Z</time>
</trkpt>
<trkpt lat="37.961455" lon="-1.069631">
 <ele>82.380000</ele>
<time>2009-12-30T11:49:47Z</time>
</trkpt>
<trkpt lat="37.961489" lon="-1.069597">
 <ele>81.880000</ele>
<time>2009-12-30T11:49:50Z</time>
</trkpt>
<trkpt lat="37.961672" lon="-1.069509">
 <ele>89.000000</ele>
<time>2009-12-30T11:50:08Z</time>
</trkpt>
<trkpt lat="37.961696" lon="-1.069479">
 <ele>89.560000</ele>
<time>2009-12-30T11:50:10Z</time>
</trkpt>
<trkpt lat="37.961758" lon="-1.069460">
 <ele>89.880000</ele>
<time>2009-12-30T11:50:16Z</time>
</trkpt>
<trkpt lat="37.961829" lon="-1.069431">
 <ele>85.580000</ele>
<time>2009-12-30T11:50:23Z</time>
</trkpt>
<trkpt lat="37.961830" lon="-1.069434">
 <ele>86.080000</ele>
<time>2009-12-30T11:50:24Z</time>
</trkpt>
<trkpt lat="37.961835" lon="-1.069428">
 <ele>85.300000</ele>
<time>2009-12-30T11:50:25Z</time>
</trkpt>
<trkpt lat="37.961830" lon="-1.069423">
 <ele>86.180000</ele>
<time>2009-12-30T11:50:26Z</time>
</trkpt>
<trkpt lat="37.961838" lon="-1.069425">
 <ele>85.780000</ele>
<time>2009-12-30T11:50:27Z</time>
</trkpt>
<trkpt lat="37.961838" lon="-1.069425">
 <ele>86.100000</ele>
<time>2009-12-30T11:50:28Z</time>
</trkpt>
<trkpt lat="37.961852" lon="-1.069418">
 <ele>85.260000</ele>
<time>2009-12-30T11:50:29Z</time>
</trkpt>
<trkpt lat="37.961919" lon="-1.069385">
 <ele>85.080000</ele>
<time>2009-12-30T11:50:32Z</time>
</trkpt>
<trkpt lat="37.961982" lon="-1.069306">
 <ele>82.100000</ele>
<time>2009-12-30T11:50:38Z</time>
</trkpt>
<trkpt lat="37.962016" lon="-1.069266">
 <ele>81.780000</ele>
<time>2009-12-30T11:50:42Z</time>
</trkpt>
<trkpt lat="37.962009" lon="-1.069277">
 <ele>81.160000</ele>
<time>2009-12-30T11:50:43Z</time>
</trkpt>
<trkpt lat="37.962019" lon="-1.069264">
 <ele>80.340000</ele>
<time>2009-12-30T11:50:44Z</time>
</trkpt>
<trkpt lat="37.962167" lon="-1.069144">
 <ele>82.600000</ele>
<time>2009-12-30T11:50:56Z</time>
</trkpt>
<trkpt lat="37.962310" lon="-1.069021">
 <ele>80.720000</ele>
<time>2009-12-30T11:51:09Z</time>
</trkpt>
<trkpt lat="37.962342" lon="-1.068987">
 <ele>83.580000</ele>
<time>2009-12-30T11:51:13Z</time>
</trkpt>
<trkpt lat="37.962333" lon="-1.068993">
 <ele>82.900000</ele>
<time>2009-12-30T11:51:14Z</time>
</trkpt>
<trkpt lat="37.962345" lon="-1.068980">
 <ele>83.180000</ele>
<time>2009-12-30T11:51:15Z</time>
</trkpt>
<trkpt lat="37.962388" lon="-1.068945">
 <ele>83.020000</ele>
<time>2009-12-30T11:51:18Z</time>
</trkpt>
<trkpt lat="37.962403" lon="-1.068933">
 <ele>83.960000</ele>
<time>2009-12-30T11:51:20Z</time>
</trkpt>
<trkpt lat="37.962749" lon="-1.068588">
 <ele>82.280000</ele>
<time>2009-12-30T11:51:55Z</time>
</trkpt>
<trkpt lat="37.962779" lon="-1.068561">
 <ele>80.580000</ele>
<time>2009-12-30T11:51:58Z</time>
</trkpt>
<trkpt lat="37.962801" lon="-1.068569">
 <ele>80.860000</ele>
<time>2009-12-30T11:52:00Z</time>
</trkpt>
<trkpt lat="37.962813" lon="-1.068549">
 <ele>81.560000</ele>
<time>2009-12-30T11:52:01Z</time>
</trkpt>
<trkpt lat="37.962837" lon="-1.068558">
 <ele>80.360000</ele>
<time>2009-12-30T11:52:03Z</time>
</trkpt>
<trkpt lat="37.962875" lon="-1.068534">
 <ele>82.460000</ele>
<time>2009-12-30T11:52:07Z</time>
</trkpt>
<trkpt lat="37.962931" lon="-1.068524">
 <ele>84.240000</ele>
<time>2009-12-30T11:52:11Z</time>
</trkpt>
<trkpt lat="37.963064" lon="-1.068523">
 <ele>81.560000</ele>
<time>2009-12-30T11:52:22Z</time>
</trkpt>
<trkpt lat="37.963137" lon="-1.068497">
 <ele>84.180000</ele>
<time>2009-12-30T11:52:27Z</time>
</trkpt>
<trkpt lat="37.963244" lon="-1.068461">
 <ele>80.980000</ele>
<time>2009-12-30T11:52:35Z</time>
</trkpt>
<trkpt lat="37.963241" lon="-1.068472">
 <ele>78.580000</ele>
<time>2009-12-30T11:52:36Z</time>
</trkpt>
<trkpt lat="37.963303" lon="-1.068466">
 <ele>76.560000</ele>
<time>2009-12-30T11:52:40Z</time>
</trkpt>
<trkpt lat="37.963321" lon="-1.068474">
 <ele>80.680000</ele>
<time>2009-12-30T11:52:44Z</time>
</trkpt>
<trkpt lat="37.963326" lon="-1.068500">
 <ele>82.820000</ele>
<time>2009-12-30T11:52:46Z</time>
</trkpt>
<trkpt lat="37.963371" lon="-1.068511">
 <ele>86.040000</ele>
<time>2009-12-30T11:52:50Z</time>
</trkpt>
<trkpt lat="37.963430" lon="-1.068506">
 <ele>85.780000</ele>
<time>2009-12-30T11:52:54Z</time>
</trkpt>
<trkpt lat="37.963582" lon="-1.068488">
 <ele>80.500000</ele>
<time>2009-12-30T11:53:05Z</time>
</trkpt>
<trkpt lat="37.963598" lon="-1.068474">
 <ele>81.660000</ele>
<time>2009-12-30T11:53:06Z</time>
</trkpt>
<trkpt lat="37.963604" lon="-1.068488">
 <ele>80.660000</ele>
<time>2009-12-30T11:53:07Z</time>
</trkpt>
<trkpt lat="37.963612" lon="-1.068477">
 <ele>80.640000</ele>
<time>2009-12-30T11:53:08Z</time>
</trkpt>
<trkpt lat="37.963680" lon="-1.068446">
 <ele>76.960000</ele>
<time>2009-12-30T11:53:14Z</time>
</trkpt>
<trkpt lat="37.963839" lon="-1.068371">
 <ele>73.000000</ele>
<time>2009-12-30T11:53:26Z</time>
</trkpt>
<trkpt lat="37.964160" lon="-1.068274">
 <ele>59.540000</ele>
<time>2009-12-30T11:53:50Z</time>
</trkpt>
<trkpt lat="37.964170" lon="-1.068259">
 <ele>59.120000</ele>
<time>2009-12-30T11:53:51Z</time>
</trkpt>
<trkpt lat="37.964243" lon="-1.068238">
 <ele>60.320000</ele>
<time>2009-12-30T11:53:55Z</time>
</trkpt>
<trkpt lat="37.964308" lon="-1.068242">
 <ele>68.240000</ele>
<time>2009-12-30T11:54:01Z</time>
</trkpt>
<trkpt lat="37.964350" lon="-1.068269">
 <ele>72.900000</ele>
<time>2009-12-30T11:54:06Z</time>
</trkpt>
<trkpt lat="37.964350" lon="-1.068277">
 <ele>73.260000</ele>
<time>2009-12-30T11:54:07Z</time>
</trkpt>
<trkpt lat="37.964371" lon="-1.068271">
 <ele>73.720000</ele>
<time>2009-12-30T11:54:08Z</time>
</trkpt>
<trkpt lat="37.964443" lon="-1.068286">
 <ele>74.660000</ele>
<time>2009-12-30T11:54:14Z</time>
</trkpt>
<trkpt lat="37.964551" lon="-1.068301">
 <ele>74.280000</ele>
<time>2009-12-30T11:54:23Z</time>
</trkpt>
<trkpt lat="37.964605" lon="-1.068323">
 <ele>70.800000</ele>
<time>2009-12-30T11:54:27Z</time>
</trkpt>
<trkpt lat="37.964747" lon="-1.068322">
 <ele>63.120000</ele>
<time>2009-12-30T11:54:37Z</time>
</trkpt>
<trkpt lat="37.964937" lon="-1.068328">
 <ele>63.920000</ele>
<time>2009-12-30T11:54:51Z</time>
</trkpt>
<trkpt lat="37.965031" lon="-1.068356">
 <ele>68.240000</ele>
<time>2009-12-30T11:54:59Z</time>
</trkpt>
<trkpt lat="37.965202" lon="-1.068393">
 <ele>68.980000</ele>
<time>2009-12-30T11:55:13Z</time>
</trkpt>
<trkpt lat="37.965449" lon="-1.068407">
 <ele>71.220000</ele>
<time>2009-12-30T11:55:33Z</time>
</trkpt>
<trkpt lat="37.965585" lon="-1.068418">
 <ele>66.040000</ele>
<time>2009-12-30T11:55:43Z</time>
</trkpt>
<trkpt lat="37.965622" lon="-1.068450">
 <ele>66.160000</ele>
<time>2009-12-30T11:55:46Z</time>
</trkpt>
<trkpt lat="37.965673" lon="-1.068445">
 <ele>65.500000</ele>
<time>2009-12-30T11:55:50Z</time>
</trkpt>
<trkpt lat="37.966045" lon="-1.068438">
 <ele>63.640000</ele>
<time>2009-12-30T11:56:20Z</time>
</trkpt>
<trkpt lat="37.966056" lon="-1.068433">
 <ele>65.780000</ele>
<time>2009-12-30T11:56:21Z</time>
</trkpt>
<trkpt lat="37.966083" lon="-1.068461">
 <ele>69.420000</ele>
<time>2009-12-30T11:56:25Z</time>
</trkpt>
<trkpt lat="37.966108" lon="-1.068478">
 <ele>78.780000</ele>
<time>2009-12-30T11:56:30Z</time>
</trkpt>
<trkpt lat="37.966111" lon="-1.068495">
 <ele>78.980000</ele>
<time>2009-12-30T11:56:31Z</time>
</trkpt>
<trkpt lat="37.966154" lon="-1.068504">
 <ele>83.660000</ele>
<time>2009-12-30T11:56:34Z</time>
</trkpt>
<trkpt lat="37.966252" lon="-1.068491">
 <ele>94.620000</ele>
<time>2009-12-30T11:56:42Z</time>
</trkpt>
<trkpt lat="37.966264" lon="-1.068506">
 <ele>96.360000</ele>
<time>2009-12-30T11:56:43Z</time>
</trkpt>
<trkpt lat="37.966250" lon="-1.068497">
 <ele>96.380000</ele>
<time>2009-12-30T11:56:44Z</time>
</trkpt>
<trkpt lat="37.966264" lon="-1.068507">
 <ele>97.940000</ele>
<time>2009-12-30T11:56:45Z</time>
</trkpt>
<trkpt lat="37.966265" lon="-1.068494">
 <ele>95.500000</ele>
<time>2009-12-30T11:56:46Z</time>
</trkpt>
<trkpt lat="37.966272" lon="-1.068498">
 <ele>97.740000</ele>
<time>2009-12-30T11:56:47Z</time>
</trkpt>
<trkpt lat="37.966272" lon="-1.068498">
 <ele>96.300000</ele>
<time>2009-12-30T11:56:48Z</time>
</trkpt>
<trkpt lat="37.966272" lon="-1.068498">
 <ele>96.300000</ele>
<time>2009-12-30T11:56:49Z</time>
</trkpt>
<trkpt lat="37.966272" lon="-1.068498">
 <ele>96.300000</ele>
<time>2009-12-30T11:56:50Z</time>
</trkpt>
<trkpt lat="37.966272" lon="-1.068498">
 <ele>96.300000</ele>
<time>2009-12-30T11:56:51Z</time>
</trkpt>
<trkpt lat="37.966272" lon="-1.068498">
 <ele>96.300000</ele>
<time>2009-12-30T11:56:52Z</time>
</trkpt>
<trkpt lat="37.966272" lon="-1.068498">
 <ele>96.300000</ele>
<time>2009-12-30T11:56:53Z</time>
</trkpt>
<trkpt lat="37.966272" lon="-1.068498">
 <ele>96.300000</ele>
<time>2009-12-30T11:56:54Z</time>
</trkpt>
<trkpt lat="37.966272" lon="-1.068498">
 <ele>96.300000</ele>
<time>2009-12-30T11:56:55Z</time>
</trkpt>
<trkpt lat="37.966368" lon="-1.068517">
 <ele>100.820000</ele>
<time>2009-12-30T11:57:00Z</time>
</trkpt>
<trkpt lat="37.966381" lon="-1.068499">
 <ele>97.640000</ele>
<time>2009-12-30T11:57:01Z</time>
</trkpt>
<trkpt lat="37.966377" lon="-1.068487">
 <ele>96.960000</ele>
<time>2009-12-30T11:57:02Z</time>
</trkpt>
<trkpt lat="37.966385" lon="-1.068479">
 <ele>95.980000</ele>
<time>2009-12-30T11:57:03Z</time>
</trkpt>
<trkpt lat="37.966421" lon="-1.068440">
 <ele>86.820000</ele>
<time>2009-12-30T11:57:05Z</time>
</trkpt>
<trkpt lat="37.966511" lon="-1.068341">
 <ele>86.420000</ele>
<time>2009-12-30T11:57:09Z</time>
</trkpt>
<trkpt lat="37.966546" lon="-1.068353">
 <ele>89.560000</ele>
<time>2009-12-30T11:57:12Z</time>
</trkpt>
<trkpt lat="37.966580" lon="-1.068381">
 <ele>91.040000</ele>
<time>2009-12-30T11:57:15Z</time>
</trkpt>
<trkpt lat="37.966595" lon="-1.068374">
 <ele>91.180000</ele>
<time>2009-12-30T11:57:16Z</time>
</trkpt>
<trkpt lat="37.966587" lon="-1.068356">
 <ele>91.420000</ele>
<time>2009-12-30T11:57:17Z</time>
</trkpt>
<trkpt lat="37.966599" lon="-1.068362">
 <ele>91.580000</ele>
<time>2009-12-30T11:57:18Z</time>
</trkpt>
<trkpt lat="37.966595" lon="-1.068366">
 <ele>90.880000</ele>
<time>2009-12-30T11:57:19Z</time>
</trkpt>
<trkpt lat="37.966602" lon="-1.068365">
 <ele>91.600000</ele>
<time>2009-12-30T11:57:20Z</time>
</trkpt>
<trkpt lat="37.966781" lon="-1.068292">
 <ele>80.580000</ele>
<time>2009-12-30T11:57:30Z</time>
</trkpt>
<trkpt lat="37.966901" lon="-1.068204">
 <ele>72.560000</ele>
<time>2009-12-30T11:57:39Z</time>
</trkpt>
<trkpt lat="37.966926" lon="-1.068178">
 <ele>72.240000</ele>
<time>2009-12-30T11:57:40Z</time>
</trkpt>
<trkpt lat="37.967118" lon="-1.068048">
 <ele>62.380000</ele>
<time>2009-12-30T11:57:52Z</time>
</trkpt>
<trkpt lat="37.967131" lon="-1.068037">
 <ele>63.220000</ele>
<time>2009-12-30T11:57:54Z</time>
</trkpt>
<trkpt lat="37.967137" lon="-1.068035">
 <ele>63.640000</ele>
<time>2009-12-30T11:57:55Z</time>
</trkpt>
<trkpt lat="37.967350" lon="-1.067913">
 <ele>61.840000</ele>
<time>2009-12-30T11:58:13Z</time>
</trkpt>
<trkpt lat="37.967410" lon="-1.067875">
 <ele>62.140000</ele>
<time>2009-12-30T11:58:20Z</time>
</trkpt>
<trkpt lat="37.967545" lon="-1.067764">
 <ele>60.500000</ele>
<time>2009-12-30T11:58:32Z</time>
</trkpt>
<trkpt lat="37.967607" lon="-1.067702">
 <ele>61.460000</ele>
<time>2009-12-30T11:58:40Z</time>
</trkpt>
<trkpt lat="37.967615" lon="-1.067695">
 <ele>63.280000</ele>
<time>2009-12-30T11:58:41Z</time>
</trkpt>
<trkpt lat="37.967776" lon="-1.067554">
 <ele>62.980000</ele>
<time>2009-12-30T11:58:56Z</time>
</trkpt>
<trkpt lat="37.967793" lon="-1.067543">
 <ele>62.660000</ele>
<time>2009-12-30T11:58:57Z</time>
</trkpt>
<trkpt lat="37.967935" lon="-1.067442">
 <ele>67.060000</ele>
<time>2009-12-30T11:59:13Z</time>
</trkpt>
<trkpt lat="37.968107" lon="-1.067279">
 <ele>70.140000</ele>
<time>2009-12-30T11:59:26Z</time>
</trkpt>
<trkpt lat="37.968150" lon="-1.067237">
 <ele>71.400000</ele>
<time>2009-12-30T11:59:30Z</time>
</trkpt>
<trkpt lat="37.968169" lon="-1.067206">
 <ele>71.760000</ele>
<time>2009-12-30T11:59:32Z</time>
</trkpt>
<trkpt lat="37.968191" lon="-1.067198">
 <ele>71.860000</ele>
<time>2009-12-30T11:59:34Z</time>
</trkpt>
<trkpt lat="37.968215" lon="-1.067175">
 <ele>71.340000</ele>
<time>2009-12-30T11:59:35Z</time>
</trkpt>
<trkpt lat="37.968342" lon="-1.067116">
 <ele>70.840000</ele>
<time>2009-12-30T11:59:40Z</time>
</trkpt>
<trkpt lat="37.968382" lon="-1.067092">
 <ele>70.640000</ele>
<time>2009-12-30T11:59:43Z</time>
</trkpt>
<trkpt lat="37.968392" lon="-1.067064">
 <ele>70.560000</ele>
<time>2009-12-30T11:59:48Z</time>
</trkpt>
<trkpt lat="37.968399" lon="-1.067049">
 <ele>71.960000</ele>
<time>2009-12-30T11:59:49Z</time>
</trkpt>
<trkpt lat="37.968388" lon="-1.067051">
 <ele>72.260000</ele>
<time>2009-12-30T11:59:51Z</time>
</trkpt>
<trkpt lat="37.968391" lon="-1.067051">
 <ele>72.960000</ele>
<time>2009-12-30T11:59:53Z</time>
</trkpt>
<trkpt lat="37.968393" lon="-1.067061">
 <ele>71.820000</ele>
<time>2009-12-30T11:59:54Z</time>
</trkpt>
<trkpt lat="37.968403" lon="-1.067057">
 <ele>72.280000</ele>
<time>2009-12-30T11:59:55Z</time>
</trkpt>
<trkpt lat="37.968591" lon="-1.066932">
 <ele>64.780000</ele>
<time>2009-12-30T12:00:10Z</time>
</trkpt>
<trkpt lat="37.968625" lon="-1.066905">
 <ele>67.540000</ele>
<time>2009-12-30T12:00:13Z</time>
</trkpt>
<trkpt lat="37.968643" lon="-1.066913">
 <ele>68.920000</ele>
<time>2009-12-30T12:00:14Z</time>
</trkpt>
<trkpt lat="37.968640" lon="-1.066903">
 <ele>70.160000</ele>
<time>2009-12-30T12:00:15Z</time>
</trkpt>
<trkpt lat="37.968670" lon="-1.066904">
 <ele>72.200000</ele>
<time>2009-12-30T12:00:18Z</time>
</trkpt>
<trkpt lat="37.968726" lon="-1.066917">
 <ele>76.900000</ele>
<time>2009-12-30T12:00:22Z</time>
</trkpt>
<trkpt lat="37.968732" lon="-1.066942">
 <ele>77.160000</ele>
<time>2009-12-30T12:00:24Z</time>
</trkpt>
<trkpt lat="37.968765" lon="-1.066954">
 <ele>80.640000</ele>
<time>2009-12-30T12:00:27Z</time>
</trkpt>
<trkpt lat="37.968881" lon="-1.066871">
 <ele>76.400000</ele>
<time>2009-12-30T12:00:37Z</time>
</trkpt>
<trkpt lat="37.968885" lon="-1.066871">
 <ele>77.540000</ele>
<time>2009-12-30T12:00:38Z</time>
</trkpt>
<trkpt lat="37.968892" lon="-1.066873">
 <ele>78.660000</ele>
<time>2009-12-30T12:00:39Z</time>
</trkpt>
<trkpt lat="37.968950" lon="-1.066873">
 <ele>75.600000</ele>
<time>2009-12-30T12:00:44Z</time>
</trkpt>
<trkpt lat="37.968968" lon="-1.066863">
 <ele>74.340000</ele>
<time>2009-12-30T12:00:45Z</time>
</trkpt>
<trkpt lat="37.968998" lon="-1.066900">
 <ele>77.760000</ele>
<time>2009-12-30T12:00:49Z</time>
</trkpt>
<trkpt lat="37.969004" lon="-1.066901">
 <ele>80.460000</ele>
<time>2009-12-30T12:00:51Z</time>
</trkpt>
<trkpt lat="37.969003" lon="-1.066925">
 <ele>82.080000</ele>
<time>2009-12-30T12:00:53Z</time>
</trkpt>
<trkpt lat="37.969003" lon="-1.066924">
 <ele>82.960000</ele>
<time>2009-12-30T12:00:54Z</time>
</trkpt>
<trkpt lat="37.969002" lon="-1.066926">
 <ele>82.980000</ele>
<time>2009-12-30T12:00:55Z</time>
</trkpt>
<trkpt lat="37.969015" lon="-1.066930">
 <ele>81.400000</ele>
<time>2009-12-30T12:00:57Z</time>
</trkpt>
<trkpt lat="37.969141" lon="-1.066945">
 <ele>75.660000</ele>
<time>2009-12-30T12:01:04Z</time>
</trkpt>
<trkpt lat="37.969170" lon="-1.066993">
 <ele>74.020000</ele>
<time>2009-12-30T12:01:09Z</time>
</trkpt>
<trkpt lat="37.969245" lon="-1.067000">
 <ele>72.820000</ele>
<time>2009-12-30T12:01:12Z</time>
</trkpt>
<trkpt lat="37.969271" lon="-1.067023">
 <ele>72.020000</ele>
<time>2009-12-30T12:01:15Z</time>
</trkpt>
<trkpt lat="37.969297" lon="-1.067069">
 <ele>70.140000</ele>
<time>2009-12-30T12:01:17Z</time>
</trkpt>
<trkpt lat="37.969309" lon="-1.067053">
 <ele>70.940000</ele>
<time>2009-12-30T12:01:18Z</time>
</trkpt>
<trkpt lat="37.969316" lon="-1.067074">
 <ele>70.400000</ele>
<time>2009-12-30T12:01:19Z</time>
</trkpt>
<trkpt lat="37.969333" lon="-1.067198">
 <ele>72.780000</ele>
<time>2009-12-30T12:01:26Z</time>
</trkpt>
<trkpt lat="37.969359" lon="-1.067227">
 <ele>72.000000</ele>
<time>2009-12-30T12:01:27Z</time>
</trkpt>
<trkpt lat="37.969366" lon="-1.067216">
 <ele>75.680000</ele>
<time>2009-12-30T12:01:30Z</time>
</trkpt>
<trkpt lat="37.969368" lon="-1.067225">
 <ele>76.380000</ele>
<time>2009-12-30T12:01:31Z</time>
</trkpt>
<trkpt lat="37.969361" lon="-1.067234">
 <ele>77.440000</ele>
<time>2009-12-30T12:01:32Z</time>
</trkpt>
<trkpt lat="37.969360" lon="-1.067228">
 <ele>76.440000</ele>
<time>2009-12-30T12:01:33Z</time>
</trkpt>
<trkpt lat="37.969352" lon="-1.067231">
 <ele>76.880000</ele>
<time>2009-12-30T12:01:34Z</time>
</trkpt>
<trkpt lat="37.969360" lon="-1.067228">
 <ele>76.560000</ele>
<time>2009-12-30T12:01:35Z</time>
</trkpt>
<trkpt lat="37.969360" lon="-1.067228">
 <ele>76.400000</ele>
<time>2009-12-30T12:01:36Z</time>
</trkpt>
<trkpt lat="37.969373" lon="-1.067242">
 <ele>89.680000</ele>
<time>2009-12-30T12:01:47Z</time>
</trkpt>
<trkpt lat="37.969411" lon="-1.067279">
 <ele>132.280000</ele>
<time>2009-12-30T12:01:49Z</time>
</trkpt>
<trkpt lat="37.969423" lon="-1.067351">
 <ele>146.720000</ele>
<time>2009-12-30T12:01:51Z</time>
</trkpt>
<trkpt lat="37.969447" lon="-1.067436">
 <ele>128.380000</ele>
<time>2009-12-30T12:01:54Z</time>
</trkpt>
<trkpt lat="37.969476" lon="-1.067438">
 <ele>120.140000</ele>
<time>2009-12-30T12:01:58Z</time>
</trkpt>
<trkpt lat="37.969696" lon="-1.067229">
 <ele>97.000000</ele>
<time>2009-12-30T12:02:10Z</time>
</trkpt>
<trkpt lat="37.969913" lon="-1.067052">
 <ele>73.640000</ele>
<time>2009-12-30T12:02:21Z</time>
</trkpt>
<trkpt lat="37.970116" lon="-1.067071">
 <ele>71.300000</ele>
<time>2009-12-30T12:02:38Z</time>
</trkpt>
<trkpt lat="37.970139" lon="-1.067148">
 <ele>80.560000</ele>
<time>2009-12-30T12:02:42Z</time>
</trkpt>
<trkpt lat="37.970204" lon="-1.067218">
 <ele>82.860000</ele>
<time>2009-12-30T12:02:49Z</time>
</trkpt>
<trkpt lat="37.970275" lon="-1.067202">
 <ele>82.100000</ele>
<time>2009-12-30T12:02:54Z</time>
</trkpt>
<trkpt lat="37.970541" lon="-1.067064">
 <ele>73.700000</ele>
<time>2009-12-30T12:03:12Z</time>
</trkpt>
<trkpt lat="37.970672" lon="-1.066989">
 <ele>63.740000</ele>
<time>2009-12-30T12:03:20Z</time>
</trkpt>
<trkpt lat="37.970855" lon="-1.066917">
 <ele>57.820000</ele>
<time>2009-12-30T12:03:33Z</time>
</trkpt>
<trkpt lat="37.970894" lon="-1.066900">
 <ele>57.620000</ele>
<time>2009-12-30T12:03:36Z</time>
</trkpt>
<trkpt lat="37.971119" lon="-1.066741">
 <ele>50.000000</ele>
<time>2009-12-30T12:03:52Z</time>
</trkpt>
<trkpt lat="37.971221" lon="-1.066673">
 <ele>49.920000</ele>
<time>2009-12-30T12:04:01Z</time>
</trkpt>
<trkpt lat="37.971282" lon="-1.066649">
 <ele>54.220000</ele>
<time>2009-12-30T12:04:08Z</time>
</trkpt>
<trkpt lat="37.971376" lon="-1.066591">
 <ele>53.700000</ele>
<time>2009-12-30T12:04:16Z</time>
</trkpt>
<trkpt lat="37.971434" lon="-1.066558">
 <ele>55.320000</ele>
<time>2009-12-30T12:04:21Z</time>
</trkpt>
<trkpt lat="37.971589" lon="-1.066318">
 <ele>38.960000</ele>
<time>2009-12-30T12:04:31Z</time>
</trkpt>
<trkpt lat="37.971697" lon="-1.066169">
 <ele>31.120000</ele>
<time>2009-12-30T12:04:39Z</time>
</trkpt>
<trkpt lat="37.971763" lon="-1.066111">
 <ele>30.640000</ele>
<time>2009-12-30T12:04:46Z</time>
</trkpt>
<trkpt lat="37.971775" lon="-1.066103">
 <ele>32.040000</ele>
<time>2009-12-30T12:04:48Z</time>
</trkpt>
<trkpt lat="37.971807" lon="-1.066102">
 <ele>43.320000</ele>
<time>2009-12-30T12:04:55Z</time>
</trkpt>
<trkpt lat="37.971798" lon="-1.066153">
 <ele>58.100000</ele>
<time>2009-12-30T12:05:00Z</time>
</trkpt>
<trkpt lat="37.971794" lon="-1.066167">
 <ele>56.640000</ele>
<time>2009-12-30T12:05:01Z</time>
</trkpt>
<trkpt lat="37.971789" lon="-1.066175">
 <ele>59.540000</ele>
<time>2009-12-30T12:05:02Z</time>
</trkpt>
<trkpt lat="37.971787" lon="-1.066179">
 <ele>57.620000</ele>
<time>2009-12-30T12:05:03Z</time>
</trkpt>
<trkpt lat="37.971782" lon="-1.066186">
 <ele>57.740000</ele>
<time>2009-12-30T12:05:04Z</time>
</trkpt>
<trkpt lat="37.971798" lon="-1.066162">
 <ele>56.500000</ele>
<time>2009-12-30T12:05:05Z</time>
</trkpt>
<trkpt lat="37.971877" lon="-1.065970">
 <ele>54.320000</ele>
<time>2009-12-30T12:05:14Z</time>
</trkpt>
<trkpt lat="37.971907" lon="-1.065930">
 <ele>55.940000</ele>
<time>2009-12-30T12:05:18Z</time>
</trkpt>
<trkpt lat="37.971926" lon="-1.065886">
 <ele>58.060000</ele>
<time>2009-12-30T12:05:23Z</time>
</trkpt>
<trkpt lat="37.972038" lon="-1.065587">
 <ele>57.960000</ele>
<time>2009-12-30T12:05:44Z</time>
</trkpt>
<trkpt lat="37.972112" lon="-1.065468">
 <ele>58.460000</ele>
<time>2009-12-30T12:05:54Z</time>
</trkpt>
<trkpt lat="37.972268" lon="-1.065292">
 <ele>57.120000</ele>
<time>2009-12-30T12:06:12Z</time>
</trkpt>
<trkpt lat="37.972652" lon="-1.064940">
 <ele>57.480000</ele>
<time>2009-12-30T12:06:50Z</time>
</trkpt>
<trkpt lat="37.972665" lon="-1.064935">
 <ele>58.100000</ele>
<time>2009-12-30T12:06:51Z</time>
</trkpt>
<trkpt lat="37.972794" lon="-1.064937">
 <ele>61.500000</ele>
<time>2009-12-30T12:07:03Z</time>
</trkpt>
<trkpt lat="37.972860" lon="-1.064921">
 <ele>61.440000</ele>
<time>2009-12-30T12:07:08Z</time>
</trkpt>
<trkpt lat="37.972974" lon="-1.064909">
 <ele>63.240000</ele>
<time>2009-12-30T12:07:18Z</time>
</trkpt>
<trkpt lat="37.973028" lon="-1.064888">
 <ele>62.920000</ele>
<time>2009-12-30T12:07:22Z</time>
</trkpt>
<trkpt lat="37.973133" lon="-1.064823">
 <ele>60.720000</ele>
<time>2009-12-30T12:07:30Z</time>
</trkpt>
<trkpt lat="37.973367" lon="-1.064661">
 <ele>57.520000</ele>
<time>2009-12-30T12:07:50Z</time>
</trkpt>
<trkpt lat="37.973380" lon="-1.064645">
 <ele>58.640000</ele>
<time>2009-12-30T12:07:51Z</time>
</trkpt>
<trkpt lat="37.973394" lon="-1.064633">
 <ele>58.740000</ele>
<time>2009-12-30T12:07:52Z</time>
</trkpt>
<trkpt lat="37.973602" lon="-1.064404">
 <ele>57.400000</ele>
<time>2009-12-30T12:08:14Z</time>
</trkpt>
<trkpt lat="37.973722" lon="-1.064264">
 <ele>59.020000</ele>
<time>2009-12-30T12:08:27Z</time>
</trkpt>
<trkpt lat="37.973757" lon="-1.064231">
 <ele>60.600000</ele>
<time>2009-12-30T12:08:32Z</time>
</trkpt>
<trkpt lat="37.973770" lon="-1.064215">
 <ele>61.360000</ele>
<time>2009-12-30T12:08:33Z</time>
</trkpt>
<trkpt lat="37.974132" lon="-1.063684">
 <ele>62.520000</ele>
<time>2009-12-30T12:09:17Z</time>
</trkpt>
<trkpt lat="37.974176" lon="-1.063529">
 <ele>60.700000</ele>
<time>2009-12-30T12:09:27Z</time>
</trkpt>
<trkpt lat="37.974276" lon="-1.063419">
 <ele>64.880000</ele>
<time>2009-12-30T12:09:36Z</time>
</trkpt>
<trkpt lat="37.974271" lon="-1.063425">
 <ele>64.560000</ele>
<time>2009-12-30T12:09:37Z</time>
</trkpt>
<trkpt lat="37.974282" lon="-1.063413">
 <ele>64.480000</ele>
<time>2009-12-30T12:09:38Z</time>
</trkpt>
<trkpt lat="37.974320" lon="-1.063334">
 <ele>66.480000</ele>
<time>2009-12-30T12:09:42Z</time>
</trkpt>
<trkpt lat="37.974332" lon="-1.063341">
 <ele>65.600000</ele>
<time>2009-12-30T12:09:43Z</time>
</trkpt>
<trkpt lat="37.974336" lon="-1.063329">
 <ele>65.820000</ele>
<time>2009-12-30T12:09:44Z</time>
</trkpt>
<trkpt lat="37.974400" lon="-1.063268">
 <ele>65.620000</ele>
<time>2009-12-30T12:09:48Z</time>
</trkpt>
<trkpt lat="37.974450" lon="-1.063207">
 <ele>66.560000</ele>
<time>2009-12-30T12:09:52Z</time>
</trkpt>
<trkpt lat="37.974519" lon="-1.063047">
 <ele>69.980000</ele>
<time>2009-12-30T12:10:03Z</time>
</trkpt>
<trkpt lat="37.974538" lon="-1.063048">
 <ele>70.580000</ele>
<time>2009-12-30T12:10:05Z</time>
</trkpt>
<trkpt lat="37.974534" lon="-1.063032">
 <ele>71.860000</ele>
<time>2009-12-30T12:10:06Z</time>
</trkpt>
<trkpt lat="37.974541" lon="-1.062860">
 <ele>70.500000</ele>
<time>2009-12-30T12:10:17Z</time>
</trkpt>
<trkpt lat="37.974578" lon="-1.062779">
 <ele>72.940000</ele>
<time>2009-12-30T12:10:23Z</time>
</trkpt>
<trkpt lat="37.974584" lon="-1.062755">
 <ele>73.200000</ele>
<time>2009-12-30T12:10:24Z</time>
</trkpt>
<trkpt lat="37.974645" lon="-1.062683">
 <ele>73.400000</ele>
<time>2009-12-30T12:10:29Z</time>
</trkpt>
<trkpt lat="37.974798" lon="-1.062476">
 <ele>75.920000</ele>
<time>2009-12-30T12:10:44Z</time>
</trkpt>
<trkpt lat="37.974836" lon="-1.062427">
 <ele>75.280000</ele>
<time>2009-12-30T12:10:47Z</time>
</trkpt>
<trkpt lat="37.974831" lon="-1.062365">
 <ele>74.760000</ele>
<time>2009-12-30T12:10:52Z</time>
</trkpt>
<trkpt lat="37.974787" lon="-1.062339">
 <ele>71.820000</ele>
<time>2009-12-30T12:10:56Z</time>
</trkpt>
<trkpt lat="37.974718" lon="-1.062324">
 <ele>70.440000</ele>
<time>2009-12-30T12:10:59Z</time>
</trkpt>
<trkpt lat="37.974635" lon="-1.062273">
 <ele>65.620000</ele>
<time>2009-12-30T12:11:05Z</time>
</trkpt>
<trkpt lat="37.974659" lon="-1.062272">
 <ele>63.620000</ele>
<time>2009-12-30T12:11:08Z</time>
</trkpt>
<trkpt lat="37.974666" lon="-1.062278">
 <ele>63.940000</ele>
<time>2009-12-30T12:11:09Z</time>
</trkpt>
<trkpt lat="37.974673" lon="-1.062262">
 <ele>63.660000</ele>
<time>2009-12-30T12:11:10Z</time>
</trkpt>
<trkpt lat="37.974763" lon="-1.062139">
 <ele>59.280000</ele>
<time>2009-12-30T12:11:18Z</time>
</trkpt>
<trkpt lat="37.974767" lon="-1.062114">
 <ele>59.000000</ele>
<time>2009-12-30T12:11:19Z</time>
</trkpt>
<trkpt lat="37.974778" lon="-1.062091">
 <ele>58.400000</ele>
<time>2009-12-30T12:11:22Z</time>
</trkpt>
<trkpt lat="37.974771" lon="-1.062053">
 <ele>58.440000</ele>
<time>2009-12-30T12:11:23Z</time>
</trkpt>
<trkpt lat="37.974808" lon="-1.062036">
 <ele>58.100000</ele>
<time>2009-12-30T12:11:26Z</time>
</trkpt>
<trkpt lat="37.974811" lon="-1.062023">
 <ele>58.000000</ele>
<time>2009-12-30T12:11:27Z</time>
</trkpt>
<trkpt lat="37.974885" lon="-1.061934">
 <ele>60.380000</ele>
<time>2009-12-30T12:11:33Z</time>
</trkpt>
<trkpt lat="37.974899" lon="-1.061891">
 <ele>60.280000</ele>
<time>2009-12-30T12:11:35Z</time>
</trkpt>
<trkpt lat="37.974892" lon="-1.061901">
 <ele>58.880000</ele>
<time>2009-12-30T12:11:36Z</time>
</trkpt>
<trkpt lat="37.974911" lon="-1.061865">
 <ele>59.400000</ele>
<time>2009-12-30T12:11:37Z</time>
</trkpt>
<trkpt lat="37.974907" lon="-1.061830">
 <ele>59.860000</ele>
<time>2009-12-30T12:11:39Z</time>
</trkpt>
<trkpt lat="37.974918" lon="-1.061819">
 <ele>59.600000</ele>
<time>2009-12-30T12:11:40Z</time>
</trkpt>
<trkpt lat="37.974911" lon="-1.061818">
 <ele>59.720000</ele>
<time>2009-12-30T12:11:41Z</time>
</trkpt>
<trkpt lat="37.974893" lon="-1.061772">
 <ele>61.060000</ele>
<time>2009-12-30T12:11:45Z</time>
</trkpt>
<trkpt lat="37.974845" lon="-1.061762">
 <ele>60.960000</ele>
<time>2009-12-30T12:11:47Z</time>
</trkpt>
<trkpt lat="37.974763" lon="-1.061727">
 <ele>61.880000</ele>
<time>2009-12-30T12:11:55Z</time>
</trkpt>
<trkpt lat="37.974739" lon="-1.061671">
 <ele>62.880000</ele>
<time>2009-12-30T12:11:58Z</time>
</trkpt>
<trkpt lat="37.974679" lon="-1.061611">
 <ele>63.880000</ele>
<time>2009-12-30T12:12:05Z</time>
</trkpt>
<trkpt lat="37.974640" lon="-1.061558">
 <ele>63.020000</ele>
<time>2009-12-30T12:12:10Z</time>
</trkpt>
<trkpt lat="37.974683" lon="-1.061391">
 <ele>58.160000</ele>
<time>2009-12-30T12:12:21Z</time>
</trkpt>
<trkpt lat="37.974697" lon="-1.061360">
 <ele>58.440000</ele>
<time>2009-12-30T12:12:22Z</time>
</trkpt>
<trkpt lat="37.974732" lon="-1.061326">
 <ele>65.380000</ele>
<time>2009-12-30T12:12:28Z</time>
</trkpt>
<trkpt lat="37.974744" lon="-1.061333">
 <ele>64.640000</ele>
<time>2009-12-30T12:12:30Z</time>
</trkpt>
<trkpt lat="37.974761" lon="-1.061318">
 <ele>66.260000</ele>
<time>2009-12-30T12:12:33Z</time>
</trkpt>
<trkpt lat="37.974791" lon="-1.061308">
 <ele>65.120000</ele>
<time>2009-12-30T12:12:34Z</time>
</trkpt>
<trkpt lat="37.974811" lon="-1.061273">
 <ele>63.900000</ele>
<time>2009-12-30T12:12:37Z</time>
</trkpt>
<trkpt lat="37.974805" lon="-1.061246">
 <ele>64.100000</ele>
<time>2009-12-30T12:12:38Z</time>
</trkpt>
<trkpt lat="37.974836" lon="-1.061174">
 <ele>64.740000</ele>
<time>2009-12-30T12:12:42Z</time>
</trkpt>
<trkpt lat="37.974831" lon="-1.061108">
 <ele>67.640000</ele>
<time>2009-12-30T12:12:45Z</time>
</trkpt>
<trkpt lat="37.974827" lon="-1.061085">
 <ele>70.760000</ele>
<time>2009-12-30T12:12:48Z</time>
</trkpt>
<trkpt lat="37.974825" lon="-1.061068">
 <ele>70.900000</ele>
<time>2009-12-30T12:12:49Z</time>
</trkpt>
<trkpt lat="37.974875" lon="-1.060995">
 <ele>75.540000</ele>
<time>2009-12-30T12:12:55Z</time>
</trkpt>
<trkpt lat="37.974876" lon="-1.060978">
 <ele>76.060000</ele>
<time>2009-12-30T12:12:57Z</time>
</trkpt>
<trkpt lat="37.974871" lon="-1.060966">
 <ele>77.760000</ele>
<time>2009-12-30T12:12:58Z</time>
</trkpt>
<trkpt lat="37.974898" lon="-1.060893">
 <ele>80.420000</ele>
<time>2009-12-30T12:13:01Z</time>
</trkpt>
<trkpt lat="37.974896" lon="-1.060894">
 <ele>80.880000</ele>
<time>2009-12-30T12:13:02Z</time>
</trkpt>
<trkpt lat="37.974882" lon="-1.060895">
 <ele>82.940000</ele>
<time>2009-12-30T12:13:03Z</time>
</trkpt>
<trkpt lat="37.974869" lon="-1.060871">
 <ele>80.680000</ele>
<time>2009-12-30T12:13:04Z</time>
</trkpt>
<trkpt lat="37.974884" lon="-1.060869">
 <ele>81.840000</ele>
<time>2009-12-30T12:13:05Z</time>
</trkpt>
<trkpt lat="37.974925" lon="-1.060822">
 <ele>79.020000</ele>
<time>2009-12-30T12:13:08Z</time>
</trkpt>
<trkpt lat="37.974926" lon="-1.060771">
 <ele>77.400000</ele>
<time>2009-12-30T12:13:10Z</time>
</trkpt>
<trkpt lat="37.974910" lon="-1.060770">
 <ele>78.360000</ele>
<time>2009-12-30T12:13:11Z</time>
</trkpt>
<trkpt lat="37.974912" lon="-1.060755">
 <ele>78.860000</ele>
<time>2009-12-30T12:13:12Z</time>
</trkpt>
<trkpt lat="37.974924" lon="-1.060617">
 <ele>79.320000</ele>
<time>2009-12-30T12:13:20Z</time>
</trkpt>
<trkpt lat="37.974946" lon="-1.060599">
 <ele>79.560000</ele>
<time>2009-12-30T12:13:22Z</time>
</trkpt>
<trkpt lat="37.975002" lon="-1.060523">
 <ele>79.540000</ele>
<time>2009-12-30T12:13:26Z</time>
</trkpt>
<trkpt lat="37.975020" lon="-1.060484">
 <ele>75.880000</ele>
<time>2009-12-30T12:13:30Z</time>
</trkpt>
<trkpt lat="37.975010" lon="-1.060457">
 <ele>76.240000</ele>
<time>2009-12-30T12:13:31Z</time>
</trkpt>
<trkpt lat="37.975030" lon="-1.060434">
 <ele>74.960000</ele>
<time>2009-12-30T12:13:33Z</time>
</trkpt>
<trkpt lat="37.975040" lon="-1.060365">
 <ele>76.340000</ele>
<time>2009-12-30T12:13:36Z</time>
</trkpt>
<trkpt lat="37.975060" lon="-1.060319">
 <ele>81.620000</ele>
<time>2009-12-30T12:13:42Z</time>
</trkpt>
<trkpt lat="37.975054" lon="-1.060318">
 <ele>82.800000</ele>
<time>2009-12-30T12:13:43Z</time>
</trkpt>
<trkpt lat="37.975059" lon="-1.060294">
 <ele>82.720000</ele>
<time>2009-12-30T12:13:44Z</time>
</trkpt>
<trkpt lat="37.975020" lon="-1.060245">
 <ele>84.340000</ele>
<time>2009-12-30T12:13:49Z</time>
</trkpt>
<trkpt lat="37.975007" lon="-1.060237">
 <ele>85.560000</ele>
<time>2009-12-30T12:13:51Z</time>
</trkpt>
<trkpt lat="37.974990" lon="-1.060153">
 <ele>83.320000</ele>
<time>2009-12-30T12:13:55Z</time>
</trkpt>
<trkpt lat="37.974976" lon="-1.060008">
 <ele>82.880000</ele>
<time>2009-12-30T12:13:59Z</time>
</trkpt>
<trkpt lat="37.974960" lon="-1.059885">
 <ele>82.980000</ele>
<time>2009-12-30T12:14:01Z</time>
</trkpt>
<trkpt lat="37.974990" lon="-1.059706">
 <ele>82.840000</ele>
<time>2009-12-30T12:14:06Z</time>
</trkpt>
<trkpt lat="37.975041" lon="-1.059680">
 <ele>79.160000</ele>
<time>2009-12-30T12:14:10Z</time>
</trkpt>
<trkpt lat="37.975088" lon="-1.059624">
 <ele>82.340000</ele>
<time>2009-12-30T12:14:15Z</time>
</trkpt>
<trkpt lat="37.975067" lon="-1.059560">
 <ele>82.360000</ele>
<time>2009-12-30T12:14:18Z</time>
</trkpt>
<trkpt lat="37.975107" lon="-1.059503">
 <ele>85.060000</ele>
<time>2009-12-30T12:14:20Z</time>
</trkpt>
<trkpt lat="37.975173" lon="-1.059403">
 <ele>86.040000</ele>
<time>2009-12-30T12:14:26Z</time>
</trkpt>
<trkpt lat="37.975247" lon="-1.059431">
 <ele>84.020000</ele>
<time>2009-12-30T12:14:32Z</time>
</trkpt>
<trkpt lat="37.975267" lon="-1.059425">
 <ele>84.240000</ele>
<time>2009-12-30T12:14:34Z</time>
</trkpt>
<trkpt lat="37.975276" lon="-1.059437">
 <ele>84.740000</ele>
<time>2009-12-30T12:14:35Z</time>
</trkpt>
<trkpt lat="37.975294" lon="-1.059433">
 <ele>84.900000</ele>
<time>2009-12-30T12:14:37Z</time>
</trkpt>
<trkpt lat="37.975275" lon="-1.059388">
 <ele>83.660000</ele>
<time>2009-12-30T12:14:40Z</time>
</trkpt>
<trkpt lat="37.975285" lon="-1.059396">
 <ele>83.740000</ele>
<time>2009-12-30T12:14:41Z</time>
</trkpt>
<trkpt lat="37.975296" lon="-1.059391">
 <ele>82.540000</ele>
<time>2009-12-30T12:14:43Z</time>
</trkpt>
<trkpt lat="37.975314" lon="-1.059374">
 <ele>84.120000</ele>
<time>2009-12-30T12:14:45Z</time>
</trkpt>
<trkpt lat="37.975314" lon="-1.059339">
 <ele>85.540000</ele>
<time>2009-12-30T12:14:48Z</time>
</trkpt>
<trkpt lat="37.975326" lon="-1.059310">
 <ele>85.180000</ele>
<time>2009-12-30T12:14:49Z</time>
</trkpt>
<trkpt lat="37.975346" lon="-1.059278">
 <ele>90.980000</ele>
<time>2009-12-30T12:14:54Z</time>
</trkpt>
<trkpt lat="37.975340" lon="-1.059272">
 <ele>91.180000</ele>
<time>2009-12-30T12:14:55Z</time>
</trkpt>
<trkpt lat="37.975351" lon="-1.059268">
 <ele>92.880000</ele>
<time>2009-12-30T12:14:56Z</time>
</trkpt>
<trkpt lat="37.975343" lon="-1.059254">
 <ele>95.200000</ele>
<time>2009-12-30T12:14:57Z</time>
</trkpt>
<trkpt lat="37.975368" lon="-1.059183">
 <ele>93.840000</ele>
<time>2009-12-30T12:14:59Z</time>
</trkpt>
<trkpt lat="37.975370" lon="-1.059155">
 <ele>97.400000</ele>
<time>2009-12-30T12:15:02Z</time>
</trkpt>
<trkpt lat="37.975389" lon="-1.059156">
 <ele>96.300000</ele>
<time>2009-12-30T12:15:03Z</time>
</trkpt>
<trkpt lat="37.975392" lon="-1.059152">
 <ele>97.660000</ele>
<time>2009-12-30T12:15:04Z</time>
</trkpt>
<trkpt lat="37.975387" lon="-1.059148">
 <ele>96.480000</ele>
<time>2009-12-30T12:15:05Z</time>
</trkpt>
<trkpt lat="37.975441" lon="-1.059086">
 <ele>91.500000</ele>
<time>2009-12-30T12:15:08Z</time>
</trkpt>
<trkpt lat="37.975474" lon="-1.058964">
 <ele>86.420000</ele>
<time>2009-12-30T12:15:13Z</time>
</trkpt>
<trkpt lat="37.975484" lon="-1.058963">
 <ele>83.320000</ele>
<time>2009-12-30T12:15:15Z</time>
</trkpt>
<trkpt lat="37.975512" lon="-1.058928">
 <ele>81.220000</ele>
<time>2009-12-30T12:15:17Z</time>
</trkpt>
<trkpt lat="37.975544" lon="-1.058873">
 <ele>78.840000</ele>
<time>2009-12-30T12:15:22Z</time>
</trkpt>
<trkpt lat="37.975555" lon="-1.058862">
 <ele>79.420000</ele>
<time>2009-12-30T12:15:23Z</time>
</trkpt>
<trkpt lat="37.975546" lon="-1.058876">
 <ele>80.880000</ele>
<time>2009-12-30T12:15:24Z</time>
</trkpt>
<trkpt lat="37.975560" lon="-1.058881">
 <ele>79.720000</ele>
<time>2009-12-30T12:15:25Z</time>
</trkpt>
<trkpt lat="37.975563" lon="-1.058873">
 <ele>80.700000</ele>
<time>2009-12-30T12:15:26Z</time>
</trkpt>
<trkpt lat="37.975572" lon="-1.058887">
 <ele>80.700000</ele>
<time>2009-12-30T12:15:27Z</time>
</trkpt>
<trkpt lat="37.975565" lon="-1.058878">
 <ele>80.860000</ele>
<time>2009-12-30T12:15:28Z</time>
</trkpt>
<trkpt lat="37.975574" lon="-1.058876">
 <ele>79.760000</ele>
<time>2009-12-30T12:15:29Z</time>
</trkpt>
<trkpt lat="37.975598" lon="-1.058857">
 <ele>80.180000</ele>
<time>2009-12-30T12:15:31Z</time>
</trkpt>
<trkpt lat="37.975592" lon="-1.058880">
 <ele>80.080000</ele>
<time>2009-12-30T12:15:32Z</time>
</trkpt>
<trkpt lat="37.975588" lon="-1.058877">
 <ele>79.840000</ele>
<time>2009-12-30T12:15:33Z</time>
</trkpt>
<trkpt lat="37.975609" lon="-1.058851">
 <ele>79.080000</ele>
<time>2009-12-30T12:15:35Z</time>
</trkpt>
<trkpt lat="37.975630" lon="-1.058816">
 <ele>77.960000</ele>
<time>2009-12-30T12:15:38Z</time>
</trkpt>
<trkpt lat="37.975635" lon="-1.058814">
 <ele>78.100000</ele>
<time>2009-12-30T12:15:39Z</time>
</trkpt>
<trkpt lat="37.975639" lon="-1.058817">
 <ele>78.320000</ele>
<time>2009-12-30T12:15:40Z</time>
</trkpt>
<trkpt lat="37.975632" lon="-1.058822">
 <ele>78.320000</ele>
<time>2009-12-30T12:15:41Z</time>
</trkpt>
<trkpt lat="37.975638" lon="-1.058812">
 <ele>78.400000</ele>
<time>2009-12-30T12:15:42Z</time>
</trkpt>
<trkpt lat="37.975803" lon="-1.058488">
 <ele>70.060000</ele>
<time>2009-12-30T12:16:06Z</time>
</trkpt>
<trkpt lat="37.975832" lon="-1.058353">
 <ele>68.740000</ele>
<time>2009-12-30T12:16:12Z</time>
</trkpt>
<trkpt lat="37.975857" lon="-1.058335">
 <ele>66.840000</ele>
<time>2009-12-30T12:16:15Z</time>
</trkpt>
<trkpt lat="37.975855" lon="-1.058344">
 <ele>67.400000</ele>
<time>2009-12-30T12:16:16Z</time>
</trkpt>
<trkpt lat="37.975858" lon="-1.058347">
 <ele>66.140000</ele>
<time>2009-12-30T12:16:17Z</time>
</trkpt>
<trkpt lat="37.975867" lon="-1.058330">
 <ele>67.260000</ele>
<time>2009-12-30T12:16:18Z</time>
</trkpt>
<trkpt lat="37.975860" lon="-1.058327">
 <ele>66.680000</ele>
<time>2009-12-30T12:16:19Z</time>
</trkpt>
<trkpt lat="37.975867" lon="-1.058327">
 <ele>66.920000</ele>
<time>2009-12-30T12:16:20Z</time>
</trkpt>
<trkpt lat="37.975867" lon="-1.058327">
 <ele>67.000000</ele>
<time>2009-12-30T12:16:21Z</time>
</trkpt>
<trkpt lat="37.975883" lon="-1.058324">
 <ele>64.880000</ele>
<time>2009-12-30T12:16:26Z</time>
</trkpt>
<trkpt lat="37.975990" lon="-1.058341">
 <ele>58.120000</ele>
<time>2009-12-30T12:16:34Z</time>
</trkpt>
<trkpt lat="37.976005" lon="-1.058325">
 <ele>56.980000</ele>
<time>2009-12-30T12:16:36Z</time>
</trkpt>
<trkpt lat="37.976018" lon="-1.058322">
 <ele>55.960000</ele>
<time>2009-12-30T12:16:38Z</time>
</trkpt>
<trkpt lat="37.976029" lon="-1.058373">
 <ele>54.460000</ele>
<time>2009-12-30T12:16:40Z</time>
</trkpt>
<trkpt lat="37.976102" lon="-1.058424">
 <ele>53.840000</ele>
<time>2009-12-30T12:16:45Z</time>
</trkpt>
<trkpt lat="37.976140" lon="-1.058474">
 <ele>55.040000</ele>
<time>2009-12-30T12:16:52Z</time>
</trkpt>
<trkpt lat="37.976157" lon="-1.058468">
 <ele>54.020000</ele>
<time>2009-12-30T12:16:53Z</time>
</trkpt>
<trkpt lat="37.976201" lon="-1.058469">
 <ele>54.260000</ele>
<time>2009-12-30T12:16:57Z</time>
</trkpt>
<trkpt lat="37.976213" lon="-1.058466">
 <ele>54.560000</ele>
<time>2009-12-30T12:16:58Z</time>
</trkpt>
<trkpt lat="37.976220" lon="-1.058463">
 <ele>55.200000</ele>
<time>2009-12-30T12:16:59Z</time>
</trkpt>
<trkpt lat="37.976219" lon="-1.058466">
 <ele>54.840000</ele>
<time>2009-12-30T12:17:00Z</time>
</trkpt>
<trkpt lat="37.976229" lon="-1.058465">
 <ele>54.920000</ele>
<time>2009-12-30T12:17:01Z</time>
</trkpt>
<trkpt lat="37.976284" lon="-1.058513">
 <ele>54.420000</ele>
<time>2009-12-30T12:17:04Z</time>
</trkpt>
<trkpt lat="37.976385" lon="-1.058554">
 <ele>56.480000</ele>
<time>2009-12-30T12:17:11Z</time>
</trkpt>
<trkpt lat="37.976391" lon="-1.058530">
 <ele>57.600000</ele>
<time>2009-12-30T12:17:16Z</time>
</trkpt>
<trkpt lat="37.976394" lon="-1.058551">
 <ele>57.760000</ele>
<time>2009-12-30T12:17:17Z</time>
</trkpt>
<trkpt lat="37.976394" lon="-1.058542">
 <ele>57.660000</ele>
<time>2009-12-30T12:17:18Z</time>
</trkpt>
<trkpt lat="37.976452" lon="-1.058537">
 <ele>60.240000</ele>
<time>2009-12-30T12:17:23Z</time>
</trkpt>
<trkpt lat="37.976504" lon="-1.058501">
 <ele>61.440000</ele>
<time>2009-12-30T12:17:25Z</time>
</trkpt>
<trkpt lat="37.976576" lon="-1.058514">
 <ele>60.300000</ele>
<time>2009-12-30T12:17:29Z</time>
</trkpt>
<trkpt lat="37.976600" lon="-1.058483">
 <ele>60.200000</ele>
<time>2009-12-30T12:17:30Z</time>
</trkpt>
<trkpt lat="37.976592" lon="-1.058465">
 <ele>60.200000</ele>
<time>2009-12-30T12:17:33Z</time>
</trkpt>
<trkpt lat="37.976587" lon="-1.058469">
 <ele>59.940000</ele>
<time>2009-12-30T12:17:34Z</time>
</trkpt>
<trkpt lat="37.976577" lon="-1.058471">
 <ele>60.540000</ele>
<time>2009-12-30T12:17:35Z</time>
</trkpt>
<trkpt lat="37.976572" lon="-1.058471">
 <ele>61.140000</ele>
<time>2009-12-30T12:17:36Z</time>
</trkpt>
<trkpt lat="37.976583" lon="-1.058477">
 <ele>60.120000</ele>
<time>2009-12-30T12:17:37Z</time>
</trkpt>
<trkpt lat="37.976580" lon="-1.058472">
 <ele>61.000000</ele>
<time>2009-12-30T12:17:38Z</time>
</trkpt>
<trkpt lat="37.976580" lon="-1.058472">
 <ele>60.600000</ele>
<time>2009-12-30T12:17:39Z</time>
</trkpt>
<trkpt lat="37.976596" lon="-1.058477">
 <ele>62.520000</ele>
<time>2009-12-30T12:17:45Z</time>
</trkpt>
<trkpt lat="37.976715" lon="-1.058452">
 <ele>65.200000</ele>
<time>2009-12-30T12:17:50Z</time>
</trkpt>
<trkpt lat="37.976757" lon="-1.058431">
 <ele>69.260000</ele>
<time>2009-12-30T12:17:54Z</time>
</trkpt>
<trkpt lat="37.976775" lon="-1.058431">
 <ele>70.160000</ele>
<time>2009-12-30T12:17:56Z</time>
</trkpt>
<trkpt lat="37.976836" lon="-1.058411">
 <ele>72.840000</ele>
<time>2009-12-30T12:18:00Z</time>
</trkpt>
<trkpt lat="37.976865" lon="-1.058436">
 <ele>71.800000</ele>
<time>2009-12-30T12:18:04Z</time>
</trkpt>
<trkpt lat="37.976907" lon="-1.058461">
 <ele>69.960000</ele>
<time>2009-12-30T12:18:06Z</time>
</trkpt>
<trkpt lat="37.976910" lon="-1.058464">
 <ele>68.180000</ele>
<time>2009-12-30T12:18:08Z</time>
</trkpt>
<trkpt lat="37.976948" lon="-1.058545">
 <ele>67.240000</ele>
<time>2009-12-30T12:18:11Z</time>
</trkpt>
<trkpt lat="37.976986" lon="-1.058588">
 <ele>67.140000</ele>
<time>2009-12-30T12:18:15Z</time>
</trkpt>
<trkpt lat="37.977000" lon="-1.058624">
 <ele>68.060000</ele>
<time>2009-12-30T12:18:17Z</time>
</trkpt>
<trkpt lat="37.977079" lon="-1.058774">
 <ele>67.520000</ele>
<time>2009-12-30T12:18:23Z</time>
</trkpt>
<trkpt lat="37.977071" lon="-1.058776">
 <ele>67.400000</ele>
<time>2009-12-30T12:18:24Z</time>
</trkpt>
<trkpt lat="37.977082" lon="-1.058771">
 <ele>67.300000</ele>
<time>2009-12-30T12:18:25Z</time>
</trkpt>
<trkpt lat="37.977082" lon="-1.058790">
 <ele>68.960000</ele>
<time>2009-12-30T12:18:26Z</time>
</trkpt>
<trkpt lat="37.977133" lon="-1.058851">
 <ele>65.040000</ele>
<time>2009-12-30T12:18:29Z</time>
</trkpt>
<trkpt lat="37.977117" lon="-1.058856">
 <ele>65.880000</ele>
<time>2009-12-30T12:18:31Z</time>
</trkpt>
<trkpt lat="37.977090" lon="-1.058881">
 <ele>62.420000</ele>
<time>2009-12-30T12:18:33Z</time>
</trkpt>
<trkpt lat="37.977087" lon="-1.058890">
 <ele>61.660000</ele>
<time>2009-12-30T12:18:34Z</time>
</trkpt>
<trkpt lat="37.977125" lon="-1.058956">
 <ele>62.160000</ele>
<time>2009-12-30T12:18:38Z</time>
</trkpt>
<trkpt lat="37.977126" lon="-1.058949">
 <ele>61.720000</ele>
<time>2009-12-30T12:18:40Z</time>
</trkpt>
<trkpt lat="37.977130" lon="-1.058946">
 <ele>62.520000</ele>
<time>2009-12-30T12:18:41Z</time>
</trkpt>
<trkpt lat="37.977130" lon="-1.058926">
 <ele>61.060000</ele>
<time>2009-12-30T12:18:42Z</time>
</trkpt>
<trkpt lat="37.977128" lon="-1.058936">
 <ele>61.380000</ele>
<time>2009-12-30T12:18:43Z</time>
</trkpt>
<trkpt lat="37.977131" lon="-1.058940">
 <ele>62.020000</ele>
<time>2009-12-30T12:18:44Z</time>
</trkpt>
<trkpt lat="37.977132" lon="-1.058938">
 <ele>61.380000</ele>
<time>2009-12-30T12:18:45Z</time>
</trkpt>
<trkpt lat="37.977132" lon="-1.058938">
 <ele>61.700000</ele>
<time>2009-12-30T12:18:46Z</time>
</trkpt>
</trkseg>
</trk>
</gpx>
